<?xml version="1.0" encoding="UTF-8"?><gpx creator="Garmin Connect" version="1.1"
xsi:schemaLocation="http://www.topografix.com/GPX/1/1 http://www.topografix.com/GPX/11.xsd"
xmlns:ns3="http://www.garmin.com/xmlschemas/TrackPointExtension/v1"
xmlns="http://www.topografix.com/GPX/1/1"
xmlns:xsi="http://www.w3.org/2001/XMLSchema-instance"
xmlns:ns2="http://www.garmin.com/xmlschemas/GpxExtensions/v3"><metadata><time>2026-04-13T11:15:16.000Z</time></metadata><trk><type>20260413Outdoor walk</type><extensions><totalTime>3683</totalTime><cumulativeDecrease>179</cumulativeDecrease><cumulativeClimb>162.4</cumulativeClimb><totalDistance>2390</totalDistance><routeType>0</routeType></extensions><trkseg><trkpt lat="42.132326" lon="23.152432"><ele>571.2</ele><time>2026-04-13T11:15:16.000Z</time></trkpt>
<trkpt lat="42.132325" lon="23.152424"><ele>571.2</ele><time>2026-04-13T11:15:17.000Z</time></trkpt>
<trkpt lat="42.132322" lon="23.152415"><ele>571.2</ele><time>2026-04-13T11:15:18.000Z</time></trkpt>
<trkpt lat="42.13232" lon="23.152407"><ele>571.2</ele><time>2026-04-13T11:15:19.000Z</time></trkpt>
<trkpt lat="42.132317" lon="23.152399"><ele>571.2</ele><time>2026-04-13T11:15:20.000Z</time></trkpt>
<trkpt lat="42.132314" lon="23.152391"><ele>571.2</ele><time>2026-04-13T11:15:21.000Z</time></trkpt>
<trkpt lat="42.13231" lon="23.152382"><ele>571.2</ele><time>2026-04-13T11:15:22.000Z</time></trkpt>
<trkpt lat="42.132307" lon="23.152372"><ele>571.2</ele><time>2026-04-13T11:15:23.000Z</time></trkpt>
<trkpt lat="42.132304" lon="23.152361"><ele>571.2</ele><time>2026-04-13T11:15:24.000Z</time></trkpt>
<trkpt lat="42.132301" lon="23.152348"><ele>571.2</ele><time>2026-04-13T11:15:25.000Z</time></trkpt>
<trkpt lat="42.132298" lon="23.152335"><ele>571.2</ele><time>2026-04-13T11:15:26.000Z</time></trkpt>
<trkpt lat="42.132294" lon="23.152321"><ele>571.2</ele><time>2026-04-13T11:15:27.000Z</time></trkpt>
<trkpt lat="42.13229" lon="23.152307"><ele>571.2</ele><time>2026-04-13T11:15:28.000Z</time></trkpt>
<trkpt lat="42.132286" lon="23.152293"><ele>571.2</ele><time>2026-04-13T11:15:29.000Z</time></trkpt>
<trkpt lat="42.132281" lon="23.15228"><ele>571.2</ele><time>2026-04-13T11:15:30.000Z</time></trkpt>
<trkpt lat="42.132277" lon="23.152267"><ele>571.2</ele><time>2026-04-13T11:15:31.000Z</time></trkpt>
<trkpt lat="42.132272" lon="23.152255"><ele>571.2</ele><time>2026-04-13T11:15:32.000Z</time></trkpt>
<trkpt lat="42.132267" lon="23.152244"><ele>571.3</ele><time>2026-04-13T11:15:33.000Z</time></trkpt>
<trkpt lat="42.132261" lon="23.152233"><ele>571.3</ele><time>2026-04-13T11:15:34.000Z</time></trkpt>
<trkpt lat="42.132256" lon="23.152222"><ele>571.3</ele><time>2026-04-13T11:15:35.000Z</time></trkpt>
<trkpt lat="42.132249" lon="23.152211"><ele>571.3</ele><time>2026-04-13T11:15:36.000Z</time></trkpt>
<trkpt lat="42.132243" lon="23.152199"><ele>571.3</ele><time>2026-04-13T11:15:37.000Z</time></trkpt>
<trkpt lat="42.132236" lon="23.152187"><ele>571.5</ele><time>2026-04-13T11:15:38.000Z</time></trkpt>
<trkpt lat="42.132229" lon="23.152174"><ele>571.5</ele><time>2026-04-13T11:15:39.000Z</time></trkpt>
<trkpt lat="42.132222" lon="23.152161"><ele>571.5</ele><time>2026-04-13T11:15:40.000Z</time></trkpt>
<trkpt lat="42.132216" lon="23.152148"><ele>571.5</ele><time>2026-04-13T11:15:41.000Z</time></trkpt>
<trkpt lat="42.13221" lon="23.152135"><ele>571.5</ele><time>2026-04-13T11:15:42.000Z</time></trkpt>
<trkpt lat="42.132206" lon="23.152122"><ele>571.8</ele><time>2026-04-13T11:15:43.000Z</time></trkpt>
<trkpt lat="42.132203" lon="23.152108"><ele>571.8</ele><time>2026-04-13T11:15:44.000Z</time></trkpt>
<trkpt lat="42.132201" lon="23.152093"><ele>571.8</ele><time>2026-04-13T11:15:45.000Z</time></trkpt>
<trkpt lat="42.132202" lon="23.152077"><ele>571.8</ele><time>2026-04-13T11:15:46.000Z</time></trkpt>
<trkpt lat="42.132203" lon="23.152062"><ele>571.8</ele><time>2026-04-13T11:15:47.000Z</time></trkpt>
<trkpt lat="42.132205" lon="23.152048"><ele>571.9</ele><time>2026-04-13T11:15:48.000Z</time></trkpt>
<trkpt lat="42.132207" lon="23.152033"><ele>571.9</ele><time>2026-04-13T11:15:49.000Z</time></trkpt>
<trkpt lat="42.132209" lon="23.152019"><ele>571.9</ele><time>2026-04-13T11:15:50.000Z</time></trkpt>
<trkpt lat="42.132212" lon="23.152005"><ele>571.9</ele><time>2026-04-13T11:15:51.000Z</time></trkpt>
<trkpt lat="42.132215" lon="23.151991"><ele>571.9</ele><time>2026-04-13T11:15:52.000Z</time></trkpt>
<trkpt lat="42.132218" lon="23.151977"><ele>571.9</ele><time>2026-04-13T11:15:53.000Z</time></trkpt>
<trkpt lat="42.132222" lon="23.151963"><ele>571.9</ele><time>2026-04-13T11:15:54.000Z</time></trkpt>
<trkpt lat="42.132227" lon="23.151951"><ele>571.9</ele><time>2026-04-13T11:15:55.000Z</time></trkpt>
<trkpt lat="42.132232" lon="23.151939"><ele>571.9</ele><time>2026-04-13T11:15:56.000Z</time></trkpt>
<trkpt lat="42.132238" lon="23.151927"><ele>571.9</ele><time>2026-04-13T11:15:57.000Z</time></trkpt>
<trkpt lat="42.132244" lon="23.151915"><ele>571.9</ele><time>2026-04-13T11:15:58.000Z</time></trkpt>
<trkpt lat="42.13225" lon="23.151903"><ele>571.9</ele><time>2026-04-13T11:15:59.000Z</time></trkpt>
<trkpt lat="42.132256" lon="23.151891"><ele>571.9</ele><time>2026-04-13T11:16:00.000Z</time></trkpt>
<trkpt lat="42.132261" lon="23.151879"><ele>571.9</ele><time>2026-04-13T11:16:01.000Z</time></trkpt>
<trkpt lat="42.132265" lon="23.151866"><ele>571.9</ele><time>2026-04-13T11:16:02.000Z</time></trkpt>
<trkpt lat="42.132268" lon="23.151851"><ele>571.9</ele><time>2026-04-13T11:16:03.000Z</time></trkpt>
<trkpt lat="42.13227" lon="23.151836"><ele>571.9</ele><time>2026-04-13T11:16:04.000Z</time></trkpt>
<trkpt lat="42.132271" lon="23.15182"><ele>571.9</ele><time>2026-04-13T11:16:05.000Z</time></trkpt>
<trkpt lat="42.132271" lon="23.151804"><ele>571.9</ele><time>2026-04-13T11:16:06.000Z</time></trkpt>
<trkpt lat="42.13227" lon="23.151789"><ele>571.9</ele><time>2026-04-13T11:16:07.000Z</time></trkpt>
<trkpt lat="42.132268" lon="23.151774"><ele>571.9</ele><time>2026-04-13T11:16:08.000Z</time></trkpt>
<trkpt lat="42.132265" lon="23.15176"><ele>571.9</ele><time>2026-04-13T11:16:09.000Z</time></trkpt>
<trkpt lat="42.132261" lon="23.151746"><ele>571.9</ele><time>2026-04-13T11:16:10.000Z</time></trkpt>
<trkpt lat="42.132257" lon="23.151733"><ele>571.9</ele><time>2026-04-13T11:16:11.000Z</time></trkpt>
<trkpt lat="42.132253" lon="23.151718"><ele>571.9</ele><time>2026-04-13T11:16:12.000Z</time></trkpt>
<trkpt lat="42.132248" lon="23.151704"><ele>571.9</ele><time>2026-04-13T11:16:13.000Z</time></trkpt>
<trkpt lat="42.132244" lon="23.15169"><ele>571.9</ele><time>2026-04-13T11:16:14.000Z</time></trkpt>
<trkpt lat="42.132239" lon="23.151676"><ele>571.9</ele><time>2026-04-13T11:16:15.000Z</time></trkpt>
<trkpt lat="42.132234" lon="23.151664"><ele>571.9</ele><time>2026-04-13T11:16:16.000Z</time></trkpt>
<trkpt lat="42.132228" lon="23.151654"><ele>571.9</ele><time>2026-04-13T11:16:17.000Z</time></trkpt>
<trkpt lat="42.132221" lon="23.151646"><ele>572.1</ele><time>2026-04-13T11:16:18.000Z</time></trkpt>
<trkpt lat="42.132215" lon="23.151638"><ele>572.1</ele><time>2026-04-13T11:16:19.000Z</time></trkpt>
<trkpt lat="42.132209" lon="23.151632"><ele>572.1</ele><time>2026-04-13T11:16:20.000Z</time></trkpt>
<trkpt lat="42.132203" lon="23.151627"><ele>572.1</ele><time>2026-04-13T11:16:21.000Z</time></trkpt>
<trkpt lat="42.132198" lon="23.151623"><ele>572.1</ele><time>2026-04-13T11:16:22.000Z</time></trkpt>
<trkpt lat="42.132194" lon="23.151619"><ele>572.4</ele><time>2026-04-13T11:16:23.000Z</time></trkpt>
<trkpt lat="42.13219" lon="23.151617"><ele>572.4</ele><time>2026-04-13T11:16:24.000Z</time></trkpt>
<trkpt lat="42.132187" lon="23.151616"><ele>572.4</ele><time>2026-04-13T11:16:25.000Z</time></trkpt>
<trkpt lat="42.132185" lon="23.151615"><ele>572.4</ele><time>2026-04-13T11:16:26.000Z</time></trkpt>
<trkpt lat="42.132184" lon="23.151613"><ele>572.4</ele><time>2026-04-13T11:16:27.000Z</time></trkpt>
<trkpt lat="42.132183" lon="23.151612"><ele>573.2</ele><time>2026-04-13T11:16:28.000Z</time></trkpt>
<trkpt lat="42.132182" lon="23.15161"><ele>573.2</ele><time>2026-04-13T11:16:29.000Z</time></trkpt>
<trkpt lat="42.132181" lon="23.151608"><ele>573.2</ele><time>2026-04-13T11:16:30.000Z</time></trkpt>
<trkpt lat="42.132181" lon="23.151607"><ele>573.2</ele><time>2026-04-13T11:16:31.000Z</time></trkpt>
<trkpt lat="42.13218" lon="23.151605"><ele>573.2</ele><time>2026-04-13T11:16:32.000Z</time></trkpt>
<trkpt lat="42.132179" lon="23.151603"><ele>573.8</ele><time>2026-04-13T11:16:33.000Z</time></trkpt>
<trkpt lat="42.132178" lon="23.151601"><ele>573.8</ele><time>2026-04-13T11:16:34.000Z</time></trkpt>
<trkpt lat="42.132177" lon="23.151599"><ele>573.8</ele><time>2026-04-13T11:16:35.000Z</time></trkpt>
<trkpt lat="42.132175" lon="23.151597"><ele>573.8</ele><time>2026-04-13T11:16:36.000Z</time></trkpt>
<trkpt lat="42.132174" lon="23.151595"><ele>573.8</ele><time>2026-04-13T11:16:37.000Z</time></trkpt>
<trkpt lat="42.132172" lon="23.151594"><ele>573.9</ele><time>2026-04-13T11:16:38.000Z</time></trkpt>
<trkpt lat="42.132171" lon="23.151593"><ele>573.9</ele><time>2026-04-13T11:16:39.000Z</time></trkpt>
<trkpt lat="42.132171" lon="23.151594"><ele>573.9</ele><time>2026-04-13T11:16:40.000Z</time></trkpt>
<trkpt lat="42.132172" lon="23.151595"><ele>573.9</ele><time>2026-04-13T11:16:41.000Z</time></trkpt>
<trkpt lat="42.132173" lon="23.151597"><ele>573.9</ele><time>2026-04-13T11:16:42.000Z</time></trkpt>
<trkpt lat="42.132176" lon="23.151599"><ele>574</ele><time>2026-04-13T11:16:43.000Z</time></trkpt>
<trkpt lat="42.132178" lon="23.151601"><ele>574</ele><time>2026-04-13T11:16:44.000Z</time></trkpt>
<trkpt lat="42.132179" lon="23.151604"><ele>574</ele><time>2026-04-13T11:16:45.000Z</time></trkpt>
<trkpt lat="42.13218" lon="23.151606"><ele>574</ele><time>2026-04-13T11:16:46.000Z</time></trkpt>
<trkpt lat="42.13218" lon="23.151608"><ele>574</ele><time>2026-04-13T11:16:47.000Z</time></trkpt>
<trkpt lat="42.13218" lon="23.151611"><ele>574.1</ele><time>2026-04-13T11:16:48.000Z</time></trkpt>
<trkpt lat="42.132179" lon="23.151613"><ele>574.1</ele><time>2026-04-13T11:16:49.000Z</time></trkpt>
<trkpt lat="42.132178" lon="23.151615"><ele>574.1</ele><time>2026-04-13T11:16:50.000Z</time></trkpt>
<trkpt lat="42.132177" lon="23.151616"><ele>574.1</ele><time>2026-04-13T11:16:51.000Z</time></trkpt>
<trkpt lat="42.132177" lon="23.151616"><ele>574.1</ele><time>2026-04-13T11:16:52.000Z</time></trkpt>
<trkpt lat="42.132177" lon="23.151615"><ele>574.3</ele><time>2026-04-13T11:16:53.000Z</time></trkpt>
<trkpt lat="42.132177" lon="23.151613"><ele>574.3</ele><time>2026-04-13T11:16:54.000Z</time></trkpt>
<trkpt lat="42.132178" lon="23.15161"><ele>574.3</ele><time>2026-04-13T11:16:55.000Z</time></trkpt>
<trkpt lat="42.132178" lon="23.151607"><ele>574.3</ele><time>2026-04-13T11:16:56.000Z</time></trkpt>
<trkpt lat="42.132179" lon="23.151603"><ele>574.3</ele><time>2026-04-13T11:16:57.000Z</time></trkpt>
<trkpt lat="42.13218" lon="23.151599"><ele>574.6</ele><time>2026-04-13T11:16:58.000Z</time></trkpt>
<trkpt lat="42.132181" lon="23.151595"><ele>574.6</ele><time>2026-04-13T11:16:59.000Z</time></trkpt>
<trkpt lat="42.132181" lon="23.151591"><ele>574.6</ele><time>2026-04-13T11:17:00.000Z</time></trkpt>
<trkpt lat="42.13218" lon="23.151588"><ele>574.6</ele><time>2026-04-13T11:17:01.000Z</time></trkpt>
<trkpt lat="42.13218" lon="23.151586"><ele>574.6</ele><time>2026-04-13T11:17:02.000Z</time></trkpt>
<trkpt lat="42.132178" lon="23.151585"><ele>574.9</ele><time>2026-04-13T11:17:03.000Z</time></trkpt>
<trkpt lat="42.132177" lon="23.151584"><ele>574.9</ele><time>2026-04-13T11:17:04.000Z</time></trkpt>
<trkpt lat="42.132175" lon="23.151583"><ele>574.9</ele><time>2026-04-13T11:17:05.000Z</time></trkpt>
<trkpt lat="42.132174" lon="23.151581"><ele>574.9</ele><time>2026-04-13T11:17:06.000Z</time></trkpt>
<trkpt lat="42.132173" lon="23.151579"><ele>574.9</ele><time>2026-04-13T11:17:07.000Z</time></trkpt>
<trkpt lat="42.132173" lon="23.151575"><ele>574.9</ele><time>2026-04-13T11:17:08.000Z</time></trkpt>
<trkpt lat="42.132173" lon="23.15157"><ele>574.9</ele><time>2026-04-13T11:17:09.000Z</time></trkpt>
<trkpt lat="42.132173" lon="23.151564"><ele>574.9</ele><time>2026-04-13T11:17:10.000Z</time></trkpt>
<trkpt lat="42.132173" lon="23.151557"><ele>574.9</ele><time>2026-04-13T11:17:11.000Z</time></trkpt>
<trkpt lat="42.132174" lon="23.151549"><ele>574.9</ele><time>2026-04-13T11:17:12.000Z</time></trkpt>
<trkpt lat="42.132174" lon="23.151539"><ele>575</ele><time>2026-04-13T11:17:13.000Z</time></trkpt>
<trkpt lat="42.132175" lon="23.15153"><ele>575</ele><time>2026-04-13T11:17:14.000Z</time></trkpt>
<trkpt lat="42.132174" lon="23.15152"><ele>575</ele><time>2026-04-13T11:17:15.000Z</time></trkpt>
<trkpt lat="42.132173" lon="23.151509"><ele>575</ele><time>2026-04-13T11:17:16.000Z</time></trkpt>
<trkpt lat="42.132172" lon="23.151499"><ele>575</ele><time>2026-04-13T11:17:17.000Z</time></trkpt>
<trkpt lat="42.13217" lon="23.151488"><ele>574.9</ele><time>2026-04-13T11:17:18.000Z</time></trkpt>
<trkpt lat="42.132167" lon="23.151476"><ele>574.9</ele><time>2026-04-13T11:17:19.000Z</time></trkpt>
<trkpt lat="42.132164" lon="23.151464"><ele>574.9</ele><time>2026-04-13T11:17:20.000Z</time></trkpt>
<trkpt lat="42.132162" lon="23.151451"><ele>574.9</ele><time>2026-04-13T11:17:21.000Z</time></trkpt>
<trkpt lat="42.132159" lon="23.151437"><ele>574.9</ele><time>2026-04-13T11:17:22.000Z</time></trkpt>
<trkpt lat="42.132157" lon="23.151423"><ele>574.7</ele><time>2026-04-13T11:17:23.000Z</time></trkpt>
<trkpt lat="42.132155" lon="23.151409"><ele>574.7</ele><time>2026-04-13T11:17:24.000Z</time></trkpt>
<trkpt lat="42.132153" lon="23.151395"><ele>574.7</ele><time>2026-04-13T11:17:25.000Z</time></trkpt>
<trkpt lat="42.132151" lon="23.151382"><ele>574.7</ele><time>2026-04-13T11:17:26.000Z</time></trkpt>
<trkpt lat="42.132148" lon="23.151369"><ele>574.7</ele><time>2026-04-13T11:17:27.000Z</time></trkpt>
<trkpt lat="42.132146" lon="23.151357"><ele>574.4</ele><time>2026-04-13T11:17:28.000Z</time></trkpt>
<trkpt lat="42.132144" lon="23.151344"><ele>574.4</ele><time>2026-04-13T11:17:29.000Z</time></trkpt>
<trkpt lat="42.132143" lon="23.151331"><ele>574.4</ele><time>2026-04-13T11:17:30.000Z</time></trkpt>
<trkpt lat="42.132143" lon="23.151319"><ele>574.4</ele><time>2026-04-13T11:17:31.000Z</time></trkpt>
<trkpt lat="42.132144" lon="23.151307"><ele>574.4</ele><time>2026-04-13T11:17:32.000Z</time></trkpt>
<trkpt lat="42.132145" lon="23.151296"><ele>574.5</ele><time>2026-04-13T11:17:33.000Z</time></trkpt>
<trkpt lat="42.132147" lon="23.151285"><ele>574.5</ele><time>2026-04-13T11:17:34.000Z</time></trkpt>
<trkpt lat="42.13215" lon="23.151275"><ele>574.5</ele><time>2026-04-13T11:17:35.000Z</time></trkpt>
<trkpt lat="42.132154" lon="23.151266"><ele>574.5</ele><time>2026-04-13T11:17:36.000Z</time></trkpt>
<trkpt lat="42.132157" lon="23.151258"><ele>574.5</ele><time>2026-04-13T11:17:37.000Z</time></trkpt>
<trkpt lat="42.132161" lon="23.15125"><ele>574.8</ele><time>2026-04-13T11:17:38.000Z</time></trkpt>
<trkpt lat="42.132165" lon="23.151242"><ele>574.8</ele><time>2026-04-13T11:17:39.000Z</time></trkpt>
<trkpt lat="42.132169" lon="23.151235"><ele>574.8</ele><time>2026-04-13T11:17:40.000Z</time></trkpt>
<trkpt lat="42.132173" lon="23.151228"><ele>574.8</ele><time>2026-04-13T11:17:41.000Z</time></trkpt>
<trkpt lat="42.132177" lon="23.15122"><ele>574.8</ele><time>2026-04-13T11:17:42.000Z</time></trkpt>
<trkpt lat="42.132181" lon="23.151212"><ele>575.5</ele><time>2026-04-13T11:17:43.000Z</time></trkpt>
<trkpt lat="42.132187" lon="23.151205"><ele>575.5</ele><time>2026-04-13T11:17:44.000Z</time></trkpt>
<trkpt lat="42.132193" lon="23.151198"><ele>575.5</ele><time>2026-04-13T11:17:45.000Z</time></trkpt>
<trkpt lat="42.1322" lon="23.151193"><ele>575.5</ele><time>2026-04-13T11:17:46.000Z</time></trkpt>
<trkpt lat="42.132207" lon="23.151189"><ele>575.5</ele><time>2026-04-13T11:17:47.000Z</time></trkpt>
<trkpt lat="42.132213" lon="23.151186"><ele>575.8</ele><time>2026-04-13T11:17:48.000Z</time></trkpt>
<trkpt lat="42.132219" lon="23.151184"><ele>575.8</ele><time>2026-04-13T11:17:49.000Z</time></trkpt>
<trkpt lat="42.132224" lon="23.151182"><ele>575.8</ele><time>2026-04-13T11:17:50.000Z</time></trkpt>
<trkpt lat="42.13223" lon="23.15118"><ele>575.8</ele><time>2026-04-13T11:17:51.000Z</time></trkpt>
<trkpt lat="42.132237" lon="23.151177"><ele>575.8</ele><time>2026-04-13T11:17:52.000Z</time></trkpt>
<trkpt lat="42.132245" lon="23.151173"><ele>575.7</ele><time>2026-04-13T11:17:53.000Z</time></trkpt>
<trkpt lat="42.132253" lon="23.151168"><ele>575.7</ele><time>2026-04-13T11:17:54.000Z</time></trkpt>
<trkpt lat="42.132262" lon="23.151162"><ele>575.7</ele><time>2026-04-13T11:17:55.000Z</time></trkpt>
<trkpt lat="42.132271" lon="23.151156"><ele>575.7</ele><time>2026-04-13T11:17:56.000Z</time></trkpt>
<trkpt lat="42.132281" lon="23.15115"><ele>575.7</ele><time>2026-04-13T11:17:57.000Z</time></trkpt>
<trkpt lat="42.132291" lon="23.151144"><ele>575.5</ele><time>2026-04-13T11:17:58.000Z</time></trkpt>
<trkpt lat="42.132301" lon="23.151136"><ele>575.5</ele><time>2026-04-13T11:17:59.000Z</time></trkpt>
<trkpt lat="42.132311" lon="23.151128"><ele>575.5</ele><time>2026-04-13T11:18:00.000Z</time></trkpt>
<trkpt lat="42.132323" lon="23.151121"><ele>575.5</ele><time>2026-04-13T11:18:01.000Z</time></trkpt>
<trkpt lat="42.132334" lon="23.151113"><ele>575.5</ele><time>2026-04-13T11:18:02.000Z</time></trkpt>
<trkpt lat="42.132345" lon="23.151106"><ele>575.3</ele><time>2026-04-13T11:18:03.000Z</time></trkpt>
<trkpt lat="42.132356" lon="23.1511"><ele>575.3</ele><time>2026-04-13T11:18:04.000Z</time></trkpt>
<trkpt lat="42.132367" lon="23.151094"><ele>575.3</ele><time>2026-04-13T11:18:05.000Z</time></trkpt>
<trkpt lat="42.132377" lon="23.151085"><ele>575.3</ele><time>2026-04-13T11:18:06.000Z</time></trkpt>
<trkpt lat="42.132386" lon="23.151074"><ele>575.3</ele><time>2026-04-13T11:18:07.000Z</time></trkpt>
<trkpt lat="42.132394" lon="23.151061"><ele>575.2</ele><time>2026-04-13T11:18:08.000Z</time></trkpt>
<trkpt lat="42.132401" lon="23.151045"><ele>575.2</ele><time>2026-04-13T11:18:09.000Z</time></trkpt>
<trkpt lat="42.132407" lon="23.151028"><ele>575.2</ele><time>2026-04-13T11:18:10.000Z</time></trkpt>
<trkpt lat="42.132412" lon="23.151012"><ele>575.2</ele><time>2026-04-13T11:18:11.000Z</time></trkpt>
<trkpt lat="42.132417" lon="23.150995"><ele>575.2</ele><time>2026-04-13T11:18:12.000Z</time></trkpt>
<trkpt lat="42.132421" lon="23.150979"><ele>575.3</ele><time>2026-04-13T11:18:13.000Z</time></trkpt>
<trkpt lat="42.132424" lon="23.150963"><ele>575.3</ele><time>2026-04-13T11:18:14.000Z</time></trkpt>
<trkpt lat="42.132425" lon="23.150948"><ele>575.3</ele><time>2026-04-13T11:18:15.000Z</time></trkpt>
<trkpt lat="42.132425" lon="23.150932"><ele>575.3</ele><time>2026-04-13T11:18:16.000Z</time></trkpt>
<trkpt lat="42.132424" lon="23.150917"><ele>575.3</ele><time>2026-04-13T11:18:17.000Z</time></trkpt>
<trkpt lat="42.132424" lon="23.150902"><ele>576.2</ele><time>2026-04-13T11:18:18.000Z</time></trkpt>
<trkpt lat="42.132424" lon="23.150887"><ele>576.2</ele><time>2026-04-13T11:18:19.000Z</time></trkpt>
<trkpt lat="42.132425" lon="23.150872"><ele>576.2</ele><time>2026-04-13T11:18:20.000Z</time></trkpt>
<trkpt lat="42.132427" lon="23.150858"><ele>576.2</ele><time>2026-04-13T11:18:21.000Z</time></trkpt>
<trkpt lat="42.132431" lon="23.150844"><ele>576.2</ele><time>2026-04-13T11:18:22.000Z</time></trkpt>
<trkpt lat="42.132435" lon="23.15083"><ele>576.8</ele><time>2026-04-13T11:18:23.000Z</time></trkpt>
<trkpt lat="42.13244" lon="23.150817"><ele>576.8</ele><time>2026-04-13T11:18:24.000Z</time></trkpt>
<trkpt lat="42.132445" lon="23.150805"><ele>576.8</ele><time>2026-04-13T11:18:25.000Z</time></trkpt>
<trkpt lat="42.132451" lon="23.150792"><ele>576.8</ele><time>2026-04-13T11:18:26.000Z</time></trkpt>
<trkpt lat="42.132457" lon="23.15078"><ele>576.8</ele><time>2026-04-13T11:18:27.000Z</time></trkpt>
<trkpt lat="42.132464" lon="23.150767"><ele>577.9</ele><time>2026-04-13T11:18:28.000Z</time></trkpt>
<trkpt lat="42.13247" lon="23.150756"><ele>577.9</ele><time>2026-04-13T11:18:29.000Z</time></trkpt>
<trkpt lat="42.132477" lon="23.150744"><ele>577.9</ele><time>2026-04-13T11:18:30.000Z</time></trkpt>
<trkpt lat="42.132483" lon="23.150734"><ele>577.9</ele><time>2026-04-13T11:18:31.000Z</time></trkpt>
<trkpt lat="42.132489" lon="23.150724"><ele>577.9</ele><time>2026-04-13T11:18:32.000Z</time></trkpt>
<trkpt lat="42.132495" lon="23.150714"><ele>578.7</ele><time>2026-04-13T11:18:33.000Z</time></trkpt>
<trkpt lat="42.132501" lon="23.150704"><ele>578.7</ele><time>2026-04-13T11:18:34.000Z</time></trkpt>
<trkpt lat="42.132506" lon="23.150693"><ele>578.7</ele><time>2026-04-13T11:18:35.000Z</time></trkpt>
<trkpt lat="42.13251" lon="23.150683"><ele>578.7</ele><time>2026-04-13T11:18:36.000Z</time></trkpt>
<trkpt lat="42.132514" lon="23.150673"><ele>578.7</ele><time>2026-04-13T11:18:37.000Z</time></trkpt>
<trkpt lat="42.132518" lon="23.150663"><ele>579.1</ele><time>2026-04-13T11:18:38.000Z</time></trkpt>
<trkpt lat="42.132522" lon="23.150652"><ele>579.1</ele><time>2026-04-13T11:18:39.000Z</time></trkpt>
<trkpt lat="42.132527" lon="23.150643"><ele>579.1</ele><time>2026-04-13T11:18:40.000Z</time></trkpt>
<trkpt lat="42.132533" lon="23.150633"><ele>579.1</ele><time>2026-04-13T11:18:41.000Z</time></trkpt>
<trkpt lat="42.13254" lon="23.150624"><ele>579.1</ele><time>2026-04-13T11:18:42.000Z</time></trkpt>
<trkpt lat="42.132547" lon="23.150616"><ele>579.8</ele><time>2026-04-13T11:18:43.000Z</time></trkpt>
<trkpt lat="42.132554" lon="23.150609"><ele>579.8</ele><time>2026-04-13T11:18:44.000Z</time></trkpt>
<trkpt lat="42.132561" lon="23.150601"><ele>579.8</ele><time>2026-04-13T11:18:45.000Z</time></trkpt>
<trkpt lat="42.132568" lon="23.150593"><ele>579.8</ele><time>2026-04-13T11:18:46.000Z</time></trkpt>
<trkpt lat="42.132575" lon="23.150586"><ele>579.8</ele><time>2026-04-13T11:18:47.000Z</time></trkpt>
<trkpt lat="42.132583" lon="23.150577"><ele>580.5</ele><time>2026-04-13T11:18:48.000Z</time></trkpt>
<trkpt lat="42.13259" lon="23.150568"><ele>580.5</ele><time>2026-04-13T11:18:49.000Z</time></trkpt>
<trkpt lat="42.132598" lon="23.15056"><ele>580.5</ele><time>2026-04-13T11:18:50.000Z</time></trkpt>
<trkpt lat="42.132605" lon="23.150551"><ele>580.5</ele><time>2026-04-13T11:18:51.000Z</time></trkpt>
<trkpt lat="42.132613" lon="23.150543"><ele>580.5</ele><time>2026-04-13T11:18:52.000Z</time></trkpt>
<trkpt lat="42.13262" lon="23.150534"><ele>580.8</ele><time>2026-04-13T11:18:53.000Z</time></trkpt>
<trkpt lat="42.132626" lon="23.150525"><ele>580.8</ele><time>2026-04-13T11:18:54.000Z</time></trkpt>
<trkpt lat="42.132632" lon="23.150515"><ele>580.8</ele><time>2026-04-13T11:18:55.000Z</time></trkpt>
<trkpt lat="42.132638" lon="23.150504"><ele>580.8</ele><time>2026-04-13T11:18:56.000Z</time></trkpt>
<trkpt lat="42.132642" lon="23.150493"><ele>580.8</ele><time>2026-04-13T11:18:57.000Z</time></trkpt>
<trkpt lat="42.132645" lon="23.150481"><ele>581.6</ele><time>2026-04-13T11:18:58.000Z</time></trkpt>
<trkpt lat="42.132647" lon="23.150469"><ele>581.6</ele><time>2026-04-13T11:18:59.000Z</time></trkpt>
<trkpt lat="42.132648" lon="23.150455"><ele>581.6</ele><time>2026-04-13T11:19:00.000Z</time></trkpt>
<trkpt lat="42.132648" lon="23.150442"><ele>581.6</ele><time>2026-04-13T11:19:01.000Z</time></trkpt>
<trkpt lat="42.132648" lon="23.150429"><ele>581.6</ele><time>2026-04-13T11:19:02.000Z</time></trkpt>
<trkpt lat="42.132648" lon="23.150416"><ele>582.3</ele><time>2026-04-13T11:19:03.000Z</time></trkpt>
<trkpt lat="42.132648" lon="23.150403"><ele>582.3</ele><time>2026-04-13T11:19:04.000Z</time></trkpt>
<trkpt lat="42.132649" lon="23.150392"><ele>582.3</ele><time>2026-04-13T11:19:05.000Z</time></trkpt>
<trkpt lat="42.132649" lon="23.15038"><ele>582.3</ele><time>2026-04-13T11:19:06.000Z</time></trkpt>
<trkpt lat="42.132651" lon="23.150369"><ele>582.3</ele><time>2026-04-13T11:19:07.000Z</time></trkpt>
<trkpt lat="42.132652" lon="23.150358"><ele>582.8</ele><time>2026-04-13T11:19:08.000Z</time></trkpt>
<trkpt lat="42.132653" lon="23.150347"><ele>582.8</ele><time>2026-04-13T11:19:09.000Z</time></trkpt>
<trkpt lat="42.132655" lon="23.150336"><ele>582.8</ele><time>2026-04-13T11:19:10.000Z</time></trkpt>
<trkpt lat="42.132657" lon="23.150326"><ele>582.8</ele><time>2026-04-13T11:19:11.000Z</time></trkpt>
<trkpt lat="42.13266" lon="23.150316"><ele>582.8</ele><time>2026-04-13T11:19:12.000Z</time></trkpt>
<trkpt lat="42.132664" lon="23.150306"><ele>583.7</ele><time>2026-04-13T11:19:13.000Z</time></trkpt>
<trkpt lat="42.132669" lon="23.150297"><ele>583.7</ele><time>2026-04-13T11:19:14.000Z</time></trkpt>
<trkpt lat="42.132674" lon="23.150287"><ele>583.7</ele><time>2026-04-13T11:19:15.000Z</time></trkpt>
<trkpt lat="42.132679" lon="23.150279"><ele>583.7</ele><time>2026-04-13T11:19:16.000Z</time></trkpt>
<trkpt lat="42.132684" lon="23.150271"><ele>583.7</ele><time>2026-04-13T11:19:17.000Z</time></trkpt>
<trkpt lat="42.132689" lon="23.150264"><ele>584.8</ele><time>2026-04-13T11:19:18.000Z</time></trkpt>
<trkpt lat="42.132694" lon="23.150257"><ele>584.8</ele><time>2026-04-13T11:19:19.000Z</time></trkpt>
<trkpt lat="42.1327" lon="23.15025"><ele>584.8</ele><time>2026-04-13T11:19:20.000Z</time></trkpt>
<trkpt lat="42.132706" lon="23.150244"><ele>584.8</ele><time>2026-04-13T11:19:21.000Z</time></trkpt>
<trkpt lat="42.132713" lon="23.150239"><ele>584.8</ele><time>2026-04-13T11:19:22.000Z</time></trkpt>
<trkpt lat="42.13272" lon="23.150235"><ele>585.3</ele><time>2026-04-13T11:19:23.000Z</time></trkpt>
<trkpt lat="42.132728" lon="23.150231"><ele>585.3</ele><time>2026-04-13T11:19:24.000Z</time></trkpt>
<trkpt lat="42.132737" lon="23.150226"><ele>585.3</ele><time>2026-04-13T11:19:25.000Z</time></trkpt>
<trkpt lat="42.132745" lon="23.15022"><ele>585.3</ele><time>2026-04-13T11:19:26.000Z</time></trkpt>
<trkpt lat="42.132754" lon="23.150212"><ele>585.3</ele><time>2026-04-13T11:19:27.000Z</time></trkpt>
<trkpt lat="42.132762" lon="23.150203"><ele>586.1</ele><time>2026-04-13T11:19:28.000Z</time></trkpt>
<trkpt lat="42.13277" lon="23.150194"><ele>586.1</ele><time>2026-04-13T11:19:29.000Z</time></trkpt>
<trkpt lat="42.132778" lon="23.150184"><ele>586.1</ele><time>2026-04-13T11:19:30.000Z</time></trkpt>
<trkpt lat="42.132786" lon="23.150173"><ele>586.1</ele><time>2026-04-13T11:19:31.000Z</time></trkpt>
<trkpt lat="42.132793" lon="23.150164"><ele>586.1</ele><time>2026-04-13T11:19:32.000Z</time></trkpt>
<trkpt lat="42.132801" lon="23.150155"><ele>586.6</ele><time>2026-04-13T11:19:33.000Z</time></trkpt>
<trkpt lat="42.132809" lon="23.150146"><ele>586.6</ele><time>2026-04-13T11:19:34.000Z</time></trkpt>
<trkpt lat="42.132817" lon="23.150138"><ele>586.6</ele><time>2026-04-13T11:19:35.000Z</time></trkpt>
<trkpt lat="42.132825" lon="23.150129"><ele>586.6</ele><time>2026-04-13T11:19:36.000Z</time></trkpt>
<trkpt lat="42.132833" lon="23.150121"><ele>586.6</ele><time>2026-04-13T11:19:37.000Z</time></trkpt>
<trkpt lat="42.13284" lon="23.150112"><ele>586.8</ele><time>2026-04-13T11:19:38.000Z</time></trkpt>
<trkpt lat="42.132848" lon="23.150104"><ele>586.8</ele><time>2026-04-13T11:19:39.000Z</time></trkpt>
<trkpt lat="42.132855" lon="23.150095"><ele>586.8</ele><time>2026-04-13T11:19:40.000Z</time></trkpt>
<trkpt lat="42.132861" lon="23.150087"><ele>586.8</ele><time>2026-04-13T11:19:41.000Z</time></trkpt>
<trkpt lat="42.132867" lon="23.150079"><ele>586.8</ele><time>2026-04-13T11:19:42.000Z</time></trkpt>
<trkpt lat="42.132874" lon="23.150071"><ele>587.2</ele><time>2026-04-13T11:19:43.000Z</time></trkpt>
<trkpt lat="42.132881" lon="23.150064"><ele>587.2</ele><time>2026-04-13T11:19:44.000Z</time></trkpt>
<trkpt lat="42.132888" lon="23.150058"><ele>587.2</ele><time>2026-04-13T11:19:45.000Z</time></trkpt>
<trkpt lat="42.132895" lon="23.150052"><ele>587.2</ele><time>2026-04-13T11:19:46.000Z</time></trkpt>
<trkpt lat="42.132903" lon="23.150047"><ele>587.2</ele><time>2026-04-13T11:19:47.000Z</time></trkpt>
<trkpt lat="42.13291" lon="23.150042"><ele>587.8</ele><time>2026-04-13T11:19:48.000Z</time></trkpt>
<trkpt lat="42.132917" lon="23.150036"><ele>587.8</ele><time>2026-04-13T11:19:49.000Z</time></trkpt>
<trkpt lat="42.132924" lon="23.15003"><ele>587.8</ele><time>2026-04-13T11:19:50.000Z</time></trkpt>
<trkpt lat="42.132929" lon="23.150023"><ele>587.8</ele><time>2026-04-13T11:19:51.000Z</time></trkpt>
<trkpt lat="42.132934" lon="23.150016"><ele>587.8</ele><time>2026-04-13T11:19:52.000Z</time></trkpt>
<trkpt lat="42.132937" lon="23.15001"><ele>588.1</ele><time>2026-04-13T11:19:53.000Z</time></trkpt>
<trkpt lat="42.132938" lon="23.150004"><ele>588.1</ele><time>2026-04-13T11:19:54.000Z</time></trkpt>
<trkpt lat="42.132939" lon="23.149999"><ele>588.1</ele><time>2026-04-13T11:19:55.000Z</time></trkpt>
<trkpt lat="42.132939" lon="23.149995"><ele>588.1</ele><time>2026-04-13T11:19:56.000Z</time></trkpt>
<trkpt lat="42.132939" lon="23.149991"><ele>588.1</ele><time>2026-04-13T11:19:57.000Z</time></trkpt>
<trkpt lat="42.13294" lon="23.149988"><ele>588.8</ele><time>2026-04-13T11:19:58.000Z</time></trkpt>
<trkpt lat="42.132941" lon="23.149985"><ele>588.8</ele><time>2026-04-13T11:19:59.000Z</time></trkpt>
<trkpt lat="42.132942" lon="23.14998"><ele>588.8</ele><time>2026-04-13T11:20:00.000Z</time></trkpt>
<trkpt lat="42.132945" lon="23.149974"><ele>588.8</ele><time>2026-04-13T11:20:01.000Z</time></trkpt>
<trkpt lat="42.132948" lon="23.149967"><ele>588.8</ele><time>2026-04-13T11:20:02.000Z</time></trkpt>
<trkpt lat="42.132952" lon="23.14996"><ele>589.4</ele><time>2026-04-13T11:20:03.000Z</time></trkpt>
<trkpt lat="42.132956" lon="23.149953"><ele>589.4</ele><time>2026-04-13T11:20:04.000Z</time></trkpt>
<trkpt lat="42.13296" lon="23.149947"><ele>589.4</ele><time>2026-04-13T11:20:05.000Z</time></trkpt>
<trkpt lat="42.132964" lon="23.149941"><ele>589.4</ele><time>2026-04-13T11:20:06.000Z</time></trkpt>
<trkpt lat="42.132966" lon="23.149935"><ele>589.4</ele><time>2026-04-13T11:20:07.000Z</time></trkpt>
<trkpt lat="42.132967" lon="23.149927"><ele>589.6</ele><time>2026-04-13T11:20:08.000Z</time></trkpt>
<trkpt lat="42.132966" lon="23.149918"><ele>589.6</ele><time>2026-04-13T11:20:09.000Z</time></trkpt>
<trkpt lat="42.132966" lon="23.149907"><ele>589.6</ele><time>2026-04-13T11:20:10.000Z</time></trkpt>
<trkpt lat="42.132966" lon="23.149896"><ele>589.6</ele><time>2026-04-13T11:20:11.000Z</time></trkpt>
<trkpt lat="42.132966" lon="23.149883"><ele>589.6</ele><time>2026-04-13T11:20:12.000Z</time></trkpt>
<trkpt lat="42.132968" lon="23.149871"><ele>589.9</ele><time>2026-04-13T11:20:13.000Z</time></trkpt>
<trkpt lat="42.132969" lon="23.14986"><ele>589.9</ele><time>2026-04-13T11:20:14.000Z</time></trkpt>
<trkpt lat="42.132971" lon="23.14985"><ele>589.9</ele><time>2026-04-13T11:20:15.000Z</time></trkpt>
<trkpt lat="42.132973" lon="23.149839"><ele>589.9</ele><time>2026-04-13T11:20:16.000Z</time></trkpt>
<trkpt lat="42.132975" lon="23.149829"><ele>589.9</ele><time>2026-04-13T11:20:17.000Z</time></trkpt>
<trkpt lat="42.132977" lon="23.149819"><ele>590</ele><time>2026-04-13T11:20:18.000Z</time></trkpt>
<trkpt lat="42.132978" lon="23.149808"><ele>590</ele><time>2026-04-13T11:20:19.000Z</time></trkpt>
<trkpt lat="42.132979" lon="23.149798"><ele>590</ele><time>2026-04-13T11:20:20.000Z</time></trkpt>
<trkpt lat="42.132979" lon="23.149788"><ele>590</ele><time>2026-04-13T11:20:21.000Z</time></trkpt>
<trkpt lat="42.132978" lon="23.14978"><ele>590</ele><time>2026-04-13T11:20:22.000Z</time></trkpt>
<trkpt lat="42.132977" lon="23.149772"><ele>590.2</ele><time>2026-04-13T11:20:23.000Z</time></trkpt>
<trkpt lat="42.132978" lon="23.149766"><ele>590.2</ele><time>2026-04-13T11:20:24.000Z</time></trkpt>
<trkpt lat="42.132979" lon="23.149761"><ele>590.2</ele><time>2026-04-13T11:20:25.000Z</time></trkpt>
<trkpt lat="42.13298" lon="23.149758"><ele>590.2</ele><time>2026-04-13T11:20:26.000Z</time></trkpt>
<trkpt lat="42.132981" lon="23.149755"><ele>590.2</ele><time>2026-04-13T11:20:27.000Z</time></trkpt>
<trkpt lat="42.132982" lon="23.149754"><ele>591</ele><time>2026-04-13T11:20:28.000Z</time></trkpt>
<trkpt lat="42.132982" lon="23.149755"><ele>591</ele><time>2026-04-13T11:20:29.000Z</time></trkpt>
<trkpt lat="42.132983" lon="23.149756"><ele>591</ele><time>2026-04-13T11:20:30.000Z</time></trkpt>
<trkpt lat="42.132983" lon="23.149757"><ele>591</ele><time>2026-04-13T11:20:31.000Z</time></trkpt>
<trkpt lat="42.132983" lon="23.14976"><ele>591</ele><time>2026-04-13T11:20:32.000Z</time></trkpt>
<trkpt lat="42.132983" lon="23.149762"><ele>592.2</ele><time>2026-04-13T11:20:33.000Z</time></trkpt>
<trkpt lat="42.132984" lon="23.149764"><ele>592.2</ele><time>2026-04-13T11:20:34.000Z</time></trkpt>
<trkpt lat="42.132984" lon="23.149766"><ele>592.2</ele><time>2026-04-13T11:20:35.000Z</time></trkpt>
<trkpt lat="42.132985" lon="23.149768"><ele>592.2</ele><time>2026-04-13T11:20:36.000Z</time></trkpt>
<trkpt lat="42.132985" lon="23.14977"><ele>592.2</ele><time>2026-04-13T11:20:37.000Z</time></trkpt>
<trkpt lat="42.132985" lon="23.149772"><ele>592.6</ele><time>2026-04-13T11:20:38.000Z</time></trkpt>
<trkpt lat="42.132985" lon="23.149774"><ele>592.6</ele><time>2026-04-13T11:20:39.000Z</time></trkpt>
<trkpt lat="42.132984" lon="23.149776"><ele>592.6</ele><time>2026-04-13T11:20:40.000Z</time></trkpt>
<trkpt lat="42.132983" lon="23.149777"><ele>592.6</ele><time>2026-04-13T11:20:41.000Z</time></trkpt>
<trkpt lat="42.132982" lon="23.149778"><ele>592.6</ele><time>2026-04-13T11:20:42.000Z</time></trkpt>
<trkpt lat="42.13298" lon="23.149778"><ele>593</ele><time>2026-04-13T11:20:43.000Z</time></trkpt>
<trkpt lat="42.132979" lon="23.149778"><ele>593</ele><time>2026-04-13T11:20:44.000Z</time></trkpt>
<trkpt lat="42.132978" lon="23.149778"><ele>593</ele><time>2026-04-13T11:20:45.000Z</time></trkpt>
<trkpt lat="42.132977" lon="23.149778"><ele>593</ele><time>2026-04-13T11:20:46.000Z</time></trkpt>
<trkpt lat="42.132976" lon="23.149778"><ele>593</ele><time>2026-04-13T11:20:47.000Z</time></trkpt>
<trkpt lat="42.132974" lon="23.14978"><ele>592.9</ele><time>2026-04-13T11:20:48.000Z</time></trkpt>
<trkpt lat="42.132973" lon="23.149781"><ele>592.9</ele><time>2026-04-13T11:20:49.000Z</time></trkpt>
<trkpt lat="42.132972" lon="23.149783"><ele>592.9</ele><time>2026-04-13T11:20:50.000Z</time></trkpt>
<trkpt lat="42.132971" lon="23.149785"><ele>592.9</ele><time>2026-04-13T11:20:51.000Z</time></trkpt>
<trkpt lat="42.13297" lon="23.149787"><ele>592.9</ele><time>2026-04-13T11:20:52.000Z</time></trkpt>
<trkpt lat="42.132969" lon="23.149788"><ele>592.8</ele><time>2026-04-13T11:20:53.000Z</time></trkpt>
<trkpt lat="42.132969" lon="23.14979"><ele>592.8</ele><time>2026-04-13T11:20:54.000Z</time></trkpt>
<trkpt lat="42.132969" lon="23.14979"><ele>592.8</ele><time>2026-04-13T11:20:55.000Z</time></trkpt>
<trkpt lat="42.132969" lon="23.14979"><ele>592.8</ele><time>2026-04-13T11:20:56.000Z</time></trkpt>
<trkpt lat="42.132969" lon="23.14979"><ele>592.8</ele><time>2026-04-13T11:20:57.000Z</time></trkpt>
<trkpt lat="42.13297" lon="23.149789"><ele>592.7</ele><time>2026-04-13T11:20:58.000Z</time></trkpt>
<trkpt lat="42.13297" lon="23.149787"><ele>592.7</ele><time>2026-04-13T11:20:59.000Z</time></trkpt>
<trkpt lat="42.13297" lon="23.149786"><ele>592.7</ele><time>2026-04-13T11:21:00.000Z</time></trkpt>
<trkpt lat="42.132971" lon="23.149785"><ele>592.7</ele><time>2026-04-13T11:21:01.000Z</time></trkpt>
<trkpt lat="42.132971" lon="23.149784"><ele>592.7</ele><time>2026-04-13T11:21:02.000Z</time></trkpt>
<trkpt lat="42.132972" lon="23.149783"><ele>592.5</ele><time>2026-04-13T11:21:03.000Z</time></trkpt>
<trkpt lat="42.132973" lon="23.149782"><ele>592.5</ele><time>2026-04-13T11:21:04.000Z</time></trkpt>
<trkpt lat="42.132974" lon="23.149781"><ele>592.5</ele><time>2026-04-13T11:21:05.000Z</time></trkpt>
<trkpt lat="42.132974" lon="23.149781"><ele>592.5</ele><time>2026-04-13T11:21:06.000Z</time></trkpt>
<trkpt lat="42.132974" lon="23.149781"><ele>592.5</ele><time>2026-04-13T11:21:07.000Z</time></trkpt>
<trkpt lat="42.132974" lon="23.149781"><ele>592.4</ele><time>2026-04-13T11:21:08.000Z</time></trkpt>
<trkpt lat="42.132974" lon="23.149781"><ele>592.4</ele><time>2026-04-13T11:21:09.000Z</time></trkpt>
<trkpt lat="42.132972" lon="23.149781"><ele>592.4</ele><time>2026-04-13T11:21:10.000Z</time></trkpt>
<trkpt lat="42.13297" lon="23.149781"><ele>592.4</ele><time>2026-04-13T11:21:11.000Z</time></trkpt>
<trkpt lat="42.132968" lon="23.149781"><ele>592.4</ele><time>2026-04-13T11:21:12.000Z</time></trkpt>
<trkpt lat="42.132964" lon="23.149779"><ele>592.3</ele><time>2026-04-13T11:21:13.000Z</time></trkpt>
<trkpt lat="42.132959" lon="23.149776"><ele>592.3</ele><time>2026-04-13T11:21:14.000Z</time></trkpt>
<trkpt lat="42.132955" lon="23.149772"><ele>592.3</ele><time>2026-04-13T11:21:15.000Z</time></trkpt>
<trkpt lat="42.13295" lon="23.149766"><ele>592.3</ele><time>2026-04-13T11:21:16.000Z</time></trkpt>
<trkpt lat="42.132945" lon="23.149758"><ele>592.3</ele><time>2026-04-13T11:21:17.000Z</time></trkpt>
<trkpt lat="42.13294" lon="23.149748"><ele>592.1</ele><time>2026-04-13T11:21:18.000Z</time></trkpt>
<trkpt lat="42.132935" lon="23.149738"><ele>592.1</ele><time>2026-04-13T11:21:19.000Z</time></trkpt>
<trkpt lat="42.132929" lon="23.149727"><ele>592.1</ele><time>2026-04-13T11:21:20.000Z</time></trkpt>
<trkpt lat="42.132922" lon="23.149717"><ele>592.1</ele><time>2026-04-13T11:21:21.000Z</time></trkpt>
<trkpt lat="42.132915" lon="23.149707"><ele>592.1</ele><time>2026-04-13T11:21:22.000Z</time></trkpt>
<trkpt lat="42.132907" lon="23.149698"><ele>592</ele><time>2026-04-13T11:21:23.000Z</time></trkpt>
<trkpt lat="42.132899" lon="23.14969"><ele>592</ele><time>2026-04-13T11:21:24.000Z</time></trkpt>
<trkpt lat="42.132892" lon="23.149683"><ele>592</ele><time>2026-04-13T11:21:25.000Z</time></trkpt>
<trkpt lat="42.132884" lon="23.149677"><ele>592</ele><time>2026-04-13T11:21:26.000Z</time></trkpt>
<trkpt lat="42.132875" lon="23.149671"><ele>592</ele><time>2026-04-13T11:21:27.000Z</time></trkpt>
<trkpt lat="42.132867" lon="23.149665"><ele>592</ele><time>2026-04-13T11:21:28.000Z</time></trkpt>
<trkpt lat="42.132858" lon="23.149658"><ele>592</ele><time>2026-04-13T11:21:29.000Z</time></trkpt>
<trkpt lat="42.132849" lon="23.149651"><ele>592</ele><time>2026-04-13T11:21:30.000Z</time></trkpt>
<trkpt lat="42.13284" lon="23.149644"><ele>592</ele><time>2026-04-13T11:21:31.000Z</time></trkpt>
<trkpt lat="42.132832" lon="23.149635"><ele>592</ele><time>2026-04-13T11:21:32.000Z</time></trkpt>
<trkpt lat="42.132825" lon="23.149626"><ele>592.6</ele><time>2026-04-13T11:21:33.000Z</time></trkpt>
<trkpt lat="42.132818" lon="23.149617"><ele>592.6</ele><time>2026-04-13T11:21:34.000Z</time></trkpt>
<trkpt lat="42.132811" lon="23.149606"><ele>592.6</ele><time>2026-04-13T11:21:35.000Z</time></trkpt>
<trkpt lat="42.132805" lon="23.149596"><ele>592.6</ele><time>2026-04-13T11:21:36.000Z</time></trkpt>
<trkpt lat="42.132798" lon="23.149585"><ele>592.6</ele><time>2026-04-13T11:21:37.000Z</time></trkpt>
<trkpt lat="42.132791" lon="23.149573"><ele>592.9</ele><time>2026-04-13T11:21:38.000Z</time></trkpt>
<trkpt lat="42.132783" lon="23.149561"><ele>592.9</ele><time>2026-04-13T11:21:39.000Z</time></trkpt>
<trkpt lat="42.132774" lon="23.149549"><ele>592.9</ele><time>2026-04-13T11:21:40.000Z</time></trkpt>
<trkpt lat="42.132765" lon="23.149538"><ele>592.9</ele><time>2026-04-13T11:21:41.000Z</time></trkpt>
<trkpt lat="42.132756" lon="23.149528"><ele>592.9</ele><time>2026-04-13T11:21:42.000Z</time></trkpt>
<trkpt lat="42.132747" lon="23.149519"><ele>593.3</ele><time>2026-04-13T11:21:43.000Z</time></trkpt>
<trkpt lat="42.132738" lon="23.149511"><ele>593.3</ele><time>2026-04-13T11:21:44.000Z</time></trkpt>
<trkpt lat="42.13273" lon="23.149504"><ele>593.3</ele><time>2026-04-13T11:21:45.000Z</time></trkpt>
<trkpt lat="42.132723" lon="23.149497"><ele>593.3</ele><time>2026-04-13T11:21:46.000Z</time></trkpt>
<trkpt lat="42.132716" lon="23.149489"><ele>593.3</ele><time>2026-04-13T11:21:47.000Z</time></trkpt>
<trkpt lat="42.13271" lon="23.14948"><ele>593.8</ele><time>2026-04-13T11:21:48.000Z</time></trkpt>
<trkpt lat="42.132705" lon="23.14947"><ele>593.8</ele><time>2026-04-13T11:21:49.000Z</time></trkpt>
<trkpt lat="42.1327" lon="23.149459"><ele>593.8</ele><time>2026-04-13T11:21:50.000Z</time></trkpt>
<trkpt lat="42.132696" lon="23.149448"><ele>593.8</ele><time>2026-04-13T11:21:51.000Z</time></trkpt>
<trkpt lat="42.132692" lon="23.149436"><ele>593.8</ele><time>2026-04-13T11:21:52.000Z</time></trkpt>
<trkpt lat="42.132688" lon="23.149424"><ele>594</ele><time>2026-04-13T11:21:53.000Z</time></trkpt>
<trkpt lat="42.132685" lon="23.149411"><ele>594</ele><time>2026-04-13T11:21:54.000Z</time></trkpt>
<trkpt lat="42.132682" lon="23.149399"><ele>594</ele><time>2026-04-13T11:21:55.000Z</time></trkpt>
<trkpt lat="42.132678" lon="23.149387"><ele>594</ele><time>2026-04-13T11:21:56.000Z</time></trkpt>
<trkpt lat="42.132675" lon="23.149374"><ele>594</ele><time>2026-04-13T11:21:57.000Z</time></trkpt>
<trkpt lat="42.132671" lon="23.149362"><ele>594.7</ele><time>2026-04-13T11:21:58.000Z</time></trkpt>
<trkpt lat="42.132668" lon="23.14935"><ele>594.7</ele><time>2026-04-13T11:21:59.000Z</time></trkpt>
<trkpt lat="42.132664" lon="23.149339"><ele>594.7</ele><time>2026-04-13T11:22:00.000Z</time></trkpt>
<trkpt lat="42.132661" lon="23.149326"><ele>594.7</ele><time>2026-04-13T11:22:01.000Z</time></trkpt>
<trkpt lat="42.132658" lon="23.149314"><ele>594.7</ele><time>2026-04-13T11:22:02.000Z</time></trkpt>
<trkpt lat="42.132655" lon="23.149302"><ele>595.1</ele><time>2026-04-13T11:22:03.000Z</time></trkpt>
<trkpt lat="42.132653" lon="23.14929"><ele>595.1</ele><time>2026-04-13T11:22:04.000Z</time></trkpt>
<trkpt lat="42.132652" lon="23.149278"><ele>595.1</ele><time>2026-04-13T11:22:05.000Z</time></trkpt>
<trkpt lat="42.13265" lon="23.149266"><ele>595.1</ele><time>2026-04-13T11:22:06.000Z</time></trkpt>
<trkpt lat="42.132649" lon="23.149255"><ele>595.1</ele><time>2026-04-13T11:22:07.000Z</time></trkpt>
<trkpt lat="42.132647" lon="23.149243"><ele>595.2</ele><time>2026-04-13T11:22:08.000Z</time></trkpt>
<trkpt lat="42.132645" lon="23.149231"><ele>595.2</ele><time>2026-04-13T11:22:09.000Z</time></trkpt>
<trkpt lat="42.132642" lon="23.149219"><ele>595.2</ele><time>2026-04-13T11:22:10.000Z</time></trkpt>
<trkpt lat="42.13264" lon="23.149207"><ele>595.2</ele><time>2026-04-13T11:22:11.000Z</time></trkpt>
<trkpt lat="42.132637" lon="23.149194"><ele>595.2</ele><time>2026-04-13T11:22:12.000Z</time></trkpt>
<trkpt lat="42.132635" lon="23.149181"><ele>595.3</ele><time>2026-04-13T11:22:13.000Z</time></trkpt>
<trkpt lat="42.132632" lon="23.149168"><ele>595.3</ele><time>2026-04-13T11:22:14.000Z</time></trkpt>
<trkpt lat="42.132629" lon="23.149155"><ele>595.3</ele><time>2026-04-13T11:22:15.000Z</time></trkpt>
<trkpt lat="42.132625" lon="23.149142"><ele>595.3</ele><time>2026-04-13T11:22:16.000Z</time></trkpt>
<trkpt lat="42.132621" lon="23.149128"><ele>595.3</ele><time>2026-04-13T11:22:17.000Z</time></trkpt>
<trkpt lat="42.132618" lon="23.149114"><ele>595.7</ele><time>2026-04-13T11:22:18.000Z</time></trkpt>
<trkpt lat="42.132615" lon="23.149099"><ele>595.7</ele><time>2026-04-13T11:22:19.000Z</time></trkpt>
<trkpt lat="42.132612" lon="23.149083"><ele>595.7</ele><time>2026-04-13T11:22:20.000Z</time></trkpt>
<trkpt lat="42.13261" lon="23.149068"><ele>595.7</ele><time>2026-04-13T11:22:21.000Z</time></trkpt>
<trkpt lat="42.132608" lon="23.149052"><ele>595.7</ele><time>2026-04-13T11:22:22.000Z</time></trkpt>
<trkpt lat="42.132607" lon="23.149036"><ele>595.9</ele><time>2026-04-13T11:22:23.000Z</time></trkpt>
<trkpt lat="42.132605" lon="23.149021"><ele>595.9</ele><time>2026-04-13T11:22:24.000Z</time></trkpt>
<trkpt lat="42.132603" lon="23.149005"><ele>595.9</ele><time>2026-04-13T11:22:25.000Z</time></trkpt>
<trkpt lat="42.132602" lon="23.148989"><ele>595.9</ele><time>2026-04-13T11:22:26.000Z</time></trkpt>
<trkpt lat="42.1326" lon="23.148972"><ele>595.9</ele><time>2026-04-13T11:22:27.000Z</time></trkpt>
<trkpt lat="42.132599" lon="23.148955"><ele>596.3</ele><time>2026-04-13T11:22:28.000Z</time></trkpt>
<trkpt lat="42.132598" lon="23.148938"><ele>596.3</ele><time>2026-04-13T11:22:29.000Z</time></trkpt>
<trkpt lat="42.132598" lon="23.148922"><ele>596.3</ele><time>2026-04-13T11:22:30.000Z</time></trkpt>
<trkpt lat="42.132598" lon="23.148906"><ele>596.3</ele><time>2026-04-13T11:22:31.000Z</time></trkpt>
<trkpt lat="42.132599" lon="23.148891"><ele>596.3</ele><time>2026-04-13T11:22:32.000Z</time></trkpt>
<trkpt lat="42.132599" lon="23.148876"><ele>596.4</ele><time>2026-04-13T11:22:33.000Z</time></trkpt>
<trkpt lat="42.1326" lon="23.148861"><ele>596.4</ele><time>2026-04-13T11:22:34.000Z</time></trkpt>
<trkpt lat="42.1326" lon="23.148846"><ele>596.4</ele><time>2026-04-13T11:22:35.000Z</time></trkpt>
<trkpt lat="42.132601" lon="23.148831"><ele>596.4</ele><time>2026-04-13T11:22:36.000Z</time></trkpt>
<trkpt lat="42.132601" lon="23.148817"><ele>596.4</ele><time>2026-04-13T11:22:37.000Z</time></trkpt>
<trkpt lat="42.132601" lon="23.148803"><ele>596.4</ele><time>2026-04-13T11:22:38.000Z</time></trkpt>
<trkpt lat="42.1326" lon="23.14879"><ele>596.4</ele><time>2026-04-13T11:22:39.000Z</time></trkpt>
<trkpt lat="42.132599" lon="23.148776"><ele>596.4</ele><time>2026-04-13T11:22:40.000Z</time></trkpt>
<trkpt lat="42.132596" lon="23.148763"><ele>596.4</ele><time>2026-04-13T11:22:41.000Z</time></trkpt>
<trkpt lat="42.132592" lon="23.14875"><ele>596.4</ele><time>2026-04-13T11:22:42.000Z</time></trkpt>
<trkpt lat="42.132587" lon="23.148738"><ele>596.5</ele><time>2026-04-13T11:22:43.000Z</time></trkpt>
<trkpt lat="42.132582" lon="23.148726"><ele>596.5</ele><time>2026-04-13T11:22:44.000Z</time></trkpt>
<trkpt lat="42.132576" lon="23.148714"><ele>596.5</ele><time>2026-04-13T11:22:45.000Z</time></trkpt>
<trkpt lat="42.13257" lon="23.148702"><ele>596.5</ele><time>2026-04-13T11:22:46.000Z</time></trkpt>
<trkpt lat="42.132564" lon="23.14869"><ele>596.5</ele><time>2026-04-13T11:22:47.000Z</time></trkpt>
<trkpt lat="42.132558" lon="23.148677"><ele>597.2</ele><time>2026-04-13T11:22:48.000Z</time></trkpt>
<trkpt lat="42.132552" lon="23.148663"><ele>597.2</ele><time>2026-04-13T11:22:49.000Z</time></trkpt>
<trkpt lat="42.132546" lon="23.148651"><ele>597.2</ele><time>2026-04-13T11:22:50.000Z</time></trkpt>
<trkpt lat="42.132541" lon="23.148638"><ele>597.2</ele><time>2026-04-13T11:22:51.000Z</time></trkpt>
<trkpt lat="42.132535" lon="23.148626"><ele>597.2</ele><time>2026-04-13T11:22:52.000Z</time></trkpt>
<trkpt lat="42.132529" lon="23.148614"><ele>597.6</ele><time>2026-04-13T11:22:53.000Z</time></trkpt>
<trkpt lat="42.132522" lon="23.148603"><ele>597.6</ele><time>2026-04-13T11:22:54.000Z</time></trkpt>
<trkpt lat="42.132515" lon="23.148592"><ele>597.6</ele><time>2026-04-13T11:22:55.000Z</time></trkpt>
<trkpt lat="42.132508" lon="23.148581"><ele>597.6</ele><time>2026-04-13T11:22:56.000Z</time></trkpt>
<trkpt lat="42.1325" lon="23.14857"><ele>597.6</ele><time>2026-04-13T11:22:57.000Z</time></trkpt>
<trkpt lat="42.132492" lon="23.14856"><ele>598.1</ele><time>2026-04-13T11:22:58.000Z</time></trkpt>
<trkpt lat="42.132484" lon="23.14855"><ele>598.1</ele><time>2026-04-13T11:22:59.000Z</time></trkpt>
<trkpt lat="42.132476" lon="23.148541"><ele>598.1</ele><time>2026-04-13T11:23:00.000Z</time></trkpt>
<trkpt lat="42.132469" lon="23.148532"><ele>598.1</ele><time>2026-04-13T11:23:01.000Z</time></trkpt>
<trkpt lat="42.132462" lon="23.148523"><ele>598.1</ele><time>2026-04-13T11:23:02.000Z</time></trkpt>
<trkpt lat="42.132455" lon="23.148514"><ele>598.1</ele><time>2026-04-13T11:23:03.000Z</time></trkpt>
<trkpt lat="42.132448" lon="23.148505"><ele>598.1</ele><time>2026-04-13T11:23:04.000Z</time></trkpt>
<trkpt lat="42.132442" lon="23.148497"><ele>598.1</ele><time>2026-04-13T11:23:05.000Z</time></trkpt>
<trkpt lat="42.132437" lon="23.148487"><ele>598.1</ele><time>2026-04-13T11:23:06.000Z</time></trkpt>
<trkpt lat="42.132432" lon="23.148478"><ele>598.1</ele><time>2026-04-13T11:23:07.000Z</time></trkpt>
<trkpt lat="42.132428" lon="23.148469"><ele>598.2</ele><time>2026-04-13T11:23:08.000Z</time></trkpt>
<trkpt lat="42.132425" lon="23.148459"><ele>598.2</ele><time>2026-04-13T11:23:09.000Z</time></trkpt>
<trkpt lat="42.132422" lon="23.14845"><ele>598.2</ele><time>2026-04-13T11:23:10.000Z</time></trkpt>
<trkpt lat="42.13242" lon="23.148441"><ele>598.2</ele><time>2026-04-13T11:23:11.000Z</time></trkpt>
<trkpt lat="42.132419" lon="23.148434"><ele>598.2</ele><time>2026-04-13T11:23:12.000Z</time></trkpt>
<trkpt lat="42.132419" lon="23.148428"><ele>598.6</ele><time>2026-04-13T11:23:13.000Z</time></trkpt>
<trkpt lat="42.132419" lon="23.148423"><ele>598.6</ele><time>2026-04-13T11:23:14.000Z</time></trkpt>
<trkpt lat="42.13242" lon="23.148421"><ele>598.6</ele><time>2026-04-13T11:23:15.000Z</time></trkpt>
<trkpt lat="42.132422" lon="23.148419"><ele>598.6</ele><time>2026-04-13T11:23:16.000Z</time></trkpt>
<trkpt lat="42.132423" lon="23.148419"><ele>598.6</ele><time>2026-04-13T11:23:17.000Z</time></trkpt>
<trkpt lat="42.132423" lon="23.148418"><ele>598.8</ele><time>2026-04-13T11:23:18.000Z</time></trkpt>
<trkpt lat="42.132423" lon="23.148418"><ele>598.8</ele><time>2026-04-13T11:23:19.000Z</time></trkpt>
<trkpt lat="42.132423" lon="23.148417"><ele>598.8</ele><time>2026-04-13T11:23:20.000Z</time></trkpt>
<trkpt lat="42.132423" lon="23.148416"><ele>598.8</ele><time>2026-04-13T11:23:21.000Z</time></trkpt>
<trkpt lat="42.132422" lon="23.148415"><ele>598.8</ele><time>2026-04-13T11:23:22.000Z</time></trkpt>
<trkpt lat="42.132422" lon="23.148414"><ele>598.6</ele><time>2026-04-13T11:23:23.000Z</time></trkpt>
<trkpt lat="42.132422" lon="23.148413"><ele>598.6</ele><time>2026-04-13T11:23:24.000Z</time></trkpt>
<trkpt lat="42.132422" lon="23.148412"><ele>598.6</ele><time>2026-04-13T11:23:25.000Z</time></trkpt>
<trkpt lat="42.132423" lon="23.148412"><ele>598.6</ele><time>2026-04-13T11:23:26.000Z</time></trkpt>
<trkpt lat="42.132423" lon="23.148411"><ele>598.6</ele><time>2026-04-13T11:23:27.000Z</time></trkpt>
<trkpt lat="42.132423" lon="23.14841"><ele>598.2</ele><time>2026-04-13T11:23:28.000Z</time></trkpt>
<trkpt lat="42.132422" lon="23.148409"><ele>598.2</ele><time>2026-04-13T11:23:29.000Z</time></trkpt>
<trkpt lat="42.132422" lon="23.148409"><ele>598.2</ele><time>2026-04-13T11:23:30.000Z</time></trkpt>
<trkpt lat="42.132422" lon="23.148409"><ele>598.2</ele><time>2026-04-13T11:23:31.000Z</time></trkpt>
<trkpt lat="42.132421" lon="23.148409"><ele>598.2</ele><time>2026-04-13T11:23:32.000Z</time></trkpt>
<trkpt lat="42.132421" lon="23.148409"><ele>597.9</ele><time>2026-04-13T11:23:33.000Z</time></trkpt>
<trkpt lat="42.132421" lon="23.148409"><ele>597.9</ele><time>2026-04-13T11:23:34.000Z</time></trkpt>
<trkpt lat="42.132421" lon="23.148409"><ele>597.9</ele><time>2026-04-13T11:23:35.000Z</time></trkpt>
<trkpt lat="42.13242" lon="23.148409"><ele>597.9</ele><time>2026-04-13T11:23:36.000Z</time></trkpt>
<trkpt lat="42.13242" lon="23.148408"><ele>597.9</ele><time>2026-04-13T11:23:37.000Z</time></trkpt>
<trkpt lat="42.13242" lon="23.148407"><ele>597.9</ele><time>2026-04-13T11:23:38.000Z</time></trkpt>
<trkpt lat="42.13242" lon="23.148406"><ele>597.9</ele><time>2026-04-13T11:23:39.000Z</time></trkpt>
<trkpt lat="42.13242" lon="23.148405"><ele>597.9</ele><time>2026-04-13T11:23:40.000Z</time></trkpt>
<trkpt lat="42.13242" lon="23.148404"><ele>597.9</ele><time>2026-04-13T11:23:41.000Z</time></trkpt>
<trkpt lat="42.13242" lon="23.148403"><ele>597.9</ele><time>2026-04-13T11:23:42.000Z</time></trkpt>
<trkpt lat="42.13242" lon="23.148402"><ele>597.9</ele><time>2026-04-13T11:23:43.000Z</time></trkpt>
<trkpt lat="42.13242" lon="23.148401"><ele>597.9</ele><time>2026-04-13T11:23:44.000Z</time></trkpt>
<trkpt lat="42.13242" lon="23.148401"><ele>597.9</ele><time>2026-04-13T11:23:45.000Z</time></trkpt>
<trkpt lat="42.132419" lon="23.1484"><ele>597.9</ele><time>2026-04-13T11:23:46.000Z</time></trkpt>
<trkpt lat="42.132419" lon="23.1484"><ele>597.9</ele><time>2026-04-13T11:23:47.000Z</time></trkpt>
<trkpt lat="42.132419" lon="23.148401"><ele>597.9</ele><time>2026-04-13T11:23:48.000Z</time></trkpt>
<trkpt lat="42.132418" lon="23.148401"><ele>597.9</ele><time>2026-04-13T11:23:49.000Z</time></trkpt>
<trkpt lat="42.132418" lon="23.148401"><ele>597.9</ele><time>2026-04-13T11:23:50.000Z</time></trkpt>
<trkpt lat="42.132417" lon="23.148401"><ele>597.9</ele><time>2026-04-13T11:23:51.000Z</time></trkpt>
<trkpt lat="42.132417" lon="23.148402"><ele>597.9</ele><time>2026-04-13T11:23:52.000Z</time></trkpt>
<trkpt lat="42.132416" lon="23.148402"><ele>597.8</ele><time>2026-04-13T11:23:53.000Z</time></trkpt>
<trkpt lat="42.132416" lon="23.148401"><ele>597.8</ele><time>2026-04-13T11:23:54.000Z</time></trkpt>
<trkpt lat="42.132416" lon="23.148401"><ele>597.8</ele><time>2026-04-13T11:23:55.000Z</time></trkpt>
<trkpt lat="42.132416" lon="23.1484"><ele>597.8</ele><time>2026-04-13T11:23:56.000Z</time></trkpt>
<trkpt lat="42.132416" lon="23.148398"><ele>597.8</ele><time>2026-04-13T11:23:57.000Z</time></trkpt>
<trkpt lat="42.132416" lon="23.148396"><ele>597.8</ele><time>2026-04-13T11:23:58.000Z</time></trkpt>
<trkpt lat="42.132416" lon="23.148391"><ele>597.8</ele><time>2026-04-13T11:23:59.000Z</time></trkpt>
<trkpt lat="42.132416" lon="23.148386"><ele>597.8</ele><time>2026-04-13T11:24:00.000Z</time></trkpt>
<trkpt lat="42.132416" lon="23.148378"><ele>597.8</ele><time>2026-04-13T11:24:01.000Z</time></trkpt>
<trkpt lat="42.132416" lon="23.148369"><ele>597.8</ele><time>2026-04-13T11:24:02.000Z</time></trkpt>
<trkpt lat="42.132416" lon="23.148358"><ele>598</ele><time>2026-04-13T11:24:03.000Z</time></trkpt>
<trkpt lat="42.132414" lon="23.148346"><ele>598</ele><time>2026-04-13T11:24:04.000Z</time></trkpt>
<trkpt lat="42.132411" lon="23.148334"><ele>598</ele><time>2026-04-13T11:24:05.000Z</time></trkpt>
<trkpt lat="42.132407" lon="23.148323"><ele>598</ele><time>2026-04-13T11:24:06.000Z</time></trkpt>
<trkpt lat="42.132401" lon="23.148311"><ele>598</ele><time>2026-04-13T11:24:07.000Z</time></trkpt>
<trkpt lat="42.132395" lon="23.148301"><ele>598.1</ele><time>2026-04-13T11:24:08.000Z</time></trkpt>
<trkpt lat="42.132387" lon="23.14829"><ele>598.1</ele><time>2026-04-13T11:24:09.000Z</time></trkpt>
<trkpt lat="42.132379" lon="23.14828"><ele>598.1</ele><time>2026-04-13T11:24:10.000Z</time></trkpt>
<trkpt lat="42.132371" lon="23.148268"><ele>598.1</ele><time>2026-04-13T11:24:11.000Z</time></trkpt>
<trkpt lat="42.132364" lon="23.148257"><ele>598.1</ele><time>2026-04-13T11:24:12.000Z</time></trkpt>
<trkpt lat="42.132357" lon="23.148246"><ele>597.9</ele><time>2026-04-13T11:24:13.000Z</time></trkpt>
<trkpt lat="42.13235" lon="23.148234"><ele>597.9</ele><time>2026-04-13T11:24:14.000Z</time></trkpt>
<trkpt lat="42.132345" lon="23.148223"><ele>597.9</ele><time>2026-04-13T11:24:15.000Z</time></trkpt>
<trkpt lat="42.132341" lon="23.148211"><ele>597.9</ele><time>2026-04-13T11:24:16.000Z</time></trkpt>
<trkpt lat="42.132339" lon="23.1482"><ele>597.9</ele><time>2026-04-13T11:24:17.000Z</time></trkpt>
<trkpt lat="42.132338" lon="23.14819"><ele>597.7</ele><time>2026-04-13T11:24:18.000Z</time></trkpt>
<trkpt lat="42.13234" lon="23.148181"><ele>597.7</ele><time>2026-04-13T11:24:19.000Z</time></trkpt>
<trkpt lat="42.132345" lon="23.148177"><ele>597.7</ele><time>2026-04-13T11:24:20.000Z</time></trkpt>
<trkpt lat="42.13235" lon="23.148176"><ele>597.7</ele><time>2026-04-13T11:24:21.000Z</time></trkpt>
<trkpt lat="42.132355" lon="23.148178"><ele>597.7</ele><time>2026-04-13T11:24:22.000Z</time></trkpt>
<trkpt lat="42.132359" lon="23.148182"><ele>597.8</ele><time>2026-04-13T11:24:23.000Z</time></trkpt>
<trkpt lat="42.132362" lon="23.148187"><ele>597.8</ele><time>2026-04-13T11:24:24.000Z</time></trkpt>
<trkpt lat="42.132364" lon="23.148192"><ele>597.8</ele><time>2026-04-13T11:24:25.000Z</time></trkpt>
<trkpt lat="42.132364" lon="23.148195"><ele>597.8</ele><time>2026-04-13T11:24:26.000Z</time></trkpt>
<trkpt lat="42.132364" lon="23.148197"><ele>597.8</ele><time>2026-04-13T11:24:27.000Z</time></trkpt>
<trkpt lat="42.132363" lon="23.148198"><ele>597.7</ele><time>2026-04-13T11:24:28.000Z</time></trkpt>
<trkpt lat="42.132363" lon="23.148198"><ele>597.7</ele><time>2026-04-13T11:24:29.000Z</time></trkpt>
<trkpt lat="42.132362" lon="23.148198"><ele>597.7</ele><time>2026-04-13T11:24:30.000Z</time></trkpt>
<trkpt lat="42.132362" lon="23.148198"><ele>597.7</ele><time>2026-04-13T11:24:31.000Z</time></trkpt>
<trkpt lat="42.132362" lon="23.148198"><ele>597.7</ele><time>2026-04-13T11:24:32.000Z</time></trkpt>
<trkpt lat="42.132362" lon="23.148198"><ele>597.4</ele><time>2026-04-13T11:24:33.000Z</time></trkpt>
<trkpt lat="42.132362" lon="23.148197"><ele>597.4</ele><time>2026-04-13T11:24:34.000Z</time></trkpt>
<trkpt lat="42.132362" lon="23.148197"><ele>597.4</ele><time>2026-04-13T11:24:35.000Z</time></trkpt>
<trkpt lat="42.132362" lon="23.148196"><ele>597.4</ele><time>2026-04-13T11:24:36.000Z</time></trkpt>
<trkpt lat="42.132362" lon="23.148196"><ele>597.4</ele><time>2026-04-13T11:24:37.000Z</time></trkpt>
<trkpt lat="42.132361" lon="23.148195"><ele>597.5</ele><time>2026-04-13T11:24:38.000Z</time></trkpt>
<trkpt lat="42.132361" lon="23.148195"><ele>597.5</ele><time>2026-04-13T11:24:39.000Z</time></trkpt>
<trkpt lat="42.132361" lon="23.148195"><ele>597.5</ele><time>2026-04-13T11:24:40.000Z</time></trkpt>
<trkpt lat="42.132361" lon="23.148194"><ele>597.5</ele><time>2026-04-13T11:24:41.000Z</time></trkpt>
<trkpt lat="42.132361" lon="23.148194"><ele>597.5</ele><time>2026-04-13T11:24:42.000Z</time></trkpt>
<trkpt lat="42.132361" lon="23.148194"><ele>597.5</ele><time>2026-04-13T11:24:43.000Z</time></trkpt>
<trkpt lat="42.132361" lon="23.148193"><ele>597.5</ele><time>2026-04-13T11:24:44.000Z</time></trkpt>
<trkpt lat="42.132361" lon="23.148193"><ele>597.5</ele><time>2026-04-13T11:24:45.000Z</time></trkpt>
<trkpt lat="42.132361" lon="23.148193"><ele>597.5</ele><time>2026-04-13T11:24:46.000Z</time></trkpt>
<trkpt lat="42.132361" lon="23.148192"><ele>597.5</ele><time>2026-04-13T11:24:47.000Z</time></trkpt>
<trkpt lat="42.132361" lon="23.148192"><ele>597.6</ele><time>2026-04-13T11:24:48.000Z</time></trkpt>
<trkpt lat="42.132361" lon="23.148192"><ele>597.6</ele><time>2026-04-13T11:24:49.000Z</time></trkpt>
<trkpt lat="42.13236" lon="23.148192"><ele>597.6</ele><time>2026-04-13T11:24:50.000Z</time></trkpt>
<trkpt lat="42.13236" lon="23.148192"><ele>597.6</ele><time>2026-04-13T11:24:51.000Z</time></trkpt>
<trkpt lat="42.13236" lon="23.148192"><ele>597.6</ele><time>2026-04-13T11:24:52.000Z</time></trkpt>
<trkpt lat="42.13236" lon="23.148192"><ele>597.6</ele><time>2026-04-13T11:24:53.000Z</time></trkpt>
<trkpt lat="42.13236" lon="23.148192"><ele>597.6</ele><time>2026-04-13T11:24:54.000Z</time></trkpt>
<trkpt lat="42.13236" lon="23.148192"><ele>597.6</ele><time>2026-04-13T11:24:55.000Z</time></trkpt>
<trkpt lat="42.13236" lon="23.148192"><ele>597.6</ele><time>2026-04-13T11:24:56.000Z</time></trkpt>
<trkpt lat="42.13236" lon="23.148192"><ele>597.6</ele><time>2026-04-13T11:24:57.000Z</time></trkpt>
<trkpt lat="42.13236" lon="23.148192"><ele>597.6</ele><time>2026-04-13T11:24:58.000Z</time></trkpt>
<trkpt lat="42.13236" lon="23.148192"><ele>597.6</ele><time>2026-04-13T11:24:59.000Z</time></trkpt>
<trkpt lat="42.13236" lon="23.148192"><ele>597.6</ele><time>2026-04-13T11:25:00.000Z</time></trkpt>
<trkpt lat="42.13236" lon="23.148192"><ele>597.6</ele><time>2026-04-13T11:25:01.000Z</time></trkpt>
<trkpt lat="42.13236" lon="23.148191"><ele>597.6</ele><time>2026-04-13T11:25:02.000Z</time></trkpt>
<trkpt lat="42.13236" lon="23.148191"><ele>597.5</ele><time>2026-04-13T11:25:03.000Z</time></trkpt>
<trkpt lat="42.13236" lon="23.148191"><ele>597.5</ele><time>2026-04-13T11:25:04.000Z</time></trkpt>
<trkpt lat="42.13236" lon="23.148191"><ele>597.5</ele><time>2026-04-13T11:25:05.000Z</time></trkpt>
<trkpt lat="42.13236" lon="23.148191"><ele>597.5</ele><time>2026-04-13T11:25:06.000Z</time></trkpt>
<trkpt lat="42.13236" lon="23.148191"><ele>597.5</ele><time>2026-04-13T11:25:07.000Z</time></trkpt>
<trkpt lat="42.13236" lon="23.148191"><ele>597.5</ele><time>2026-04-13T11:25:08.000Z</time></trkpt>
<trkpt lat="42.13236" lon="23.148191"><ele>597.5</ele><time>2026-04-13T11:25:09.000Z</time></trkpt>
<trkpt lat="42.13236" lon="23.148191"><ele>597.5</ele><time>2026-04-13T11:25:10.000Z</time></trkpt>
<trkpt lat="42.13236" lon="23.148191"><ele>597.5</ele><time>2026-04-13T11:25:11.000Z</time></trkpt>
<trkpt lat="42.13236" lon="23.148191"><ele>597.5</ele><time>2026-04-13T11:25:12.000Z</time></trkpt>
<trkpt lat="42.132359" lon="23.14819"><ele>597.3</ele><time>2026-04-13T11:25:13.000Z</time></trkpt>
<trkpt lat="42.132358" lon="23.148188"><ele>597.3</ele><time>2026-04-13T11:25:14.000Z</time></trkpt>
<trkpt lat="42.132355" lon="23.148186"><ele>597.3</ele><time>2026-04-13T11:25:15.000Z</time></trkpt>
<trkpt lat="42.132353" lon="23.148182"><ele>597.3</ele><time>2026-04-13T11:25:16.000Z</time></trkpt>
<trkpt lat="42.132349" lon="23.148179"><ele>597.3</ele><time>2026-04-13T11:25:17.000Z</time></trkpt>
<trkpt lat="42.132346" lon="23.148176"><ele>597.1</ele><time>2026-04-13T11:25:18.000Z</time></trkpt>
<trkpt lat="42.132344" lon="23.148175"><ele>597.1</ele><time>2026-04-13T11:25:19.000Z</time></trkpt>
<trkpt lat="42.132342" lon="23.148175"><ele>597.1</ele><time>2026-04-13T11:25:20.000Z</time></trkpt>
<trkpt lat="42.132341" lon="23.148176"><ele>597.1</ele><time>2026-04-13T11:25:21.000Z</time></trkpt>
<trkpt lat="42.13234" lon="23.148177"><ele>597.1</ele><time>2026-04-13T11:25:22.000Z</time></trkpt>
<trkpt lat="42.132339" lon="23.148177"><ele>597</ele><time>2026-04-13T11:25:23.000Z</time></trkpt>
<trkpt lat="42.132339" lon="23.148176"><ele>597</ele><time>2026-04-13T11:25:24.000Z</time></trkpt>
<trkpt lat="42.132338" lon="23.148173"><ele>597</ele><time>2026-04-13T11:25:25.000Z</time></trkpt>
<trkpt lat="42.132338" lon="23.148169"><ele>597</ele><time>2026-04-13T11:25:26.000Z</time></trkpt>
<trkpt lat="42.132337" lon="23.148164"><ele>597</ele><time>2026-04-13T11:25:27.000Z</time></trkpt>
<trkpt lat="42.132337" lon="23.148157"><ele>596.8</ele><time>2026-04-13T11:25:28.000Z</time></trkpt>
<trkpt lat="42.132336" lon="23.14815"><ele>596.8</ele><time>2026-04-13T11:25:29.000Z</time></trkpt>
<trkpt lat="42.132336" lon="23.148141"><ele>596.8</ele><time>2026-04-13T11:25:30.000Z</time></trkpt>
<trkpt lat="42.132334" lon="23.148132"><ele>596.8</ele><time>2026-04-13T11:25:31.000Z</time></trkpt>
<trkpt lat="42.132332" lon="23.148122"><ele>596.8</ele><time>2026-04-13T11:25:32.000Z</time></trkpt>
<trkpt lat="42.13233" lon="23.148112"><ele>596.6</ele><time>2026-04-13T11:25:33.000Z</time></trkpt>
<trkpt lat="42.132326" lon="23.148102"><ele>596.6</ele><time>2026-04-13T11:25:34.000Z</time></trkpt>
<trkpt lat="42.132323" lon="23.148092"><ele>596.6</ele><time>2026-04-13T11:25:35.000Z</time></trkpt>
<trkpt lat="42.132319" lon="23.148082"><ele>596.6</ele><time>2026-04-13T11:25:36.000Z</time></trkpt>
<trkpt lat="42.132315" lon="23.148072"><ele>596.6</ele><time>2026-04-13T11:25:37.000Z</time></trkpt>
<trkpt lat="42.132311" lon="23.148062"><ele>596.5</ele><time>2026-04-13T11:25:38.000Z</time></trkpt>
<trkpt lat="42.132308" lon="23.148051"><ele>596.5</ele><time>2026-04-13T11:25:39.000Z</time></trkpt>
<trkpt lat="42.132305" lon="23.14804"><ele>596.5</ele><time>2026-04-13T11:25:40.000Z</time></trkpt>
<trkpt lat="42.132302" lon="23.148029"><ele>596.5</ele><time>2026-04-13T11:25:41.000Z</time></trkpt>
<trkpt lat="42.132299" lon="23.148016"><ele>596.5</ele><time>2026-04-13T11:25:42.000Z</time></trkpt>
<trkpt lat="42.132298" lon="23.148003"><ele>596.4</ele><time>2026-04-13T11:25:43.000Z</time></trkpt>
<trkpt lat="42.132298" lon="23.147989"><ele>596.4</ele><time>2026-04-13T11:25:44.000Z</time></trkpt>
<trkpt lat="42.132299" lon="23.147975"><ele>596.4</ele><time>2026-04-13T11:25:45.000Z</time></trkpt>
<trkpt lat="42.132301" lon="23.147961"><ele>596.4</ele><time>2026-04-13T11:25:46.000Z</time></trkpt>
<trkpt lat="42.132303" lon="23.147947"><ele>596.4</ele><time>2026-04-13T11:25:47.000Z</time></trkpt>
<trkpt lat="42.132306" lon="23.147932"><ele>596.3</ele><time>2026-04-13T11:25:48.000Z</time></trkpt>
<trkpt lat="42.132309" lon="23.147917"><ele>596.3</ele><time>2026-04-13T11:25:49.000Z</time></trkpt>
<trkpt lat="42.132312" lon="23.147901"><ele>596.3</ele><time>2026-04-13T11:25:50.000Z</time></trkpt>
<trkpt lat="42.132314" lon="23.147885"><ele>596.3</ele><time>2026-04-13T11:25:51.000Z</time></trkpt>
<trkpt lat="42.132317" lon="23.147869"><ele>596.3</ele><time>2026-04-13T11:25:52.000Z</time></trkpt>
<trkpt lat="42.132319" lon="23.147853"><ele>596.3</ele><time>2026-04-13T11:25:53.000Z</time></trkpt>
<trkpt lat="42.132322" lon="23.147839"><ele>596.3</ele><time>2026-04-13T11:25:54.000Z</time></trkpt>
<trkpt lat="42.132325" lon="23.147825"><ele>596.3</ele><time>2026-04-13T11:25:55.000Z</time></trkpt>
<trkpt lat="42.13233" lon="23.147813"><ele>596.3</ele><time>2026-04-13T11:25:56.000Z</time></trkpt>
<trkpt lat="42.132335" lon="23.1478"><ele>596.3</ele><time>2026-04-13T11:25:57.000Z</time></trkpt>
<trkpt lat="42.132341" lon="23.147789"><ele>596.4</ele><time>2026-04-13T11:25:58.000Z</time></trkpt>
<trkpt lat="42.132349" lon="23.147777"><ele>596.4</ele><time>2026-04-13T11:25:59.000Z</time></trkpt>
<trkpt lat="42.132358" lon="23.147767"><ele>596.4</ele><time>2026-04-13T11:26:00.000Z</time></trkpt>
<trkpt lat="42.132367" lon="23.147757"><ele>596.4</ele><time>2026-04-13T11:26:01.000Z</time></trkpt>
<trkpt lat="42.132377" lon="23.147748"><ele>596.4</ele><time>2026-04-13T11:26:02.000Z</time></trkpt>
<trkpt lat="42.132385" lon="23.147739"><ele>596.1</ele><time>2026-04-13T11:26:03.000Z</time></trkpt>
<trkpt lat="42.132394" lon="23.14773"><ele>596.1</ele><time>2026-04-13T11:26:04.000Z</time></trkpt>
<trkpt lat="42.132402" lon="23.147722"><ele>596.1</ele><time>2026-04-13T11:26:05.000Z</time></trkpt>
<trkpt lat="42.132411" lon="23.147714"><ele>596.1</ele><time>2026-04-13T11:26:06.000Z</time></trkpt>
<trkpt lat="42.13242" lon="23.147706"><ele>596.1</ele><time>2026-04-13T11:26:07.000Z</time></trkpt>
<trkpt lat="42.13243" lon="23.147697"><ele>595.9</ele><time>2026-04-13T11:26:08.000Z</time></trkpt>
<trkpt lat="42.132439" lon="23.147689"><ele>595.9</ele><time>2026-04-13T11:26:09.000Z</time></trkpt>
<trkpt lat="42.132449" lon="23.147679"><ele>595.9</ele><time>2026-04-13T11:26:10.000Z</time></trkpt>
<trkpt lat="42.132459" lon="23.147669"><ele>595.9</ele><time>2026-04-13T11:26:11.000Z</time></trkpt>
<trkpt lat="42.132468" lon="23.147658"><ele>595.9</ele><time>2026-04-13T11:26:12.000Z</time></trkpt>
<trkpt lat="42.132476" lon="23.147647"><ele>595.4</ele><time>2026-04-13T11:26:13.000Z</time></trkpt>
<trkpt lat="42.132485" lon="23.147637"><ele>595.4</ele><time>2026-04-13T11:26:14.000Z</time></trkpt>
<trkpt lat="42.132493" lon="23.147626"><ele>595.4</ele><time>2026-04-13T11:26:15.000Z</time></trkpt>
<trkpt lat="42.132501" lon="23.147615"><ele>595.4</ele><time>2026-04-13T11:26:16.000Z</time></trkpt>
<trkpt lat="42.13251" lon="23.147604"><ele>595.4</ele><time>2026-04-13T11:26:17.000Z</time></trkpt>
<trkpt lat="42.132518" lon="23.147593"><ele>594.8</ele><time>2026-04-13T11:26:18.000Z</time></trkpt>
<trkpt lat="42.132527" lon="23.147583"><ele>594.8</ele><time>2026-04-13T11:26:19.000Z</time></trkpt>
<trkpt lat="42.132534" lon="23.147572"><ele>594.8</ele><time>2026-04-13T11:26:20.000Z</time></trkpt>
<trkpt lat="42.132541" lon="23.147563"><ele>594.8</ele><time>2026-04-13T11:26:21.000Z</time></trkpt>
<trkpt lat="42.132547" lon="23.147552"><ele>594.8</ele><time>2026-04-13T11:26:22.000Z</time></trkpt>
<trkpt lat="42.132552" lon="23.14754"><ele>594.2</ele><time>2026-04-13T11:26:23.000Z</time></trkpt>
<trkpt lat="42.132557" lon="23.147527"><ele>594.2</ele><time>2026-04-13T11:26:24.000Z</time></trkpt>
<trkpt lat="42.132561" lon="23.147513"><ele>594.2</ele><time>2026-04-13T11:26:25.000Z</time></trkpt>
<trkpt lat="42.132566" lon="23.147499"><ele>594.2</ele><time>2026-04-13T11:26:26.000Z</time></trkpt>
<trkpt lat="42.13257" lon="23.147485"><ele>594.2</ele><time>2026-04-13T11:26:27.000Z</time></trkpt>
<trkpt lat="42.132573" lon="23.147471"><ele>593</ele><time>2026-04-13T11:26:28.000Z</time></trkpt>
<trkpt lat="42.132577" lon="23.147457"><ele>593</ele><time>2026-04-13T11:26:29.000Z</time></trkpt>
<trkpt lat="42.132581" lon="23.147443"><ele>593</ele><time>2026-04-13T11:26:30.000Z</time></trkpt>
<trkpt lat="42.132585" lon="23.147429"><ele>593</ele><time>2026-04-13T11:26:31.000Z</time></trkpt>
<trkpt lat="42.13259" lon="23.147416"><ele>593</ele><time>2026-04-13T11:26:32.000Z</time></trkpt>
<trkpt lat="42.132595" lon="23.147402"><ele>592</ele><time>2026-04-13T11:26:33.000Z</time></trkpt>
<trkpt lat="42.132601" lon="23.147388"><ele>592</ele><time>2026-04-13T11:26:34.000Z</time></trkpt>
<trkpt lat="42.132606" lon="23.147374"><ele>592</ele><time>2026-04-13T11:26:35.000Z</time></trkpt>
<trkpt lat="42.132612" lon="23.147361"><ele>592</ele><time>2026-04-13T11:26:36.000Z</time></trkpt>
<trkpt lat="42.132617" lon="23.147348"><ele>592</ele><time>2026-04-13T11:26:37.000Z</time></trkpt>
<trkpt lat="42.132621" lon="23.147336"><ele>591.6</ele><time>2026-04-13T11:26:38.000Z</time></trkpt>
<trkpt lat="42.132626" lon="23.147324"><ele>591.6</ele><time>2026-04-13T11:26:39.000Z</time></trkpt>
<trkpt lat="42.13263" lon="23.147313"><ele>591.6</ele><time>2026-04-13T11:26:40.000Z</time></trkpt>
<trkpt lat="42.132634" lon="23.147302"><ele>591.6</ele><time>2026-04-13T11:26:41.000Z</time></trkpt>
<trkpt lat="42.132638" lon="23.147292"><ele>591.6</ele><time>2026-04-13T11:26:42.000Z</time></trkpt>
<trkpt lat="42.132642" lon="23.147282"><ele>590.9</ele><time>2026-04-13T11:26:43.000Z</time></trkpt>
<trkpt lat="42.132646" lon="23.147273"><ele>590.9</ele><time>2026-04-13T11:26:44.000Z</time></trkpt>
<trkpt lat="42.13265" lon="23.147265"><ele>590.9</ele><time>2026-04-13T11:26:45.000Z</time></trkpt>
<trkpt lat="42.132653" lon="23.147257"><ele>590.9</ele><time>2026-04-13T11:26:46.000Z</time></trkpt>
<trkpt lat="42.132656" lon="23.14725"><ele>590.9</ele><time>2026-04-13T11:26:47.000Z</time></trkpt>
<trkpt lat="42.132658" lon="23.147242"><ele>590.4</ele><time>2026-04-13T11:26:48.000Z</time></trkpt>
<trkpt lat="42.132661" lon="23.147234"><ele>590.4</ele><time>2026-04-13T11:26:49.000Z</time></trkpt>
<trkpt lat="42.132664" lon="23.147225"><ele>590.4</ele><time>2026-04-13T11:26:50.000Z</time></trkpt>
<trkpt lat="42.132668" lon="23.147216"><ele>590.4</ele><time>2026-04-13T11:26:51.000Z</time></trkpt>
<trkpt lat="42.132672" lon="23.147206"><ele>590.4</ele><time>2026-04-13T11:26:52.000Z</time></trkpt>
<trkpt lat="42.132678" lon="23.147197"><ele>590.2</ele><time>2026-04-13T11:26:53.000Z</time></trkpt>
<trkpt lat="42.132684" lon="23.147188"><ele>590.2</ele><time>2026-04-13T11:26:54.000Z</time></trkpt>
<trkpt lat="42.132691" lon="23.147179"><ele>590.2</ele><time>2026-04-13T11:26:55.000Z</time></trkpt>
<trkpt lat="42.132698" lon="23.14717"><ele>590.2</ele><time>2026-04-13T11:26:56.000Z</time></trkpt>
<trkpt lat="42.132706" lon="23.14716"><ele>590.2</ele><time>2026-04-13T11:26:57.000Z</time></trkpt>
<trkpt lat="42.132713" lon="23.14715"><ele>590</ele><time>2026-04-13T11:26:58.000Z</time></trkpt>
<trkpt lat="42.13272" lon="23.147139"><ele>590</ele><time>2026-04-13T11:26:59.000Z</time></trkpt>
<trkpt lat="42.132728" lon="23.147127"><ele>590</ele><time>2026-04-13T11:27:00.000Z</time></trkpt>
<trkpt lat="42.132735" lon="23.147116"><ele>590</ele><time>2026-04-13T11:27:01.000Z</time></trkpt>
<trkpt lat="42.132742" lon="23.147105"><ele>590</ele><time>2026-04-13T11:27:02.000Z</time></trkpt>
<trkpt lat="42.132749" lon="23.147094"><ele>589.6</ele><time>2026-04-13T11:27:03.000Z</time></trkpt>
<trkpt lat="42.132756" lon="23.147084"><ele>589.6</ele><time>2026-04-13T11:27:04.000Z</time></trkpt>
<trkpt lat="42.132764" lon="23.147073"><ele>589.6</ele><time>2026-04-13T11:27:05.000Z</time></trkpt>
<trkpt lat="42.132772" lon="23.147063"><ele>589.6</ele><time>2026-04-13T11:27:06.000Z</time></trkpt>
<trkpt lat="42.13278" lon="23.147052"><ele>589.6</ele><time>2026-04-13T11:27:07.000Z</time></trkpt>
<trkpt lat="42.132789" lon="23.147041"><ele>589.4</ele><time>2026-04-13T11:27:08.000Z</time></trkpt>
<trkpt lat="42.132798" lon="23.147031"><ele>589.4</ele><time>2026-04-13T11:27:09.000Z</time></trkpt>
<trkpt lat="42.132807" lon="23.147021"><ele>589.4</ele><time>2026-04-13T11:27:10.000Z</time></trkpt>
<trkpt lat="42.132817" lon="23.147012"><ele>589.4</ele><time>2026-04-13T11:27:11.000Z</time></trkpt>
<trkpt lat="42.132826" lon="23.147003"><ele>589.4</ele><time>2026-04-13T11:27:12.000Z</time></trkpt>
<trkpt lat="42.132835" lon="23.146996"><ele>588.8</ele><time>2026-04-13T11:27:13.000Z</time></trkpt>
<trkpt lat="42.132844" lon="23.14699"><ele>588.8</ele><time>2026-04-13T11:27:14.000Z</time></trkpt>
<trkpt lat="42.132854" lon="23.146986"><ele>588.8</ele><time>2026-04-13T11:27:15.000Z</time></trkpt>
<trkpt lat="42.132865" lon="23.146983"><ele>588.8</ele><time>2026-04-13T11:27:16.000Z</time></trkpt>
<trkpt lat="42.132875" lon="23.14698"><ele>588.8</ele><time>2026-04-13T11:27:17.000Z</time></trkpt>
<trkpt lat="42.132887" lon="23.146978"><ele>588.3</ele><time>2026-04-13T11:27:18.000Z</time></trkpt>
<trkpt lat="42.132898" lon="23.146977"><ele>588.3</ele><time>2026-04-13T11:27:19.000Z</time></trkpt>
<trkpt lat="42.132909" lon="23.146976"><ele>588.3</ele><time>2026-04-13T11:27:20.000Z</time></trkpt>
<trkpt lat="42.13292" lon="23.146975"><ele>588.3</ele><time>2026-04-13T11:27:21.000Z</time></trkpt>
<trkpt lat="42.13293" lon="23.146974"><ele>588.3</ele><time>2026-04-13T11:27:22.000Z</time></trkpt>
<trkpt lat="42.13294" lon="23.146974"><ele>588.1</ele><time>2026-04-13T11:27:23.000Z</time></trkpt>
<trkpt lat="42.132951" lon="23.146974"><ele>588.1</ele><time>2026-04-13T11:27:24.000Z</time></trkpt>
<trkpt lat="42.132961" lon="23.146974"><ele>588.1</ele><time>2026-04-13T11:27:25.000Z</time></trkpt>
<trkpt lat="42.132972" lon="23.146973"><ele>588.1</ele><time>2026-04-13T11:27:26.000Z</time></trkpt>
<trkpt lat="42.132984" lon="23.146973"><ele>588.1</ele><time>2026-04-13T11:27:27.000Z</time></trkpt>
<trkpt lat="42.132996" lon="23.146973"><ele>587.9</ele><time>2026-04-13T11:27:28.000Z</time></trkpt>
<trkpt lat="42.133008" lon="23.146974"><ele>587.9</ele><time>2026-04-13T11:27:29.000Z</time></trkpt>
<trkpt lat="42.13302" lon="23.146975"><ele>587.9</ele><time>2026-04-13T11:27:30.000Z</time></trkpt>
<trkpt lat="42.133031" lon="23.146978"><ele>587.9</ele><time>2026-04-13T11:27:31.000Z</time></trkpt>
<trkpt lat="42.133042" lon="23.146982"><ele>587.9</ele><time>2026-04-13T11:27:32.000Z</time></trkpt>
<trkpt lat="42.133053" lon="23.146987"><ele>587.7</ele><time>2026-04-13T11:27:33.000Z</time></trkpt>
<trkpt lat="42.133063" lon="23.146993"><ele>587.7</ele><time>2026-04-13T11:27:34.000Z</time></trkpt>
<trkpt lat="42.133073" lon="23.147"><ele>587.7</ele><time>2026-04-13T11:27:35.000Z</time></trkpt>
<trkpt lat="42.133083" lon="23.147008"><ele>587.7</ele><time>2026-04-13T11:27:36.000Z</time></trkpt>
<trkpt lat="42.133093" lon="23.147017"><ele>587.7</ele><time>2026-04-13T11:27:37.000Z</time></trkpt>
<trkpt lat="42.133103" lon="23.147027"><ele>587.4</ele><time>2026-04-13T11:27:38.000Z</time></trkpt>
<trkpt lat="42.133113" lon="23.147037"><ele>587.4</ele><time>2026-04-13T11:27:39.000Z</time></trkpt>
<trkpt lat="42.133123" lon="23.147047"><ele>587.4</ele><time>2026-04-13T11:27:40.000Z</time></trkpt>
<trkpt lat="42.133134" lon="23.147056"><ele>587.4</ele><time>2026-04-13T11:27:41.000Z</time></trkpt>
<trkpt lat="42.133145" lon="23.147064"><ele>587.4</ele><time>2026-04-13T11:27:42.000Z</time></trkpt>
<trkpt lat="42.133155" lon="23.147071"><ele>586.8</ele><time>2026-04-13T11:27:43.000Z</time></trkpt>
<trkpt lat="42.133166" lon="23.147078"><ele>586.8</ele><time>2026-04-13T11:27:44.000Z</time></trkpt>
<trkpt lat="42.133177" lon="23.147084"><ele>586.8</ele><time>2026-04-13T11:27:45.000Z</time></trkpt>
<trkpt lat="42.133188" lon="23.147092"><ele>586.8</ele><time>2026-04-13T11:27:46.000Z</time></trkpt>
<trkpt lat="42.133199" lon="23.1471"><ele>586.8</ele><time>2026-04-13T11:27:47.000Z</time></trkpt>
<trkpt lat="42.13321" lon="23.147108"><ele>586.1</ele><time>2026-04-13T11:27:48.000Z</time></trkpt>
<trkpt lat="42.133221" lon="23.147116"><ele>586.1</ele><time>2026-04-13T11:27:49.000Z</time></trkpt>
<trkpt lat="42.133231" lon="23.147123"><ele>586.1</ele><time>2026-04-13T11:27:50.000Z</time></trkpt>
<trkpt lat="42.133242" lon="23.147128"><ele>586.1</ele><time>2026-04-13T11:27:51.000Z</time></trkpt>
<trkpt lat="42.133253" lon="23.147133"><ele>586.1</ele><time>2026-04-13T11:27:52.000Z</time></trkpt>
<trkpt lat="42.133264" lon="23.147137"><ele>585.9</ele><time>2026-04-13T11:27:53.000Z</time></trkpt>
<trkpt lat="42.133275" lon="23.147141"><ele>585.9</ele><time>2026-04-13T11:27:54.000Z</time></trkpt>
<trkpt lat="42.133285" lon="23.147145"><ele>585.9</ele><time>2026-04-13T11:27:55.000Z</time></trkpt>
<trkpt lat="42.133295" lon="23.147151"><ele>585.9</ele><time>2026-04-13T11:27:56.000Z</time></trkpt>
<trkpt lat="42.133304" lon="23.147158"><ele>585.9</ele><time>2026-04-13T11:27:57.000Z</time></trkpt>
<trkpt lat="42.133313" lon="23.147166"><ele>585.7</ele><time>2026-04-13T11:27:58.000Z</time></trkpt>
<trkpt lat="42.133321" lon="23.147175"><ele>585.7</ele><time>2026-04-13T11:27:59.000Z</time></trkpt>
<trkpt lat="42.133329" lon="23.147185"><ele>585.7</ele><time>2026-04-13T11:28:00.000Z</time></trkpt>
<trkpt lat="42.133337" lon="23.147196"><ele>585.7</ele><time>2026-04-13T11:28:01.000Z</time></trkpt>
<trkpt lat="42.133346" lon="23.147206"><ele>585.7</ele><time>2026-04-13T11:28:02.000Z</time></trkpt>
<trkpt lat="42.133353" lon="23.147216"><ele>585.5</ele><time>2026-04-13T11:28:03.000Z</time></trkpt>
<trkpt lat="42.133361" lon="23.147225"><ele>585.5</ele><time>2026-04-13T11:28:04.000Z</time></trkpt>
<trkpt lat="42.133367" lon="23.147234"><ele>585.5</ele><time>2026-04-13T11:28:05.000Z</time></trkpt>
<trkpt lat="42.133373" lon="23.147242"><ele>585.5</ele><time>2026-04-13T11:28:06.000Z</time></trkpt>
<trkpt lat="42.133379" lon="23.14725"><ele>585.5</ele><time>2026-04-13T11:28:07.000Z</time></trkpt>
<trkpt lat="42.133385" lon="23.147257"><ele>585.2</ele><time>2026-04-13T11:28:08.000Z</time></trkpt>
<trkpt lat="42.133391" lon="23.147264"><ele>585.2</ele><time>2026-04-13T11:28:09.000Z</time></trkpt>
<trkpt lat="42.133399" lon="23.14727"><ele>585.2</ele><time>2026-04-13T11:28:10.000Z</time></trkpt>
<trkpt lat="42.133407" lon="23.147275"><ele>585.2</ele><time>2026-04-13T11:28:11.000Z</time></trkpt>
<trkpt lat="42.133416" lon="23.147281"><ele>585.2</ele><time>2026-04-13T11:28:12.000Z</time></trkpt>
<trkpt lat="42.133425" lon="23.147284"><ele>584.3</ele><time>2026-04-13T11:28:13.000Z</time></trkpt>
<trkpt lat="42.133434" lon="23.147286"><ele>584.3</ele><time>2026-04-13T11:28:14.000Z</time></trkpt>
<trkpt lat="42.133443" lon="23.147287"><ele>584.3</ele><time>2026-04-13T11:28:15.000Z</time></trkpt>
<trkpt lat="42.133452" lon="23.147285"><ele>584.3</ele><time>2026-04-13T11:28:16.000Z</time></trkpt>
<trkpt lat="42.13346" lon="23.147282"><ele>584.3</ele><time>2026-04-13T11:28:17.000Z</time></trkpt>
<trkpt lat="42.133468" lon="23.147278"><ele>583.4</ele><time>2026-04-13T11:28:18.000Z</time></trkpt>
<trkpt lat="42.133477" lon="23.147272"><ele>583.4</ele><time>2026-04-13T11:28:19.000Z</time></trkpt>
<trkpt lat="42.133486" lon="23.147267"><ele>583.4</ele><time>2026-04-13T11:28:20.000Z</time></trkpt>
<trkpt lat="42.133494" lon="23.14726"><ele>583.4</ele><time>2026-04-13T11:28:21.000Z</time></trkpt>
<trkpt lat="42.133502" lon="23.147253"><ele>583.4</ele><time>2026-04-13T11:28:22.000Z</time></trkpt>
<trkpt lat="42.13351" lon="23.147246"><ele>583.1</ele><time>2026-04-13T11:28:23.000Z</time></trkpt>
<trkpt lat="42.133516" lon="23.147237"><ele>583.1</ele><time>2026-04-13T11:28:24.000Z</time></trkpt>
<trkpt lat="42.133521" lon="23.147228"><ele>583.1</ele><time>2026-04-13T11:28:25.000Z</time></trkpt>
<trkpt lat="42.133525" lon="23.147219"><ele>583.1</ele><time>2026-04-13T11:28:26.000Z</time></trkpt>
<trkpt lat="42.133529" lon="23.14721"><ele>583.1</ele><time>2026-04-13T11:28:27.000Z</time></trkpt>
<trkpt lat="42.133532" lon="23.147201"><ele>582.7</ele><time>2026-04-13T11:28:28.000Z</time></trkpt>
<trkpt lat="42.133535" lon="23.147191"><ele>582.7</ele><time>2026-04-13T11:28:29.000Z</time></trkpt>
<trkpt lat="42.133536" lon="23.147181"><ele>582.7</ele><time>2026-04-13T11:28:30.000Z</time></trkpt>
<trkpt lat="42.133537" lon="23.147172"><ele>582.7</ele><time>2026-04-13T11:28:31.000Z</time></trkpt>
<trkpt lat="42.133538" lon="23.147162"><ele>582.7</ele><time>2026-04-13T11:28:32.000Z</time></trkpt>
<trkpt lat="42.133537" lon="23.147152"><ele>582.9</ele><time>2026-04-13T11:28:33.000Z</time></trkpt>
<trkpt lat="42.133537" lon="23.147142"><ele>582.9</ele><time>2026-04-13T11:28:34.000Z</time></trkpt>
<trkpt lat="42.133537" lon="23.147132"><ele>582.9</ele><time>2026-04-13T11:28:35.000Z</time></trkpt>
<trkpt lat="42.133537" lon="23.147122"><ele>582.9</ele><time>2026-04-13T11:28:36.000Z</time></trkpt>
<trkpt lat="42.133538" lon="23.147112"><ele>582.9</ele><time>2026-04-13T11:28:37.000Z</time></trkpt>
<trkpt lat="42.133539" lon="23.147102"><ele>583.2</ele><time>2026-04-13T11:28:38.000Z</time></trkpt>
<trkpt lat="42.13354" lon="23.147091"><ele>583.2</ele><time>2026-04-13T11:28:39.000Z</time></trkpt>
<trkpt lat="42.133541" lon="23.147081"><ele>583.2</ele><time>2026-04-13T11:28:40.000Z</time></trkpt>
<trkpt lat="42.133541" lon="23.14707"><ele>583.2</ele><time>2026-04-13T11:28:41.000Z</time></trkpt>
<trkpt lat="42.133542" lon="23.14706"><ele>583.2</ele><time>2026-04-13T11:28:42.000Z</time></trkpt>
<trkpt lat="42.133542" lon="23.147049"><ele>583.8</ele><time>2026-04-13T11:28:43.000Z</time></trkpt>
<trkpt lat="42.133541" lon="23.147037"><ele>583.8</ele><time>2026-04-13T11:28:44.000Z</time></trkpt>
<trkpt lat="42.13354" lon="23.147026"><ele>583.8</ele><time>2026-04-13T11:28:45.000Z</time></trkpt>
<trkpt lat="42.133538" lon="23.147015"><ele>583.8</ele><time>2026-04-13T11:28:46.000Z</time></trkpt>
<trkpt lat="42.133537" lon="23.147003"><ele>583.8</ele><time>2026-04-13T11:28:47.000Z</time></trkpt>
<trkpt lat="42.133536" lon="23.146991"><ele>584.5</ele><time>2026-04-13T11:28:48.000Z</time></trkpt>
<trkpt lat="42.133536" lon="23.146978"><ele>584.5</ele><time>2026-04-13T11:28:49.000Z</time></trkpt>
<trkpt lat="42.133536" lon="23.146966"><ele>584.5</ele><time>2026-04-13T11:28:50.000Z</time></trkpt>
<trkpt lat="42.133535" lon="23.146953"><ele>584.5</ele><time>2026-04-13T11:28:51.000Z</time></trkpt>
<trkpt lat="42.133534" lon="23.146939"><ele>584.5</ele><time>2026-04-13T11:28:52.000Z</time></trkpt>
<trkpt lat="42.133533" lon="23.146926"><ele>584.7</ele><time>2026-04-13T11:28:53.000Z</time></trkpt>
<trkpt lat="42.133531" lon="23.146914"><ele>584.7</ele><time>2026-04-13T11:28:54.000Z</time></trkpt>
<trkpt lat="42.133529" lon="23.146902"><ele>584.7</ele><time>2026-04-13T11:28:55.000Z</time></trkpt>
<trkpt lat="42.133526" lon="23.146889"><ele>584.7</ele><time>2026-04-13T11:28:56.000Z</time></trkpt>
<trkpt lat="42.133523" lon="23.146876"><ele>584.7</ele><time>2026-04-13T11:28:57.000Z</time></trkpt>
<trkpt lat="42.133519" lon="23.146864"><ele>584.7</ele><time>2026-04-13T11:28:58.000Z</time></trkpt>
<trkpt lat="42.133516" lon="23.14685"><ele>584.7</ele><time>2026-04-13T11:28:59.000Z</time></trkpt>
<trkpt lat="42.133514" lon="23.146837"><ele>584.7</ele><time>2026-04-13T11:29:00.000Z</time></trkpt>
<trkpt lat="42.133512" lon="23.146824"><ele>584.7</ele><time>2026-04-13T11:29:01.000Z</time></trkpt>
<trkpt lat="42.13351" lon="23.146811"><ele>584.7</ele><time>2026-04-13T11:29:02.000Z</time></trkpt>
<trkpt lat="42.13351" lon="23.146799"><ele>584.7</ele><time>2026-04-13T11:29:03.000Z</time></trkpt>
<trkpt lat="42.13351" lon="23.146788"><ele>584.7</ele><time>2026-04-13T11:29:04.000Z</time></trkpt>
<trkpt lat="42.13351" lon="23.146777"><ele>584.7</ele><time>2026-04-13T11:29:05.000Z</time></trkpt>
<trkpt lat="42.133508" lon="23.146767"><ele>584.7</ele><time>2026-04-13T11:29:06.000Z</time></trkpt>
<trkpt lat="42.133506" lon="23.146757"><ele>584.7</ele><time>2026-04-13T11:29:07.000Z</time></trkpt>
<trkpt lat="42.133502" lon="23.146747"><ele>584.8</ele><time>2026-04-13T11:29:08.000Z</time></trkpt>
<trkpt lat="42.133497" lon="23.146738"><ele>584.8</ele><time>2026-04-13T11:29:09.000Z</time></trkpt>
<trkpt lat="42.133491" lon="23.146728"><ele>584.8</ele><time>2026-04-13T11:29:10.000Z</time></trkpt>
<trkpt lat="42.133485" lon="23.146719"><ele>584.8</ele><time>2026-04-13T11:29:11.000Z</time></trkpt>
<trkpt lat="42.133478" lon="23.14671"><ele>584.8</ele><time>2026-04-13T11:29:12.000Z</time></trkpt>
<trkpt lat="42.133471" lon="23.1467"><ele>585</ele><time>2026-04-13T11:29:13.000Z</time></trkpt>
<trkpt lat="42.133464" lon="23.14669"><ele>585</ele><time>2026-04-13T11:29:14.000Z</time></trkpt>
<trkpt lat="42.133456" lon="23.14668"><ele>585</ele><time>2026-04-13T11:29:15.000Z</time></trkpt>
<trkpt lat="42.133449" lon="23.146669"><ele>585</ele><time>2026-04-13T11:29:16.000Z</time></trkpt>
<trkpt lat="42.133441" lon="23.146659"><ele>585</ele><time>2026-04-13T11:29:17.000Z</time></trkpt>
<trkpt lat="42.133435" lon="23.146648"><ele>584.8</ele><time>2026-04-13T11:29:18.000Z</time></trkpt>
<trkpt lat="42.13343" lon="23.146638"><ele>584.8</ele><time>2026-04-13T11:29:19.000Z</time></trkpt>
<trkpt lat="42.133425" lon="23.146626"><ele>584.8</ele><time>2026-04-13T11:29:20.000Z</time></trkpt>
<trkpt lat="42.133421" lon="23.146615"><ele>584.8</ele><time>2026-04-13T11:29:21.000Z</time></trkpt>
<trkpt lat="42.133418" lon="23.146602"><ele>584.8</ele><time>2026-04-13T11:29:22.000Z</time></trkpt>
<trkpt lat="42.133413" lon="23.14659"><ele>584.6</ele><time>2026-04-13T11:29:23.000Z</time></trkpt>
<trkpt lat="42.133408" lon="23.146577"><ele>584.6</ele><time>2026-04-13T11:29:24.000Z</time></trkpt>
<trkpt lat="42.133402" lon="23.146565"><ele>584.6</ele><time>2026-04-13T11:29:25.000Z</time></trkpt>
<trkpt lat="42.133396" lon="23.146553"><ele>584.6</ele><time>2026-04-13T11:29:26.000Z</time></trkpt>
<trkpt lat="42.133389" lon="23.14654"><ele>584.6</ele><time>2026-04-13T11:29:27.000Z</time></trkpt>
<trkpt lat="42.133382" lon="23.146528"><ele>583.6</ele><time>2026-04-13T11:29:28.000Z</time></trkpt>
<trkpt lat="42.133375" lon="23.146516"><ele>583.6</ele><time>2026-04-13T11:29:29.000Z</time></trkpt>
<trkpt lat="42.133367" lon="23.146504"><ele>583.6</ele><time>2026-04-13T11:29:30.000Z</time></trkpt>
<trkpt lat="42.133361" lon="23.146492"><ele>583.6</ele><time>2026-04-13T11:29:31.000Z</time></trkpt>
<trkpt lat="42.133354" lon="23.146481"><ele>583.6</ele><time>2026-04-13T11:29:32.000Z</time></trkpt>
<trkpt lat="42.133347" lon="23.14647"><ele>582.3</ele><time>2026-04-13T11:29:33.000Z</time></trkpt>
<trkpt lat="42.13334" lon="23.14646"><ele>582.3</ele><time>2026-04-13T11:29:34.000Z</time></trkpt>
<trkpt lat="42.133333" lon="23.14645"><ele>582.3</ele><time>2026-04-13T11:29:35.000Z</time></trkpt>
<trkpt lat="42.133326" lon="23.146439"><ele>582.3</ele><time>2026-04-13T11:29:36.000Z</time></trkpt>
<trkpt lat="42.133319" lon="23.146429"><ele>582.3</ele><time>2026-04-13T11:29:37.000Z</time></trkpt>
<trkpt lat="42.133313" lon="23.146417"><ele>581.6</ele><time>2026-04-13T11:29:38.000Z</time></trkpt>
<trkpt lat="42.133308" lon="23.146405"><ele>581.6</ele><time>2026-04-13T11:29:39.000Z</time></trkpt>
<trkpt lat="42.133303" lon="23.146393"><ele>581.6</ele><time>2026-04-13T11:29:40.000Z</time></trkpt>
<trkpt lat="42.133298" lon="23.14638"><ele>581.6</ele><time>2026-04-13T11:29:41.000Z</time></trkpt>
<trkpt lat="42.133293" lon="23.146368"><ele>581.6</ele><time>2026-04-13T11:29:42.000Z</time></trkpt>
<trkpt lat="42.133289" lon="23.146355"><ele>580.6</ele><time>2026-04-13T11:29:43.000Z</time></trkpt>
<trkpt lat="42.133285" lon="23.146342"><ele>580.6</ele><time>2026-04-13T11:29:44.000Z</time></trkpt>
<trkpt lat="42.133281" lon="23.146329"><ele>580.6</ele><time>2026-04-13T11:29:45.000Z</time></trkpt>
<trkpt lat="42.133278" lon="23.146316"><ele>580.6</ele><time>2026-04-13T11:29:46.000Z</time></trkpt>
<trkpt lat="42.133274" lon="23.146303"><ele>580.6</ele><time>2026-04-13T11:29:47.000Z</time></trkpt>
<trkpt lat="42.133271" lon="23.14629"><ele>580.1</ele><time>2026-04-13T11:29:48.000Z</time></trkpt>
<trkpt lat="42.133268" lon="23.146276"><ele>580.1</ele><time>2026-04-13T11:29:49.000Z</time></trkpt>
<trkpt lat="42.133265" lon="23.146263"><ele>580.1</ele><time>2026-04-13T11:29:50.000Z</time></trkpt>
<trkpt lat="42.133262" lon="23.14625"><ele>580.1</ele><time>2026-04-13T11:29:51.000Z</time></trkpt>
<trkpt lat="42.133259" lon="23.146236"><ele>580.1</ele><time>2026-04-13T11:29:52.000Z</time></trkpt>
<trkpt lat="42.133256" lon="23.146223"><ele>580</ele><time>2026-04-13T11:29:53.000Z</time></trkpt>
<trkpt lat="42.133254" lon="23.14621"><ele>580</ele><time>2026-04-13T11:29:54.000Z</time></trkpt>
<trkpt lat="42.133251" lon="23.146197"><ele>580</ele><time>2026-04-13T11:29:55.000Z</time></trkpt>
<trkpt lat="42.133249" lon="23.146183"><ele>580</ele><time>2026-04-13T11:29:56.000Z</time></trkpt>
<trkpt lat="42.133248" lon="23.14617"><ele>580</ele><time>2026-04-13T11:29:57.000Z</time></trkpt>
<trkpt lat="42.133247" lon="23.146156"><ele>580.1</ele><time>2026-04-13T11:29:58.000Z</time></trkpt>
<trkpt lat="42.133247" lon="23.146143"><ele>580.1</ele><time>2026-04-13T11:29:59.000Z</time></trkpt>
<trkpt lat="42.133247" lon="23.146131"><ele>580.1</ele><time>2026-04-13T11:30:00.000Z</time></trkpt>
<trkpt lat="42.133249" lon="23.146119"><ele>580.1</ele><time>2026-04-13T11:30:01.000Z</time></trkpt>
<trkpt lat="42.13325" lon="23.146109"><ele>580.1</ele><time>2026-04-13T11:30:02.000Z</time></trkpt>
<trkpt lat="42.133253" lon="23.146098"><ele>580.4</ele><time>2026-04-13T11:30:03.000Z</time></trkpt>
<trkpt lat="42.133255" lon="23.146088"><ele>580.4</ele><time>2026-04-13T11:30:04.000Z</time></trkpt>
<trkpt lat="42.133258" lon="23.146079"><ele>580.4</ele><time>2026-04-13T11:30:05.000Z</time></trkpt>
<trkpt lat="42.133261" lon="23.14607"><ele>580.4</ele><time>2026-04-13T11:30:06.000Z</time></trkpt>
<trkpt lat="42.133266" lon="23.146061"><ele>580.4</ele><time>2026-04-13T11:30:07.000Z</time></trkpt>
<trkpt lat="42.133272" lon="23.146054"><ele>580.5</ele><time>2026-04-13T11:30:08.000Z</time></trkpt>
<trkpt lat="42.133279" lon="23.146048"><ele>580.5</ele><time>2026-04-13T11:30:09.000Z</time></trkpt>
<trkpt lat="42.133288" lon="23.146045"><ele>580.5</ele><time>2026-04-13T11:30:10.000Z</time></trkpt>
<trkpt lat="42.133297" lon="23.146045"><ele>580.5</ele><time>2026-04-13T11:30:11.000Z</time></trkpt>
<trkpt lat="42.133306" lon="23.146046"><ele>580.5</ele><time>2026-04-13T11:30:12.000Z</time></trkpt>
<trkpt lat="42.133315" lon="23.146048"><ele>580.9</ele><time>2026-04-13T11:30:13.000Z</time></trkpt>
<trkpt lat="42.133323" lon="23.146052"><ele>580.9</ele><time>2026-04-13T11:30:14.000Z</time></trkpt>
<trkpt lat="42.13333" lon="23.146055"><ele>580.9</ele><time>2026-04-13T11:30:15.000Z</time></trkpt>
<trkpt lat="42.133337" lon="23.146059"><ele>580.9</ele><time>2026-04-13T11:30:16.000Z</time></trkpt>
<trkpt lat="42.133343" lon="23.146063"><ele>580.9</ele><time>2026-04-13T11:30:17.000Z</time></trkpt>
<trkpt lat="42.133349" lon="23.146067"><ele>581.7</ele><time>2026-04-13T11:30:18.000Z</time></trkpt>
<trkpt lat="42.133355" lon="23.146072"><ele>581.7</ele><time>2026-04-13T11:30:19.000Z</time></trkpt>
<trkpt lat="42.133361" lon="23.146076"><ele>581.7</ele><time>2026-04-13T11:30:20.000Z</time></trkpt>
<trkpt lat="42.133368" lon="23.146081"><ele>581.7</ele><time>2026-04-13T11:30:21.000Z</time></trkpt>
<trkpt lat="42.133374" lon="23.146085"><ele>581.7</ele><time>2026-04-13T11:30:22.000Z</time></trkpt>
<trkpt lat="42.133381" lon="23.146088"><ele>582.3</ele><time>2026-04-13T11:30:23.000Z</time></trkpt>
<trkpt lat="42.133388" lon="23.146091"><ele>582.3</ele><time>2026-04-13T11:30:24.000Z</time></trkpt>
<trkpt lat="42.133395" lon="23.146095"><ele>582.3</ele><time>2026-04-13T11:30:25.000Z</time></trkpt>
<trkpt lat="42.133401" lon="23.146098"><ele>582.3</ele><time>2026-04-13T11:30:26.000Z</time></trkpt>
<trkpt lat="42.133408" lon="23.146102"><ele>582.3</ele><time>2026-04-13T11:30:27.000Z</time></trkpt>
<trkpt lat="42.133413" lon="23.146108"><ele>584</ele><time>2026-04-13T11:30:28.000Z</time></trkpt>
<trkpt lat="42.133418" lon="23.146114"><ele>584</ele><time>2026-04-13T11:30:29.000Z</time></trkpt>
<trkpt lat="42.133422" lon="23.14612"><ele>584</ele><time>2026-04-13T11:30:30.000Z</time></trkpt>
<trkpt lat="42.133424" lon="23.146127"><ele>584</ele><time>2026-04-13T11:30:31.000Z</time></trkpt>
<trkpt lat="42.133427" lon="23.146135"><ele>584</ele><time>2026-04-13T11:30:32.000Z</time></trkpt>
<trkpt lat="42.13343" lon="23.146142"><ele>585.7</ele><time>2026-04-13T11:30:33.000Z</time></trkpt>
<trkpt lat="42.133434" lon="23.146149"><ele>585.7</ele><time>2026-04-13T11:30:34.000Z</time></trkpt>
<trkpt lat="42.133438" lon="23.146155"><ele>585.7</ele><time>2026-04-13T11:30:35.000Z</time></trkpt>
<trkpt lat="42.133443" lon="23.146158"><ele>585.7</ele><time>2026-04-13T11:30:36.000Z</time></trkpt>
<trkpt lat="42.133449" lon="23.14616"><ele>585.7</ele><time>2026-04-13T11:30:37.000Z</time></trkpt>
<trkpt lat="42.133455" lon="23.146161"><ele>586.5</ele><time>2026-04-13T11:30:38.000Z</time></trkpt>
<trkpt lat="42.133461" lon="23.14616"><ele>586.5</ele><time>2026-04-13T11:30:39.000Z</time></trkpt>
<trkpt lat="42.133467" lon="23.14616"><ele>586.5</ele><time>2026-04-13T11:30:40.000Z</time></trkpt>
<trkpt lat="42.133473" lon="23.146159"><ele>586.5</ele><time>2026-04-13T11:30:41.000Z</time></trkpt>
<trkpt lat="42.13348" lon="23.14616"><ele>586.5</ele><time>2026-04-13T11:30:42.000Z</time></trkpt>
<trkpt lat="42.133487" lon="23.14616"><ele>588</ele><time>2026-04-13T11:30:43.000Z</time></trkpt>
<trkpt lat="42.133494" lon="23.146161"><ele>588</ele><time>2026-04-13T11:30:44.000Z</time></trkpt>
<trkpt lat="42.133501" lon="23.146161"><ele>588</ele><time>2026-04-13T11:30:45.000Z</time></trkpt>
<trkpt lat="42.13351" lon="23.146161"><ele>588</ele><time>2026-04-13T11:30:46.000Z</time></trkpt>
<trkpt lat="42.133518" lon="23.14616"><ele>588</ele><time>2026-04-13T11:30:47.000Z</time></trkpt>
<trkpt lat="42.133527" lon="23.14616"><ele>589.6</ele><time>2026-04-13T11:30:48.000Z</time></trkpt>
<trkpt lat="42.133535" lon="23.146159"><ele>589.6</ele><time>2026-04-13T11:30:49.000Z</time></trkpt>
<trkpt lat="42.133544" lon="23.146158"><ele>589.6</ele><time>2026-04-13T11:30:50.000Z</time></trkpt>
<trkpt lat="42.133553" lon="23.146157"><ele>589.6</ele><time>2026-04-13T11:30:51.000Z</time></trkpt>
<trkpt lat="42.133563" lon="23.146156"><ele>589.6</ele><time>2026-04-13T11:30:52.000Z</time></trkpt>
<trkpt lat="42.133572" lon="23.146155"><ele>590.3</ele><time>2026-04-13T11:30:53.000Z</time></trkpt>
<trkpt lat="42.133582" lon="23.146154"><ele>590.3</ele><time>2026-04-13T11:30:54.000Z</time></trkpt>
<trkpt lat="42.133591" lon="23.146152"><ele>590.3</ele><time>2026-04-13T11:30:55.000Z</time></trkpt>
<trkpt lat="42.1336" lon="23.14615"><ele>590.3</ele><time>2026-04-13T11:30:56.000Z</time></trkpt>
<trkpt lat="42.133609" lon="23.146148"><ele>590.3</ele><time>2026-04-13T11:30:57.000Z</time></trkpt>
<trkpt lat="42.133617" lon="23.146147"><ele>591.5</ele><time>2026-04-13T11:30:58.000Z</time></trkpt>
<trkpt lat="42.133624" lon="23.146147"><ele>591.5</ele><time>2026-04-13T11:30:59.000Z</time></trkpt>
<trkpt lat="42.133632" lon="23.146147"><ele>591.5</ele><time>2026-04-13T11:31:00.000Z</time></trkpt>
<trkpt lat="42.133639" lon="23.146147"><ele>591.5</ele><time>2026-04-13T11:31:01.000Z</time></trkpt>
<trkpt lat="42.133646" lon="23.146148"><ele>591.5</ele><time>2026-04-13T11:31:02.000Z</time></trkpt>
<trkpt lat="42.133652" lon="23.146149"><ele>592.5</ele><time>2026-04-13T11:31:03.000Z</time></trkpt>
<trkpt lat="42.133659" lon="23.14615"><ele>592.5</ele><time>2026-04-13T11:31:04.000Z</time></trkpt>
<trkpt lat="42.133665" lon="23.14615"><ele>592.5</ele><time>2026-04-13T11:31:05.000Z</time></trkpt>
<trkpt lat="42.13367" lon="23.14615"><ele>592.5</ele><time>2026-04-13T11:31:06.000Z</time></trkpt>
<trkpt lat="42.133676" lon="23.14615"><ele>592.5</ele><time>2026-04-13T11:31:07.000Z</time></trkpt>
<trkpt lat="42.133682" lon="23.14615"><ele>593</ele><time>2026-04-13T11:31:08.000Z</time></trkpt>
<trkpt lat="42.133687" lon="23.146152"><ele>593</ele><time>2026-04-13T11:31:09.000Z</time></trkpt>
<trkpt lat="42.133692" lon="23.146154"><ele>593</ele><time>2026-04-13T11:31:10.000Z</time></trkpt>
<trkpt lat="42.133696" lon="23.146157"><ele>593</ele><time>2026-04-13T11:31:11.000Z</time></trkpt>
<trkpt lat="42.1337" lon="23.146161"><ele>593</ele><time>2026-04-13T11:31:12.000Z</time></trkpt>
<trkpt lat="42.133704" lon="23.146165"><ele>594.1</ele><time>2026-04-13T11:31:13.000Z</time></trkpt>
<trkpt lat="42.133709" lon="23.146169"><ele>594.1</ele><time>2026-04-13T11:31:14.000Z</time></trkpt>
<trkpt lat="42.133714" lon="23.146172"><ele>594.1</ele><time>2026-04-13T11:31:15.000Z</time></trkpt>
<trkpt lat="42.133719" lon="23.146175"><ele>594.1</ele><time>2026-04-13T11:31:16.000Z</time></trkpt>
<trkpt lat="42.133725" lon="23.146176"><ele>594.1</ele><time>2026-04-13T11:31:17.000Z</time></trkpt>
<trkpt lat="42.13373" lon="23.146175"><ele>595.4</ele><time>2026-04-13T11:31:18.000Z</time></trkpt>
<trkpt lat="42.133736" lon="23.146174"><ele>595.4</ele><time>2026-04-13T11:31:19.000Z</time></trkpt>
<trkpt lat="42.133741" lon="23.146173"><ele>595.4</ele><time>2026-04-13T11:31:20.000Z</time></trkpt>
<trkpt lat="42.133746" lon="23.146171"><ele>595.4</ele><time>2026-04-13T11:31:21.000Z</time></trkpt>
<trkpt lat="42.13375" lon="23.146169"><ele>595.4</ele><time>2026-04-13T11:31:22.000Z</time></trkpt>
<trkpt lat="42.133755" lon="23.146167"><ele>596.1</ele><time>2026-04-13T11:31:23.000Z</time></trkpt>
<trkpt lat="42.13376" lon="23.146164"><ele>596.1</ele><time>2026-04-13T11:31:24.000Z</time></trkpt>
<trkpt lat="42.133764" lon="23.146161"><ele>596.1</ele><time>2026-04-13T11:31:25.000Z</time></trkpt>
<trkpt lat="42.133768" lon="23.146158"><ele>596.1</ele><time>2026-04-13T11:31:26.000Z</time></trkpt>
<trkpt lat="42.13377" lon="23.146154"><ele>596.1</ele><time>2026-04-13T11:31:27.000Z</time></trkpt>
<trkpt lat="42.133771" lon="23.146151"><ele>597.4</ele><time>2026-04-13T11:31:28.000Z</time></trkpt>
<trkpt lat="42.13377" lon="23.146148"><ele>597.4</ele><time>2026-04-13T11:31:29.000Z</time></trkpt>
<trkpt lat="42.133769" lon="23.146147"><ele>597.4</ele><time>2026-04-13T11:31:30.000Z</time></trkpt>
<trkpt lat="42.133767" lon="23.146145"><ele>597.4</ele><time>2026-04-13T11:31:31.000Z</time></trkpt>
<trkpt lat="42.133765" lon="23.146145"><ele>597.4</ele><time>2026-04-13T11:31:32.000Z</time></trkpt>
<trkpt lat="42.133765" lon="23.146144"><ele>598.5</ele><time>2026-04-13T11:31:33.000Z</time></trkpt>
<trkpt lat="42.133764" lon="23.146144"><ele>598.5</ele><time>2026-04-13T11:31:34.000Z</time></trkpt>
<trkpt lat="42.133763" lon="23.146145"><ele>598.5</ele><time>2026-04-13T11:31:35.000Z</time></trkpt>
<trkpt lat="42.133763" lon="23.146146"><ele>598.5</ele><time>2026-04-13T11:31:36.000Z</time></trkpt>
<trkpt lat="42.133763" lon="23.146148"><ele>598.5</ele><time>2026-04-13T11:31:37.000Z</time></trkpt>
<trkpt lat="42.133763" lon="23.146152"><ele>598.9</ele><time>2026-04-13T11:31:38.000Z</time></trkpt>
<trkpt lat="42.133763" lon="23.146157"><ele>598.9</ele><time>2026-04-13T11:31:39.000Z</time></trkpt>
<trkpt lat="42.133763" lon="23.146163"><ele>598.9</ele><time>2026-04-13T11:31:40.000Z</time></trkpt>
<trkpt lat="42.133764" lon="23.14617"><ele>598.9</ele><time>2026-04-13T11:31:41.000Z</time></trkpt>
<trkpt lat="42.133766" lon="23.146178"><ele>598.9</ele><time>2026-04-13T11:31:42.000Z</time></trkpt>
<trkpt lat="42.133769" lon="23.146184"><ele>599.7</ele><time>2026-04-13T11:31:43.000Z</time></trkpt>
<trkpt lat="42.133773" lon="23.146188"><ele>599.7</ele><time>2026-04-13T11:31:44.000Z</time></trkpt>
<trkpt lat="42.133778" lon="23.146189"><ele>599.7</ele><time>2026-04-13T11:31:45.000Z</time></trkpt>
<trkpt lat="42.133785" lon="23.146188"><ele>599.7</ele><time>2026-04-13T11:31:46.000Z</time></trkpt>
<trkpt lat="42.133792" lon="23.146186"><ele>599.7</ele><time>2026-04-13T11:31:47.000Z</time></trkpt>
<trkpt lat="42.133798" lon="23.146183"><ele>600.6</ele><time>2026-04-13T11:31:48.000Z</time></trkpt>
<trkpt lat="42.133804" lon="23.14618"><ele>600.6</ele><time>2026-04-13T11:31:49.000Z</time></trkpt>
<trkpt lat="42.133809" lon="23.146177"><ele>600.6</ele><time>2026-04-13T11:31:50.000Z</time></trkpt>
<trkpt lat="42.133814" lon="23.146174"><ele>600.6</ele><time>2026-04-13T11:31:51.000Z</time></trkpt>
<trkpt lat="42.133819" lon="23.146173"><ele>600.6</ele><time>2026-04-13T11:31:52.000Z</time></trkpt>
<trkpt lat="42.133823" lon="23.146172"><ele>601.3</ele><time>2026-04-13T11:31:53.000Z</time></trkpt>
<trkpt lat="42.133828" lon="23.146171"><ele>601.3</ele><time>2026-04-13T11:31:54.000Z</time></trkpt>
<trkpt lat="42.133832" lon="23.14617"><ele>601.3</ele><time>2026-04-13T11:31:55.000Z</time></trkpt>
<trkpt lat="42.133835" lon="23.146168"><ele>601.3</ele><time>2026-04-13T11:31:56.000Z</time></trkpt>
<trkpt lat="42.133838" lon="23.146166"><ele>601.3</ele><time>2026-04-13T11:31:57.000Z</time></trkpt>
<trkpt lat="42.13384" lon="23.146164"><ele>603.1</ele><time>2026-04-13T11:31:58.000Z</time></trkpt>
<trkpt lat="42.133841" lon="23.146161"><ele>603.1</ele><time>2026-04-13T11:31:59.000Z</time></trkpt>
<trkpt lat="42.133842" lon="23.146158"><ele>603.1</ele><time>2026-04-13T11:32:00.000Z</time></trkpt>
<trkpt lat="42.133843" lon="23.146156"><ele>603.1</ele><time>2026-04-13T11:32:01.000Z</time></trkpt>
<trkpt lat="42.133844" lon="23.146153"><ele>603.1</ele><time>2026-04-13T11:32:02.000Z</time></trkpt>
<trkpt lat="42.133846" lon="23.14615"><ele>604.7</ele><time>2026-04-13T11:32:03.000Z</time></trkpt>
<trkpt lat="42.133848" lon="23.146148"><ele>604.7</ele><time>2026-04-13T11:32:04.000Z</time></trkpt>
<trkpt lat="42.133852" lon="23.146145"><ele>604.7</ele><time>2026-04-13T11:32:05.000Z</time></trkpt>
<trkpt lat="42.133857" lon="23.146143"><ele>604.7</ele><time>2026-04-13T11:32:06.000Z</time></trkpt>
<trkpt lat="42.133864" lon="23.146141"><ele>604.7</ele><time>2026-04-13T11:32:07.000Z</time></trkpt>
<trkpt lat="42.133872" lon="23.146139"><ele>605.2</ele><time>2026-04-13T11:32:08.000Z</time></trkpt>
<trkpt lat="42.13388" lon="23.146138"><ele>605.2</ele><time>2026-04-13T11:32:09.000Z</time></trkpt>
<trkpt lat="42.133889" lon="23.146136"><ele>605.2</ele><time>2026-04-13T11:32:10.000Z</time></trkpt>
<trkpt lat="42.133897" lon="23.146135"><ele>605.2</ele><time>2026-04-13T11:32:11.000Z</time></trkpt>
<trkpt lat="42.133905" lon="23.146135"><ele>605.2</ele><time>2026-04-13T11:32:12.000Z</time></trkpt>
<trkpt lat="42.133912" lon="23.146135"><ele>605.9</ele><time>2026-04-13T11:32:13.000Z</time></trkpt>
<trkpt lat="42.133919" lon="23.146137"><ele>605.9</ele><time>2026-04-13T11:32:14.000Z</time></trkpt>
<trkpt lat="42.133924" lon="23.146139"><ele>605.9</ele><time>2026-04-13T11:32:15.000Z</time></trkpt>
<trkpt lat="42.133928" lon="23.146142"><ele>605.9</ele><time>2026-04-13T11:32:16.000Z</time></trkpt>
<trkpt lat="42.133931" lon="23.146143"><ele>605.9</ele><time>2026-04-13T11:32:17.000Z</time></trkpt>
<trkpt lat="42.133933" lon="23.146143"><ele>606.8</ele><time>2026-04-13T11:32:18.000Z</time></trkpt>
<trkpt lat="42.133935" lon="23.146142"><ele>606.8</ele><time>2026-04-13T11:32:19.000Z</time></trkpt>
<trkpt lat="42.133938" lon="23.14614"><ele>606.8</ele><time>2026-04-13T11:32:20.000Z</time></trkpt>
<trkpt lat="42.133941" lon="23.146136"><ele>606.8</ele><time>2026-04-13T11:32:21.000Z</time></trkpt>
<trkpt lat="42.133944" lon="23.146131"><ele>606.8</ele><time>2026-04-13T11:32:22.000Z</time></trkpt>
<trkpt lat="42.133948" lon="23.146125"><ele>607.5</ele><time>2026-04-13T11:32:23.000Z</time></trkpt>
<trkpt lat="42.133952" lon="23.146119"><ele>607.5</ele><time>2026-04-13T11:32:24.000Z</time></trkpt>
<trkpt lat="42.133957" lon="23.146113"><ele>607.5</ele><time>2026-04-13T11:32:25.000Z</time></trkpt>
<trkpt lat="42.133962" lon="23.146108"><ele>607.5</ele><time>2026-04-13T11:32:26.000Z</time></trkpt>
<trkpt lat="42.133966" lon="23.146103"><ele>607.5</ele><time>2026-04-13T11:32:27.000Z</time></trkpt>
<trkpt lat="42.133971" lon="23.1461"><ele>608.7</ele><time>2026-04-13T11:32:28.000Z</time></trkpt>
<trkpt lat="42.133975" lon="23.146097"><ele>608.7</ele><time>2026-04-13T11:32:29.000Z</time></trkpt>
<trkpt lat="42.133979" lon="23.146096"><ele>608.7</ele><time>2026-04-13T11:32:30.000Z</time></trkpt>
<trkpt lat="42.133983" lon="23.146095"><ele>608.7</ele><time>2026-04-13T11:32:31.000Z</time></trkpt>
<trkpt lat="42.133986" lon="23.146094"><ele>608.7</ele><time>2026-04-13T11:32:32.000Z</time></trkpt>
<trkpt lat="42.13399" lon="23.146094"><ele>609.5</ele><time>2026-04-13T11:32:33.000Z</time></trkpt>
<trkpt lat="42.133993" lon="23.146093"><ele>609.5</ele><time>2026-04-13T11:32:34.000Z</time></trkpt>
<trkpt lat="42.133996" lon="23.146092"><ele>609.5</ele><time>2026-04-13T11:32:35.000Z</time></trkpt>
<trkpt lat="42.133999" lon="23.146092"><ele>609.5</ele><time>2026-04-13T11:32:36.000Z</time></trkpt>
<trkpt lat="42.134002" lon="23.146092"><ele>609.5</ele><time>2026-04-13T11:32:37.000Z</time></trkpt>
<trkpt lat="42.134006" lon="23.146092"><ele>609.7</ele><time>2026-04-13T11:32:38.000Z</time></trkpt>
<trkpt lat="42.13401" lon="23.146091"><ele>609.7</ele><time>2026-04-13T11:32:39.000Z</time></trkpt>
<trkpt lat="42.134013" lon="23.14609"><ele>609.7</ele><time>2026-04-13T11:32:40.000Z</time></trkpt>
<trkpt lat="42.134017" lon="23.146089"><ele>609.7</ele><time>2026-04-13T11:32:41.000Z</time></trkpt>
<trkpt lat="42.134021" lon="23.146086"><ele>609.7</ele><time>2026-04-13T11:32:42.000Z</time></trkpt>
<trkpt lat="42.134025" lon="23.146084"><ele>610.2</ele><time>2026-04-13T11:32:43.000Z</time></trkpt>
<trkpt lat="42.134027" lon="23.146083"><ele>610.2</ele><time>2026-04-13T11:32:44.000Z</time></trkpt>
<trkpt lat="42.134029" lon="23.146082"><ele>610.2</ele><time>2026-04-13T11:32:45.000Z</time></trkpt>
<trkpt lat="42.13403" lon="23.146082"><ele>610.2</ele><time>2026-04-13T11:32:46.000Z</time></trkpt>
<trkpt lat="42.134031" lon="23.146082"><ele>610.2</ele><time>2026-04-13T11:32:47.000Z</time></trkpt>
<trkpt lat="42.134031" lon="23.146082"><ele>611.1</ele><time>2026-04-13T11:32:48.000Z</time></trkpt>
<trkpt lat="42.134031" lon="23.146082"><ele>611.1</ele><time>2026-04-13T11:32:49.000Z</time></trkpt>
<trkpt lat="42.134031" lon="23.146082"><ele>611.1</ele><time>2026-04-13T11:32:50.000Z</time></trkpt>
<trkpt lat="42.134031" lon="23.146082"><ele>611.1</ele><time>2026-04-13T11:32:51.000Z</time></trkpt>
<trkpt lat="42.134031" lon="23.146082"><ele>611.1</ele><time>2026-04-13T11:32:52.000Z</time></trkpt>
<trkpt lat="42.134031" lon="23.146082"><ele>611.5</ele><time>2026-04-13T11:32:53.000Z</time></trkpt>
<trkpt lat="42.13403" lon="23.146082"><ele>611.5</ele><time>2026-04-13T11:32:54.000Z</time></trkpt>
<trkpt lat="42.13403" lon="23.146081"><ele>611.5</ele><time>2026-04-13T11:32:55.000Z</time></trkpt>
<trkpt lat="42.13403" lon="23.146081"><ele>611.5</ele><time>2026-04-13T11:32:56.000Z</time></trkpt>
<trkpt lat="42.13403" lon="23.146081"><ele>611.5</ele><time>2026-04-13T11:32:57.000Z</time></trkpt>
<trkpt lat="42.13403" lon="23.146081"><ele>611.8</ele><time>2026-04-13T11:32:58.000Z</time></trkpt>
<trkpt lat="42.134029" lon="23.146081"><ele>611.8</ele><time>2026-04-13T11:32:59.000Z</time></trkpt>
<trkpt lat="42.134029" lon="23.146082"><ele>611.8</ele><time>2026-04-13T11:33:00.000Z</time></trkpt>
<trkpt lat="42.134029" lon="23.146082"><ele>611.8</ele><time>2026-04-13T11:33:01.000Z</time></trkpt>
<trkpt lat="42.134028" lon="23.146083"><ele>611.8</ele><time>2026-04-13T11:33:02.000Z</time></trkpt>
<trkpt lat="42.134028" lon="23.146083"><ele>611.7</ele><time>2026-04-13T11:33:03.000Z</time></trkpt>
<trkpt lat="42.134027" lon="23.146083"><ele>611.7</ele><time>2026-04-13T11:33:04.000Z</time></trkpt>
<trkpt lat="42.134027" lon="23.146084"><ele>611.7</ele><time>2026-04-13T11:33:05.000Z</time></trkpt>
<trkpt lat="42.134026" lon="23.146084"><ele>611.7</ele><time>2026-04-13T11:33:06.000Z</time></trkpt>
<trkpt lat="42.134026" lon="23.146084"><ele>611.7</ele><time>2026-04-13T11:33:07.000Z</time></trkpt>
<trkpt lat="42.134025" lon="23.146085"><ele>611.5</ele><time>2026-04-13T11:33:08.000Z</time></trkpt>
<trkpt lat="42.134025" lon="23.146085"><ele>611.5</ele><time>2026-04-13T11:33:09.000Z</time></trkpt>
<trkpt lat="42.134024" lon="23.146085"><ele>611.5</ele><time>2026-04-13T11:33:10.000Z</time></trkpt>
<trkpt lat="42.134024" lon="23.146086"><ele>611.5</ele><time>2026-04-13T11:33:11.000Z</time></trkpt>
<trkpt lat="42.134023" lon="23.146086"><ele>611.5</ele><time>2026-04-13T11:33:12.000Z</time></trkpt>
<trkpt lat="42.134023" lon="23.146087"><ele>611.4</ele><time>2026-04-13T11:33:13.000Z</time></trkpt>
<trkpt lat="42.134023" lon="23.146087"><ele>611.4</ele><time>2026-04-13T11:33:14.000Z</time></trkpt>
<trkpt lat="42.134022" lon="23.146088"><ele>611.4</ele><time>2026-04-13T11:33:15.000Z</time></trkpt>
<trkpt lat="42.134022" lon="23.146088"><ele>611.4</ele><time>2026-04-13T11:33:16.000Z</time></trkpt>
<trkpt lat="42.134022" lon="23.146089"><ele>611.4</ele><time>2026-04-13T11:33:17.000Z</time></trkpt>
<trkpt lat="42.134021" lon="23.146089"><ele>611.4</ele><time>2026-04-13T11:33:18.000Z</time></trkpt>
<trkpt lat="42.134021" lon="23.146089"><ele>611.4</ele><time>2026-04-13T11:33:19.000Z</time></trkpt>
<trkpt lat="42.134021" lon="23.146089"><ele>611.4</ele><time>2026-04-13T11:33:20.000Z</time></trkpt>
<trkpt lat="42.13402" lon="23.146089"><ele>611.4</ele><time>2026-04-13T11:33:21.000Z</time></trkpt>
<trkpt lat="42.13402" lon="23.146089"><ele>611.4</ele><time>2026-04-13T11:33:22.000Z</time></trkpt>
<trkpt lat="42.13402" lon="23.146088"><ele>611.4</ele><time>2026-04-13T11:33:23.000Z</time></trkpt>
<trkpt lat="42.13402" lon="23.146088"><ele>611.4</ele><time>2026-04-13T11:33:24.000Z</time></trkpt>
<trkpt lat="42.134019" lon="23.146087"><ele>611.4</ele><time>2026-04-13T11:33:25.000Z</time></trkpt>
<trkpt lat="42.134019" lon="23.146087"><ele>611.4</ele><time>2026-04-13T11:33:26.000Z</time></trkpt>
<trkpt lat="42.134019" lon="23.146087"><ele>611.4</ele><time>2026-04-13T11:33:27.000Z</time></trkpt>
<trkpt lat="42.134019" lon="23.146087"><ele>611.4</ele><time>2026-04-13T11:33:28.000Z</time></trkpt>
<trkpt lat="42.134019" lon="23.146087"><ele>611.4</ele><time>2026-04-13T11:33:29.000Z</time></trkpt>
<trkpt lat="42.134019" lon="23.146087"><ele>611.4</ele><time>2026-04-13T11:33:30.000Z</time></trkpt>
<trkpt lat="42.134019" lon="23.146087"><ele>611.4</ele><time>2026-04-13T11:33:31.000Z</time></trkpt>
<trkpt lat="42.134018" lon="23.146088"><ele>611.4</ele><time>2026-04-13T11:33:32.000Z</time></trkpt>
<trkpt lat="42.134018" lon="23.146088"><ele>611.4</ele><time>2026-04-13T11:33:33.000Z</time></trkpt>
<trkpt lat="42.134018" lon="23.146088"><ele>611.4</ele><time>2026-04-13T11:33:34.000Z</time></trkpt>
<trkpt lat="42.134017" lon="23.146088"><ele>611.4</ele><time>2026-04-13T11:33:35.000Z</time></trkpt>
<trkpt lat="42.134017" lon="23.146088"><ele>611.4</ele><time>2026-04-13T11:33:36.000Z</time></trkpt>
<trkpt lat="42.134016" lon="23.146089"><ele>611.4</ele><time>2026-04-13T11:33:37.000Z</time></trkpt>
<trkpt lat="42.134016" lon="23.146089"><ele>611.3</ele><time>2026-04-13T11:33:38.000Z</time></trkpt>
<trkpt lat="42.134016" lon="23.146089"><ele>611.3</ele><time>2026-04-13T11:33:39.000Z</time></trkpt>
<trkpt lat="42.134016" lon="23.146089"><ele>611.3</ele><time>2026-04-13T11:33:40.000Z</time></trkpt>
<trkpt lat="42.134016" lon="23.146089"><ele>611.3</ele><time>2026-04-13T11:33:41.000Z</time></trkpt>
<trkpt lat="42.134016" lon="23.146089"><ele>611.3</ele><time>2026-04-13T11:33:42.000Z</time></trkpt>
<trkpt lat="42.134016" lon="23.146089"><ele>611.3</ele><time>2026-04-13T11:33:43.000Z</time></trkpt>
<trkpt lat="42.134016" lon="23.14609"><ele>611.3</ele><time>2026-04-13T11:33:44.000Z</time></trkpt>
<trkpt lat="42.134016" lon="23.14609"><ele>611.3</ele><time>2026-04-13T11:33:45.000Z</time></trkpt>
<trkpt lat="42.134015" lon="23.14609"><ele>611.3</ele><time>2026-04-13T11:33:46.000Z</time></trkpt>
<trkpt lat="42.134015" lon="23.146091"><ele>611.3</ele><time>2026-04-13T11:33:47.000Z</time></trkpt>
<trkpt lat="42.134015" lon="23.146091"><ele>611.6</ele><time>2026-04-13T11:33:48.000Z</time></trkpt>
<trkpt lat="42.134015" lon="23.146091"><ele>611.6</ele><time>2026-04-13T11:33:49.000Z</time></trkpt>
<trkpt lat="42.134015" lon="23.146091"><ele>611.6</ele><time>2026-04-13T11:33:50.000Z</time></trkpt>
<trkpt lat="42.134014" lon="23.146092"><ele>611.6</ele><time>2026-04-13T11:33:51.000Z</time></trkpt>
<trkpt lat="42.134014" lon="23.146092"><ele>611.6</ele><time>2026-04-13T11:33:52.000Z</time></trkpt>
<trkpt lat="42.134014" lon="23.146092"><ele>611.8</ele><time>2026-04-13T11:33:53.000Z</time></trkpt>
<trkpt lat="42.134014" lon="23.146092"><ele>611.8</ele><time>2026-04-13T11:33:54.000Z</time></trkpt>
<trkpt lat="42.134014" lon="23.146092"><ele>611.8</ele><time>2026-04-13T11:33:55.000Z</time></trkpt>
<trkpt lat="42.134014" lon="23.146092"><ele>611.8</ele><time>2026-04-13T11:33:56.000Z</time></trkpt>
<trkpt lat="42.134014" lon="23.146093"><ele>611.8</ele><time>2026-04-13T11:33:57.000Z</time></trkpt>
<trkpt lat="42.134014" lon="23.146093"><ele>612</ele><time>2026-04-13T11:33:58.000Z</time></trkpt>
<trkpt lat="42.134014" lon="23.146093"><ele>612</ele><time>2026-04-13T11:33:59.000Z</time></trkpt>
<trkpt lat="42.134014" lon="23.146093"><ele>612</ele><time>2026-04-13T11:34:00.000Z</time></trkpt>
<trkpt lat="42.134014" lon="23.146093"><ele>612</ele><time>2026-04-13T11:34:01.000Z</time></trkpt>
<trkpt lat="42.134014" lon="23.146093"><ele>612</ele><time>2026-04-13T11:34:02.000Z</time></trkpt>
<trkpt lat="42.134014" lon="23.146093"><ele>611.8</ele><time>2026-04-13T11:34:03.000Z</time></trkpt>
<trkpt lat="42.134014" lon="23.146093"><ele>611.8</ele><time>2026-04-13T11:34:04.000Z</time></trkpt>
<trkpt lat="42.134014" lon="23.146093"><ele>611.8</ele><time>2026-04-13T11:34:05.000Z</time></trkpt>
<trkpt lat="42.134014" lon="23.146093"><ele>611.8</ele><time>2026-04-13T11:34:06.000Z</time></trkpt>
<trkpt lat="42.134014" lon="23.146093"><ele>611.8</ele><time>2026-04-13T11:34:07.000Z</time></trkpt>
<trkpt lat="42.134014" lon="23.146093"><ele>611.7</ele><time>2026-04-13T11:34:08.000Z</time></trkpt>
<trkpt lat="42.134014" lon="23.146093"><ele>611.7</ele><time>2026-04-13T11:34:09.000Z</time></trkpt>
<trkpt lat="42.134014" lon="23.146093"><ele>611.7</ele><time>2026-04-13T11:34:10.000Z</time></trkpt>
<trkpt lat="42.134014" lon="23.146093"><ele>611.7</ele><time>2026-04-13T11:34:11.000Z</time></trkpt>
<trkpt lat="42.134014" lon="23.146093"><ele>611.7</ele><time>2026-04-13T11:34:12.000Z</time></trkpt>
<trkpt lat="42.134014" lon="23.146093"><ele>611.6</ele><time>2026-04-13T11:34:13.000Z</time></trkpt>
<trkpt lat="42.134014" lon="23.146093"><ele>611.6</ele><time>2026-04-13T11:34:14.000Z</time></trkpt>
<trkpt lat="42.134014" lon="23.146093"><ele>611.6</ele><time>2026-04-13T11:34:15.000Z</time></trkpt>
<trkpt lat="42.134014" lon="23.146094"><ele>611.6</ele><time>2026-04-13T11:34:16.000Z</time></trkpt>
<trkpt lat="42.134014" lon="23.146094"><ele>611.6</ele><time>2026-04-13T11:34:17.000Z</time></trkpt>
<trkpt lat="42.134014" lon="23.146094"><ele>611.6</ele><time>2026-04-13T11:34:18.000Z</time></trkpt>
<trkpt lat="42.134014" lon="23.146094"><ele>611.6</ele><time>2026-04-13T11:34:19.000Z</time></trkpt>
<trkpt lat="42.134014" lon="23.146094"><ele>611.6</ele><time>2026-04-13T11:34:20.000Z</time></trkpt>
<trkpt lat="42.134014" lon="23.146094"><ele>611.6</ele><time>2026-04-13T11:34:21.000Z</time></trkpt>
<trkpt lat="42.134014" lon="23.146095"><ele>611.6</ele><time>2026-04-13T11:34:22.000Z</time></trkpt>
<trkpt lat="42.134014" lon="23.146095"><ele>611.6</ele><time>2026-04-13T11:34:23.000Z</time></trkpt>
<trkpt lat="42.134014" lon="23.146095"><ele>611.6</ele><time>2026-04-13T11:34:24.000Z</time></trkpt>
<trkpt lat="42.134014" lon="23.146095"><ele>611.6</ele><time>2026-04-13T11:34:25.000Z</time></trkpt>
<trkpt lat="42.134014" lon="23.146096"><ele>611.6</ele><time>2026-04-13T11:34:26.000Z</time></trkpt>
<trkpt lat="42.134014" lon="23.146096"><ele>611.6</ele><time>2026-04-13T11:34:27.000Z</time></trkpt>
<trkpt lat="42.134014" lon="23.146096"><ele>611.3</ele><time>2026-04-13T11:34:28.000Z</time></trkpt>
<trkpt lat="42.134014" lon="23.146097"><ele>611.3</ele><time>2026-04-13T11:34:29.000Z</time></trkpt>
<trkpt lat="42.134014" lon="23.146097"><ele>611.3</ele><time>2026-04-13T11:34:30.000Z</time></trkpt>
<trkpt lat="42.134014" lon="23.146097"><ele>611.3</ele><time>2026-04-13T11:34:31.000Z</time></trkpt>
<trkpt lat="42.134014" lon="23.146098"><ele>611.3</ele><time>2026-04-13T11:34:32.000Z</time></trkpt>
<trkpt lat="42.134013" lon="23.146098"><ele>611.2</ele><time>2026-04-13T11:34:33.000Z</time></trkpt>
<trkpt lat="42.134013" lon="23.146098"><ele>611.2</ele><time>2026-04-13T11:34:34.000Z</time></trkpt>
<trkpt lat="42.134013" lon="23.146098"><ele>611.2</ele><time>2026-04-13T11:34:35.000Z</time></trkpt>
<trkpt lat="42.134013" lon="23.146098"><ele>611.2</ele><time>2026-04-13T11:34:36.000Z</time></trkpt>
<trkpt lat="42.134013" lon="23.146099"><ele>611.2</ele><time>2026-04-13T11:34:37.000Z</time></trkpt>
<trkpt lat="42.134013" lon="23.146099"><ele>611.1</ele><time>2026-04-13T11:34:38.000Z</time></trkpt>
<trkpt lat="42.134013" lon="23.146099"><ele>611.1</ele><time>2026-04-13T11:34:39.000Z</time></trkpt>
<trkpt lat="42.134013" lon="23.146099"><ele>611.1</ele><time>2026-04-13T11:34:40.000Z</time></trkpt>
<trkpt lat="42.134013" lon="23.146099"><ele>611.1</ele><time>2026-04-13T11:34:41.000Z</time></trkpt>
<trkpt lat="42.134013" lon="23.146099"><ele>611.1</ele><time>2026-04-13T11:34:42.000Z</time></trkpt>
<trkpt lat="42.134013" lon="23.146099"><ele>611.1</ele><time>2026-04-13T11:34:43.000Z</time></trkpt>
<trkpt lat="42.134013" lon="23.146099"><ele>611.1</ele><time>2026-04-13T11:34:44.000Z</time></trkpt>
<trkpt lat="42.134013" lon="23.146099"><ele>611.1</ele><time>2026-04-13T11:34:45.000Z</time></trkpt>
<trkpt lat="42.134013" lon="23.146099"><ele>611.1</ele><time>2026-04-13T11:34:46.000Z</time></trkpt>
<trkpt lat="42.134013" lon="23.146099"><ele>611.1</ele><time>2026-04-13T11:34:47.000Z</time></trkpt>
<trkpt lat="42.134013" lon="23.146099"><ele>611.1</ele><time>2026-04-13T11:34:48.000Z</time></trkpt>
<trkpt lat="42.134013" lon="23.146099"><ele>611.1</ele><time>2026-04-13T11:34:49.000Z</time></trkpt>
<trkpt lat="42.134013" lon="23.146099"><ele>611.1</ele><time>2026-04-13T11:34:50.000Z</time></trkpt>
<trkpt lat="42.134013" lon="23.146099"><ele>611.1</ele><time>2026-04-13T11:34:51.000Z</time></trkpt>
<trkpt lat="42.134013" lon="23.146099"><ele>611.1</ele><time>2026-04-13T11:34:52.000Z</time></trkpt>
<trkpt lat="42.134013" lon="23.146099"><ele>611.1</ele><time>2026-04-13T11:34:53.000Z</time></trkpt>
<trkpt lat="42.134012" lon="23.146099"><ele>611.1</ele><time>2026-04-13T11:34:54.000Z</time></trkpt>
<trkpt lat="42.134012" lon="23.146099"><ele>611.1</ele><time>2026-04-13T11:34:55.000Z</time></trkpt>
<trkpt lat="42.134012" lon="23.1461"><ele>611.1</ele><time>2026-04-13T11:34:56.000Z</time></trkpt>
<trkpt lat="42.134012" lon="23.1461"><ele>611.1</ele><time>2026-04-13T11:34:57.000Z</time></trkpt>
<trkpt lat="42.134012" lon="23.1461"><ele>610.8</ele><time>2026-04-13T11:34:58.000Z</time></trkpt>
<trkpt lat="42.134012" lon="23.1461"><ele>610.8</ele><time>2026-04-13T11:34:59.000Z</time></trkpt>
<trkpt lat="42.134012" lon="23.1461"><ele>610.8</ele><time>2026-04-13T11:35:00.000Z</time></trkpt>
<trkpt lat="42.134012" lon="23.1461"><ele>610.8</ele><time>2026-04-13T11:35:01.000Z</time></trkpt>
<trkpt lat="42.134012" lon="23.1461"><ele>610.8</ele><time>2026-04-13T11:35:02.000Z</time></trkpt>
<trkpt lat="42.134011" lon="23.1461"><ele>610.4</ele><time>2026-04-13T11:35:03.000Z</time></trkpt>
<trkpt lat="42.134011" lon="23.1461"><ele>610.4</ele><time>2026-04-13T11:35:04.000Z</time></trkpt>
<trkpt lat="42.134011" lon="23.1461"><ele>610.4</ele><time>2026-04-13T11:35:05.000Z</time></trkpt>
<trkpt lat="42.134011" lon="23.1461"><ele>610.4</ele><time>2026-04-13T11:35:06.000Z</time></trkpt>
<trkpt lat="42.134011" lon="23.146099"><ele>610.4</ele><time>2026-04-13T11:35:07.000Z</time></trkpt>
<trkpt lat="42.134011" lon="23.146099"><ele>610.1</ele><time>2026-04-13T11:35:08.000Z</time></trkpt>
<trkpt lat="42.134011" lon="23.146099"><ele>610.1</ele><time>2026-04-13T11:35:09.000Z</time></trkpt>
<trkpt lat="42.134011" lon="23.146099"><ele>610.1</ele><time>2026-04-13T11:35:10.000Z</time></trkpt>
<trkpt lat="42.134011" lon="23.146099"><ele>610.1</ele><time>2026-04-13T11:35:11.000Z</time></trkpt>
<trkpt lat="42.134011" lon="23.146099"><ele>610.1</ele><time>2026-04-13T11:35:12.000Z</time></trkpt>
<trkpt lat="42.134011" lon="23.146099"><ele>609.9</ele><time>2026-04-13T11:35:13.000Z</time></trkpt>
<trkpt lat="42.134011" lon="23.146099"><ele>609.9</ele><time>2026-04-13T11:35:14.000Z</time></trkpt>
<trkpt lat="42.134011" lon="23.146099"><ele>609.9</ele><time>2026-04-13T11:35:15.000Z</time></trkpt>
<trkpt lat="42.134011" lon="23.146099"><ele>609.9</ele><time>2026-04-13T11:35:16.000Z</time></trkpt>
<trkpt lat="42.134011" lon="23.146099"><ele>609.9</ele><time>2026-04-13T11:35:17.000Z</time></trkpt>
<trkpt lat="42.134011" lon="23.146099"><ele>609.9</ele><time>2026-04-13T11:35:18.000Z</time></trkpt>
<trkpt lat="42.134011" lon="23.146099"><ele>609.9</ele><time>2026-04-13T11:35:19.000Z</time></trkpt>
<trkpt lat="42.134011" lon="23.146099"><ele>609.9</ele><time>2026-04-13T11:35:20.000Z</time></trkpt>
<trkpt lat="42.134011" lon="23.146099"><ele>609.9</ele><time>2026-04-13T11:35:21.000Z</time></trkpt>
<trkpt lat="42.134011" lon="23.146099"><ele>609.9</ele><time>2026-04-13T11:35:22.000Z</time></trkpt>
<trkpt lat="42.134011" lon="23.146099"><ele>610</ele><time>2026-04-13T11:35:23.000Z</time></trkpt>
<trkpt lat="42.134011" lon="23.146098"><ele>610</ele><time>2026-04-13T11:35:24.000Z</time></trkpt>
<trkpt lat="42.134011" lon="23.146098"><ele>610</ele><time>2026-04-13T11:35:25.000Z</time></trkpt>
<trkpt lat="42.134011" lon="23.146098"><ele>610</ele><time>2026-04-13T11:35:26.000Z</time></trkpt>
<trkpt lat="42.134011" lon="23.146098"><ele>610</ele><time>2026-04-13T11:35:27.000Z</time></trkpt>
<trkpt lat="42.13401" lon="23.146098"><ele>610.1</ele><time>2026-04-13T11:35:28.000Z</time></trkpt>
<trkpt lat="42.13401" lon="23.146098"><ele>610.1</ele><time>2026-04-13T11:35:29.000Z</time></trkpt>
<trkpt lat="42.13401" lon="23.146098"><ele>610.1</ele><time>2026-04-13T11:35:30.000Z</time></trkpt>
<trkpt lat="42.13401" lon="23.146098"><ele>610.1</ele><time>2026-04-13T11:35:31.000Z</time></trkpt>
<trkpt lat="42.13401" lon="23.146098"><ele>610.1</ele><time>2026-04-13T11:35:32.000Z</time></trkpt>
<trkpt lat="42.13401" lon="23.146098"><ele>610.2</ele><time>2026-04-13T11:35:33.000Z</time></trkpt>
<trkpt lat="42.13401" lon="23.146099"><ele>610.2</ele><time>2026-04-13T11:35:34.000Z</time></trkpt>
<trkpt lat="42.134011" lon="23.146099"><ele>610.2</ele><time>2026-04-13T11:35:35.000Z</time></trkpt>
<trkpt lat="42.134011" lon="23.146099"><ele>610.2</ele><time>2026-04-13T11:35:36.000Z</time></trkpt>
<trkpt lat="42.134011" lon="23.146099"><ele>610.2</ele><time>2026-04-13T11:35:37.000Z</time></trkpt>
<trkpt lat="42.134011" lon="23.146099"><ele>610.3</ele><time>2026-04-13T11:35:38.000Z</time></trkpt>
<trkpt lat="42.134011" lon="23.146099"><ele>610.3</ele><time>2026-04-13T11:35:39.000Z</time></trkpt>
<trkpt lat="42.13401" lon="23.146099"><ele>610.3</ele><time>2026-04-13T11:35:40.000Z</time></trkpt>
<trkpt lat="42.13401" lon="23.146099"><ele>610.3</ele><time>2026-04-13T11:35:41.000Z</time></trkpt>
<trkpt lat="42.13401" lon="23.146099"><ele>610.3</ele><time>2026-04-13T11:35:42.000Z</time></trkpt>
<trkpt lat="42.13401" lon="23.146099"><ele>610.7</ele><time>2026-04-13T11:35:43.000Z</time></trkpt>
<trkpt lat="42.13401" lon="23.146099"><ele>610.7</ele><time>2026-04-13T11:35:44.000Z</time></trkpt>
<trkpt lat="42.13401" lon="23.146098"><ele>610.7</ele><time>2026-04-13T11:35:45.000Z</time></trkpt>
<trkpt lat="42.13401" lon="23.146098"><ele>610.7</ele><time>2026-04-13T11:35:46.000Z</time></trkpt>
<trkpt lat="42.13401" lon="23.146098"><ele>610.7</ele><time>2026-04-13T11:35:47.000Z</time></trkpt>
<trkpt lat="42.13401" lon="23.146098"><ele>611</ele><time>2026-04-13T11:35:48.000Z</time></trkpt>
<trkpt lat="42.13401" lon="23.146098"><ele>611</ele><time>2026-04-13T11:35:49.000Z</time></trkpt>
<trkpt lat="42.13401" lon="23.146098"><ele>611</ele><time>2026-04-13T11:35:50.000Z</time></trkpt>
<trkpt lat="42.13401" lon="23.146098"><ele>611</ele><time>2026-04-13T11:35:51.000Z</time></trkpt>
<trkpt lat="42.13401" lon="23.146098"><ele>611</ele><time>2026-04-13T11:35:52.000Z</time></trkpt>
<trkpt lat="42.13401" lon="23.146098"><ele>611</ele><time>2026-04-13T11:35:53.000Z</time></trkpt>
<trkpt lat="42.13401" lon="23.146098"><ele>611</ele><time>2026-04-13T11:35:54.000Z</time></trkpt>
<trkpt lat="42.13401" lon="23.146098"><ele>611</ele><time>2026-04-13T11:35:55.000Z</time></trkpt>
<trkpt lat="42.13401" lon="23.146098"><ele>611</ele><time>2026-04-13T11:35:56.000Z</time></trkpt>
<trkpt lat="42.134011" lon="23.146098"><ele>611</ele><time>2026-04-13T11:35:57.000Z</time></trkpt>
<trkpt lat="42.134011" lon="23.146098"><ele>611</ele><time>2026-04-13T11:35:58.000Z</time></trkpt>
<trkpt lat="42.134011" lon="23.146098"><ele>611</ele><time>2026-04-13T11:35:59.000Z</time></trkpt>
<trkpt lat="42.134011" lon="23.146099"><ele>611</ele><time>2026-04-13T11:36:00.000Z</time></trkpt>
<trkpt lat="42.134012" lon="23.146102"><ele>611</ele><time>2026-04-13T11:36:01.000Z</time></trkpt>
<trkpt lat="42.134012" lon="23.146105"><ele>611</ele><time>2026-04-13T11:36:02.000Z</time></trkpt>
<trkpt lat="42.134013" lon="23.146109"><ele>611</ele><time>2026-04-13T11:36:03.000Z</time></trkpt>
<trkpt lat="42.134014" lon="23.146114"><ele>611</ele><time>2026-04-13T11:36:04.000Z</time></trkpt>
<trkpt lat="42.134014" lon="23.146119"><ele>611</ele><time>2026-04-13T11:36:05.000Z</time></trkpt>
<trkpt lat="42.134015" lon="23.146124"><ele>611</ele><time>2026-04-13T11:36:06.000Z</time></trkpt>
<trkpt lat="42.134015" lon="23.146129"><ele>611</ele><time>2026-04-13T11:36:07.000Z</time></trkpt>
<trkpt lat="42.134015" lon="23.146134"><ele>611</ele><time>2026-04-13T11:36:08.000Z</time></trkpt>
<trkpt lat="42.134016" lon="23.14614"><ele>611</ele><time>2026-04-13T11:36:09.000Z</time></trkpt>
<trkpt lat="42.134016" lon="23.146146"><ele>611</ele><time>2026-04-13T11:36:10.000Z</time></trkpt>
<trkpt lat="42.134016" lon="23.146154"><ele>611</ele><time>2026-04-13T11:36:11.000Z</time></trkpt>
<trkpt lat="42.134015" lon="23.146164"><ele>611</ele><time>2026-04-13T11:36:12.000Z</time></trkpt>
<trkpt lat="42.134012" lon="23.146176"><ele>611.1</ele><time>2026-04-13T11:36:13.000Z</time></trkpt>
<trkpt lat="42.134009" lon="23.146189"><ele>611.1</ele><time>2026-04-13T11:36:14.000Z</time></trkpt>
<trkpt lat="42.134004" lon="23.146203"><ele>611.1</ele><time>2026-04-13T11:36:15.000Z</time></trkpt>
<trkpt lat="42.133999" lon="23.146216"><ele>611.1</ele><time>2026-04-13T11:36:16.000Z</time></trkpt>
<trkpt lat="42.133996" lon="23.146228"><ele>611.1</ele><time>2026-04-13T11:36:17.000Z</time></trkpt>
<trkpt lat="42.133994" lon="23.146241"><ele>611.6</ele><time>2026-04-13T11:36:18.000Z</time></trkpt>
<trkpt lat="42.133993" lon="23.146253"><ele>611.6</ele><time>2026-04-13T11:36:19.000Z</time></trkpt>
<trkpt lat="42.133994" lon="23.146266"><ele>611.6</ele><time>2026-04-13T11:36:20.000Z</time></trkpt>
<trkpt lat="42.133996" lon="23.146278"><ele>611.6</ele><time>2026-04-13T11:36:21.000Z</time></trkpt>
<trkpt lat="42.133997" lon="23.146291"><ele>611.6</ele><time>2026-04-13T11:36:22.000Z</time></trkpt>
<trkpt lat="42.133999" lon="23.146303"><ele>612</ele><time>2026-04-13T11:36:23.000Z</time></trkpt>
<trkpt lat="42.134" lon="23.146314"><ele>612</ele><time>2026-04-13T11:36:24.000Z</time></trkpt>
<trkpt lat="42.134" lon="23.146323"><ele>612</ele><time>2026-04-13T11:36:25.000Z</time></trkpt>
<trkpt lat="42.134" lon="23.146332"><ele>612</ele><time>2026-04-13T11:36:26.000Z</time></trkpt>
<trkpt lat="42.133999" lon="23.14634"><ele>612</ele><time>2026-04-13T11:36:27.000Z</time></trkpt>
<trkpt lat="42.133997" lon="23.146347"><ele>613</ele><time>2026-04-13T11:36:28.000Z</time></trkpt>
<trkpt lat="42.133996" lon="23.146353"><ele>613</ele><time>2026-04-13T11:36:29.000Z</time></trkpt>
<trkpt lat="42.133994" lon="23.14636"><ele>613</ele><time>2026-04-13T11:36:30.000Z</time></trkpt>
<trkpt lat="42.133993" lon="23.146366"><ele>613</ele><time>2026-04-13T11:36:31.000Z</time></trkpt>
<trkpt lat="42.133992" lon="23.146371"><ele>613</ele><time>2026-04-13T11:36:32.000Z</time></trkpt>
<trkpt lat="42.133992" lon="23.146376"><ele>613.9</ele><time>2026-04-13T11:36:33.000Z</time></trkpt>
<trkpt lat="42.133992" lon="23.146382"><ele>613.9</ele><time>2026-04-13T11:36:34.000Z</time></trkpt>
<trkpt lat="42.133991" lon="23.146387"><ele>613.9</ele><time>2026-04-13T11:36:35.000Z</time></trkpt>
<trkpt lat="42.13399" lon="23.146393"><ele>613.9</ele><time>2026-04-13T11:36:36.000Z</time></trkpt>
<trkpt lat="42.133988" lon="23.146399"><ele>613.9</ele><time>2026-04-13T11:36:37.000Z</time></trkpt>
<trkpt lat="42.133984" lon="23.146406"><ele>614.3</ele><time>2026-04-13T11:36:38.000Z</time></trkpt>
<trkpt lat="42.13398" lon="23.146413"><ele>614.3</ele><time>2026-04-13T11:36:39.000Z</time></trkpt>
<trkpt lat="42.133974" lon="23.14642"><ele>614.3</ele><time>2026-04-13T11:36:40.000Z</time></trkpt>
<trkpt lat="42.133969" lon="23.146426"><ele>614.3</ele><time>2026-04-13T11:36:41.000Z</time></trkpt>
<trkpt lat="42.133963" lon="23.146432"><ele>614.3</ele><time>2026-04-13T11:36:42.000Z</time></trkpt>
<trkpt lat="42.133958" lon="23.146438"><ele>615</ele><time>2026-04-13T11:36:43.000Z</time></trkpt>
<trkpt lat="42.133953" lon="23.146445"><ele>615</ele><time>2026-04-13T11:36:44.000Z</time></trkpt>
<trkpt lat="42.133949" lon="23.146452"><ele>615</ele><time>2026-04-13T11:36:45.000Z</time></trkpt>
<trkpt lat="42.133946" lon="23.146461"><ele>615</ele><time>2026-04-13T11:36:46.000Z</time></trkpt>
<trkpt lat="42.133944" lon="23.146469"><ele>615</ele><time>2026-04-13T11:36:47.000Z</time></trkpt>
<trkpt lat="42.133942" lon="23.146479"><ele>616</ele><time>2026-04-13T11:36:48.000Z</time></trkpt>
<trkpt lat="42.133939" lon="23.146489"><ele>616</ele><time>2026-04-13T11:36:49.000Z</time></trkpt>
<trkpt lat="42.133937" lon="23.146499"><ele>616</ele><time>2026-04-13T11:36:50.000Z</time></trkpt>
<trkpt lat="42.133933" lon="23.146509"><ele>616</ele><time>2026-04-13T11:36:51.000Z</time></trkpt>
<trkpt lat="42.13393" lon="23.14652"><ele>616</ele><time>2026-04-13T11:36:52.000Z</time></trkpt>
<trkpt lat="42.133926" lon="23.14653"><ele>616.5</ele><time>2026-04-13T11:36:53.000Z</time></trkpt>
<trkpt lat="42.133921" lon="23.14654"><ele>616.5</ele><time>2026-04-13T11:36:54.000Z</time></trkpt>
<trkpt lat="42.133916" lon="23.146548"><ele>616.5</ele><time>2026-04-13T11:36:55.000Z</time></trkpt>
<trkpt lat="42.133912" lon="23.146556"><ele>616.5</ele><time>2026-04-13T11:36:56.000Z</time></trkpt>
<trkpt lat="42.133907" lon="23.146563"><ele>616.5</ele><time>2026-04-13T11:36:57.000Z</time></trkpt>
<trkpt lat="42.133903" lon="23.14657"><ele>617.5</ele><time>2026-04-13T11:36:58.000Z</time></trkpt>
<trkpt lat="42.133899" lon="23.146579"><ele>617.5</ele><time>2026-04-13T11:36:59.000Z</time></trkpt>
<trkpt lat="42.133896" lon="23.146588"><ele>617.5</ele><time>2026-04-13T11:37:00.000Z</time></trkpt>
<trkpt lat="42.133894" lon="23.146597"><ele>617.5</ele><time>2026-04-13T11:37:01.000Z</time></trkpt>
<trkpt lat="42.133893" lon="23.146608"><ele>617.5</ele><time>2026-04-13T11:37:02.000Z</time></trkpt>
<trkpt lat="42.133893" lon="23.146619"><ele>618</ele><time>2026-04-13T11:37:03.000Z</time></trkpt>
<trkpt lat="42.133893" lon="23.14663"><ele>618</ele><time>2026-04-13T11:37:04.000Z</time></trkpt>
<trkpt lat="42.133895" lon="23.146641"><ele>618</ele><time>2026-04-13T11:37:05.000Z</time></trkpt>
<trkpt lat="42.133897" lon="23.146651"><ele>618</ele><time>2026-04-13T11:37:06.000Z</time></trkpt>
<trkpt lat="42.1339" lon="23.146661"><ele>618</ele><time>2026-04-13T11:37:07.000Z</time></trkpt>
<trkpt lat="42.133903" lon="23.146671"><ele>618.2</ele><time>2026-04-13T11:37:08.000Z</time></trkpt>
<trkpt lat="42.133907" lon="23.14668"><ele>618.2</ele><time>2026-04-13T11:37:09.000Z</time></trkpt>
<trkpt lat="42.133911" lon="23.146688"><ele>618.2</ele><time>2026-04-13T11:37:10.000Z</time></trkpt>
<trkpt lat="42.133914" lon="23.146696"><ele>618.2</ele><time>2026-04-13T11:37:11.000Z</time></trkpt>
<trkpt lat="42.133916" lon="23.146703"><ele>618.2</ele><time>2026-04-13T11:37:12.000Z</time></trkpt>
<trkpt lat="42.133918" lon="23.14671"><ele>619.1</ele><time>2026-04-13T11:37:13.000Z</time></trkpt>
<trkpt lat="42.133919" lon="23.146717"><ele>619.1</ele><time>2026-04-13T11:37:14.000Z</time></trkpt>
<trkpt lat="42.133919" lon="23.146723"><ele>619.1</ele><time>2026-04-13T11:37:15.000Z</time></trkpt>
<trkpt lat="42.133919" lon="23.146729"><ele>619.1</ele><time>2026-04-13T11:37:16.000Z</time></trkpt>
<trkpt lat="42.133917" lon="23.146735"><ele>619.1</ele><time>2026-04-13T11:37:17.000Z</time></trkpt>
<trkpt lat="42.133914" lon="23.14674"><ele>620</ele><time>2026-04-13T11:37:18.000Z</time></trkpt>
<trkpt lat="42.13391" lon="23.146745"><ele>620</ele><time>2026-04-13T11:37:19.000Z</time></trkpt>
<trkpt lat="42.133905" lon="23.146751"><ele>620</ele><time>2026-04-13T11:37:20.000Z</time></trkpt>
<trkpt lat="42.1339" lon="23.146756"><ele>620</ele><time>2026-04-13T11:37:21.000Z</time></trkpt>
<trkpt lat="42.133896" lon="23.146763"><ele>620</ele><time>2026-04-13T11:37:22.000Z</time></trkpt>
<trkpt lat="42.133893" lon="23.146769"><ele>620.5</ele><time>2026-04-13T11:37:23.000Z</time></trkpt>
<trkpt lat="42.133891" lon="23.146777"><ele>620.5</ele><time>2026-04-13T11:37:24.000Z</time></trkpt>
<trkpt lat="42.133891" lon="23.146783"><ele>620.5</ele><time>2026-04-13T11:37:25.000Z</time></trkpt>
<trkpt lat="42.133891" lon="23.14679"><ele>620.5</ele><time>2026-04-13T11:37:26.000Z</time></trkpt>
<trkpt lat="42.133892" lon="23.146796"><ele>620.5</ele><time>2026-04-13T11:37:27.000Z</time></trkpt>
<trkpt lat="42.133893" lon="23.146802"><ele>621.3</ele><time>2026-04-13T11:37:28.000Z</time></trkpt>
<trkpt lat="42.133893" lon="23.146808"><ele>621.3</ele><time>2026-04-13T11:37:29.000Z</time></trkpt>
<trkpt lat="42.133893" lon="23.146812"><ele>621.3</ele><time>2026-04-13T11:37:30.000Z</time></trkpt>
<trkpt lat="42.133893" lon="23.146816"><ele>621.3</ele><time>2026-04-13T11:37:31.000Z</time></trkpt>
<trkpt lat="42.133893" lon="23.146819"><ele>621.3</ele><time>2026-04-13T11:37:32.000Z</time></trkpt>
<trkpt lat="42.133892" lon="23.146821"><ele>622.3</ele><time>2026-04-13T11:37:33.000Z</time></trkpt>
<trkpt lat="42.133892" lon="23.146823"><ele>622.3</ele><time>2026-04-13T11:37:34.000Z</time></trkpt>
<trkpt lat="42.133891" lon="23.146824"><ele>622.3</ele><time>2026-04-13T11:37:35.000Z</time></trkpt>
<trkpt lat="42.13389" lon="23.146825"><ele>622.3</ele><time>2026-04-13T11:37:36.000Z</time></trkpt>
<trkpt lat="42.133889" lon="23.146827"><ele>622.3</ele><time>2026-04-13T11:37:37.000Z</time></trkpt>
<trkpt lat="42.133887" lon="23.146829"><ele>622.9</ele><time>2026-04-13T11:37:38.000Z</time></trkpt>
<trkpt lat="42.133884" lon="23.146831"><ele>622.9</ele><time>2026-04-13T11:37:39.000Z</time></trkpt>
<trkpt lat="42.133881" lon="23.146834"><ele>622.9</ele><time>2026-04-13T11:37:40.000Z</time></trkpt>
<trkpt lat="42.133878" lon="23.146837"><ele>622.9</ele><time>2026-04-13T11:37:41.000Z</time></trkpt>
<trkpt lat="42.133875" lon="23.146839"><ele>622.9</ele><time>2026-04-13T11:37:42.000Z</time></trkpt>
<trkpt lat="42.133873" lon="23.146841"><ele>624</ele><time>2026-04-13T11:37:43.000Z</time></trkpt>
<trkpt lat="42.133871" lon="23.146842"><ele>624</ele><time>2026-04-13T11:37:44.000Z</time></trkpt>
<trkpt lat="42.13387" lon="23.146843"><ele>624</ele><time>2026-04-13T11:37:45.000Z</time></trkpt>
<trkpt lat="42.133869" lon="23.146844"><ele>624</ele><time>2026-04-13T11:37:46.000Z</time></trkpt>
<trkpt lat="42.133868" lon="23.146845"><ele>624</ele><time>2026-04-13T11:37:47.000Z</time></trkpt>
<trkpt lat="42.133867" lon="23.146845"><ele>624.7</ele><time>2026-04-13T11:37:48.000Z</time></trkpt>
<trkpt lat="42.133867" lon="23.146845"><ele>624.7</ele><time>2026-04-13T11:37:49.000Z</time></trkpt>
<trkpt lat="42.133867" lon="23.146845"><ele>624.7</ele><time>2026-04-13T11:37:50.000Z</time></trkpt>
<trkpt lat="42.133867" lon="23.146845"><ele>624.7</ele><time>2026-04-13T11:37:51.000Z</time></trkpt>
<trkpt lat="42.133867" lon="23.146845"><ele>624.7</ele><time>2026-04-13T11:37:52.000Z</time></trkpt>
<trkpt lat="42.133867" lon="23.146845"><ele>624.9</ele><time>2026-04-13T11:37:53.000Z</time></trkpt>
<trkpt lat="42.133868" lon="23.146845"><ele>624.9</ele><time>2026-04-13T11:37:54.000Z</time></trkpt>
<trkpt lat="42.133868" lon="23.146846"><ele>624.9</ele><time>2026-04-13T11:37:55.000Z</time></trkpt>
<trkpt lat="42.133869" lon="23.146846"><ele>624.9</ele><time>2026-04-13T11:37:56.000Z</time></trkpt>
<trkpt lat="42.133869" lon="23.146846"><ele>624.9</ele><time>2026-04-13T11:37:57.000Z</time></trkpt>
<trkpt lat="42.13387" lon="23.146846"><ele>625.1</ele><time>2026-04-13T11:37:58.000Z</time></trkpt>
<trkpt lat="42.13387" lon="23.146846"><ele>625.1</ele><time>2026-04-13T11:37:59.000Z</time></trkpt>
<trkpt lat="42.133871" lon="23.146846"><ele>625.1</ele><time>2026-04-13T11:38:00.000Z</time></trkpt>
<trkpt lat="42.133871" lon="23.146846"><ele>625.1</ele><time>2026-04-13T11:38:01.000Z</time></trkpt>
<trkpt lat="42.133872" lon="23.146846"><ele>625.1</ele><time>2026-04-13T11:38:02.000Z</time></trkpt>
<trkpt lat="42.133872" lon="23.146846"><ele>625.3</ele><time>2026-04-13T11:38:03.000Z</time></trkpt>
<trkpt lat="42.133872" lon="23.146846"><ele>625.3</ele><time>2026-04-13T11:38:04.000Z</time></trkpt>
<trkpt lat="42.133872" lon="23.146846"><ele>625.3</ele><time>2026-04-13T11:38:05.000Z</time></trkpt>
<trkpt lat="42.133872" lon="23.146847"><ele>625.3</ele><time>2026-04-13T11:38:06.000Z</time></trkpt>
<trkpt lat="42.133871" lon="23.146847"><ele>625.3</ele><time>2026-04-13T11:38:07.000Z</time></trkpt>
<trkpt lat="42.133871" lon="23.146848"><ele>625.4</ele><time>2026-04-13T11:38:08.000Z</time></trkpt>
<trkpt lat="42.13387" lon="23.146848"><ele>625.4</ele><time>2026-04-13T11:38:09.000Z</time></trkpt>
<trkpt lat="42.13387" lon="23.146849"><ele>625.4</ele><time>2026-04-13T11:38:10.000Z</time></trkpt>
<trkpt lat="42.13387" lon="23.146849"><ele>625.4</ele><time>2026-04-13T11:38:11.000Z</time></trkpt>
<trkpt lat="42.133869" lon="23.146849"><ele>625.4</ele><time>2026-04-13T11:38:12.000Z</time></trkpt>
<trkpt lat="42.133869" lon="23.146848"><ele>625.5</ele><time>2026-04-13T11:38:13.000Z</time></trkpt>
<trkpt lat="42.133869" lon="23.146848"><ele>625.5</ele><time>2026-04-13T11:38:14.000Z</time></trkpt>
<trkpt lat="42.133869" lon="23.146847"><ele>625.5</ele><time>2026-04-13T11:38:15.000Z</time></trkpt>
<trkpt lat="42.133869" lon="23.146847"><ele>625.5</ele><time>2026-04-13T11:38:16.000Z</time></trkpt>
<trkpt lat="42.133869" lon="23.146846"><ele>625.5</ele><time>2026-04-13T11:38:17.000Z</time></trkpt>
<trkpt lat="42.133869" lon="23.146845"><ele>625.4</ele><time>2026-04-13T11:38:18.000Z</time></trkpt>
<trkpt lat="42.133869" lon="23.146845"><ele>625.4</ele><time>2026-04-13T11:38:19.000Z</time></trkpt>
<trkpt lat="42.133869" lon="23.146844"><ele>625.4</ele><time>2026-04-13T11:38:20.000Z</time></trkpt>
<trkpt lat="42.133869" lon="23.146843"><ele>625.4</ele><time>2026-04-13T11:38:21.000Z</time></trkpt>
<trkpt lat="42.13387" lon="23.146842"><ele>625.4</ele><time>2026-04-13T11:38:22.000Z</time></trkpt>
<trkpt lat="42.133872" lon="23.146841"><ele>625.3</ele><time>2026-04-13T11:38:23.000Z</time></trkpt>
<trkpt lat="42.133874" lon="23.146839"><ele>625.3</ele><time>2026-04-13T11:38:24.000Z</time></trkpt>
<trkpt lat="42.133878" lon="23.146837"><ele>625.3</ele><time>2026-04-13T11:38:25.000Z</time></trkpt>
<trkpt lat="42.133882" lon="23.146834"><ele>625.3</ele><time>2026-04-13T11:38:26.000Z</time></trkpt>
<trkpt lat="42.133888" lon="23.146831"><ele>625.3</ele><time>2026-04-13T11:38:27.000Z</time></trkpt>
<trkpt lat="42.133895" lon="23.146829"><ele>625.2</ele><time>2026-04-13T11:38:28.000Z</time></trkpt>
<trkpt lat="42.133901" lon="23.146826"><ele>625.2</ele><time>2026-04-13T11:38:29.000Z</time></trkpt>
<trkpt lat="42.133907" lon="23.146824"><ele>625.2</ele><time>2026-04-13T11:38:30.000Z</time></trkpt>
<trkpt lat="42.133913" lon="23.146823"><ele>625.2</ele><time>2026-04-13T11:38:31.000Z</time></trkpt>
<trkpt lat="42.133917" lon="23.146822"><ele>625.2</ele><time>2026-04-13T11:38:32.000Z</time></trkpt>
<trkpt lat="42.133921" lon="23.146821"><ele>625.2</ele><time>2026-04-13T11:38:33.000Z</time></trkpt>
<trkpt lat="42.133924" lon="23.146821"><ele>625.2</ele><time>2026-04-13T11:38:34.000Z</time></trkpt>
<trkpt lat="42.133927" lon="23.146821"><ele>625.2</ele><time>2026-04-13T11:38:35.000Z</time></trkpt>
<trkpt lat="42.133929" lon="23.146821"><ele>625.2</ele><time>2026-04-13T11:38:36.000Z</time></trkpt>
<trkpt lat="42.133933" lon="23.146822"><ele>625.2</ele><time>2026-04-13T11:38:37.000Z</time></trkpt>
<trkpt lat="42.133937" lon="23.146824"><ele>625.2</ele><time>2026-04-13T11:38:38.000Z</time></trkpt>
<trkpt lat="42.133942" lon="23.146827"><ele>625.2</ele><time>2026-04-13T11:38:39.000Z</time></trkpt>
<trkpt lat="42.133948" lon="23.146833"><ele>625.2</ele><time>2026-04-13T11:38:40.000Z</time></trkpt>
<trkpt lat="42.133953" lon="23.14684"><ele>625.2</ele><time>2026-04-13T11:38:41.000Z</time></trkpt>
<trkpt lat="42.133958" lon="23.14685"><ele>625.2</ele><time>2026-04-13T11:38:42.000Z</time></trkpt>
<trkpt lat="42.133963" lon="23.146861"><ele>624.9</ele><time>2026-04-13T11:38:43.000Z</time></trkpt>
<trkpt lat="42.133968" lon="23.146874"><ele>624.9</ele><time>2026-04-13T11:38:44.000Z</time></trkpt>
<trkpt lat="42.133974" lon="23.146887"><ele>624.9</ele><time>2026-04-13T11:38:45.000Z</time></trkpt>
<trkpt lat="42.13398" lon="23.146899"><ele>624.9</ele><time>2026-04-13T11:38:46.000Z</time></trkpt>
<trkpt lat="42.133987" lon="23.146911"><ele>624.9</ele><time>2026-04-13T11:38:47.000Z</time></trkpt>
<trkpt lat="42.133995" lon="23.146922"><ele>625</ele><time>2026-04-13T11:38:48.000Z</time></trkpt>
<trkpt lat="42.134003" lon="23.146933"><ele>625</ele><time>2026-04-13T11:38:49.000Z</time></trkpt>
<trkpt lat="42.134012" lon="23.146944"><ele>625</ele><time>2026-04-13T11:38:50.000Z</time></trkpt>
<trkpt lat="42.134021" lon="23.146956"><ele>625</ele><time>2026-04-13T11:38:51.000Z</time></trkpt>
<trkpt lat="42.134031" lon="23.146969"><ele>625</ele><time>2026-04-13T11:38:52.000Z</time></trkpt>
<trkpt lat="42.13404" lon="23.146981"><ele>625.3</ele><time>2026-04-13T11:38:53.000Z</time></trkpt>
<trkpt lat="42.134049" lon="23.146994"><ele>625.3</ele><time>2026-04-13T11:38:54.000Z</time></trkpt>
<trkpt lat="42.134058" lon="23.147007"><ele>625.3</ele><time>2026-04-13T11:38:55.000Z</time></trkpt>
<trkpt lat="42.134067" lon="23.14702"><ele>625.3</ele><time>2026-04-13T11:38:56.000Z</time></trkpt>
<trkpt lat="42.134076" lon="23.147032"><ele>625.3</ele><time>2026-04-13T11:38:57.000Z</time></trkpt>
<trkpt lat="42.134084" lon="23.147044"><ele>626.1</ele><time>2026-04-13T11:38:58.000Z</time></trkpt>
<trkpt lat="42.134092" lon="23.147056"><ele>626.1</ele><time>2026-04-13T11:38:59.000Z</time></trkpt>
<trkpt lat="42.134099" lon="23.147068"><ele>626.1</ele><time>2026-04-13T11:39:00.000Z</time></trkpt>
<trkpt lat="42.134106" lon="23.14708"><ele>626.1</ele><time>2026-04-13T11:39:01.000Z</time></trkpt>
<trkpt lat="42.134112" lon="23.147093"><ele>626.1</ele><time>2026-04-13T11:39:02.000Z</time></trkpt>
<trkpt lat="42.134117" lon="23.147106"><ele>626.4</ele><time>2026-04-13T11:39:03.000Z</time></trkpt>
<trkpt lat="42.134122" lon="23.147119"><ele>626.4</ele><time>2026-04-13T11:39:04.000Z</time></trkpt>
<trkpt lat="42.134127" lon="23.147131"><ele>626.4</ele><time>2026-04-13T11:39:05.000Z</time></trkpt>
<trkpt lat="42.134133" lon="23.147143"><ele>626.4</ele><time>2026-04-13T11:39:06.000Z</time></trkpt>
<trkpt lat="42.134138" lon="23.147154"><ele>626.4</ele><time>2026-04-13T11:39:07.000Z</time></trkpt>
<trkpt lat="42.134144" lon="23.147164"><ele>626.2</ele><time>2026-04-13T11:39:08.000Z</time></trkpt>
<trkpt lat="42.134151" lon="23.147175"><ele>626.2</ele><time>2026-04-13T11:39:09.000Z</time></trkpt>
<trkpt lat="42.134158" lon="23.147186"><ele>626.2</ele><time>2026-04-13T11:39:10.000Z</time></trkpt>
<trkpt lat="42.134166" lon="23.147197"><ele>626.2</ele><time>2026-04-13T11:39:11.000Z</time></trkpt>
<trkpt lat="42.134173" lon="23.147207"><ele>626.2</ele><time>2026-04-13T11:39:12.000Z</time></trkpt>
<trkpt lat="42.13418" lon="23.147217"><ele>625.7</ele><time>2026-04-13T11:39:13.000Z</time></trkpt>
<trkpt lat="42.134187" lon="23.147227"><ele>625.7</ele><time>2026-04-13T11:39:14.000Z</time></trkpt>
<trkpt lat="42.134194" lon="23.147236"><ele>625.7</ele><time>2026-04-13T11:39:15.000Z</time></trkpt>
<trkpt lat="42.1342" lon="23.147247"><ele>625.7</ele><time>2026-04-13T11:39:16.000Z</time></trkpt>
<trkpt lat="42.134206" lon="23.147258"><ele>625.7</ele><time>2026-04-13T11:39:17.000Z</time></trkpt>
<trkpt lat="42.134213" lon="23.14727"><ele>625.4</ele><time>2026-04-13T11:39:18.000Z</time></trkpt>
<trkpt lat="42.134219" lon="23.147282"><ele>625.4</ele><time>2026-04-13T11:39:19.000Z</time></trkpt>
<trkpt lat="42.134225" lon="23.147294"><ele>625.4</ele><time>2026-04-13T11:39:20.000Z</time></trkpt>
<trkpt lat="42.134232" lon="23.147305"><ele>625.4</ele><time>2026-04-13T11:39:21.000Z</time></trkpt>
<trkpt lat="42.134238" lon="23.147317"><ele>625.4</ele><time>2026-04-13T11:39:22.000Z</time></trkpt>
<trkpt lat="42.134244" lon="23.147328"><ele>625.3</ele><time>2026-04-13T11:39:23.000Z</time></trkpt>
<trkpt lat="42.134251" lon="23.147338"><ele>625.3</ele><time>2026-04-13T11:39:24.000Z</time></trkpt>
<trkpt lat="42.134257" lon="23.147348"><ele>625.3</ele><time>2026-04-13T11:39:25.000Z</time></trkpt>
<trkpt lat="42.134265" lon="23.147357"><ele>625.3</ele><time>2026-04-13T11:39:26.000Z</time></trkpt>
<trkpt lat="42.134272" lon="23.147366"><ele>625.3</ele><time>2026-04-13T11:39:27.000Z</time></trkpt>
<trkpt lat="42.13428" lon="23.147375"><ele>625.1</ele><time>2026-04-13T11:39:28.000Z</time></trkpt>
<trkpt lat="42.134288" lon="23.147383"><ele>625.1</ele><time>2026-04-13T11:39:29.000Z</time></trkpt>
<trkpt lat="42.134296" lon="23.147391"><ele>625.1</ele><time>2026-04-13T11:39:30.000Z</time></trkpt>
<trkpt lat="42.134304" lon="23.147399"><ele>625.1</ele><time>2026-04-13T11:39:31.000Z</time></trkpt>
<trkpt lat="42.134312" lon="23.147407"><ele>625.1</ele><time>2026-04-13T11:39:32.000Z</time></trkpt>
<trkpt lat="42.134319" lon="23.147415"><ele>624.8</ele><time>2026-04-13T11:39:33.000Z</time></trkpt>
<trkpt lat="42.134325" lon="23.147423"><ele>624.8</ele><time>2026-04-13T11:39:34.000Z</time></trkpt>
<trkpt lat="42.13433" lon="23.147432"><ele>624.8</ele><time>2026-04-13T11:39:35.000Z</time></trkpt>
<trkpt lat="42.134335" lon="23.147441"><ele>624.8</ele><time>2026-04-13T11:39:36.000Z</time></trkpt>
<trkpt lat="42.134338" lon="23.147451"><ele>624.8</ele><time>2026-04-13T11:39:37.000Z</time></trkpt>
<trkpt lat="42.134341" lon="23.147461"><ele>624.7</ele><time>2026-04-13T11:39:38.000Z</time></trkpt>
<trkpt lat="42.134344" lon="23.147472"><ele>624.7</ele><time>2026-04-13T11:39:39.000Z</time></trkpt>
<trkpt lat="42.134347" lon="23.147482"><ele>624.7</ele><time>2026-04-13T11:39:40.000Z</time></trkpt>
<trkpt lat="42.13435" lon="23.147492"><ele>624.7</ele><time>2026-04-13T11:39:41.000Z</time></trkpt>
<trkpt lat="42.134354" lon="23.147502"><ele>624.7</ele><time>2026-04-13T11:39:42.000Z</time></trkpt>
<trkpt lat="42.134357" lon="23.147511"><ele>624.9</ele><time>2026-04-13T11:39:43.000Z</time></trkpt>
<trkpt lat="42.13436" lon="23.14752"><ele>624.9</ele><time>2026-04-13T11:39:44.000Z</time></trkpt>
<trkpt lat="42.134364" lon="23.147528"><ele>624.9</ele><time>2026-04-13T11:39:45.000Z</time></trkpt>
<trkpt lat="42.134367" lon="23.147536"><ele>624.9</ele><time>2026-04-13T11:39:46.000Z</time></trkpt>
<trkpt lat="42.134371" lon="23.147545"><ele>624.9</ele><time>2026-04-13T11:39:47.000Z</time></trkpt>
<trkpt lat="42.134375" lon="23.147554"><ele>625.4</ele><time>2026-04-13T11:39:48.000Z</time></trkpt>
<trkpt lat="42.134381" lon="23.147565"><ele>625.4</ele><time>2026-04-13T11:39:49.000Z</time></trkpt>
<trkpt lat="42.134388" lon="23.147577"><ele>625.4</ele><time>2026-04-13T11:39:50.000Z</time></trkpt>
<trkpt lat="42.134396" lon="23.14759"><ele>625.4</ele><time>2026-04-13T11:39:51.000Z</time></trkpt>
<trkpt lat="42.134403" lon="23.147603"><ele>625.4</ele><time>2026-04-13T11:39:52.000Z</time></trkpt>
<trkpt lat="42.13441" lon="23.147616"><ele>625.7</ele><time>2026-04-13T11:39:53.000Z</time></trkpt>
<trkpt lat="42.134417" lon="23.147627"><ele>625.7</ele><time>2026-04-13T11:39:54.000Z</time></trkpt>
<trkpt lat="42.134422" lon="23.147636"><ele>625.7</ele><time>2026-04-13T11:39:55.000Z</time></trkpt>
<trkpt lat="42.134427" lon="23.147644"><ele>625.7</ele><time>2026-04-13T11:39:56.000Z</time></trkpt>
<trkpt lat="42.134431" lon="23.147651"><ele>625.7</ele><time>2026-04-13T11:39:57.000Z</time></trkpt>
<trkpt lat="42.134436" lon="23.147658"><ele>626.1</ele><time>2026-04-13T11:39:58.000Z</time></trkpt>
<trkpt lat="42.13444" lon="23.147666"><ele>626.1</ele><time>2026-04-13T11:39:59.000Z</time></trkpt>
<trkpt lat="42.134445" lon="23.147674"><ele>626.1</ele><time>2026-04-13T11:40:00.000Z</time></trkpt>
<trkpt lat="42.134449" lon="23.147684"><ele>626.1</ele><time>2026-04-13T11:40:01.000Z</time></trkpt>
<trkpt lat="42.134454" lon="23.147694"><ele>626.1</ele><time>2026-04-13T11:40:02.000Z</time></trkpt>
<trkpt lat="42.134458" lon="23.147705"><ele>626.7</ele><time>2026-04-13T11:40:03.000Z</time></trkpt>
<trkpt lat="42.134461" lon="23.147717"><ele>626.7</ele><time>2026-04-13T11:40:04.000Z</time></trkpt>
<trkpt lat="42.134465" lon="23.147728"><ele>626.7</ele><time>2026-04-13T11:40:05.000Z</time></trkpt>
<trkpt lat="42.134468" lon="23.147738"><ele>626.7</ele><time>2026-04-13T11:40:06.000Z</time></trkpt>
<trkpt lat="42.13447" lon="23.147747"><ele>626.7</ele><time>2026-04-13T11:40:07.000Z</time></trkpt>
<trkpt lat="42.134473" lon="23.147755"><ele>627</ele><time>2026-04-13T11:40:08.000Z</time></trkpt>
<trkpt lat="42.134475" lon="23.147762"><ele>627</ele><time>2026-04-13T11:40:09.000Z</time></trkpt>
<trkpt lat="42.134478" lon="23.147769"><ele>627</ele><time>2026-04-13T11:40:10.000Z</time></trkpt>
<trkpt lat="42.134481" lon="23.147777"><ele>627</ele><time>2026-04-13T11:40:11.000Z</time></trkpt>
<trkpt lat="42.134484" lon="23.147786"><ele>627</ele><time>2026-04-13T11:40:12.000Z</time></trkpt>
<trkpt lat="42.134486" lon="23.147795"><ele>627.6</ele><time>2026-04-13T11:40:13.000Z</time></trkpt>
<trkpt lat="42.134488" lon="23.147805"><ele>627.6</ele><time>2026-04-13T11:40:14.000Z</time></trkpt>
<trkpt lat="42.134489" lon="23.147817"><ele>627.6</ele><time>2026-04-13T11:40:15.000Z</time></trkpt>
<trkpt lat="42.13449" lon="23.147829"><ele>627.6</ele><time>2026-04-13T11:40:16.000Z</time></trkpt>
<trkpt lat="42.134491" lon="23.147841"><ele>627.6</ele><time>2026-04-13T11:40:17.000Z</time></trkpt>
<trkpt lat="42.134491" lon="23.147853"><ele>628.1</ele><time>2026-04-13T11:40:18.000Z</time></trkpt>
<trkpt lat="42.134493" lon="23.147864"><ele>628.1</ele><time>2026-04-13T11:40:19.000Z</time></trkpt>
<trkpt lat="42.134495" lon="23.147874"><ele>628.1</ele><time>2026-04-13T11:40:20.000Z</time></trkpt>
<trkpt lat="42.134497" lon="23.147884"><ele>628.1</ele><time>2026-04-13T11:40:21.000Z</time></trkpt>
<trkpt lat="42.1345" lon="23.147893"><ele>628.1</ele><time>2026-04-13T11:40:22.000Z</time></trkpt>
<trkpt lat="42.134503" lon="23.147902"><ele>628.4</ele><time>2026-04-13T11:40:23.000Z</time></trkpt>
<trkpt lat="42.134505" lon="23.147911"><ele>628.4</ele><time>2026-04-13T11:40:24.000Z</time></trkpt>
<trkpt lat="42.134506" lon="23.14792"><ele>628.4</ele><time>2026-04-13T11:40:25.000Z</time></trkpt>
<trkpt lat="42.134507" lon="23.14793"><ele>628.4</ele><time>2026-04-13T11:40:26.000Z</time></trkpt>
<trkpt lat="42.134507" lon="23.14794"><ele>628.4</ele><time>2026-04-13T11:40:27.000Z</time></trkpt>
<trkpt lat="42.134506" lon="23.147951"><ele>629</ele><time>2026-04-13T11:40:28.000Z</time></trkpt>
<trkpt lat="42.134506" lon="23.147962"><ele>629</ele><time>2026-04-13T11:40:29.000Z</time></trkpt>
<trkpt lat="42.134505" lon="23.147972"><ele>629</ele><time>2026-04-13T11:40:30.000Z</time></trkpt>
<trkpt lat="42.134505" lon="23.147983"><ele>629</ele><time>2026-04-13T11:40:31.000Z</time></trkpt>
<trkpt lat="42.134504" lon="23.147994"><ele>629</ele><time>2026-04-13T11:40:32.000Z</time></trkpt>
<trkpt lat="42.134502" lon="23.148004"><ele>629.6</ele><time>2026-04-13T11:40:33.000Z</time></trkpt>
<trkpt lat="42.134501" lon="23.148014"><ele>629.6</ele><time>2026-04-13T11:40:34.000Z</time></trkpt>
<trkpt lat="42.134499" lon="23.148023"><ele>629.6</ele><time>2026-04-13T11:40:35.000Z</time></trkpt>
<trkpt lat="42.134497" lon="23.148032"><ele>629.6</ele><time>2026-04-13T11:40:36.000Z</time></trkpt>
<trkpt lat="42.134495" lon="23.148043"><ele>629.6</ele><time>2026-04-13T11:40:37.000Z</time></trkpt>
<trkpt lat="42.134493" lon="23.148055"><ele>629.9</ele><time>2026-04-13T11:40:38.000Z</time></trkpt>
<trkpt lat="42.134491" lon="23.148067"><ele>629.9</ele><time>2026-04-13T11:40:39.000Z</time></trkpt>
<trkpt lat="42.13449" lon="23.148081"><ele>629.9</ele><time>2026-04-13T11:40:40.000Z</time></trkpt>
<trkpt lat="42.134488" lon="23.148093"><ele>629.9</ele><time>2026-04-13T11:40:41.000Z</time></trkpt>
<trkpt lat="42.134488" lon="23.148105"><ele>629.9</ele><time>2026-04-13T11:40:42.000Z</time></trkpt>
<trkpt lat="42.134488" lon="23.148115"><ele>630.6</ele><time>2026-04-13T11:40:43.000Z</time></trkpt>
<trkpt lat="42.134489" lon="23.148126"><ele>630.6</ele><time>2026-04-13T11:40:44.000Z</time></trkpt>
<trkpt lat="42.134489" lon="23.148136"><ele>630.6</ele><time>2026-04-13T11:40:45.000Z</time></trkpt>
<trkpt lat="42.13449" lon="23.148147"><ele>630.6</ele><time>2026-04-13T11:40:46.000Z</time></trkpt>
<trkpt lat="42.134491" lon="23.148157"><ele>630.6</ele><time>2026-04-13T11:40:47.000Z</time></trkpt>
<trkpt lat="42.134491" lon="23.148168"><ele>631.2</ele><time>2026-04-13T11:40:48.000Z</time></trkpt>
<trkpt lat="42.134492" lon="23.148179"><ele>631.2</ele><time>2026-04-13T11:40:49.000Z</time></trkpt>
<trkpt lat="42.134491" lon="23.148189"><ele>631.2</ele><time>2026-04-13T11:40:50.000Z</time></trkpt>
<trkpt lat="42.13449" lon="23.1482"><ele>631.2</ele><time>2026-04-13T11:40:51.000Z</time></trkpt>
<trkpt lat="42.134489" lon="23.14821"><ele>631.2</ele><time>2026-04-13T11:40:52.000Z</time></trkpt>
<trkpt lat="42.134487" lon="23.14822"><ele>631.5</ele><time>2026-04-13T11:40:53.000Z</time></trkpt>
<trkpt lat="42.134485" lon="23.148229"><ele>631.5</ele><time>2026-04-13T11:40:54.000Z</time></trkpt>
<trkpt lat="42.134484" lon="23.148239"><ele>631.5</ele><time>2026-04-13T11:40:55.000Z</time></trkpt>
<trkpt lat="42.134484" lon="23.148248"><ele>631.5</ele><time>2026-04-13T11:40:56.000Z</time></trkpt>
<trkpt lat="42.134484" lon="23.148257"><ele>631.5</ele><time>2026-04-13T11:40:57.000Z</time></trkpt>
<trkpt lat="42.134485" lon="23.148267"><ele>632.2</ele><time>2026-04-13T11:40:58.000Z</time></trkpt>
<trkpt lat="42.134486" lon="23.148277"><ele>632.2</ele><time>2026-04-13T11:40:59.000Z</time></trkpt>
<trkpt lat="42.134487" lon="23.148288"><ele>632.2</ele><time>2026-04-13T11:41:00.000Z</time></trkpt>
<trkpt lat="42.134487" lon="23.148299"><ele>632.2</ele><time>2026-04-13T11:41:01.000Z</time></trkpt>
<trkpt lat="42.134487" lon="23.148311"><ele>632.2</ele><time>2026-04-13T11:41:02.000Z</time></trkpt>
<trkpt lat="42.134487" lon="23.148322"><ele>632.9</ele><time>2026-04-13T11:41:03.000Z</time></trkpt>
<trkpt lat="42.134487" lon="23.148334"><ele>632.9</ele><time>2026-04-13T11:41:04.000Z</time></trkpt>
<trkpt lat="42.134488" lon="23.148344"><ele>632.9</ele><time>2026-04-13T11:41:05.000Z</time></trkpt>
<trkpt lat="42.134489" lon="23.148353"><ele>632.9</ele><time>2026-04-13T11:41:06.000Z</time></trkpt>
<trkpt lat="42.13449" lon="23.148362"><ele>632.9</ele><time>2026-04-13T11:41:07.000Z</time></trkpt>
<trkpt lat="42.134492" lon="23.14837"><ele>633.2</ele><time>2026-04-13T11:41:08.000Z</time></trkpt>
<trkpt lat="42.134492" lon="23.148378"><ele>633.2</ele><time>2026-04-13T11:41:09.000Z</time></trkpt>
<trkpt lat="42.134492" lon="23.148385"><ele>633.2</ele><time>2026-04-13T11:41:10.000Z</time></trkpt>
<trkpt lat="42.134491" lon="23.148393"><ele>633.2</ele><time>2026-04-13T11:41:11.000Z</time></trkpt>
<trkpt lat="42.13449" lon="23.1484"><ele>633.2</ele><time>2026-04-13T11:41:12.000Z</time></trkpt>
<trkpt lat="42.134489" lon="23.148408"><ele>633.9</ele><time>2026-04-13T11:41:13.000Z</time></trkpt>
<trkpt lat="42.134488" lon="23.148416"><ele>633.9</ele><time>2026-04-13T11:41:14.000Z</time></trkpt>
<trkpt lat="42.134486" lon="23.148424"><ele>633.9</ele><time>2026-04-13T11:41:15.000Z</time></trkpt>
<trkpt lat="42.134485" lon="23.148432"><ele>633.9</ele><time>2026-04-13T11:41:16.000Z</time></trkpt>
<trkpt lat="42.134484" lon="23.14844"><ele>633.9</ele><time>2026-04-13T11:41:17.000Z</time></trkpt>
<trkpt lat="42.134483" lon="23.148448"><ele>634.8</ele><time>2026-04-13T11:41:18.000Z</time></trkpt>
<trkpt lat="42.134483" lon="23.148456"><ele>634.8</ele><time>2026-04-13T11:41:19.000Z</time></trkpt>
<trkpt lat="42.134483" lon="23.148464"><ele>634.8</ele><time>2026-04-13T11:41:20.000Z</time></trkpt>
<trkpt lat="42.134484" lon="23.148472"><ele>634.8</ele><time>2026-04-13T11:41:21.000Z</time></trkpt>
<trkpt lat="42.134485" lon="23.14848"><ele>634.8</ele><time>2026-04-13T11:41:22.000Z</time></trkpt>
<trkpt lat="42.134486" lon="23.148488"><ele>635.3</ele><time>2026-04-13T11:41:23.000Z</time></trkpt>
<trkpt lat="42.134488" lon="23.148496"><ele>635.3</ele><time>2026-04-13T11:41:24.000Z</time></trkpt>
<trkpt lat="42.13449" lon="23.148506"><ele>635.3</ele><time>2026-04-13T11:41:25.000Z</time></trkpt>
<trkpt lat="42.134491" lon="23.148517"><ele>635.3</ele><time>2026-04-13T11:41:26.000Z</time></trkpt>
<trkpt lat="42.134493" lon="23.148529"><ele>635.3</ele><time>2026-04-13T11:41:27.000Z</time></trkpt>
<trkpt lat="42.134494" lon="23.148542"><ele>636.4</ele><time>2026-04-13T11:41:28.000Z</time></trkpt>
<trkpt lat="42.134496" lon="23.148555"><ele>636.4</ele><time>2026-04-13T11:41:29.000Z</time></trkpt>
<trkpt lat="42.134499" lon="23.148568"><ele>636.4</ele><time>2026-04-13T11:41:30.000Z</time></trkpt>
<trkpt lat="42.134503" lon="23.148579"><ele>636.4</ele><time>2026-04-13T11:41:31.000Z</time></trkpt>
<trkpt lat="42.134509" lon="23.14859"><ele>636.4</ele><time>2026-04-13T11:41:32.000Z</time></trkpt>
<trkpt lat="42.134515" lon="23.148599"><ele>637.7</ele><time>2026-04-13T11:41:33.000Z</time></trkpt>
<trkpt lat="42.134522" lon="23.148608"><ele>637.7</ele><time>2026-04-13T11:41:34.000Z</time></trkpt>
<trkpt lat="42.134529" lon="23.148615"><ele>637.7</ele><time>2026-04-13T11:41:35.000Z</time></trkpt>
<trkpt lat="42.134535" lon="23.148622"><ele>637.7</ele><time>2026-04-13T11:41:36.000Z</time></trkpt>
<trkpt lat="42.13454" lon="23.148629"><ele>637.7</ele><time>2026-04-13T11:41:37.000Z</time></trkpt>
<trkpt lat="42.134544" lon="23.148637"><ele>638.3</ele><time>2026-04-13T11:41:38.000Z</time></trkpt>
<trkpt lat="42.134549" lon="23.148644"><ele>638.3</ele><time>2026-04-13T11:41:39.000Z</time></trkpt>
<trkpt lat="42.134554" lon="23.148653"><ele>638.3</ele><time>2026-04-13T11:41:40.000Z</time></trkpt>
<trkpt lat="42.134559" lon="23.148662"><ele>638.3</ele><time>2026-04-13T11:41:41.000Z</time></trkpt>
<trkpt lat="42.134565" lon="23.148671"><ele>638.3</ele><time>2026-04-13T11:41:42.000Z</time></trkpt>
<trkpt lat="42.13457" lon="23.148681"><ele>639.5</ele><time>2026-04-13T11:41:43.000Z</time></trkpt>
<trkpt lat="42.134576" lon="23.14869"><ele>639.5</ele><time>2026-04-13T11:41:44.000Z</time></trkpt>
<trkpt lat="42.134581" lon="23.148699"><ele>639.5</ele><time>2026-04-13T11:41:45.000Z</time></trkpt>
<trkpt lat="42.134586" lon="23.148708"><ele>639.5</ele><time>2026-04-13T11:41:46.000Z</time></trkpt>
<trkpt lat="42.134591" lon="23.148716"><ele>639.5</ele><time>2026-04-13T11:41:47.000Z</time></trkpt>
<trkpt lat="42.134596" lon="23.148723"><ele>639.9</ele><time>2026-04-13T11:41:48.000Z</time></trkpt>
<trkpt lat="42.1346" lon="23.14873"><ele>639.9</ele><time>2026-04-13T11:41:49.000Z</time></trkpt>
<trkpt lat="42.134606" lon="23.148736"><ele>639.9</ele><time>2026-04-13T11:41:50.000Z</time></trkpt>
<trkpt lat="42.13461" lon="23.148743"><ele>639.9</ele><time>2026-04-13T11:41:51.000Z</time></trkpt>
<trkpt lat="42.134614" lon="23.148749"><ele>639.9</ele><time>2026-04-13T11:41:52.000Z</time></trkpt>
<trkpt lat="42.134618" lon="23.148755"><ele>639.7</ele><time>2026-04-13T11:41:53.000Z</time></trkpt>
<trkpt lat="42.134622" lon="23.148762"><ele>639.7</ele><time>2026-04-13T11:41:54.000Z</time></trkpt>
<trkpt lat="42.134626" lon="23.148769"><ele>639.7</ele><time>2026-04-13T11:41:55.000Z</time></trkpt>
<trkpt lat="42.134631" lon="23.148776"><ele>639.7</ele><time>2026-04-13T11:41:56.000Z</time></trkpt>
<trkpt lat="42.134637" lon="23.148782"><ele>639.7</ele><time>2026-04-13T11:41:57.000Z</time></trkpt>
<trkpt lat="42.134645" lon="23.148786"><ele>639.3</ele><time>2026-04-13T11:41:58.000Z</time></trkpt>
<trkpt lat="42.134653" lon="23.14879"><ele>639.3</ele><time>2026-04-13T11:41:59.000Z</time></trkpt>
<trkpt lat="42.134662" lon="23.148793"><ele>639.3</ele><time>2026-04-13T11:42:00.000Z</time></trkpt>
<trkpt lat="42.134671" lon="23.148796"><ele>639.3</ele><time>2026-04-13T11:42:01.000Z</time></trkpt>
<trkpt lat="42.134678" lon="23.148799"><ele>639.3</ele><time>2026-04-13T11:42:02.000Z</time></trkpt>
<trkpt lat="42.134685" lon="23.148803"><ele>639.3</ele><time>2026-04-13T11:42:03.000Z</time></trkpt>
<trkpt lat="42.134692" lon="23.148808"><ele>639.3</ele><time>2026-04-13T11:42:04.000Z</time></trkpt>
<trkpt lat="42.134698" lon="23.148812"><ele>639.3</ele><time>2026-04-13T11:42:05.000Z</time></trkpt>
<trkpt lat="42.134705" lon="23.148816"><ele>639.3</ele><time>2026-04-13T11:42:06.000Z</time></trkpt>
<trkpt lat="42.134711" lon="23.148819"><ele>639.3</ele><time>2026-04-13T11:42:07.000Z</time></trkpt>
<trkpt lat="42.134717" lon="23.148823"><ele>639.5</ele><time>2026-04-13T11:42:08.000Z</time></trkpt>
<trkpt lat="42.134723" lon="23.148825"><ele>639.5</ele><time>2026-04-13T11:42:09.000Z</time></trkpt>
<trkpt lat="42.134729" lon="23.148828"><ele>639.5</ele><time>2026-04-13T11:42:10.000Z</time></trkpt>
<trkpt lat="42.134733" lon="23.14883"><ele>639.5</ele><time>2026-04-13T11:42:11.000Z</time></trkpt>
<trkpt lat="42.134739" lon="23.148833"><ele>639.5</ele><time>2026-04-13T11:42:12.000Z</time></trkpt>
<trkpt lat="42.134744" lon="23.148836"><ele>640.2</ele><time>2026-04-13T11:42:13.000Z</time></trkpt>
<trkpt lat="42.134751" lon="23.14884"><ele>640.2</ele><time>2026-04-13T11:42:14.000Z</time></trkpt>
<trkpt lat="42.134758" lon="23.148844"><ele>640.2</ele><time>2026-04-13T11:42:15.000Z</time></trkpt>
<trkpt lat="42.134768" lon="23.148849"><ele>640.2</ele><time>2026-04-13T11:42:16.000Z</time></trkpt>
<trkpt lat="42.134777" lon="23.148854"><ele>640.2</ele><time>2026-04-13T11:42:17.000Z</time></trkpt>
<trkpt lat="42.134787" lon="23.148859"><ele>641.1</ele><time>2026-04-13T11:42:18.000Z</time></trkpt>
<trkpt lat="42.134796" lon="23.148865"><ele>641.1</ele><time>2026-04-13T11:42:19.000Z</time></trkpt>
<trkpt lat="42.134805" lon="23.14887"><ele>641.1</ele><time>2026-04-13T11:42:20.000Z</time></trkpt>
<trkpt lat="42.134813" lon="23.148874"><ele>641.1</ele><time>2026-04-13T11:42:21.000Z</time></trkpt>
<trkpt lat="42.134822" lon="23.148877"><ele>641.1</ele><time>2026-04-13T11:42:22.000Z</time></trkpt>
<trkpt lat="42.13483" lon="23.14888"><ele>641.5</ele><time>2026-04-13T11:42:23.000Z</time></trkpt>
<trkpt lat="42.134838" lon="23.148882"><ele>641.5</ele><time>2026-04-13T11:42:24.000Z</time></trkpt>
<trkpt lat="42.134846" lon="23.148885"><ele>641.5</ele><time>2026-04-13T11:42:25.000Z</time></trkpt>
<trkpt lat="42.134852" lon="23.148889"><ele>641.5</ele><time>2026-04-13T11:42:26.000Z</time></trkpt>
<trkpt lat="42.134857" lon="23.148893"><ele>641.5</ele><time>2026-04-13T11:42:27.000Z</time></trkpt>
<trkpt lat="42.134861" lon="23.148898"><ele>642.5</ele><time>2026-04-13T11:42:28.000Z</time></trkpt>
<trkpt lat="42.134864" lon="23.148902"><ele>642.5</ele><time>2026-04-13T11:42:29.000Z</time></trkpt>
<trkpt lat="42.134867" lon="23.148906"><ele>642.5</ele><time>2026-04-13T11:42:30.000Z</time></trkpt>
<trkpt lat="42.13487" lon="23.148909"><ele>642.5</ele><time>2026-04-13T11:42:31.000Z</time></trkpt>
<trkpt lat="42.134873" lon="23.148912"><ele>642.5</ele><time>2026-04-13T11:42:32.000Z</time></trkpt>
<trkpt lat="42.134876" lon="23.148914"><ele>643.6</ele><time>2026-04-13T11:42:33.000Z</time></trkpt>
<trkpt lat="42.13488" lon="23.148917"><ele>643.6</ele><time>2026-04-13T11:42:34.000Z</time></trkpt>
<trkpt lat="42.134884" lon="23.14892"><ele>643.6</ele><time>2026-04-13T11:42:35.000Z</time></trkpt>
<trkpt lat="42.13489" lon="23.148923"><ele>643.6</ele><time>2026-04-13T11:42:36.000Z</time></trkpt>
<trkpt lat="42.134896" lon="23.148927"><ele>643.6</ele><time>2026-04-13T11:42:37.000Z</time></trkpt>
<trkpt lat="42.134903" lon="23.14893"><ele>644.1</ele><time>2026-04-13T11:42:38.000Z</time></trkpt>
<trkpt lat="42.13491" lon="23.148932"><ele>644.1</ele><time>2026-04-13T11:42:39.000Z</time></trkpt>
<trkpt lat="42.134918" lon="23.148933"><ele>644.1</ele><time>2026-04-13T11:42:40.000Z</time></trkpt>
<trkpt lat="42.134926" lon="23.148933"><ele>644.1</ele><time>2026-04-13T11:42:41.000Z</time></trkpt>
<trkpt lat="42.134934" lon="23.148932"><ele>644.1</ele><time>2026-04-13T11:42:42.000Z</time></trkpt>
<trkpt lat="42.134942" lon="23.14893"><ele>644.8</ele><time>2026-04-13T11:42:43.000Z</time></trkpt>
<trkpt lat="42.13495" lon="23.148928"><ele>644.8</ele><time>2026-04-13T11:42:44.000Z</time></trkpt>
<trkpt lat="42.134957" lon="23.148925"><ele>644.8</ele><time>2026-04-13T11:42:45.000Z</time></trkpt>
<trkpt lat="42.134965" lon="23.148922"><ele>644.8</ele><time>2026-04-13T11:42:46.000Z</time></trkpt>
<trkpt lat="42.134972" lon="23.148919"><ele>644.8</ele><time>2026-04-13T11:42:47.000Z</time></trkpt>
<trkpt lat="42.134979" lon="23.148917"><ele>645.2</ele><time>2026-04-13T11:42:48.000Z</time></trkpt>
<trkpt lat="42.134987" lon="23.148916"><ele>645.2</ele><time>2026-04-13T11:42:49.000Z</time></trkpt>
<trkpt lat="42.134994" lon="23.148916"><ele>645.2</ele><time>2026-04-13T11:42:50.000Z</time></trkpt>
<trkpt lat="42.135001" lon="23.148915"><ele>645.2</ele><time>2026-04-13T11:42:51.000Z</time></trkpt>
<trkpt lat="42.135008" lon="23.148913"><ele>645.2</ele><time>2026-04-13T11:42:52.000Z</time></trkpt>
<trkpt lat="42.135014" lon="23.148912"><ele>645.4</ele><time>2026-04-13T11:42:53.000Z</time></trkpt>
<trkpt lat="42.13502" lon="23.14891"><ele>645.4</ele><time>2026-04-13T11:42:54.000Z</time></trkpt>
<trkpt lat="42.135025" lon="23.148909"><ele>645.4</ele><time>2026-04-13T11:42:55.000Z</time></trkpt>
<trkpt lat="42.13503" lon="23.14891"><ele>645.4</ele><time>2026-04-13T11:42:56.000Z</time></trkpt>
<trkpt lat="42.135034" lon="23.148911"><ele>645.4</ele><time>2026-04-13T11:42:57.000Z</time></trkpt>
<trkpt lat="42.135038" lon="23.148913"><ele>645.6</ele><time>2026-04-13T11:42:58.000Z</time></trkpt>
<trkpt lat="42.135042" lon="23.148915"><ele>645.6</ele><time>2026-04-13T11:42:59.000Z</time></trkpt>
<trkpt lat="42.135045" lon="23.148917"><ele>645.6</ele><time>2026-04-13T11:43:00.000Z</time></trkpt>
<trkpt lat="42.135048" lon="23.14892"><ele>645.6</ele><time>2026-04-13T11:43:01.000Z</time></trkpt>
<trkpt lat="42.135051" lon="23.148922"><ele>645.6</ele><time>2026-04-13T11:43:02.000Z</time></trkpt>
<trkpt lat="42.135055" lon="23.148926"><ele>646</ele><time>2026-04-13T11:43:03.000Z</time></trkpt>
<trkpt lat="42.135058" lon="23.14893"><ele>646</ele><time>2026-04-13T11:43:04.000Z</time></trkpt>
<trkpt lat="42.135061" lon="23.148934"><ele>646</ele><time>2026-04-13T11:43:05.000Z</time></trkpt>
<trkpt lat="42.135065" lon="23.148939"><ele>646</ele><time>2026-04-13T11:43:06.000Z</time></trkpt>
<trkpt lat="42.135068" lon="23.148944"><ele>646</ele><time>2026-04-13T11:43:07.000Z</time></trkpt>
<trkpt lat="42.135072" lon="23.148948"><ele>646.3</ele><time>2026-04-13T11:43:08.000Z</time></trkpt>
<trkpt lat="42.135075" lon="23.148952"><ele>646.3</ele><time>2026-04-13T11:43:09.000Z</time></trkpt>
<trkpt lat="42.135078" lon="23.148956"><ele>646.3</ele><time>2026-04-13T11:43:10.000Z</time></trkpt>
<trkpt lat="42.135082" lon="23.14896"><ele>646.3</ele><time>2026-04-13T11:43:11.000Z</time></trkpt>
<trkpt lat="42.135086" lon="23.148964"><ele>646.3</ele><time>2026-04-13T11:43:12.000Z</time></trkpt>
<trkpt lat="42.13509" lon="23.148968"><ele>647.2</ele><time>2026-04-13T11:43:13.000Z</time></trkpt>
<trkpt lat="42.135095" lon="23.148971"><ele>647.2</ele><time>2026-04-13T11:43:14.000Z</time></trkpt>
<trkpt lat="42.135101" lon="23.148973"><ele>647.2</ele><time>2026-04-13T11:43:15.000Z</time></trkpt>
<trkpt lat="42.135106" lon="23.148976"><ele>647.2</ele><time>2026-04-13T11:43:16.000Z</time></trkpt>
<trkpt lat="42.135111" lon="23.148978"><ele>647.2</ele><time>2026-04-13T11:43:17.000Z</time></trkpt>
<trkpt lat="42.135117" lon="23.148981"><ele>648</ele><time>2026-04-13T11:43:18.000Z</time></trkpt>
<trkpt lat="42.135122" lon="23.148986"><ele>648</ele><time>2026-04-13T11:43:19.000Z</time></trkpt>
<trkpt lat="42.135127" lon="23.148992"><ele>648</ele><time>2026-04-13T11:43:20.000Z</time></trkpt>
<trkpt lat="42.135131" lon="23.148998"><ele>648</ele><time>2026-04-13T11:43:21.000Z</time></trkpt>
<trkpt lat="42.135135" lon="23.149006"><ele>648</ele><time>2026-04-13T11:43:22.000Z</time></trkpt>
<trkpt lat="42.135139" lon="23.149014"><ele>648.3</ele><time>2026-04-13T11:43:23.000Z</time></trkpt>
<trkpt lat="42.135143" lon="23.149022"><ele>648.3</ele><time>2026-04-13T11:43:24.000Z</time></trkpt>
<trkpt lat="42.135147" lon="23.149029"><ele>648.3</ele><time>2026-04-13T11:43:25.000Z</time></trkpt>
<trkpt lat="42.135151" lon="23.149036"><ele>648.3</ele><time>2026-04-13T11:43:26.000Z</time></trkpt>
<trkpt lat="42.135155" lon="23.149043"><ele>648.3</ele><time>2026-04-13T11:43:27.000Z</time></trkpt>
<trkpt lat="42.135159" lon="23.149049"><ele>648.7</ele><time>2026-04-13T11:43:28.000Z</time></trkpt>
<trkpt lat="42.135163" lon="23.149057"><ele>648.7</ele><time>2026-04-13T11:43:29.000Z</time></trkpt>
<trkpt lat="42.135166" lon="23.149064"><ele>648.7</ele><time>2026-04-13T11:43:30.000Z</time></trkpt>
<trkpt lat="42.13517" lon="23.149072"><ele>648.7</ele><time>2026-04-13T11:43:31.000Z</time></trkpt>
<trkpt lat="42.135173" lon="23.149079"><ele>648.7</ele><time>2026-04-13T11:43:32.000Z</time></trkpt>
<trkpt lat="42.135178" lon="23.149085"><ele>649</ele><time>2026-04-13T11:43:33.000Z</time></trkpt>
<trkpt lat="42.135183" lon="23.149091"><ele>649</ele><time>2026-04-13T11:43:34.000Z</time></trkpt>
<trkpt lat="42.135189" lon="23.149094"><ele>649</ele><time>2026-04-13T11:43:35.000Z</time></trkpt>
<trkpt lat="42.135197" lon="23.149098"><ele>649</ele><time>2026-04-13T11:43:36.000Z</time></trkpt>
<trkpt lat="42.135205" lon="23.1491"><ele>649</ele><time>2026-04-13T11:43:37.000Z</time></trkpt>
<trkpt lat="42.135214" lon="23.149103"><ele>649.2</ele><time>2026-04-13T11:43:38.000Z</time></trkpt>
<trkpt lat="42.135223" lon="23.149106"><ele>649.2</ele><time>2026-04-13T11:43:39.000Z</time></trkpt>
<trkpt lat="42.135231" lon="23.14911"><ele>649.2</ele><time>2026-04-13T11:43:40.000Z</time></trkpt>
<trkpt lat="42.135238" lon="23.149113"><ele>649.2</ele><time>2026-04-13T11:43:41.000Z</time></trkpt>
<trkpt lat="42.135244" lon="23.149117"><ele>649.2</ele><time>2026-04-13T11:43:42.000Z</time></trkpt>
<trkpt lat="42.13525" lon="23.149122"><ele>649.7</ele><time>2026-04-13T11:43:43.000Z</time></trkpt>
<trkpt lat="42.135256" lon="23.149126"><ele>649.7</ele><time>2026-04-13T11:43:44.000Z</time></trkpt>
<trkpt lat="42.135262" lon="23.14913"><ele>649.7</ele><time>2026-04-13T11:43:45.000Z</time></trkpt>
<trkpt lat="42.135268" lon="23.149134"><ele>649.7</ele><time>2026-04-13T11:43:46.000Z</time></trkpt>
<trkpt lat="42.135276" lon="23.149137"><ele>649.7</ele><time>2026-04-13T11:43:47.000Z</time></trkpt>
<trkpt lat="42.135283" lon="23.149138"><ele>650.3</ele><time>2026-04-13T11:43:48.000Z</time></trkpt>
<trkpt lat="42.135292" lon="23.149139"><ele>650.3</ele><time>2026-04-13T11:43:49.000Z</time></trkpt>
<trkpt lat="42.135302" lon="23.149137"><ele>650.3</ele><time>2026-04-13T11:43:50.000Z</time></trkpt>
<trkpt lat="42.135311" lon="23.149134"><ele>650.3</ele><time>2026-04-13T11:43:51.000Z</time></trkpt>
<trkpt lat="42.135319" lon="23.14913"><ele>650.3</ele><time>2026-04-13T11:43:52.000Z</time></trkpt>
<trkpt lat="42.135326" lon="23.149125"><ele>650.6</ele><time>2026-04-13T11:43:53.000Z</time></trkpt>
<trkpt lat="42.135333" lon="23.14912"><ele>650.6</ele><time>2026-04-13T11:43:54.000Z</time></trkpt>
<trkpt lat="42.135338" lon="23.149115"><ele>650.6</ele><time>2026-04-13T11:43:55.000Z</time></trkpt>
<trkpt lat="42.135344" lon="23.14911"><ele>650.6</ele><time>2026-04-13T11:43:56.000Z</time></trkpt>
<trkpt lat="42.135349" lon="23.149106"><ele>650.6</ele><time>2026-04-13T11:43:57.000Z</time></trkpt>
<trkpt lat="42.135355" lon="23.149103"><ele>651.4</ele><time>2026-04-13T11:43:58.000Z</time></trkpt>
<trkpt lat="42.135362" lon="23.149101"><ele>651.4</ele><time>2026-04-13T11:43:59.000Z</time></trkpt>
<trkpt lat="42.135368" lon="23.1491"><ele>651.4</ele><time>2026-04-13T11:44:00.000Z</time></trkpt>
<trkpt lat="42.135374" lon="23.149101"><ele>651.4</ele><time>2026-04-13T11:44:01.000Z</time></trkpt>
<trkpt lat="42.135379" lon="23.149102"><ele>651.4</ele><time>2026-04-13T11:44:02.000Z</time></trkpt>
<trkpt lat="42.135383" lon="23.149103"><ele>652.3</ele><time>2026-04-13T11:44:03.000Z</time></trkpt>
<trkpt lat="42.135386" lon="23.149103"><ele>652.3</ele><time>2026-04-13T11:44:04.000Z</time></trkpt>
<trkpt lat="42.135387" lon="23.149102"><ele>652.3</ele><time>2026-04-13T11:44:05.000Z</time></trkpt>
<trkpt lat="42.135388" lon="23.1491"><ele>652.3</ele><time>2026-04-13T11:44:06.000Z</time></trkpt>
<trkpt lat="42.135387" lon="23.149098"><ele>652.3</ele><time>2026-04-13T11:44:07.000Z</time></trkpt>
<trkpt lat="42.135387" lon="23.149097"><ele>652.7</ele><time>2026-04-13T11:44:08.000Z</time></trkpt>
<trkpt lat="42.135387" lon="23.149096"><ele>652.7</ele><time>2026-04-13T11:44:09.000Z</time></trkpt>
<trkpt lat="42.135387" lon="23.149096"><ele>652.7</ele><time>2026-04-13T11:44:10.000Z</time></trkpt>
<trkpt lat="42.135387" lon="23.149096"><ele>652.7</ele><time>2026-04-13T11:44:11.000Z</time></trkpt>
<trkpt lat="42.135387" lon="23.149096"><ele>652.7</ele><time>2026-04-13T11:44:12.000Z</time></trkpt>
<trkpt lat="42.135387" lon="23.149096"><ele>653</ele><time>2026-04-13T11:44:13.000Z</time></trkpt>
<trkpt lat="42.135387" lon="23.149096"><ele>653</ele><time>2026-04-13T11:44:14.000Z</time></trkpt>
<trkpt lat="42.135387" lon="23.149096"><ele>653</ele><time>2026-04-13T11:44:15.000Z</time></trkpt>
<trkpt lat="42.135387" lon="23.149096"><ele>653</ele><time>2026-04-13T11:44:16.000Z</time></trkpt>
<trkpt lat="42.135387" lon="23.149096"><ele>653</ele><time>2026-04-13T11:44:17.000Z</time></trkpt>
<trkpt lat="42.135387" lon="23.149096"><ele>653.1</ele><time>2026-04-13T11:44:18.000Z</time></trkpt>
<trkpt lat="42.135387" lon="23.149096"><ele>653.1</ele><time>2026-04-13T11:44:19.000Z</time></trkpt>
<trkpt lat="42.135387" lon="23.149097"><ele>653.1</ele><time>2026-04-13T11:44:20.000Z</time></trkpt>
<trkpt lat="42.135387" lon="23.149097"><ele>653.1</ele><time>2026-04-13T11:44:21.000Z</time></trkpt>
<trkpt lat="42.135387" lon="23.149096"><ele>653.1</ele><time>2026-04-13T11:44:22.000Z</time></trkpt>
<trkpt lat="42.135387" lon="23.149097"><ele>653.1</ele><time>2026-04-13T11:44:23.000Z</time></trkpt>
<trkpt lat="42.135387" lon="23.149097"><ele>653.1</ele><time>2026-04-13T11:44:24.000Z</time></trkpt>
<trkpt lat="42.135387" lon="23.149097"><ele>653.1</ele><time>2026-04-13T11:44:25.000Z</time></trkpt>
<trkpt lat="42.135387" lon="23.149097"><ele>653.1</ele><time>2026-04-13T11:44:26.000Z</time></trkpt>
<trkpt lat="42.135386" lon="23.149097"><ele>653.1</ele><time>2026-04-13T11:44:27.000Z</time></trkpt>
<trkpt lat="42.135386" lon="23.149097"><ele>653.2</ele><time>2026-04-13T11:44:28.000Z</time></trkpt>
<trkpt lat="42.135386" lon="23.149098"><ele>653.2</ele><time>2026-04-13T11:44:29.000Z</time></trkpt>
<trkpt lat="42.135386" lon="23.149098"><ele>653.2</ele><time>2026-04-13T11:44:30.000Z</time></trkpt>
<trkpt lat="42.135386" lon="23.149098"><ele>653.2</ele><time>2026-04-13T11:44:31.000Z</time></trkpt>
<trkpt lat="42.135386" lon="23.149098"><ele>653.2</ele><time>2026-04-13T11:44:32.000Z</time></trkpt>
<trkpt lat="42.135386" lon="23.149099"><ele>653.1</ele><time>2026-04-13T11:44:33.000Z</time></trkpt>
<trkpt lat="42.135386" lon="23.149099"><ele>653.1</ele><time>2026-04-13T11:44:34.000Z</time></trkpt>
<trkpt lat="42.135386" lon="23.149099"><ele>653.1</ele><time>2026-04-13T11:44:35.000Z</time></trkpt>
<trkpt lat="42.135386" lon="23.149099"><ele>653.1</ele><time>2026-04-13T11:44:36.000Z</time></trkpt>
<trkpt lat="42.135386" lon="23.149099"><ele>653.1</ele><time>2026-04-13T11:44:37.000Z</time></trkpt>
<trkpt lat="42.135386" lon="23.1491"><ele>653</ele><time>2026-04-13T11:44:38.000Z</time></trkpt>
<trkpt lat="42.135385" lon="23.1491"><ele>653</ele><time>2026-04-13T11:44:39.000Z</time></trkpt>
<trkpt lat="42.135385" lon="23.1491"><ele>653</ele><time>2026-04-13T11:44:40.000Z</time></trkpt>
<trkpt lat="42.135385" lon="23.1491"><ele>653</ele><time>2026-04-13T11:44:41.000Z</time></trkpt>
<trkpt lat="42.135385" lon="23.1491"><ele>653</ele><time>2026-04-13T11:44:42.000Z</time></trkpt>
<trkpt lat="42.135385" lon="23.1491"><ele>652.8</ele><time>2026-04-13T11:44:43.000Z</time></trkpt>
<trkpt lat="42.135385" lon="23.1491"><ele>652.8</ele><time>2026-04-13T11:44:44.000Z</time></trkpt>
<trkpt lat="42.135385" lon="23.1491"><ele>652.8</ele><time>2026-04-13T11:44:45.000Z</time></trkpt>
<trkpt lat="42.135385" lon="23.1491"><ele>652.8</ele><time>2026-04-13T11:44:46.000Z</time></trkpt>
<trkpt lat="42.135385" lon="23.1491"><ele>652.8</ele><time>2026-04-13T11:44:47.000Z</time></trkpt>
<trkpt lat="42.135385" lon="23.1491"><ele>652.7</ele><time>2026-04-13T11:44:48.000Z</time></trkpt>
<trkpt lat="42.135385" lon="23.1491"><ele>652.7</ele><time>2026-04-13T11:44:49.000Z</time></trkpt>
<trkpt lat="42.135385" lon="23.1491"><ele>652.7</ele><time>2026-04-13T11:44:50.000Z</time></trkpt>
<trkpt lat="42.135385" lon="23.1491"><ele>652.7</ele><time>2026-04-13T11:44:51.000Z</time></trkpt>
<trkpt lat="42.135385" lon="23.1491"><ele>652.7</ele><time>2026-04-13T11:44:52.000Z</time></trkpt>
<trkpt lat="42.135385" lon="23.1491"><ele>652.7</ele><time>2026-04-13T11:44:53.000Z</time></trkpt>
<trkpt lat="42.135385" lon="23.1491"><ele>652.7</ele><time>2026-04-13T11:44:54.000Z</time></trkpt>
<trkpt lat="42.135385" lon="23.1491"><ele>652.7</ele><time>2026-04-13T11:44:55.000Z</time></trkpt>
<trkpt lat="42.135384" lon="23.149101"><ele>652.7</ele><time>2026-04-13T11:44:56.000Z</time></trkpt>
<trkpt lat="42.135384" lon="23.149101"><ele>652.7</ele><time>2026-04-13T11:44:57.000Z</time></trkpt>
<trkpt lat="42.135384" lon="23.149101"><ele>652.5</ele><time>2026-04-13T11:44:58.000Z</time></trkpt>
<trkpt lat="42.135384" lon="23.149101"><ele>652.5</ele><time>2026-04-13T11:44:59.000Z</time></trkpt>
<trkpt lat="42.135384" lon="23.149101"><ele>652.5</ele><time>2026-04-13T11:45:00.000Z</time></trkpt>
<trkpt lat="42.135384" lon="23.149101"><ele>652.5</ele><time>2026-04-13T11:45:01.000Z</time></trkpt>
<trkpt lat="42.135384" lon="23.149102"><ele>652.5</ele><time>2026-04-13T11:45:02.000Z</time></trkpt>
<trkpt lat="42.135383" lon="23.149102"><ele>652.4</ele><time>2026-04-13T11:45:03.000Z</time></trkpt>
<trkpt lat="42.135383" lon="23.149102"><ele>652.4</ele><time>2026-04-13T11:45:04.000Z</time></trkpt>
<trkpt lat="42.135383" lon="23.149102"><ele>652.4</ele><time>2026-04-13T11:45:05.000Z</time></trkpt>
<trkpt lat="42.135383" lon="23.149102"><ele>652.4</ele><time>2026-04-13T11:45:06.000Z</time></trkpt>
<trkpt lat="42.135383" lon="23.149102"><ele>652.4</ele><time>2026-04-13T11:45:07.000Z</time></trkpt>
<trkpt lat="42.135383" lon="23.149102"><ele>652.3</ele><time>2026-04-13T11:45:08.000Z</time></trkpt>
<trkpt lat="42.135383" lon="23.149102"><ele>652.3</ele><time>2026-04-13T11:45:09.000Z</time></trkpt>
<trkpt lat="42.135383" lon="23.149102"><ele>652.3</ele><time>2026-04-13T11:45:10.000Z</time></trkpt>
<trkpt lat="42.135383" lon="23.149102"><ele>652.3</ele><time>2026-04-13T11:45:11.000Z</time></trkpt>
<trkpt lat="42.135383" lon="23.149102"><ele>652.3</ele><time>2026-04-13T11:45:12.000Z</time></trkpt>
<trkpt lat="42.135383" lon="23.149102"><ele>652.2</ele><time>2026-04-13T11:45:13.000Z</time></trkpt>
<trkpt lat="42.135383" lon="23.149102"><ele>652.2</ele><time>2026-04-13T11:45:14.000Z</time></trkpt>
<trkpt lat="42.135383" lon="23.149102"><ele>652.2</ele><time>2026-04-13T11:45:15.000Z</time></trkpt>
<trkpt lat="42.135383" lon="23.149101"><ele>652.2</ele><time>2026-04-13T11:45:16.000Z</time></trkpt>
<trkpt lat="42.135383" lon="23.149101"><ele>652.2</ele><time>2026-04-13T11:45:17.000Z</time></trkpt>
<trkpt lat="42.135383" lon="23.149101"><ele>652.1</ele><time>2026-04-13T11:45:18.000Z</time></trkpt>
<trkpt lat="42.135383" lon="23.149101"><ele>652.1</ele><time>2026-04-13T11:45:19.000Z</time></trkpt>
<trkpt lat="42.135384" lon="23.149101"><ele>652.1</ele><time>2026-04-13T11:45:20.000Z</time></trkpt>
<trkpt lat="42.135383" lon="23.149101"><ele>652.1</ele><time>2026-04-13T11:45:21.000Z</time></trkpt>
<trkpt lat="42.135383" lon="23.149101"><ele>652.1</ele><time>2026-04-13T11:45:22.000Z</time></trkpt>
<trkpt lat="42.135383" lon="23.149101"><ele>652</ele><time>2026-04-13T11:45:23.000Z</time></trkpt>
<trkpt lat="42.135383" lon="23.149101"><ele>652</ele><time>2026-04-13T11:45:24.000Z</time></trkpt>
<trkpt lat="42.135383" lon="23.149101"><ele>652</ele><time>2026-04-13T11:45:25.000Z</time></trkpt>
<trkpt lat="42.135383" lon="23.149101"><ele>652</ele><time>2026-04-13T11:45:26.000Z</time></trkpt>
<trkpt lat="42.135383" lon="23.149101"><ele>652</ele><time>2026-04-13T11:45:27.000Z</time></trkpt>
<trkpt lat="42.135383" lon="23.149101"><ele>652</ele><time>2026-04-13T11:45:28.000Z</time></trkpt>
<trkpt lat="42.135384" lon="23.149101"><ele>652</ele><time>2026-04-13T11:45:29.000Z</time></trkpt>
<trkpt lat="42.135384" lon="23.149101"><ele>652</ele><time>2026-04-13T11:45:30.000Z</time></trkpt>
<trkpt lat="42.135384" lon="23.149101"><ele>652</ele><time>2026-04-13T11:45:31.000Z</time></trkpt>
<trkpt lat="42.135384" lon="23.149101"><ele>652</ele><time>2026-04-13T11:45:32.000Z</time></trkpt>
<trkpt lat="42.135384" lon="23.149101"><ele>652</ele><time>2026-04-13T11:45:33.000Z</time></trkpt>
<trkpt lat="42.135384" lon="23.149101"><ele>652</ele><time>2026-04-13T11:45:34.000Z</time></trkpt>
<trkpt lat="42.135384" lon="23.149101"><ele>652</ele><time>2026-04-13T11:45:35.000Z</time></trkpt>
<trkpt lat="42.135384" lon="23.149101"><ele>652</ele><time>2026-04-13T11:45:36.000Z</time></trkpt>
<trkpt lat="42.135384" lon="23.149101"><ele>652</ele><time>2026-04-13T11:45:37.000Z</time></trkpt>
<trkpt lat="42.135384" lon="23.149101"><ele>652</ele><time>2026-04-13T11:45:38.000Z</time></trkpt>
<trkpt lat="42.135384" lon="23.149101"><ele>652</ele><time>2026-04-13T11:45:39.000Z</time></trkpt>
<trkpt lat="42.135384" lon="23.149101"><ele>652</ele><time>2026-04-13T11:45:40.000Z</time></trkpt>
<trkpt lat="42.135384" lon="23.149101"><ele>652</ele><time>2026-04-13T11:45:41.000Z</time></trkpt>
<trkpt lat="42.135384" lon="23.149101"><ele>652</ele><time>2026-04-13T11:45:42.000Z</time></trkpt>
<trkpt lat="42.135384" lon="23.149101"><ele>652.1</ele><time>2026-04-13T11:45:43.000Z</time></trkpt>
<trkpt lat="42.135384" lon="23.149101"><ele>652.1</ele><time>2026-04-13T11:45:44.000Z</time></trkpt>
<trkpt lat="42.135384" lon="23.149101"><ele>652.1</ele><time>2026-04-13T11:45:45.000Z</time></trkpt>
<trkpt lat="42.135384" lon="23.149101"><ele>652.1</ele><time>2026-04-13T11:45:46.000Z</time></trkpt>
<trkpt lat="42.135384" lon="23.149101"><ele>652.1</ele><time>2026-04-13T11:45:47.000Z</time></trkpt>
<trkpt lat="42.135383" lon="23.149101"><ele>652</ele><time>2026-04-13T11:45:48.000Z</time></trkpt>
<trkpt lat="42.135383" lon="23.149101"><ele>652</ele><time>2026-04-13T11:45:49.000Z</time></trkpt>
<trkpt lat="42.135383" lon="23.149101"><ele>652</ele><time>2026-04-13T11:45:50.000Z</time></trkpt>
<trkpt lat="42.135383" lon="23.149101"><ele>652</ele><time>2026-04-13T11:45:51.000Z</time></trkpt>
<trkpt lat="42.135383" lon="23.149101"><ele>652</ele><time>2026-04-13T11:45:52.000Z</time></trkpt>
<trkpt lat="42.135383" lon="23.149101"><ele>652</ele><time>2026-04-13T11:45:53.000Z</time></trkpt>
<trkpt lat="42.135383" lon="23.149101"><ele>652</ele><time>2026-04-13T11:45:54.000Z</time></trkpt>
<trkpt lat="42.135383" lon="23.149101"><ele>652</ele><time>2026-04-13T11:45:55.000Z</time></trkpt>
<trkpt lat="42.135383" lon="23.149101"><ele>652</ele><time>2026-04-13T11:45:56.000Z</time></trkpt>
<trkpt lat="42.135383" lon="23.149101"><ele>652</ele><time>2026-04-13T11:45:57.000Z</time></trkpt>
<trkpt lat="42.135383" lon="23.149101"><ele>651.8</ele><time>2026-04-13T11:45:58.000Z</time></trkpt>
<trkpt lat="42.135383" lon="23.149101"><ele>651.8</ele><time>2026-04-13T11:45:59.000Z</time></trkpt>
<trkpt lat="42.135383" lon="23.149101"><ele>651.8</ele><time>2026-04-13T11:46:00.000Z</time></trkpt>
<trkpt lat="42.135383" lon="23.149102"><ele>651.8</ele><time>2026-04-13T11:46:01.000Z</time></trkpt>
<trkpt lat="42.135383" lon="23.149102"><ele>651.8</ele><time>2026-04-13T11:46:02.000Z</time></trkpt>
<trkpt lat="42.135383" lon="23.149102"><ele>651.7</ele><time>2026-04-13T11:46:03.000Z</time></trkpt>
<trkpt lat="42.135383" lon="23.149102"><ele>651.7</ele><time>2026-04-13T11:46:04.000Z</time></trkpt>
<trkpt lat="42.135383" lon="23.149102"><ele>651.7</ele><time>2026-04-13T11:46:05.000Z</time></trkpt>
<trkpt lat="42.135383" lon="23.149102"><ele>651.7</ele><time>2026-04-13T11:46:06.000Z</time></trkpt>
<trkpt lat="42.135383" lon="23.149102"><ele>651.7</ele><time>2026-04-13T11:46:07.000Z</time></trkpt>
<trkpt lat="42.135383" lon="23.149102"><ele>651.7</ele><time>2026-04-13T11:46:08.000Z</time></trkpt>
<trkpt lat="42.135383" lon="23.149102"><ele>651.7</ele><time>2026-04-13T11:46:09.000Z</time></trkpt>
<trkpt lat="42.135383" lon="23.149102"><ele>651.7</ele><time>2026-04-13T11:46:10.000Z</time></trkpt>
<trkpt lat="42.135383" lon="23.149102"><ele>651.7</ele><time>2026-04-13T11:46:11.000Z</time></trkpt>
<trkpt lat="42.135383" lon="23.149102"><ele>651.7</ele><time>2026-04-13T11:46:12.000Z</time></trkpt>
<trkpt lat="42.135383" lon="23.149102"><ele>651.7</ele><time>2026-04-13T11:46:13.000Z</time></trkpt>
<trkpt lat="42.135383" lon="23.149102"><ele>651.7</ele><time>2026-04-13T11:46:14.000Z</time></trkpt>
<trkpt lat="42.135383" lon="23.149102"><ele>651.7</ele><time>2026-04-13T11:46:15.000Z</time></trkpt>
<trkpt lat="42.135384" lon="23.149102"><ele>651.7</ele><time>2026-04-13T11:46:16.000Z</time></trkpt>
<trkpt lat="42.135385" lon="23.149103"><ele>651.7</ele><time>2026-04-13T11:46:17.000Z</time></trkpt>
<trkpt lat="42.135387" lon="23.149104"><ele>651.7</ele><time>2026-04-13T11:46:18.000Z</time></trkpt>
<trkpt lat="42.135389" lon="23.149105"><ele>651.7</ele><time>2026-04-13T11:46:19.000Z</time></trkpt>
<trkpt lat="42.135392" lon="23.149107"><ele>651.7</ele><time>2026-04-13T11:46:20.000Z</time></trkpt>
<trkpt lat="42.135396" lon="23.149108"><ele>651.7</ele><time>2026-04-13T11:46:21.000Z</time></trkpt>
<trkpt lat="42.135398" lon="23.149109"><ele>651.7</ele><time>2026-04-13T11:46:22.000Z</time></trkpt>
<trkpt lat="42.135401" lon="23.14911"><ele>651.8</ele><time>2026-04-13T11:46:23.000Z</time></trkpt>
<trkpt lat="42.135402" lon="23.14911"><ele>651.8</ele><time>2026-04-13T11:46:24.000Z</time></trkpt>
<trkpt lat="42.135403" lon="23.14911"><ele>651.8</ele><time>2026-04-13T11:46:25.000Z</time></trkpt>
<trkpt lat="42.135404" lon="23.14911"><ele>651.8</ele><time>2026-04-13T11:46:26.000Z</time></trkpt>
<trkpt lat="42.135405" lon="23.149109"><ele>651.8</ele><time>2026-04-13T11:46:27.000Z</time></trkpt>
<trkpt lat="42.135405" lon="23.149109"><ele>651.8</ele><time>2026-04-13T11:46:28.000Z</time></trkpt>
<trkpt lat="42.135405" lon="23.149109"><ele>651.8</ele><time>2026-04-13T11:46:29.000Z</time></trkpt>
<trkpt lat="42.135405" lon="23.149109"><ele>651.8</ele><time>2026-04-13T11:46:30.000Z</time></trkpt>
<trkpt lat="42.135406" lon="23.149109"><ele>651.8</ele><time>2026-04-13T11:46:31.000Z</time></trkpt>
<trkpt lat="42.135405" lon="23.149109"><ele>651.8</ele><time>2026-04-13T11:46:32.000Z</time></trkpt>
<trkpt lat="42.135405" lon="23.149109"><ele>651.7</ele><time>2026-04-13T11:46:33.000Z</time></trkpt>
<trkpt lat="42.135405" lon="23.149109"><ele>651.7</ele><time>2026-04-13T11:46:34.000Z</time></trkpt>
<trkpt lat="42.135405" lon="23.149109"><ele>651.7</ele><time>2026-04-13T11:46:35.000Z</time></trkpt>
<trkpt lat="42.135405" lon="23.149109"><ele>651.7</ele><time>2026-04-13T11:46:36.000Z</time></trkpt>
<trkpt lat="42.135405" lon="23.14911"><ele>651.7</ele><time>2026-04-13T11:46:37.000Z</time></trkpt>
<trkpt lat="42.135405" lon="23.14911"><ele>651.6</ele><time>2026-04-13T11:46:38.000Z</time></trkpt>
<trkpt lat="42.135405" lon="23.14911"><ele>651.6</ele><time>2026-04-13T11:46:39.000Z</time></trkpt>
<trkpt lat="42.135405" lon="23.14911"><ele>651.6</ele><time>2026-04-13T11:46:40.000Z</time></trkpt>
<trkpt lat="42.135405" lon="23.14911"><ele>651.6</ele><time>2026-04-13T11:46:41.000Z</time></trkpt>
<trkpt lat="42.135405" lon="23.14911"><ele>651.6</ele><time>2026-04-13T11:46:42.000Z</time></trkpt>
<trkpt lat="42.135405" lon="23.14911"><ele>651.5</ele><time>2026-04-13T11:46:43.000Z</time></trkpt>
<trkpt lat="42.135405" lon="23.14911"><ele>651.5</ele><time>2026-04-13T11:46:44.000Z</time></trkpt>
<trkpt lat="42.135405" lon="23.14911"><ele>651.5</ele><time>2026-04-13T11:46:45.000Z</time></trkpt>
<trkpt lat="42.135405" lon="23.14911"><ele>651.5</ele><time>2026-04-13T11:46:46.000Z</time></trkpt>
<trkpt lat="42.135405" lon="23.14911"><ele>651.5</ele><time>2026-04-13T11:46:47.000Z</time></trkpt>
<trkpt lat="42.135405" lon="23.14911"><ele>651.3</ele><time>2026-04-13T11:46:48.000Z</time></trkpt>
<trkpt lat="42.135405" lon="23.14911"><ele>651.3</ele><time>2026-04-13T11:46:49.000Z</time></trkpt>
<trkpt lat="42.135405" lon="23.14911"><ele>651.3</ele><time>2026-04-13T11:46:50.000Z</time></trkpt>
<trkpt lat="42.135405" lon="23.14911"><ele>651.3</ele><time>2026-04-13T11:46:51.000Z</time></trkpt>
<trkpt lat="42.135405" lon="23.149112"><ele>651.3</ele><time>2026-04-13T11:46:52.000Z</time></trkpt>
<trkpt lat="42.135404" lon="23.149115"><ele>651.2</ele><time>2026-04-13T11:46:53.000Z</time></trkpt>
<trkpt lat="42.135404" lon="23.149119"><ele>651.2</ele><time>2026-04-13T11:46:54.000Z</time></trkpt>
<trkpt lat="42.135403" lon="23.149124"><ele>651.2</ele><time>2026-04-13T11:46:55.000Z</time></trkpt>
<trkpt lat="42.135402" lon="23.14913"><ele>651.2</ele><time>2026-04-13T11:46:56.000Z</time></trkpt>
<trkpt lat="42.135401" lon="23.149136"><ele>651.2</ele><time>2026-04-13T11:46:57.000Z</time></trkpt>
<trkpt lat="42.135401" lon="23.149143"><ele>651.3</ele><time>2026-04-13T11:46:58.000Z</time></trkpt>
<trkpt lat="42.1354" lon="23.14915"><ele>651.3</ele><time>2026-04-13T11:46:59.000Z</time></trkpt>
<trkpt lat="42.1354" lon="23.149158"><ele>651.3</ele><time>2026-04-13T11:47:00.000Z</time></trkpt>
<trkpt lat="42.135401" lon="23.149167"><ele>651.3</ele><time>2026-04-13T11:47:01.000Z</time></trkpt>
<trkpt lat="42.135402" lon="23.149176"><ele>651.3</ele><time>2026-04-13T11:47:02.000Z</time></trkpt>
<trkpt lat="42.135403" lon="23.149185"><ele>651.5</ele><time>2026-04-13T11:47:03.000Z</time></trkpt>
<trkpt lat="42.135406" lon="23.149194"><ele>651.5</ele><time>2026-04-13T11:47:04.000Z</time></trkpt>
<trkpt lat="42.135409" lon="23.149203"><ele>651.5</ele><time>2026-04-13T11:47:05.000Z</time></trkpt>
<trkpt lat="42.135413" lon="23.149211"><ele>651.5</ele><time>2026-04-13T11:47:06.000Z</time></trkpt>
<trkpt lat="42.135417" lon="23.14922"><ele>651.5</ele><time>2026-04-13T11:47:07.000Z</time></trkpt>
<trkpt lat="42.135422" lon="23.149228"><ele>651.7</ele><time>2026-04-13T11:47:08.000Z</time></trkpt>
<trkpt lat="42.135425" lon="23.149237"><ele>651.7</ele><time>2026-04-13T11:47:09.000Z</time></trkpt>
<trkpt lat="42.135428" lon="23.149245"><ele>651.7</ele><time>2026-04-13T11:47:10.000Z</time></trkpt>
<trkpt lat="42.13543" lon="23.149253"><ele>651.7</ele><time>2026-04-13T11:47:11.000Z</time></trkpt>
<trkpt lat="42.135431" lon="23.14926"><ele>651.7</ele><time>2026-04-13T11:47:12.000Z</time></trkpt>
<trkpt lat="42.135432" lon="23.149267"><ele>652.2</ele><time>2026-04-13T11:47:13.000Z</time></trkpt>
<trkpt lat="42.135433" lon="23.149275"><ele>652.2</ele><time>2026-04-13T11:47:14.000Z</time></trkpt>
<trkpt lat="42.135433" lon="23.149282"><ele>652.2</ele><time>2026-04-13T11:47:15.000Z</time></trkpt>
<trkpt lat="42.135434" lon="23.14929"><ele>652.2</ele><time>2026-04-13T11:47:16.000Z</time></trkpt>
<trkpt lat="42.135434" lon="23.149297"><ele>652.2</ele><time>2026-04-13T11:47:17.000Z</time></trkpt>
<trkpt lat="42.135434" lon="23.149306"><ele>653</ele><time>2026-04-13T11:47:18.000Z</time></trkpt>
<trkpt lat="42.135434" lon="23.149314"><ele>653</ele><time>2026-04-13T11:47:19.000Z</time></trkpt>
<trkpt lat="42.135433" lon="23.149322"><ele>653</ele><time>2026-04-13T11:47:20.000Z</time></trkpt>
<trkpt lat="42.135432" lon="23.149329"><ele>653</ele><time>2026-04-13T11:47:21.000Z</time></trkpt>
<trkpt lat="42.135431" lon="23.149337"><ele>653</ele><time>2026-04-13T11:47:22.000Z</time></trkpt>
<trkpt lat="42.135429" lon="23.149343"><ele>653.4</ele><time>2026-04-13T11:47:23.000Z</time></trkpt>
<trkpt lat="42.135426" lon="23.149351"><ele>653.4</ele><time>2026-04-13T11:47:24.000Z</time></trkpt>
<trkpt lat="42.135424" lon="23.149358"><ele>653.4</ele><time>2026-04-13T11:47:25.000Z</time></trkpt>
<trkpt lat="42.135421" lon="23.149365"><ele>653.4</ele><time>2026-04-13T11:47:26.000Z</time></trkpt>
<trkpt lat="42.135418" lon="23.149372"><ele>653.4</ele><time>2026-04-13T11:47:27.000Z</time></trkpt>
<trkpt lat="42.135414" lon="23.14938"><ele>654.3</ele><time>2026-04-13T11:47:28.000Z</time></trkpt>
<trkpt lat="42.135409" lon="23.149388"><ele>654.3</ele><time>2026-04-13T11:47:29.000Z</time></trkpt>
<trkpt lat="42.135404" lon="23.149396"><ele>654.3</ele><time>2026-04-13T11:47:30.000Z</time></trkpt>
<trkpt lat="42.135398" lon="23.149405"><ele>654.3</ele><time>2026-04-13T11:47:31.000Z</time></trkpt>
<trkpt lat="42.135391" lon="23.149413"><ele>654.3</ele><time>2026-04-13T11:47:32.000Z</time></trkpt>
<trkpt lat="42.135385" lon="23.149421"><ele>655.4</ele><time>2026-04-13T11:47:33.000Z</time></trkpt>
<trkpt lat="42.13538" lon="23.149428"><ele>655.4</ele><time>2026-04-13T11:47:34.000Z</time></trkpt>
<trkpt lat="42.135374" lon="23.149434"><ele>655.4</ele><time>2026-04-13T11:47:35.000Z</time></trkpt>
<trkpt lat="42.135369" lon="23.14944"><ele>655.4</ele><time>2026-04-13T11:47:36.000Z</time></trkpt>
<trkpt lat="42.135364" lon="23.149445"><ele>655.4</ele><time>2026-04-13T11:47:37.000Z</time></trkpt>
<trkpt lat="42.135359" lon="23.14945"><ele>656</ele><time>2026-04-13T11:47:38.000Z</time></trkpt>
<trkpt lat="42.135354" lon="23.149455"><ele>656</ele><time>2026-04-13T11:47:39.000Z</time></trkpt>
<trkpt lat="42.135349" lon="23.149459"><ele>656</ele><time>2026-04-13T11:47:40.000Z</time></trkpt>
<trkpt lat="42.135344" lon="23.149464"><ele>656</ele><time>2026-04-13T11:47:41.000Z</time></trkpt>
<trkpt lat="42.135339" lon="23.149467"><ele>656</ele><time>2026-04-13T11:47:42.000Z</time></trkpt>
<trkpt lat="42.135334" lon="23.14947"><ele>657.2</ele><time>2026-04-13T11:47:43.000Z</time></trkpt>
<trkpt lat="42.135329" lon="23.149472"><ele>657.2</ele><time>2026-04-13T11:47:44.000Z</time></trkpt>
<trkpt lat="42.135325" lon="23.149473"><ele>657.2</ele><time>2026-04-13T11:47:45.000Z</time></trkpt>
<trkpt lat="42.13532" lon="23.149473"><ele>657.2</ele><time>2026-04-13T11:47:46.000Z</time></trkpt>
<trkpt lat="42.135314" lon="23.149473"><ele>657.2</ele><time>2026-04-13T11:47:47.000Z</time></trkpt>
<trkpt lat="42.135309" lon="23.149473"><ele>658.6</ele><time>2026-04-13T11:47:48.000Z</time></trkpt>
<trkpt lat="42.135303" lon="23.149472"><ele>658.6</ele><time>2026-04-13T11:47:49.000Z</time></trkpt>
<trkpt lat="42.135297" lon="23.149471"><ele>658.6</ele><time>2026-04-13T11:47:50.000Z</time></trkpt>
<trkpt lat="42.13529" lon="23.14947"><ele>658.6</ele><time>2026-04-13T11:47:51.000Z</time></trkpt>
<trkpt lat="42.135283" lon="23.149469"><ele>658.6</ele><time>2026-04-13T11:47:52.000Z</time></trkpt>
<trkpt lat="42.135274" lon="23.149468"><ele>659.2</ele><time>2026-04-13T11:47:53.000Z</time></trkpt>
<trkpt lat="42.135264" lon="23.149468"><ele>659.2</ele><time>2026-04-13T11:47:54.000Z</time></trkpt>
<trkpt lat="42.135255" lon="23.149468"><ele>659.2</ele><time>2026-04-13T11:47:55.000Z</time></trkpt>
<trkpt lat="42.135244" lon="23.14947"><ele>659.2</ele><time>2026-04-13T11:47:56.000Z</time></trkpt>
<trkpt lat="42.135235" lon="23.149473"><ele>659.2</ele><time>2026-04-13T11:47:57.000Z</time></trkpt>
<trkpt lat="42.135225" lon="23.149476"><ele>660.2</ele><time>2026-04-13T11:47:58.000Z</time></trkpt>
<trkpt lat="42.135216" lon="23.14948"><ele>660.2</ele><time>2026-04-13T11:47:59.000Z</time></trkpt>
<trkpt lat="42.135208" lon="23.149484"><ele>660.2</ele><time>2026-04-13T11:48:00.000Z</time></trkpt>
<trkpt lat="42.135199" lon="23.149486"><ele>660.2</ele><time>2026-04-13T11:48:01.000Z</time></trkpt>
<trkpt lat="42.13519" lon="23.149488"><ele>660.2</ele><time>2026-04-13T11:48:02.000Z</time></trkpt>
<trkpt lat="42.135182" lon="23.149488"><ele>661.1</ele><time>2026-04-13T11:48:03.000Z</time></trkpt>
<trkpt lat="42.135173" lon="23.149488"><ele>661.1</ele><time>2026-04-13T11:48:04.000Z</time></trkpt>
<trkpt lat="42.135163" lon="23.149488"><ele>661.1</ele><time>2026-04-13T11:48:05.000Z</time></trkpt>
<trkpt lat="42.135153" lon="23.149487"><ele>661.1</ele><time>2026-04-13T11:48:06.000Z</time></trkpt>
<trkpt lat="42.135144" lon="23.149486"><ele>661.1</ele><time>2026-04-13T11:48:07.000Z</time></trkpt>
<trkpt lat="42.135135" lon="23.149486"><ele>661.5</ele><time>2026-04-13T11:48:08.000Z</time></trkpt>
<trkpt lat="42.135126" lon="23.149485"><ele>661.5</ele><time>2026-04-13T11:48:09.000Z</time></trkpt>
<trkpt lat="42.135119" lon="23.149485"><ele>661.5</ele><time>2026-04-13T11:48:10.000Z</time></trkpt>
<trkpt lat="42.135112" lon="23.149484"><ele>661.5</ele><time>2026-04-13T11:48:11.000Z</time></trkpt>
<trkpt lat="42.135106" lon="23.149482"><ele>661.5</ele><time>2026-04-13T11:48:12.000Z</time></trkpt>
<trkpt lat="42.1351" lon="23.149481"><ele>662.2</ele><time>2026-04-13T11:48:13.000Z</time></trkpt>
<trkpt lat="42.135094" lon="23.149478"><ele>662.2</ele><time>2026-04-13T11:48:14.000Z</time></trkpt>
<trkpt lat="42.135088" lon="23.149476"><ele>662.2</ele><time>2026-04-13T11:48:15.000Z</time></trkpt>
<trkpt lat="42.135082" lon="23.149474"><ele>662.2</ele><time>2026-04-13T11:48:16.000Z</time></trkpt>
<trkpt lat="42.135075" lon="23.149471"><ele>662.2</ele><time>2026-04-13T11:48:17.000Z</time></trkpt>
<trkpt lat="42.135068" lon="23.149468"><ele>663.1</ele><time>2026-04-13T11:48:18.000Z</time></trkpt>
<trkpt lat="42.13506" lon="23.149466"><ele>663.1</ele><time>2026-04-13T11:48:19.000Z</time></trkpt>
<trkpt lat="42.135053" lon="23.149463"><ele>663.1</ele><time>2026-04-13T11:48:20.000Z</time></trkpt>
<trkpt lat="42.135045" lon="23.149459"><ele>663.1</ele><time>2026-04-13T11:48:21.000Z</time></trkpt>
<trkpt lat="42.135038" lon="23.149456"><ele>663.1</ele><time>2026-04-13T11:48:22.000Z</time></trkpt>
<trkpt lat="42.135029" lon="23.149453"><ele>663.6</ele><time>2026-04-13T11:48:23.000Z</time></trkpt>
<trkpt lat="42.135021" lon="23.14945"><ele>663.6</ele><time>2026-04-13T11:48:24.000Z</time></trkpt>
<trkpt lat="42.135012" lon="23.149447"><ele>663.6</ele><time>2026-04-13T11:48:25.000Z</time></trkpt>
<trkpt lat="42.135004" lon="23.149446"><ele>663.6</ele><time>2026-04-13T11:48:26.000Z</time></trkpt>
<trkpt lat="42.134996" lon="23.149445"><ele>663.6</ele><time>2026-04-13T11:48:27.000Z</time></trkpt>
<trkpt lat="42.134988" lon="23.149445"><ele>664.9</ele><time>2026-04-13T11:48:28.000Z</time></trkpt>
<trkpt lat="42.134981" lon="23.149444"><ele>664.9</ele><time>2026-04-13T11:48:29.000Z</time></trkpt>
<trkpt lat="42.134975" lon="23.149444"><ele>664.9</ele><time>2026-04-13T11:48:30.000Z</time></trkpt>
<trkpt lat="42.134969" lon="23.149443"><ele>664.9</ele><time>2026-04-13T11:48:31.000Z</time></trkpt>
<trkpt lat="42.134964" lon="23.149443"><ele>664.9</ele><time>2026-04-13T11:48:32.000Z</time></trkpt>
<trkpt lat="42.134958" lon="23.149441"><ele>666</ele><time>2026-04-13T11:48:33.000Z</time></trkpt>
<trkpt lat="42.134952" lon="23.149439"><ele>666</ele><time>2026-04-13T11:48:34.000Z</time></trkpt>
<trkpt lat="42.134945" lon="23.149436"><ele>666</ele><time>2026-04-13T11:48:35.000Z</time></trkpt>
<trkpt lat="42.134937" lon="23.149434"><ele>666</ele><time>2026-04-13T11:48:36.000Z</time></trkpt>
<trkpt lat="42.134929" lon="23.149432"><ele>666</ele><time>2026-04-13T11:48:37.000Z</time></trkpt>
<trkpt lat="42.13492" lon="23.149431"><ele>666.5</ele><time>2026-04-13T11:48:38.000Z</time></trkpt>
<trkpt lat="42.134912" lon="23.149431"><ele>666.5</ele><time>2026-04-13T11:48:39.000Z</time></trkpt>
<trkpt lat="42.134904" lon="23.149433"><ele>666.5</ele><time>2026-04-13T11:48:40.000Z</time></trkpt>
<trkpt lat="42.134897" lon="23.149435"><ele>666.5</ele><time>2026-04-13T11:48:41.000Z</time></trkpt>
<trkpt lat="42.13489" lon="23.149438"><ele>666.5</ele><time>2026-04-13T11:48:42.000Z</time></trkpt>
<trkpt lat="42.134883" lon="23.149443"><ele>667.3</ele><time>2026-04-13T11:48:43.000Z</time></trkpt>
<trkpt lat="42.134876" lon="23.149447"><ele>667.3</ele><time>2026-04-13T11:48:44.000Z</time></trkpt>
<trkpt lat="42.134868" lon="23.149452"><ele>667.3</ele><time>2026-04-13T11:48:45.000Z</time></trkpt>
<trkpt lat="42.134859" lon="23.149458"><ele>667.3</ele><time>2026-04-13T11:48:46.000Z</time></trkpt>
<trkpt lat="42.134849" lon="23.149463"><ele>667.3</ele><time>2026-04-13T11:48:47.000Z</time></trkpt>
<trkpt lat="42.134839" lon="23.149469"><ele>668.1</ele><time>2026-04-13T11:48:48.000Z</time></trkpt>
<trkpt lat="42.13483" lon="23.149473"><ele>668.1</ele><time>2026-04-13T11:48:49.000Z</time></trkpt>
<trkpt lat="42.134821" lon="23.149478"><ele>668.1</ele><time>2026-04-13T11:48:50.000Z</time></trkpt>
<trkpt lat="42.134811" lon="23.149482"><ele>668.1</ele><time>2026-04-13T11:48:51.000Z</time></trkpt>
<trkpt lat="42.134803" lon="23.149486"><ele>668.1</ele><time>2026-04-13T11:48:52.000Z</time></trkpt>
<trkpt lat="42.134794" lon="23.149489"><ele>668.4</ele><time>2026-04-13T11:48:53.000Z</time></trkpt>
<trkpt lat="42.134786" lon="23.149492"><ele>668.4</ele><time>2026-04-13T11:48:54.000Z</time></trkpt>
<trkpt lat="42.134779" lon="23.149495"><ele>668.4</ele><time>2026-04-13T11:48:55.000Z</time></trkpt>
<trkpt lat="42.134771" lon="23.149497"><ele>668.4</ele><time>2026-04-13T11:48:56.000Z</time></trkpt>
<trkpt lat="42.134764" lon="23.149499"><ele>668.4</ele><time>2026-04-13T11:48:57.000Z</time></trkpt>
<trkpt lat="42.134757" lon="23.149502"><ele>668.9</ele><time>2026-04-13T11:48:58.000Z</time></trkpt>
<trkpt lat="42.13475" lon="23.149504"><ele>668.9</ele><time>2026-04-13T11:48:59.000Z</time></trkpt>
<trkpt lat="42.134744" lon="23.149506"><ele>668.9</ele><time>2026-04-13T11:49:00.000Z</time></trkpt>
<trkpt lat="42.134736" lon="23.149509"><ele>668.9</ele><time>2026-04-13T11:49:01.000Z</time></trkpt>
<trkpt lat="42.134729" lon="23.149511"><ele>668.9</ele><time>2026-04-13T11:49:02.000Z</time></trkpt>
<trkpt lat="42.13472" lon="23.149514"><ele>669.2</ele><time>2026-04-13T11:49:03.000Z</time></trkpt>
<trkpt lat="42.134711" lon="23.149518"><ele>669.2</ele><time>2026-04-13T11:49:04.000Z</time></trkpt>
<trkpt lat="42.134702" lon="23.149522"><ele>669.2</ele><time>2026-04-13T11:49:05.000Z</time></trkpt>
<trkpt lat="42.134693" lon="23.149526"><ele>669.2</ele><time>2026-04-13T11:49:06.000Z</time></trkpt>
<trkpt lat="42.134684" lon="23.14953"><ele>669.2</ele><time>2026-04-13T11:49:07.000Z</time></trkpt>
<trkpt lat="42.134676" lon="23.149533"><ele>669.3</ele><time>2026-04-13T11:49:08.000Z</time></trkpt>
<trkpt lat="42.13467" lon="23.149535"><ele>669.3</ele><time>2026-04-13T11:49:09.000Z</time></trkpt>
<trkpt lat="42.134663" lon="23.149536"><ele>669.3</ele><time>2026-04-13T11:49:10.000Z</time></trkpt>
<trkpt lat="42.134657" lon="23.149538"><ele>669.3</ele><time>2026-04-13T11:49:11.000Z</time></trkpt>
<trkpt lat="42.134652" lon="23.149539"><ele>669.3</ele><time>2026-04-13T11:49:12.000Z</time></trkpt>
<trkpt lat="42.134647" lon="23.149541"><ele>669.6</ele><time>2026-04-13T11:49:13.000Z</time></trkpt>
<trkpt lat="42.134642" lon="23.149544"><ele>669.6</ele><time>2026-04-13T11:49:14.000Z</time></trkpt>
<trkpt lat="42.134637" lon="23.149546"><ele>669.6</ele><time>2026-04-13T11:49:15.000Z</time></trkpt>
<trkpt lat="42.134632" lon="23.14955"><ele>669.6</ele><time>2026-04-13T11:49:16.000Z</time></trkpt>
<trkpt lat="42.134628" lon="23.149554"><ele>669.6</ele><time>2026-04-13T11:49:17.000Z</time></trkpt>
<trkpt lat="42.134625" lon="23.149558"><ele>670.4</ele><time>2026-04-13T11:49:18.000Z</time></trkpt>
<trkpt lat="42.134621" lon="23.149563"><ele>670.4</ele><time>2026-04-13T11:49:19.000Z</time></trkpt>
<trkpt lat="42.134617" lon="23.149569"><ele>670.4</ele><time>2026-04-13T11:49:20.000Z</time></trkpt>
<trkpt lat="42.134614" lon="23.149576"><ele>670.4</ele><time>2026-04-13T11:49:21.000Z</time></trkpt>
<trkpt lat="42.13461" lon="23.149582"><ele>670.4</ele><time>2026-04-13T11:49:22.000Z</time></trkpt>
<trkpt lat="42.134606" lon="23.149589"><ele>671.1</ele><time>2026-04-13T11:49:23.000Z</time></trkpt>
<trkpt lat="42.134601" lon="23.149596"><ele>671.1</ele><time>2026-04-13T11:49:24.000Z</time></trkpt>
<trkpt lat="42.134596" lon="23.149603"><ele>671.1</ele><time>2026-04-13T11:49:25.000Z</time></trkpt>
<trkpt lat="42.13459" lon="23.149611"><ele>671.1</ele><time>2026-04-13T11:49:26.000Z</time></trkpt>
<trkpt lat="42.134585" lon="23.149619"><ele>671.1</ele><time>2026-04-13T11:49:27.000Z</time></trkpt>
<trkpt lat="42.134579" lon="23.149628"><ele>672.5</ele><time>2026-04-13T11:49:28.000Z</time></trkpt>
<trkpt lat="42.134572" lon="23.149638"><ele>672.5</ele><time>2026-04-13T11:49:29.000Z</time></trkpt>
<trkpt lat="42.134567" lon="23.149648"><ele>672.5</ele><time>2026-04-13T11:49:30.000Z</time></trkpt>
<trkpt lat="42.134561" lon="23.149658"><ele>672.5</ele><time>2026-04-13T11:49:31.000Z</time></trkpt>
<trkpt lat="42.134556" lon="23.149668"><ele>672.5</ele><time>2026-04-13T11:49:32.000Z</time></trkpt>
<trkpt lat="42.13455" lon="23.149678"><ele>673.8</ele><time>2026-04-13T11:49:33.000Z</time></trkpt>
<trkpt lat="42.134545" lon="23.149687"><ele>673.8</ele><time>2026-04-13T11:49:34.000Z</time></trkpt>
<trkpt lat="42.13454" lon="23.149696"><ele>673.8</ele><time>2026-04-13T11:49:35.000Z</time></trkpt>
<trkpt lat="42.134536" lon="23.149706"><ele>673.8</ele><time>2026-04-13T11:49:36.000Z</time></trkpt>
<trkpt lat="42.134532" lon="23.149715"><ele>673.8</ele><time>2026-04-13T11:49:37.000Z</time></trkpt>
<trkpt lat="42.134528" lon="23.149724"><ele>674.2</ele><time>2026-04-13T11:49:38.000Z</time></trkpt>
<trkpt lat="42.134525" lon="23.149733"><ele>674.2</ele><time>2026-04-13T11:49:39.000Z</time></trkpt>
<trkpt lat="42.134521" lon="23.149742"><ele>674.2</ele><time>2026-04-13T11:49:40.000Z</time></trkpt>
<trkpt lat="42.134518" lon="23.149751"><ele>674.2</ele><time>2026-04-13T11:49:41.000Z</time></trkpt>
<trkpt lat="42.134514" lon="23.14976"><ele>674.2</ele><time>2026-04-13T11:49:42.000Z</time></trkpt>
<trkpt lat="42.134512" lon="23.149768"><ele>674.6</ele><time>2026-04-13T11:49:43.000Z</time></trkpt>
<trkpt lat="42.13451" lon="23.149777"><ele>674.6</ele><time>2026-04-13T11:49:44.000Z</time></trkpt>
<trkpt lat="42.134508" lon="23.149786"><ele>674.6</ele><time>2026-04-13T11:49:45.000Z</time></trkpt>
<trkpt lat="42.134508" lon="23.149794"><ele>674.6</ele><time>2026-04-13T11:49:46.000Z</time></trkpt>
<trkpt lat="42.134509" lon="23.149803"><ele>674.6</ele><time>2026-04-13T11:49:47.000Z</time></trkpt>
<trkpt lat="42.134511" lon="23.149811"><ele>674.9</ele><time>2026-04-13T11:49:48.000Z</time></trkpt>
<trkpt lat="42.134514" lon="23.149819"><ele>674.9</ele><time>2026-04-13T11:49:49.000Z</time></trkpt>
<trkpt lat="42.134517" lon="23.149827"><ele>674.9</ele><time>2026-04-13T11:49:50.000Z</time></trkpt>
<trkpt lat="42.13452" lon="23.149835"><ele>674.9</ele><time>2026-04-13T11:49:51.000Z</time></trkpt>
<trkpt lat="42.134523" lon="23.149842"><ele>674.9</ele><time>2026-04-13T11:49:52.000Z</time></trkpt>
<trkpt lat="42.134526" lon="23.14985"><ele>675.1</ele><time>2026-04-13T11:49:53.000Z</time></trkpt>
<trkpt lat="42.134529" lon="23.149857"><ele>675.1</ele><time>2026-04-13T11:49:54.000Z</time></trkpt>
<trkpt lat="42.134533" lon="23.149864"><ele>675.1</ele><time>2026-04-13T11:49:55.000Z</time></trkpt>
<trkpt lat="42.134538" lon="23.14987"><ele>675.1</ele><time>2026-04-13T11:49:56.000Z</time></trkpt>
<trkpt lat="42.134544" lon="23.149876"><ele>675.1</ele><time>2026-04-13T11:49:57.000Z</time></trkpt>
<trkpt lat="42.13455" lon="23.149881"><ele>675.7</ele><time>2026-04-13T11:49:58.000Z</time></trkpt>
<trkpt lat="42.134555" lon="23.149887"><ele>675.7</ele><time>2026-04-13T11:49:59.000Z</time></trkpt>
<trkpt lat="42.134561" lon="23.149894"><ele>675.7</ele><time>2026-04-13T11:50:00.000Z</time></trkpt>
<trkpt lat="42.134566" lon="23.149901"><ele>675.7</ele><time>2026-04-13T11:50:01.000Z</time></trkpt>
<trkpt lat="42.13457" lon="23.149909"><ele>675.7</ele><time>2026-04-13T11:50:02.000Z</time></trkpt>
<trkpt lat="42.134574" lon="23.149917"><ele>676.4</ele><time>2026-04-13T11:50:03.000Z</time></trkpt>
<trkpt lat="42.134578" lon="23.149924"><ele>676.4</ele><time>2026-04-13T11:50:04.000Z</time></trkpt>
<trkpt lat="42.134581" lon="23.149931"><ele>676.4</ele><time>2026-04-13T11:50:05.000Z</time></trkpt>
<trkpt lat="42.134584" lon="23.149936"><ele>676.4</ele><time>2026-04-13T11:50:06.000Z</time></trkpt>
<trkpt lat="42.134586" lon="23.149939"><ele>676.4</ele><time>2026-04-13T11:50:07.000Z</time></trkpt>
<trkpt lat="42.134587" lon="23.14994"><ele>676.9</ele><time>2026-04-13T11:50:08.000Z</time></trkpt>
<trkpt lat="42.134588" lon="23.149941"><ele>676.9</ele><time>2026-04-13T11:50:09.000Z</time></trkpt>
<trkpt lat="42.134589" lon="23.14994"><ele>676.9</ele><time>2026-04-13T11:50:10.000Z</time></trkpt>
<trkpt lat="42.134589" lon="23.14994"><ele>676.9</ele><time>2026-04-13T11:50:11.000Z</time></trkpt>
<trkpt lat="42.134589" lon="23.14994"><ele>676.9</ele><time>2026-04-13T11:50:12.000Z</time></trkpt>
<trkpt lat="42.134589" lon="23.14994"><ele>678.2</ele><time>2026-04-13T11:50:13.000Z</time></trkpt>
<trkpt lat="42.134589" lon="23.149941"><ele>678.2</ele><time>2026-04-13T11:50:14.000Z</time></trkpt>
<trkpt lat="42.13459" lon="23.149941"><ele>678.2</ele><time>2026-04-13T11:50:15.000Z</time></trkpt>
<trkpt lat="42.13459" lon="23.14994"><ele>678.2</ele><time>2026-04-13T11:50:16.000Z</time></trkpt>
<trkpt lat="42.13459" lon="23.149939"><ele>678.2</ele><time>2026-04-13T11:50:17.000Z</time></trkpt>
<trkpt lat="42.13459" lon="23.149939"><ele>679.3</ele><time>2026-04-13T11:50:18.000Z</time></trkpt>
<trkpt lat="42.13459" lon="23.149938"><ele>679.3</ele><time>2026-04-13T11:50:19.000Z</time></trkpt>
<trkpt lat="42.134591" lon="23.149938"><ele>679.3</ele><time>2026-04-13T11:50:20.000Z</time></trkpt>
<trkpt lat="42.134591" lon="23.149938"><ele>679.3</ele><time>2026-04-13T11:50:21.000Z</time></trkpt>
<trkpt lat="42.134592" lon="23.149938"><ele>679.3</ele><time>2026-04-13T11:50:22.000Z</time></trkpt>
<trkpt lat="42.134593" lon="23.149938"><ele>679.6</ele><time>2026-04-13T11:50:23.000Z</time></trkpt>
<trkpt lat="42.134593" lon="23.149938"><ele>679.6</ele><time>2026-04-13T11:50:24.000Z</time></trkpt>
<trkpt lat="42.134594" lon="23.149938"><ele>679.6</ele><time>2026-04-13T11:50:25.000Z</time></trkpt>
<trkpt lat="42.134594" lon="23.149938"><ele>679.6</ele><time>2026-04-13T11:50:26.000Z</time></trkpt>
<trkpt lat="42.134594" lon="23.149938"><ele>679.6</ele><time>2026-04-13T11:50:27.000Z</time></trkpt>
<trkpt lat="42.134595" lon="23.149938"><ele>679.7</ele><time>2026-04-13T11:50:28.000Z</time></trkpt>
<trkpt lat="42.134594" lon="23.149937"><ele>679.7</ele><time>2026-04-13T11:50:29.000Z</time></trkpt>
<trkpt lat="42.134594" lon="23.149937"><ele>679.7</ele><time>2026-04-13T11:50:30.000Z</time></trkpt>
<trkpt lat="42.134593" lon="23.149936"><ele>679.7</ele><time>2026-04-13T11:50:31.000Z</time></trkpt>
<trkpt lat="42.134593" lon="23.149935"><ele>679.7</ele><time>2026-04-13T11:50:32.000Z</time></trkpt>
<trkpt lat="42.134593" lon="23.149935"><ele>679.7</ele><time>2026-04-13T11:50:33.000Z</time></trkpt>
<trkpt lat="42.134593" lon="23.149934"><ele>679.7</ele><time>2026-04-13T11:50:34.000Z</time></trkpt>
<trkpt lat="42.134593" lon="23.149933"><ele>679.7</ele><time>2026-04-13T11:50:35.000Z</time></trkpt>
<trkpt lat="42.134593" lon="23.149932"><ele>679.7</ele><time>2026-04-13T11:50:36.000Z</time></trkpt>
<trkpt lat="42.134594" lon="23.149931"><ele>679.7</ele><time>2026-04-13T11:50:37.000Z</time></trkpt>
<trkpt lat="42.134594" lon="23.14993"><ele>679.7</ele><time>2026-04-13T11:50:38.000Z</time></trkpt>
<trkpt lat="42.134594" lon="23.14993"><ele>679.7</ele><time>2026-04-13T11:50:39.000Z</time></trkpt>
<trkpt lat="42.134595" lon="23.14993"><ele>679.7</ele><time>2026-04-13T11:50:40.000Z</time></trkpt>
<trkpt lat="42.134595" lon="23.14993"><ele>679.7</ele><time>2026-04-13T11:50:41.000Z</time></trkpt>
<trkpt lat="42.134595" lon="23.14993"><ele>679.7</ele><time>2026-04-13T11:50:42.000Z</time></trkpt>
<trkpt lat="42.134596" lon="23.149931"><ele>679.9</ele><time>2026-04-13T11:50:43.000Z</time></trkpt>
<trkpt lat="42.134596" lon="23.149932"><ele>679.9</ele><time>2026-04-13T11:50:44.000Z</time></trkpt>
<trkpt lat="42.134596" lon="23.149932"><ele>679.9</ele><time>2026-04-13T11:50:45.000Z</time></trkpt>
<trkpt lat="42.134596" lon="23.149933"><ele>679.9</ele><time>2026-04-13T11:50:46.000Z</time></trkpt>
<trkpt lat="42.134596" lon="23.149934"><ele>679.9</ele><time>2026-04-13T11:50:47.000Z</time></trkpt>
<trkpt lat="42.134596" lon="23.149935"><ele>680</ele><time>2026-04-13T11:50:48.000Z</time></trkpt>
<trkpt lat="42.134596" lon="23.149936"><ele>680</ele><time>2026-04-13T11:50:49.000Z</time></trkpt>
<trkpt lat="42.134596" lon="23.149937"><ele>680</ele><time>2026-04-13T11:50:50.000Z</time></trkpt>
<trkpt lat="42.134597" lon="23.149937"><ele>680</ele><time>2026-04-13T11:50:51.000Z</time></trkpt>
<trkpt lat="42.134597" lon="23.149937"><ele>680</ele><time>2026-04-13T11:50:52.000Z</time></trkpt>
<trkpt lat="42.134598" lon="23.149937"><ele>680</ele><time>2026-04-13T11:50:53.000Z</time></trkpt>
<trkpt lat="42.134599" lon="23.149937"><ele>680</ele><time>2026-04-13T11:50:54.000Z</time></trkpt>
<trkpt lat="42.1346" lon="23.149937"><ele>680</ele><time>2026-04-13T11:50:55.000Z</time></trkpt>
<trkpt lat="42.1346" lon="23.149937"><ele>680</ele><time>2026-04-13T11:50:56.000Z</time></trkpt>
<trkpt lat="42.1346" lon="23.149936"><ele>680</ele><time>2026-04-13T11:50:57.000Z</time></trkpt>
<trkpt lat="42.1346" lon="23.149936"><ele>680</ele><time>2026-04-13T11:50:58.000Z</time></trkpt>
<trkpt lat="42.1346" lon="23.149936"><ele>680</ele><time>2026-04-13T11:50:59.000Z</time></trkpt>
<trkpt lat="42.1346" lon="23.149935"><ele>680</ele><time>2026-04-13T11:51:00.000Z</time></trkpt>
<trkpt lat="42.1346" lon="23.149935"><ele>680</ele><time>2026-04-13T11:51:01.000Z</time></trkpt>
<trkpt lat="42.1346" lon="23.149934"><ele>680</ele><time>2026-04-13T11:51:02.000Z</time></trkpt>
<trkpt lat="42.1346" lon="23.149935"><ele>679.9</ele><time>2026-04-13T11:51:03.000Z</time></trkpt>
<trkpt lat="42.1346" lon="23.149935"><ele>679.9</ele><time>2026-04-13T11:51:04.000Z</time></trkpt>
<trkpt lat="42.1346" lon="23.149936"><ele>679.9</ele><time>2026-04-13T11:51:05.000Z</time></trkpt>
<trkpt lat="42.134601" lon="23.149938"><ele>679.9</ele><time>2026-04-13T11:51:06.000Z</time></trkpt>
<trkpt lat="42.1346" lon="23.149941"><ele>679.9</ele><time>2026-04-13T11:51:07.000Z</time></trkpt>
<trkpt lat="42.134599" lon="23.149944"><ele>679.9</ele><time>2026-04-13T11:51:08.000Z</time></trkpt>
<trkpt lat="42.134598" lon="23.149948"><ele>679.9</ele><time>2026-04-13T11:51:09.000Z</time></trkpt>
<trkpt lat="42.134596" lon="23.149951"><ele>679.9</ele><time>2026-04-13T11:51:10.000Z</time></trkpt>
<trkpt lat="42.134595" lon="23.149952"><ele>679.9</ele><time>2026-04-13T11:51:11.000Z</time></trkpt>
<trkpt lat="42.134594" lon="23.149953"><ele>679.9</ele><time>2026-04-13T11:51:12.000Z</time></trkpt>
<trkpt lat="42.134593" lon="23.149953"><ele>679.9</ele><time>2026-04-13T11:51:13.000Z</time></trkpt>
<trkpt lat="42.134593" lon="23.149953"><ele>679.9</ele><time>2026-04-13T11:51:14.000Z</time></trkpt>
<trkpt lat="42.134593" lon="23.149954"><ele>679.9</ele><time>2026-04-13T11:51:15.000Z</time></trkpt>
<trkpt lat="42.134594" lon="23.149956"><ele>679.9</ele><time>2026-04-13T11:51:16.000Z</time></trkpt>
<trkpt lat="42.134594" lon="23.149957"><ele>679.9</ele><time>2026-04-13T11:51:17.000Z</time></trkpt>
<trkpt lat="42.134595" lon="23.149959"><ele>679.9</ele><time>2026-04-13T11:51:18.000Z</time></trkpt>
<trkpt lat="42.134595" lon="23.14996"><ele>679.9</ele><time>2026-04-13T11:51:19.000Z</time></trkpt>
<trkpt lat="42.134596" lon="23.14996"><ele>679.9</ele><time>2026-04-13T11:51:20.000Z</time></trkpt>
<trkpt lat="42.134597" lon="23.149961"><ele>679.9</ele><time>2026-04-13T11:51:21.000Z</time></trkpt>
<trkpt lat="42.134598" lon="23.149961"><ele>679.9</ele><time>2026-04-13T11:51:22.000Z</time></trkpt>
<trkpt lat="42.134598" lon="23.14996"><ele>679.9</ele><time>2026-04-13T11:51:23.000Z</time></trkpt>
<trkpt lat="42.134599" lon="23.14996"><ele>679.9</ele><time>2026-04-13T11:51:24.000Z</time></trkpt>
<trkpt lat="42.1346" lon="23.149959"><ele>679.9</ele><time>2026-04-13T11:51:25.000Z</time></trkpt>
<trkpt lat="42.1346" lon="23.149959"><ele>679.9</ele><time>2026-04-13T11:51:26.000Z</time></trkpt>
<trkpt lat="42.134601" lon="23.149958"><ele>679.9</ele><time>2026-04-13T11:51:27.000Z</time></trkpt>
<trkpt lat="42.1346" lon="23.149959"><ele>679.7</ele><time>2026-04-13T11:51:28.000Z</time></trkpt>
<trkpt lat="42.1346" lon="23.149959"><ele>679.7</ele><time>2026-04-13T11:51:29.000Z</time></trkpt>
<trkpt lat="42.1346" lon="23.149961"><ele>679.7</ele><time>2026-04-13T11:51:30.000Z</time></trkpt>
<trkpt lat="42.1346" lon="23.149964"><ele>679.7</ele><time>2026-04-13T11:51:31.000Z</time></trkpt>
<trkpt lat="42.1346" lon="23.149968"><ele>679.7</ele><time>2026-04-13T11:51:32.000Z</time></trkpt>
<trkpt lat="42.1346" lon="23.149974"><ele>679.4</ele><time>2026-04-13T11:51:33.000Z</time></trkpt>
<trkpt lat="42.134601" lon="23.149981"><ele>679.4</ele><time>2026-04-13T11:51:34.000Z</time></trkpt>
<trkpt lat="42.134602" lon="23.149989"><ele>679.4</ele><time>2026-04-13T11:51:35.000Z</time></trkpt>
<trkpt lat="42.134603" lon="23.149998"><ele>679.4</ele><time>2026-04-13T11:51:36.000Z</time></trkpt>
<trkpt lat="42.134604" lon="23.150008"><ele>679.4</ele><time>2026-04-13T11:51:37.000Z</time></trkpt>
<trkpt lat="42.134606" lon="23.150019"><ele>679.3</ele><time>2026-04-13T11:51:38.000Z</time></trkpt>
<trkpt lat="42.134606" lon="23.15003"><ele>679.3</ele><time>2026-04-13T11:51:39.000Z</time></trkpt>
<trkpt lat="42.134607" lon="23.150043"><ele>679.3</ele><time>2026-04-13T11:51:40.000Z</time></trkpt>
<trkpt lat="42.134607" lon="23.150057"><ele>679.3</ele><time>2026-04-13T11:51:41.000Z</time></trkpt>
<trkpt lat="42.134607" lon="23.150072"><ele>679.3</ele><time>2026-04-13T11:51:42.000Z</time></trkpt>
<trkpt lat="42.134606" lon="23.150087"><ele>679.5</ele><time>2026-04-13T11:51:43.000Z</time></trkpt>
<trkpt lat="42.134605" lon="23.150104"><ele>679.5</ele><time>2026-04-13T11:51:44.000Z</time></trkpt>
<trkpt lat="42.134604" lon="23.15012"><ele>679.5</ele><time>2026-04-13T11:51:45.000Z</time></trkpt>
<trkpt lat="42.134602" lon="23.150137"><ele>679.5</ele><time>2026-04-13T11:51:46.000Z</time></trkpt>
<trkpt lat="42.1346" lon="23.150154"><ele>679.5</ele><time>2026-04-13T11:51:47.000Z</time></trkpt>
<trkpt lat="42.134597" lon="23.150169"><ele>680</ele><time>2026-04-13T11:51:48.000Z</time></trkpt>
<trkpt lat="42.134594" lon="23.150185"><ele>680</ele><time>2026-04-13T11:51:49.000Z</time></trkpt>
<trkpt lat="42.13459" lon="23.150201"><ele>680</ele><time>2026-04-13T11:51:50.000Z</time></trkpt>
<trkpt lat="42.134586" lon="23.150216"><ele>680</ele><time>2026-04-13T11:51:51.000Z</time></trkpt>
<trkpt lat="42.134581" lon="23.150231"><ele>680</ele><time>2026-04-13T11:51:52.000Z</time></trkpt>
<trkpt lat="42.134575" lon="23.150245"><ele>680.4</ele><time>2026-04-13T11:51:53.000Z</time></trkpt>
<trkpt lat="42.134569" lon="23.150259"><ele>680.4</ele><time>2026-04-13T11:51:54.000Z</time></trkpt>
<trkpt lat="42.134562" lon="23.150274"><ele>680.4</ele><time>2026-04-13T11:51:55.000Z</time></trkpt>
<trkpt lat="42.134555" lon="23.150288"><ele>680.4</ele><time>2026-04-13T11:51:56.000Z</time></trkpt>
<trkpt lat="42.134549" lon="23.150303"><ele>680.4</ele><time>2026-04-13T11:51:57.000Z</time></trkpt>
<trkpt lat="42.134544" lon="23.150318"><ele>681.5</ele><time>2026-04-13T11:51:58.000Z</time></trkpt>
<trkpt lat="42.134541" lon="23.150334"><ele>681.5</ele><time>2026-04-13T11:51:59.000Z</time></trkpt>
<trkpt lat="42.134539" lon="23.150349"><ele>681.5</ele><time>2026-04-13T11:52:00.000Z</time></trkpt>
<trkpt lat="42.134538" lon="23.150364"><ele>681.5</ele><time>2026-04-13T11:52:01.000Z</time></trkpt>
<trkpt lat="42.134538" lon="23.150379"><ele>681.5</ele><time>2026-04-13T11:52:02.000Z</time></trkpt>
<trkpt lat="42.134539" lon="23.150395"><ele>682.6</ele><time>2026-04-13T11:52:03.000Z</time></trkpt>
<trkpt lat="42.13454" lon="23.150411"><ele>682.6</ele><time>2026-04-13T11:52:04.000Z</time></trkpt>
<trkpt lat="42.134542" lon="23.150427"><ele>682.6</ele><time>2026-04-13T11:52:05.000Z</time></trkpt>
<trkpt lat="42.134544" lon="23.150443"><ele>682.6</ele><time>2026-04-13T11:52:06.000Z</time></trkpt>
<trkpt lat="42.134546" lon="23.150459"><ele>682.6</ele><time>2026-04-13T11:52:07.000Z</time></trkpt>
<trkpt lat="42.134547" lon="23.150475"><ele>683.3</ele><time>2026-04-13T11:52:08.000Z</time></trkpt>
<trkpt lat="42.134549" lon="23.150491"><ele>683.3</ele><time>2026-04-13T11:52:09.000Z</time></trkpt>
<trkpt lat="42.134551" lon="23.150507"><ele>683.3</ele><time>2026-04-13T11:52:10.000Z</time></trkpt>
<trkpt lat="42.134553" lon="23.150523"><ele>683.3</ele><time>2026-04-13T11:52:11.000Z</time></trkpt>
<trkpt lat="42.134556" lon="23.150539"><ele>683.3</ele><time>2026-04-13T11:52:12.000Z</time></trkpt>
<trkpt lat="42.134559" lon="23.150555"><ele>684.8</ele><time>2026-04-13T11:52:13.000Z</time></trkpt>
<trkpt lat="42.134564" lon="23.150571"><ele>684.8</ele><time>2026-04-13T11:52:14.000Z</time></trkpt>
<trkpt lat="42.134568" lon="23.150587"><ele>684.8</ele><time>2026-04-13T11:52:15.000Z</time></trkpt>
<trkpt lat="42.134573" lon="23.150603"><ele>684.8</ele><time>2026-04-13T11:52:16.000Z</time></trkpt>
<trkpt lat="42.134578" lon="23.150619"><ele>684.8</ele><time>2026-04-13T11:52:17.000Z</time></trkpt>
<trkpt lat="42.134582" lon="23.150635"><ele>686.2</ele><time>2026-04-13T11:52:18.000Z</time></trkpt>
<trkpt lat="42.134586" lon="23.15065"><ele>686.2</ele><time>2026-04-13T11:52:19.000Z</time></trkpt>
<trkpt lat="42.134591" lon="23.150666"><ele>686.2</ele><time>2026-04-13T11:52:20.000Z</time></trkpt>
<trkpt lat="42.134595" lon="23.150683"><ele>686.2</ele><time>2026-04-13T11:52:21.000Z</time></trkpt>
<trkpt lat="42.134599" lon="23.1507"><ele>686.2</ele><time>2026-04-13T11:52:22.000Z</time></trkpt>
<trkpt lat="42.134603" lon="23.150717"><ele>686.5</ele><time>2026-04-13T11:52:23.000Z</time></trkpt>
<trkpt lat="42.134607" lon="23.150734"><ele>686.5</ele><time>2026-04-13T11:52:24.000Z</time></trkpt>
<trkpt lat="42.134611" lon="23.150751"><ele>686.5</ele><time>2026-04-13T11:52:25.000Z</time></trkpt>
<trkpt lat="42.134615" lon="23.150768"><ele>686.5</ele><time>2026-04-13T11:52:26.000Z</time></trkpt>
<trkpt lat="42.134619" lon="23.150784"><ele>686.5</ele><time>2026-04-13T11:52:27.000Z</time></trkpt>
<trkpt lat="42.134623" lon="23.150801"><ele>686.5</ele><time>2026-04-13T11:52:28.000Z</time></trkpt>
<trkpt lat="42.134626" lon="23.150817"><ele>686.5</ele><time>2026-04-13T11:52:29.000Z</time></trkpt>
<trkpt lat="42.134629" lon="23.150833"><ele>686.5</ele><time>2026-04-13T11:52:30.000Z</time></trkpt>
<trkpt lat="42.134631" lon="23.15085"><ele>686.5</ele><time>2026-04-13T11:52:31.000Z</time></trkpt>
<trkpt lat="42.134631" lon="23.150867"><ele>686.5</ele><time>2026-04-13T11:52:32.000Z</time></trkpt>
<trkpt lat="42.134629" lon="23.150884"><ele>686</ele><time>2026-04-13T11:52:33.000Z</time></trkpt>
<trkpt lat="42.134624" lon="23.150899"><ele>686</ele><time>2026-04-13T11:52:34.000Z</time></trkpt>
<trkpt lat="42.134616" lon="23.150913"><ele>686</ele><time>2026-04-13T11:52:35.000Z</time></trkpt>
<trkpt lat="42.134608" lon="23.150926"><ele>686</ele><time>2026-04-13T11:52:36.000Z</time></trkpt>
<trkpt lat="42.134599" lon="23.150937"><ele>686</ele><time>2026-04-13T11:52:37.000Z</time></trkpt>
<trkpt lat="42.134591" lon="23.150948"><ele>685.7</ele><time>2026-04-13T11:52:38.000Z</time></trkpt>
<trkpt lat="42.134583" lon="23.15096"><ele>685.7</ele><time>2026-04-13T11:52:39.000Z</time></trkpt>
<trkpt lat="42.134576" lon="23.150973"><ele>685.7</ele><time>2026-04-13T11:52:40.000Z</time></trkpt>
<trkpt lat="42.134569" lon="23.150986"><ele>685.7</ele><time>2026-04-13T11:52:41.000Z</time></trkpt>
<trkpt lat="42.134561" lon="23.150999"><ele>685.7</ele><time>2026-04-13T11:52:42.000Z</time></trkpt>
<trkpt lat="42.134551" lon="23.15101"><ele>685.3</ele><time>2026-04-13T11:52:43.000Z</time></trkpt>
<trkpt lat="42.134541" lon="23.15102"><ele>685.3</ele><time>2026-04-13T11:52:44.000Z</time></trkpt>
<trkpt lat="42.13453" lon="23.151029"><ele>685.3</ele><time>2026-04-13T11:52:45.000Z</time></trkpt>
<trkpt lat="42.134518" lon="23.151037"><ele>685.3</ele><time>2026-04-13T11:52:46.000Z</time></trkpt>
<trkpt lat="42.134507" lon="23.151045"><ele>685.3</ele><time>2026-04-13T11:52:47.000Z</time></trkpt>
<trkpt lat="42.134496" lon="23.151054"><ele>685.1</ele><time>2026-04-13T11:52:48.000Z</time></trkpt>
<trkpt lat="42.134485" lon="23.151064"><ele>685.1</ele><time>2026-04-13T11:52:49.000Z</time></trkpt>
<trkpt lat="42.134473" lon="23.151074"><ele>685.1</ele><time>2026-04-13T11:52:50.000Z</time></trkpt>
<trkpt lat="42.134462" lon="23.151085"><ele>685.1</ele><time>2026-04-13T11:52:51.000Z</time></trkpt>
<trkpt lat="42.134451" lon="23.151097"><ele>685.1</ele><time>2026-04-13T11:52:52.000Z</time></trkpt>
<trkpt lat="42.134439" lon="23.151109"><ele>685.2</ele><time>2026-04-13T11:52:53.000Z</time></trkpt>
<trkpt lat="42.134428" lon="23.15112"><ele>685.2</ele><time>2026-04-13T11:52:54.000Z</time></trkpt>
<trkpt lat="42.134418" lon="23.151132"><ele>685.2</ele><time>2026-04-13T11:52:55.000Z</time></trkpt>
<trkpt lat="42.134407" lon="23.151142"><ele>685.2</ele><time>2026-04-13T11:52:56.000Z</time></trkpt>
<trkpt lat="42.134396" lon="23.151153"><ele>685.2</ele><time>2026-04-13T11:52:57.000Z</time></trkpt>
<trkpt lat="42.134386" lon="23.151163"><ele>685.4</ele><time>2026-04-13T11:52:58.000Z</time></trkpt>
<trkpt lat="42.134376" lon="23.151173"><ele>685.4</ele><time>2026-04-13T11:52:59.000Z</time></trkpt>
<trkpt lat="42.134365" lon="23.151183"><ele>685.4</ele><time>2026-04-13T11:53:00.000Z</time></trkpt>
<trkpt lat="42.134354" lon="23.151194"><ele>685.4</ele><time>2026-04-13T11:53:01.000Z</time></trkpt>
<trkpt lat="42.134343" lon="23.151204"><ele>685.4</ele><time>2026-04-13T11:53:02.000Z</time></trkpt>
<trkpt lat="42.134332" lon="23.151215"><ele>685.8</ele><time>2026-04-13T11:53:03.000Z</time></trkpt>
<trkpt lat="42.13432" lon="23.151226"><ele>685.8</ele><time>2026-04-13T11:53:04.000Z</time></trkpt>
<trkpt lat="42.134308" lon="23.151238"><ele>685.8</ele><time>2026-04-13T11:53:05.000Z</time></trkpt>
<trkpt lat="42.134296" lon="23.151249"><ele>685.8</ele><time>2026-04-13T11:53:06.000Z</time></trkpt>
<trkpt lat="42.134284" lon="23.151261"><ele>685.8</ele><time>2026-04-13T11:53:07.000Z</time></trkpt>
<trkpt lat="42.134272" lon="23.151272"><ele>685.8</ele><time>2026-04-13T11:53:08.000Z</time></trkpt>
<trkpt lat="42.134259" lon="23.151284"><ele>685.8</ele><time>2026-04-13T11:53:09.000Z</time></trkpt>
<trkpt lat="42.134247" lon="23.151295"><ele>685.8</ele><time>2026-04-13T11:53:10.000Z</time></trkpt>
<trkpt lat="42.134235" lon="23.151307"><ele>685.8</ele><time>2026-04-13T11:53:11.000Z</time></trkpt>
<trkpt lat="42.134223" lon="23.151318"><ele>685.8</ele><time>2026-04-13T11:53:12.000Z</time></trkpt>
<trkpt lat="42.134212" lon="23.151329"><ele>685.7</ele><time>2026-04-13T11:53:13.000Z</time></trkpt>
<trkpt lat="42.1342" lon="23.151339"><ele>685.7</ele><time>2026-04-13T11:53:14.000Z</time></trkpt>
<trkpt lat="42.134189" lon="23.151348"><ele>685.7</ele><time>2026-04-13T11:53:15.000Z</time></trkpt>
<trkpt lat="42.134179" lon="23.151357"><ele>685.7</ele><time>2026-04-13T11:53:16.000Z</time></trkpt>
<trkpt lat="42.134168" lon="23.151365"><ele>685.7</ele><time>2026-04-13T11:53:17.000Z</time></trkpt>
<trkpt lat="42.134157" lon="23.151372"><ele>685.2</ele><time>2026-04-13T11:53:18.000Z</time></trkpt>
<trkpt lat="42.134145" lon="23.151377"><ele>685.2</ele><time>2026-04-13T11:53:19.000Z</time></trkpt>
<trkpt lat="42.134134" lon="23.151382"><ele>685.2</ele><time>2026-04-13T11:53:20.000Z</time></trkpt>
<trkpt lat="42.134123" lon="23.151385"><ele>685.2</ele><time>2026-04-13T11:53:21.000Z</time></trkpt>
<trkpt lat="42.134112" lon="23.151386"><ele>685.2</ele><time>2026-04-13T11:53:22.000Z</time></trkpt>
<trkpt lat="42.134101" lon="23.151386"><ele>684.9</ele><time>2026-04-13T11:53:23.000Z</time></trkpt>
<trkpt lat="42.13409" lon="23.151385"><ele>684.9</ele><time>2026-04-13T11:53:24.000Z</time></trkpt>
<trkpt lat="42.134079" lon="23.151383"><ele>684.9</ele><time>2026-04-13T11:53:25.000Z</time></trkpt>
<trkpt lat="42.134068" lon="23.15138"><ele>684.9</ele><time>2026-04-13T11:53:26.000Z</time></trkpt>
<trkpt lat="42.134057" lon="23.151379"><ele>684.9</ele><time>2026-04-13T11:53:27.000Z</time></trkpt>
<trkpt lat="42.134046" lon="23.151378"><ele>684.9</ele><time>2026-04-13T11:53:28.000Z</time></trkpt>
<trkpt lat="42.134035" lon="23.151377"><ele>684.9</ele><time>2026-04-13T11:53:29.000Z</time></trkpt>
<trkpt lat="42.134025" lon="23.151376"><ele>684.9</ele><time>2026-04-13T11:53:30.000Z</time></trkpt>
<trkpt lat="42.134014" lon="23.151375"><ele>684.9</ele><time>2026-04-13T11:53:31.000Z</time></trkpt>
<trkpt lat="42.134004" lon="23.151373"><ele>684.9</ele><time>2026-04-13T11:53:32.000Z</time></trkpt>
<trkpt lat="42.133994" lon="23.151372"><ele>685.6</ele><time>2026-04-13T11:53:33.000Z</time></trkpt>
<trkpt lat="42.133984" lon="23.151371"><ele>685.6</ele><time>2026-04-13T11:53:34.000Z</time></trkpt>
<trkpt lat="42.133974" lon="23.15137"><ele>685.6</ele><time>2026-04-13T11:53:35.000Z</time></trkpt>
<trkpt lat="42.133964" lon="23.15137"><ele>685.6</ele><time>2026-04-13T11:53:36.000Z</time></trkpt>
<trkpt lat="42.133954" lon="23.151371"><ele>685.6</ele><time>2026-04-13T11:53:37.000Z</time></trkpt>
<trkpt lat="42.133943" lon="23.151373"><ele>686.3</ele><time>2026-04-13T11:53:38.000Z</time></trkpt>
<trkpt lat="42.133933" lon="23.151375"><ele>686.3</ele><time>2026-04-13T11:53:39.000Z</time></trkpt>
<trkpt lat="42.133923" lon="23.151378"><ele>686.3</ele><time>2026-04-13T11:53:40.000Z</time></trkpt>
<trkpt lat="42.133913" lon="23.151381"><ele>686.3</ele><time>2026-04-13T11:53:41.000Z</time></trkpt>
<trkpt lat="42.133903" lon="23.151385"><ele>686.3</ele><time>2026-04-13T11:53:42.000Z</time></trkpt>
<trkpt lat="42.133893" lon="23.151388"><ele>688.2</ele><time>2026-04-13T11:53:43.000Z</time></trkpt>
<trkpt lat="42.133883" lon="23.151392"><ele>688.2</ele><time>2026-04-13T11:53:44.000Z</time></trkpt>
<trkpt lat="42.133873" lon="23.151396"><ele>688.2</ele><time>2026-04-13T11:53:45.000Z</time></trkpt>
<trkpt lat="42.133863" lon="23.151399"><ele>688.2</ele><time>2026-04-13T11:53:46.000Z</time></trkpt>
<trkpt lat="42.133853" lon="23.151403"><ele>688.2</ele><time>2026-04-13T11:53:47.000Z</time></trkpt>
<trkpt lat="42.133844" lon="23.151407"><ele>689.9</ele><time>2026-04-13T11:53:48.000Z</time></trkpt>
<trkpt lat="42.133836" lon="23.15141"><ele>689.9</ele><time>2026-04-13T11:53:49.000Z</time></trkpt>
<trkpt lat="42.133828" lon="23.151413"><ele>689.9</ele><time>2026-04-13T11:53:50.000Z</time></trkpt>
<trkpt lat="42.133819" lon="23.151416"><ele>689.9</ele><time>2026-04-13T11:53:51.000Z</time></trkpt>
<trkpt lat="42.133811" lon="23.151418"><ele>689.9</ele><time>2026-04-13T11:53:52.000Z</time></trkpt>
<trkpt lat="42.133803" lon="23.151419"><ele>690.3</ele><time>2026-04-13T11:53:53.000Z</time></trkpt>
<trkpt lat="42.133795" lon="23.151421"><ele>690.3</ele><time>2026-04-13T11:53:54.000Z</time></trkpt>
<trkpt lat="42.133787" lon="23.151423"><ele>690.3</ele><time>2026-04-13T11:53:55.000Z</time></trkpt>
<trkpt lat="42.133779" lon="23.151424"><ele>690.3</ele><time>2026-04-13T11:53:56.000Z</time></trkpt>
<trkpt lat="42.133772" lon="23.151426"><ele>690.3</ele><time>2026-04-13T11:53:57.000Z</time></trkpt>
<trkpt lat="42.133764" lon="23.151427"><ele>690.5</ele><time>2026-04-13T11:53:58.000Z</time></trkpt>
<trkpt lat="42.133756" lon="23.151427"><ele>690.5</ele><time>2026-04-13T11:53:59.000Z</time></trkpt>
<trkpt lat="42.133748" lon="23.151427"><ele>690.5</ele><time>2026-04-13T11:54:00.000Z</time></trkpt>
<trkpt lat="42.13374" lon="23.151426"><ele>690.5</ele><time>2026-04-13T11:54:01.000Z</time></trkpt>
<trkpt lat="42.133732" lon="23.151425"><ele>690.5</ele><time>2026-04-13T11:54:02.000Z</time></trkpt>
<trkpt lat="42.133724" lon="23.151423"><ele>690.3</ele><time>2026-04-13T11:54:03.000Z</time></trkpt>
<trkpt lat="42.133715" lon="23.151419"><ele>690.3</ele><time>2026-04-13T11:54:04.000Z</time></trkpt>
<trkpt lat="42.133707" lon="23.151415"><ele>690.3</ele><time>2026-04-13T11:54:05.000Z</time></trkpt>
<trkpt lat="42.133699" lon="23.151409"><ele>690.3</ele><time>2026-04-13T11:54:06.000Z</time></trkpt>
<trkpt lat="42.133691" lon="23.151403"><ele>690.3</ele><time>2026-04-13T11:54:07.000Z</time></trkpt>
<trkpt lat="42.133685" lon="23.151395"><ele>690.3</ele><time>2026-04-13T11:54:08.000Z</time></trkpt>
<trkpt lat="42.133681" lon="23.151388"><ele>690.3</ele><time>2026-04-13T11:54:09.000Z</time></trkpt>
<trkpt lat="42.133678" lon="23.151383"><ele>690.3</ele><time>2026-04-13T11:54:10.000Z</time></trkpt>
<trkpt lat="42.133677" lon="23.151379"><ele>690.3</ele><time>2026-04-13T11:54:11.000Z</time></trkpt>
<trkpt lat="42.133677" lon="23.151376"><ele>690.3</ele><time>2026-04-13T11:54:12.000Z</time></trkpt>
<trkpt lat="42.133678" lon="23.151375"><ele>691.1</ele><time>2026-04-13T11:54:13.000Z</time></trkpt>
<trkpt lat="42.133679" lon="23.151375"><ele>691.1</ele><time>2026-04-13T11:54:14.000Z</time></trkpt>
<trkpt lat="42.13368" lon="23.151375"><ele>691.1</ele><time>2026-04-13T11:54:15.000Z</time></trkpt>
<trkpt lat="42.133679" lon="23.151375"><ele>691.1</ele><time>2026-04-13T11:54:16.000Z</time></trkpt>
<trkpt lat="42.133679" lon="23.151374"><ele>691.1</ele><time>2026-04-13T11:54:17.000Z</time></trkpt>
<trkpt lat="42.133677" lon="23.151373"><ele>691.9</ele><time>2026-04-13T11:54:18.000Z</time></trkpt>
<trkpt lat="42.133676" lon="23.15137"><ele>691.9</ele><time>2026-04-13T11:54:19.000Z</time></trkpt>
<trkpt lat="42.133673" lon="23.151366"><ele>691.9</ele><time>2026-04-13T11:54:20.000Z</time></trkpt>
<trkpt lat="42.133671" lon="23.151361"><ele>691.9</ele><time>2026-04-13T11:54:21.000Z</time></trkpt>
<trkpt lat="42.133668" lon="23.151355"><ele>691.9</ele><time>2026-04-13T11:54:22.000Z</time></trkpt>
<trkpt lat="42.133666" lon="23.151348"><ele>692.1</ele><time>2026-04-13T11:54:23.000Z</time></trkpt>
<trkpt lat="42.133664" lon="23.15134"><ele>692.1</ele><time>2026-04-13T11:54:24.000Z</time></trkpt>
<trkpt lat="42.133662" lon="23.151333"><ele>692.1</ele><time>2026-04-13T11:54:25.000Z</time></trkpt>
<trkpt lat="42.13366" lon="23.151325"><ele>692.1</ele><time>2026-04-13T11:54:26.000Z</time></trkpt>
<trkpt lat="42.133657" lon="23.151318"><ele>692.1</ele><time>2026-04-13T11:54:27.000Z</time></trkpt>
<trkpt lat="42.133655" lon="23.151312"><ele>692.5</ele><time>2026-04-13T11:54:28.000Z</time></trkpt>
<trkpt lat="42.133652" lon="23.151306"><ele>692.5</ele><time>2026-04-13T11:54:29.000Z</time></trkpt>
<trkpt lat="42.133649" lon="23.151299"><ele>692.5</ele><time>2026-04-13T11:54:30.000Z</time></trkpt>
<trkpt lat="42.133646" lon="23.151292"><ele>692.5</ele><time>2026-04-13T11:54:31.000Z</time></trkpt>
<trkpt lat="42.133643" lon="23.151285"><ele>692.5</ele><time>2026-04-13T11:54:32.000Z</time></trkpt>
<trkpt lat="42.133641" lon="23.151279"><ele>693.3</ele><time>2026-04-13T11:54:33.000Z</time></trkpt>
<trkpt lat="42.133639" lon="23.151274"><ele>693.3</ele><time>2026-04-13T11:54:34.000Z</time></trkpt>
<trkpt lat="42.133639" lon="23.151271"><ele>693.3</ele><time>2026-04-13T11:54:35.000Z</time></trkpt>
<trkpt lat="42.133639" lon="23.151269"><ele>693.3</ele><time>2026-04-13T11:54:36.000Z</time></trkpt>
<trkpt lat="42.133639" lon="23.151269"><ele>693.3</ele><time>2026-04-13T11:54:37.000Z</time></trkpt>
<trkpt lat="42.13364" lon="23.151269"><ele>693.7</ele><time>2026-04-13T11:54:38.000Z</time></trkpt>
<trkpt lat="42.13364" lon="23.151269"><ele>693.7</ele><time>2026-04-13T11:54:39.000Z</time></trkpt>
<trkpt lat="42.13364" lon="23.15127"><ele>693.7</ele><time>2026-04-13T11:54:40.000Z</time></trkpt>
<trkpt lat="42.13364" lon="23.15127"><ele>693.7</ele><time>2026-04-13T11:54:41.000Z</time></trkpt>
<trkpt lat="42.13364" lon="23.15127"><ele>693.7</ele><time>2026-04-13T11:54:42.000Z</time></trkpt>
<trkpt lat="42.13364" lon="23.151271"><ele>693.5</ele><time>2026-04-13T11:54:43.000Z</time></trkpt>
<trkpt lat="42.133641" lon="23.151271"><ele>693.5</ele><time>2026-04-13T11:54:44.000Z</time></trkpt>
<trkpt lat="42.133641" lon="23.151271"><ele>693.5</ele><time>2026-04-13T11:54:45.000Z</time></trkpt>
<trkpt lat="42.133641" lon="23.151271"><ele>693.5</ele><time>2026-04-13T11:54:46.000Z</time></trkpt>
<trkpt lat="42.133641" lon="23.151271"><ele>693.5</ele><time>2026-04-13T11:54:47.000Z</time></trkpt>
<trkpt lat="42.133641" lon="23.151271"><ele>693</ele><time>2026-04-13T11:54:48.000Z</time></trkpt>
<trkpt lat="42.133641" lon="23.151271"><ele>693</ele><time>2026-04-13T11:54:49.000Z</time></trkpt>
<trkpt lat="42.133641" lon="23.151272"><ele>693</ele><time>2026-04-13T11:54:50.000Z</time></trkpt>
<trkpt lat="42.133641" lon="23.151272"><ele>693</ele><time>2026-04-13T11:54:51.000Z</time></trkpt>
<trkpt lat="42.133641" lon="23.151273"><ele>693</ele><time>2026-04-13T11:54:52.000Z</time></trkpt>
<trkpt lat="42.133641" lon="23.151273"><ele>692.9</ele><time>2026-04-13T11:54:53.000Z</time></trkpt>
<trkpt lat="42.133641" lon="23.151274"><ele>692.9</ele><time>2026-04-13T11:54:54.000Z</time></trkpt>
<trkpt lat="42.133641" lon="23.151274"><ele>692.9</ele><time>2026-04-13T11:54:55.000Z</time></trkpt>
<trkpt lat="42.133641" lon="23.151274"><ele>692.9</ele><time>2026-04-13T11:54:56.000Z</time></trkpt>
<trkpt lat="42.133641" lon="23.151275"><ele>692.9</ele><time>2026-04-13T11:54:57.000Z</time></trkpt>
<trkpt lat="42.133641" lon="23.151275"><ele>693.4</ele><time>2026-04-13T11:54:58.000Z</time></trkpt>
<trkpt lat="42.133641" lon="23.151276"><ele>693.4</ele><time>2026-04-13T11:54:59.000Z</time></trkpt>
<trkpt lat="42.133641" lon="23.151276"><ele>693.4</ele><time>2026-04-13T11:55:00.000Z</time></trkpt>
<trkpt lat="42.133641" lon="23.151276"><ele>693.4</ele><time>2026-04-13T11:55:01.000Z</time></trkpt>
<trkpt lat="42.133641" lon="23.151277"><ele>693.4</ele><time>2026-04-13T11:55:02.000Z</time></trkpt>
<trkpt lat="42.133641" lon="23.151277"><ele>693.7</ele><time>2026-04-13T11:55:03.000Z</time></trkpt>
<trkpt lat="42.133641" lon="23.151277"><ele>693.7</ele><time>2026-04-13T11:55:04.000Z</time></trkpt>
<trkpt lat="42.133641" lon="23.151278"><ele>693.7</ele><time>2026-04-13T11:55:05.000Z</time></trkpt>
<trkpt lat="42.133641" lon="23.151278"><ele>693.7</ele><time>2026-04-13T11:55:06.000Z</time></trkpt>
<trkpt lat="42.133641" lon="23.151278"><ele>693.7</ele><time>2026-04-13T11:55:07.000Z</time></trkpt>
<trkpt lat="42.133641" lon="23.151278"><ele>693.8</ele><time>2026-04-13T11:55:08.000Z</time></trkpt>
<trkpt lat="42.133641" lon="23.151278"><ele>693.8</ele><time>2026-04-13T11:55:09.000Z</time></trkpt>
<trkpt lat="42.133641" lon="23.151279"><ele>693.8</ele><time>2026-04-13T11:55:10.000Z</time></trkpt>
<trkpt lat="42.133641" lon="23.151279"><ele>693.8</ele><time>2026-04-13T11:55:11.000Z</time></trkpt>
<trkpt lat="42.133641" lon="23.151279"><ele>693.8</ele><time>2026-04-13T11:55:12.000Z</time></trkpt>
<trkpt lat="42.133641" lon="23.151279"><ele>693.8</ele><time>2026-04-13T11:55:13.000Z</time></trkpt>
<trkpt lat="42.133641" lon="23.151279"><ele>693.8</ele><time>2026-04-13T11:55:14.000Z</time></trkpt>
<trkpt lat="42.133641" lon="23.151279"><ele>693.8</ele><time>2026-04-13T11:55:15.000Z</time></trkpt>
<trkpt lat="42.133641" lon="23.151279"><ele>693.8</ele><time>2026-04-13T11:55:16.000Z</time></trkpt>
<trkpt lat="42.133641" lon="23.151279"><ele>693.8</ele><time>2026-04-13T11:55:17.000Z</time></trkpt>
<trkpt lat="42.133641" lon="23.151279"><ele>693.8</ele><time>2026-04-13T11:55:18.000Z</time></trkpt>
<trkpt lat="42.133641" lon="23.151279"><ele>693.8</ele><time>2026-04-13T11:55:19.000Z</time></trkpt>
<trkpt lat="42.133641" lon="23.151279"><ele>693.8</ele><time>2026-04-13T11:55:20.000Z</time></trkpt>
<trkpt lat="42.133641" lon="23.151279"><ele>693.8</ele><time>2026-04-13T11:55:21.000Z</time></trkpt>
<trkpt lat="42.133641" lon="23.151279"><ele>693.8</ele><time>2026-04-13T11:55:22.000Z</time></trkpt>
<trkpt lat="42.133641" lon="23.151279"><ele>694</ele><time>2026-04-13T11:55:23.000Z</time></trkpt>
<trkpt lat="42.133641" lon="23.151279"><ele>694</ele><time>2026-04-13T11:55:24.000Z</time></trkpt>
<trkpt lat="42.133641" lon="23.151279"><ele>694</ele><time>2026-04-13T11:55:25.000Z</time></trkpt>
<trkpt lat="42.133641" lon="23.151279"><ele>694</ele><time>2026-04-13T11:55:26.000Z</time></trkpt>
<trkpt lat="42.133641" lon="23.151279"><ele>694</ele><time>2026-04-13T11:55:27.000Z</time></trkpt>
<trkpt lat="42.133641" lon="23.151279"><ele>694.4</ele><time>2026-04-13T11:55:28.000Z</time></trkpt>
<trkpt lat="42.133641" lon="23.151279"><ele>694.4</ele><time>2026-04-13T11:55:29.000Z</time></trkpt>
<trkpt lat="42.133641" lon="23.151279"><ele>694.4</ele><time>2026-04-13T11:55:30.000Z</time></trkpt>
<trkpt lat="42.133641" lon="23.151279"><ele>694.4</ele><time>2026-04-13T11:55:31.000Z</time></trkpt>
<trkpt lat="42.133641" lon="23.151279"><ele>694.4</ele><time>2026-04-13T11:55:32.000Z</time></trkpt>
<trkpt lat="42.133641" lon="23.151279"><ele>694.6</ele><time>2026-04-13T11:55:33.000Z</time></trkpt>
<trkpt lat="42.133641" lon="23.151279"><ele>694.6</ele><time>2026-04-13T11:55:34.000Z</time></trkpt>
<trkpt lat="42.133641" lon="23.151279"><ele>694.6</ele><time>2026-04-13T11:55:35.000Z</time></trkpt>
<trkpt lat="42.133641" lon="23.151278"><ele>694.6</ele><time>2026-04-13T11:55:36.000Z</time></trkpt>
<trkpt lat="42.133641" lon="23.151278"><ele>694.6</ele><time>2026-04-13T11:55:37.000Z</time></trkpt>
<trkpt lat="42.133641" lon="23.151278"><ele>694.5</ele><time>2026-04-13T11:55:38.000Z</time></trkpt>
<trkpt lat="42.133641" lon="23.151278"><ele>694.5</ele><time>2026-04-13T11:55:39.000Z</time></trkpt>
<trkpt lat="42.133641" lon="23.151278"><ele>694.5</ele><time>2026-04-13T11:55:40.000Z</time></trkpt>
<trkpt lat="42.133641" lon="23.151278"><ele>694.5</ele><time>2026-04-13T11:55:41.000Z</time></trkpt>
<trkpt lat="42.133641" lon="23.151278"><ele>694.5</ele><time>2026-04-13T11:55:42.000Z</time></trkpt>
<trkpt lat="42.133641" lon="23.151278"><ele>694.4</ele><time>2026-04-13T11:55:43.000Z</time></trkpt>
<trkpt lat="42.133641" lon="23.151278"><ele>694.4</ele><time>2026-04-13T11:55:44.000Z</time></trkpt>
<trkpt lat="42.133641" lon="23.151278"><ele>694.4</ele><time>2026-04-13T11:55:45.000Z</time></trkpt>
<trkpt lat="42.133641" lon="23.151278"><ele>694.4</ele><time>2026-04-13T11:55:46.000Z</time></trkpt>
<trkpt lat="42.133641" lon="23.151277"><ele>694.4</ele><time>2026-04-13T11:55:47.000Z</time></trkpt>
<trkpt lat="42.133642" lon="23.151277"><ele>694.3</ele><time>2026-04-13T11:55:48.000Z</time></trkpt>
<trkpt lat="42.133642" lon="23.151277"><ele>694.3</ele><time>2026-04-13T11:55:49.000Z</time></trkpt>
<trkpt lat="42.133642" lon="23.151277"><ele>694.3</ele><time>2026-04-13T11:55:50.000Z</time></trkpt>
<trkpt lat="42.133642" lon="23.151277"><ele>694.3</ele><time>2026-04-13T11:55:51.000Z</time></trkpt>
<trkpt lat="42.133642" lon="23.151277"><ele>694.3</ele><time>2026-04-13T11:55:52.000Z</time></trkpt>
<trkpt lat="42.133642" lon="23.151276"><ele>694.1</ele><time>2026-04-13T11:55:53.000Z</time></trkpt>
<trkpt lat="42.133643" lon="23.151276"><ele>694.1</ele><time>2026-04-13T11:55:54.000Z</time></trkpt>
<trkpt lat="42.133643" lon="23.151276"><ele>694.1</ele><time>2026-04-13T11:55:55.000Z</time></trkpt>
<trkpt lat="42.133643" lon="23.151276"><ele>694.1</ele><time>2026-04-13T11:55:56.000Z</time></trkpt>
<trkpt lat="42.133643" lon="23.151276"><ele>694.1</ele><time>2026-04-13T11:55:57.000Z</time></trkpt>
<trkpt lat="42.133643" lon="23.151275"><ele>693.2</ele><time>2026-04-13T11:55:58.000Z</time></trkpt>
<trkpt lat="42.133644" lon="23.151275"><ele>693.2</ele><time>2026-04-13T11:55:59.000Z</time></trkpt>
<trkpt lat="42.133644" lon="23.151275"><ele>693.2</ele><time>2026-04-13T11:56:00.000Z</time></trkpt>
<trkpt lat="42.133644" lon="23.151276"><ele>693.2</ele><time>2026-04-13T11:56:01.000Z</time></trkpt>
<trkpt lat="42.133644" lon="23.151278"><ele>693.2</ele><time>2026-04-13T11:56:02.000Z</time></trkpt>
<trkpt lat="42.133643" lon="23.15128"><ele>692.4</ele><time>2026-04-13T11:56:03.000Z</time></trkpt>
<trkpt lat="42.133643" lon="23.151283"><ele>692.4</ele><time>2026-04-13T11:56:04.000Z</time></trkpt>
<trkpt lat="42.133642" lon="23.151288"><ele>692.4</ele><time>2026-04-13T11:56:05.000Z</time></trkpt>
<trkpt lat="42.133641" lon="23.151291"><ele>692.4</ele><time>2026-04-13T11:56:06.000Z</time></trkpt>
<trkpt lat="42.13364" lon="23.151293"><ele>692.4</ele><time>2026-04-13T11:56:07.000Z</time></trkpt>
<trkpt lat="42.133639" lon="23.151295"><ele>692.4</ele><time>2026-04-13T11:56:08.000Z</time></trkpt>
<trkpt lat="42.133639" lon="23.151296"><ele>692.4</ele><time>2026-04-13T11:56:09.000Z</time></trkpt>
<trkpt lat="42.133638" lon="23.151296"><ele>692.4</ele><time>2026-04-13T11:56:10.000Z</time></trkpt>
<trkpt lat="42.133638" lon="23.151296"><ele>692.4</ele><time>2026-04-13T11:56:11.000Z</time></trkpt>
<trkpt lat="42.133638" lon="23.151296"><ele>692.4</ele><time>2026-04-13T11:56:12.000Z</time></trkpt>
<trkpt lat="42.133638" lon="23.151296"><ele>692.7</ele><time>2026-04-13T11:56:13.000Z</time></trkpt>
<trkpt lat="42.133638" lon="23.151296"><ele>692.7</ele><time>2026-04-13T11:56:14.000Z</time></trkpt>
<trkpt lat="42.133639" lon="23.151295"><ele>692.7</ele><time>2026-04-13T11:56:15.000Z</time></trkpt>
<trkpt lat="42.133641" lon="23.151294"><ele>692.7</ele><time>2026-04-13T11:56:16.000Z</time></trkpt>
<trkpt lat="42.133642" lon="23.151293"><ele>692.7</ele><time>2026-04-13T11:56:17.000Z</time></trkpt>
<trkpt lat="42.133643" lon="23.151292"><ele>693</ele><time>2026-04-13T11:56:18.000Z</time></trkpt>
<trkpt lat="42.133644" lon="23.151291"><ele>693</ele><time>2026-04-13T11:56:19.000Z</time></trkpt>
<trkpt lat="42.133644" lon="23.15129"><ele>693</ele><time>2026-04-13T11:56:20.000Z</time></trkpt>
<trkpt lat="42.133644" lon="23.15129"><ele>693</ele><time>2026-04-13T11:56:21.000Z</time></trkpt>
<trkpt lat="42.133645" lon="23.151289"><ele>693</ele><time>2026-04-13T11:56:22.000Z</time></trkpt>
<trkpt lat="42.133645" lon="23.151289"><ele>693.2</ele><time>2026-04-13T11:56:23.000Z</time></trkpt>
<trkpt lat="42.133645" lon="23.151289"><ele>693.2</ele><time>2026-04-13T11:56:24.000Z</time></trkpt>
<trkpt lat="42.133645" lon="23.151289"><ele>693.2</ele><time>2026-04-13T11:56:25.000Z</time></trkpt>
<trkpt lat="42.133645" lon="23.151289"><ele>693.2</ele><time>2026-04-13T11:56:26.000Z</time></trkpt>
<trkpt lat="42.133645" lon="23.151289"><ele>693.2</ele><time>2026-04-13T11:56:27.000Z</time></trkpt>
<trkpt lat="42.133645" lon="23.151289"><ele>693.4</ele><time>2026-04-13T11:56:28.000Z</time></trkpt>
<trkpt lat="42.133645" lon="23.151289"><ele>693.4</ele><time>2026-04-13T11:56:29.000Z</time></trkpt>
<trkpt lat="42.133644" lon="23.151289"><ele>693.4</ele><time>2026-04-13T11:56:30.000Z</time></trkpt>
<trkpt lat="42.133644" lon="23.151289"><ele>693.4</ele><time>2026-04-13T11:56:31.000Z</time></trkpt>
<trkpt lat="42.133644" lon="23.151289"><ele>693.4</ele><time>2026-04-13T11:56:32.000Z</time></trkpt>
<trkpt lat="42.133643" lon="23.151288"><ele>693.3</ele><time>2026-04-13T11:56:33.000Z</time></trkpt>
<trkpt lat="42.133643" lon="23.151288"><ele>693.3</ele><time>2026-04-13T11:56:34.000Z</time></trkpt>
<trkpt lat="42.133643" lon="23.151288"><ele>693.3</ele><time>2026-04-13T11:56:35.000Z</time></trkpt>
<trkpt lat="42.133643" lon="23.151287"><ele>693.3</ele><time>2026-04-13T11:56:36.000Z</time></trkpt>
<trkpt lat="42.133642" lon="23.151287"><ele>693.3</ele><time>2026-04-13T11:56:37.000Z</time></trkpt>
<trkpt lat="42.133641" lon="23.151288"><ele>693.2</ele><time>2026-04-13T11:56:38.000Z</time></trkpt>
<trkpt lat="42.13364" lon="23.15129"><ele>693.2</ele><time>2026-04-13T11:56:39.000Z</time></trkpt>
<trkpt lat="42.13364" lon="23.151294"><ele>693.2</ele><time>2026-04-13T11:56:40.000Z</time></trkpt>
<trkpt lat="42.13364" lon="23.151299"><ele>693.2</ele><time>2026-04-13T11:56:41.000Z</time></trkpt>
<trkpt lat="42.13364" lon="23.151306"><ele>693.2</ele><time>2026-04-13T11:56:42.000Z</time></trkpt>
<trkpt lat="42.133641" lon="23.151313"><ele>692.9</ele><time>2026-04-13T11:56:43.000Z</time></trkpt>
<trkpt lat="42.133641" lon="23.151318"><ele>692.9</ele><time>2026-04-13T11:56:44.000Z</time></trkpt>
<trkpt lat="42.133642" lon="23.151322"><ele>692.9</ele><time>2026-04-13T11:56:45.000Z</time></trkpt>
<trkpt lat="42.133642" lon="23.151325"><ele>692.9</ele><time>2026-04-13T11:56:46.000Z</time></trkpt>
<trkpt lat="42.133642" lon="23.151326"><ele>692.9</ele><time>2026-04-13T11:56:47.000Z</time></trkpt>
<trkpt lat="42.133642" lon="23.151326"><ele>693.1</ele><time>2026-04-13T11:56:48.000Z</time></trkpt>
<trkpt lat="42.133642" lon="23.151326"><ele>693.1</ele><time>2026-04-13T11:56:49.000Z</time></trkpt>
<trkpt lat="42.133642" lon="23.151326"><ele>693.1</ele><time>2026-04-13T11:56:50.000Z</time></trkpt>
<trkpt lat="42.133642" lon="23.151325"><ele>693.1</ele><time>2026-04-13T11:56:51.000Z</time></trkpt>
<trkpt lat="42.133642" lon="23.151326"><ele>693.1</ele><time>2026-04-13T11:56:52.000Z</time></trkpt>
<trkpt lat="42.133642" lon="23.151326"><ele>693.4</ele><time>2026-04-13T11:56:53.000Z</time></trkpt>
<trkpt lat="42.133643" lon="23.151326"><ele>693.4</ele><time>2026-04-13T11:56:54.000Z</time></trkpt>
<trkpt lat="42.133643" lon="23.151326"><ele>693.4</ele><time>2026-04-13T11:56:55.000Z</time></trkpt>
<trkpt lat="42.133643" lon="23.151327"><ele>693.4</ele><time>2026-04-13T11:56:56.000Z</time></trkpt>
<trkpt lat="42.133643" lon="23.151328"><ele>693.4</ele><time>2026-04-13T11:56:57.000Z</time></trkpt>
<trkpt lat="42.133642" lon="23.151331"><ele>694</ele><time>2026-04-13T11:56:58.000Z</time></trkpt>
<trkpt lat="42.133642" lon="23.151335"><ele>694</ele><time>2026-04-13T11:56:59.000Z</time></trkpt>
<trkpt lat="42.13364" lon="23.151339"><ele>694</ele><time>2026-04-13T11:57:00.000Z</time></trkpt>
<trkpt lat="42.133639" lon="23.151342"><ele>694</ele><time>2026-04-13T11:57:01.000Z</time></trkpt>
<trkpt lat="42.133637" lon="23.151344"><ele>694</ele><time>2026-04-13T11:57:02.000Z</time></trkpt>
<trkpt lat="42.133636" lon="23.151345"><ele>693.9</ele><time>2026-04-13T11:57:03.000Z</time></trkpt>
<trkpt lat="42.133635" lon="23.151347"><ele>693.9</ele><time>2026-04-13T11:57:04.000Z</time></trkpt>
<trkpt lat="42.133635" lon="23.151349"><ele>693.9</ele><time>2026-04-13T11:57:05.000Z</time></trkpt>
<trkpt lat="42.133634" lon="23.151353"><ele>693.9</ele><time>2026-04-13T11:57:06.000Z</time></trkpt>
<trkpt lat="42.133633" lon="23.151358"><ele>693.9</ele><time>2026-04-13T11:57:07.000Z</time></trkpt>
<trkpt lat="42.133632" lon="23.151364"><ele>693.6</ele><time>2026-04-13T11:57:08.000Z</time></trkpt>
<trkpt lat="42.13363" lon="23.151371"><ele>693.6</ele><time>2026-04-13T11:57:09.000Z</time></trkpt>
<trkpt lat="42.133629" lon="23.151379"><ele>693.6</ele><time>2026-04-13T11:57:10.000Z</time></trkpt>
<trkpt lat="42.133627" lon="23.151387"><ele>693.6</ele><time>2026-04-13T11:57:11.000Z</time></trkpt>
<trkpt lat="42.133625" lon="23.151396"><ele>693.6</ele><time>2026-04-13T11:57:12.000Z</time></trkpt>
<trkpt lat="42.133624" lon="23.151404"><ele>692.8</ele><time>2026-04-13T11:57:13.000Z</time></trkpt>
<trkpt lat="42.133623" lon="23.151411"><ele>692.8</ele><time>2026-04-13T11:57:14.000Z</time></trkpt>
<trkpt lat="42.133622" lon="23.151417"><ele>692.8</ele><time>2026-04-13T11:57:15.000Z</time></trkpt>
<trkpt lat="42.133621" lon="23.151421"><ele>692.8</ele><time>2026-04-13T11:57:16.000Z</time></trkpt>
<trkpt lat="42.133621" lon="23.151425"><ele>692.8</ele><time>2026-04-13T11:57:17.000Z</time></trkpt>
<trkpt lat="42.133622" lon="23.151428"><ele>691.6</ele><time>2026-04-13T11:57:18.000Z</time></trkpt>
<trkpt lat="42.133623" lon="23.151431"><ele>691.6</ele><time>2026-04-13T11:57:19.000Z</time></trkpt>
<trkpt lat="42.133625" lon="23.151435"><ele>691.6</ele><time>2026-04-13T11:57:20.000Z</time></trkpt>
<trkpt lat="42.133627" lon="23.151439"><ele>691.6</ele><time>2026-04-13T11:57:21.000Z</time></trkpt>
<trkpt lat="42.13363" lon="23.151444"><ele>691.6</ele><time>2026-04-13T11:57:22.000Z</time></trkpt>
<trkpt lat="42.133634" lon="23.15145"><ele>690.9</ele><time>2026-04-13T11:57:23.000Z</time></trkpt>
<trkpt lat="42.133638" lon="23.151455"><ele>690.9</ele><time>2026-04-13T11:57:24.000Z</time></trkpt>
<trkpt lat="42.133644" lon="23.151458"><ele>690.9</ele><time>2026-04-13T11:57:25.000Z</time></trkpt>
<trkpt lat="42.133651" lon="23.15146"><ele>690.9</ele><time>2026-04-13T11:57:26.000Z</time></trkpt>
<trkpt lat="42.133658" lon="23.151459"><ele>690.9</ele><time>2026-04-13T11:57:27.000Z</time></trkpt>
<trkpt lat="42.133666" lon="23.151458"><ele>690.4</ele><time>2026-04-13T11:57:28.000Z</time></trkpt>
<trkpt lat="42.133673" lon="23.151456"><ele>690.4</ele><time>2026-04-13T11:57:29.000Z</time></trkpt>
<trkpt lat="42.133681" lon="23.151454"><ele>690.4</ele><time>2026-04-13T11:57:30.000Z</time></trkpt>
<trkpt lat="42.133688" lon="23.151453"><ele>690.4</ele><time>2026-04-13T11:57:31.000Z</time></trkpt>
<trkpt lat="42.133696" lon="23.151452"><ele>690.4</ele><time>2026-04-13T11:57:32.000Z</time></trkpt>
<trkpt lat="42.133705" lon="23.15145"><ele>690.9</ele><time>2026-04-13T11:57:33.000Z</time></trkpt>
<trkpt lat="42.133714" lon="23.151447"><ele>690.9</ele><time>2026-04-13T11:57:34.000Z</time></trkpt>
<trkpt lat="42.133725" lon="23.151443"><ele>690.9</ele><time>2026-04-13T11:57:35.000Z</time></trkpt>
<trkpt lat="42.133736" lon="23.151439"><ele>690.9</ele><time>2026-04-13T11:57:36.000Z</time></trkpt>
<trkpt lat="42.133748" lon="23.151435"><ele>690.9</ele><time>2026-04-13T11:57:37.000Z</time></trkpt>
<trkpt lat="42.133761" lon="23.151432"><ele>691.2</ele><time>2026-04-13T11:57:38.000Z</time></trkpt>
<trkpt lat="42.133773" lon="23.151429"><ele>691.2</ele><time>2026-04-13T11:57:39.000Z</time></trkpt>
<trkpt lat="42.133784" lon="23.151427"><ele>691.2</ele><time>2026-04-13T11:57:40.000Z</time></trkpt>
<trkpt lat="42.133796" lon="23.151425"><ele>691.2</ele><time>2026-04-13T11:57:41.000Z</time></trkpt>
<trkpt lat="42.133807" lon="23.151424"><ele>691.2</ele><time>2026-04-13T11:57:42.000Z</time></trkpt>
<trkpt lat="42.133818" lon="23.151422"><ele>690.9</ele><time>2026-04-13T11:57:43.000Z</time></trkpt>
<trkpt lat="42.133829" lon="23.15142"><ele>690.9</ele><time>2026-04-13T11:57:44.000Z</time></trkpt>
<trkpt lat="42.133841" lon="23.151418"><ele>690.9</ele><time>2026-04-13T11:57:45.000Z</time></trkpt>
<trkpt lat="42.133852" lon="23.151416"><ele>690.9</ele><time>2026-04-13T11:57:46.000Z</time></trkpt>
<trkpt lat="42.133864" lon="23.151414"><ele>690.9</ele><time>2026-04-13T11:57:47.000Z</time></trkpt>
<trkpt lat="42.133875" lon="23.151412"><ele>689.4</ele><time>2026-04-13T11:57:48.000Z</time></trkpt>
<trkpt lat="42.133886" lon="23.151411"><ele>689.4</ele><time>2026-04-13T11:57:49.000Z</time></trkpt>
<trkpt lat="42.133896" lon="23.151409"><ele>689.4</ele><time>2026-04-13T11:57:50.000Z</time></trkpt>
<trkpt lat="42.133905" lon="23.151408"><ele>689.4</ele><time>2026-04-13T11:57:51.000Z</time></trkpt>
<trkpt lat="42.133915" lon="23.151408"><ele>689.4</ele><time>2026-04-13T11:57:52.000Z</time></trkpt>
<trkpt lat="42.133924" lon="23.151409"><ele>688.5</ele><time>2026-04-13T11:57:53.000Z</time></trkpt>
<trkpt lat="42.133934" lon="23.151411"><ele>688.5</ele><time>2026-04-13T11:57:54.000Z</time></trkpt>
<trkpt lat="42.133944" lon="23.151415"><ele>688.5</ele><time>2026-04-13T11:57:55.000Z</time></trkpt>
<trkpt lat="42.133955" lon="23.151419"><ele>688.5</ele><time>2026-04-13T11:57:56.000Z</time></trkpt>
<trkpt lat="42.133967" lon="23.151423"><ele>688.5</ele><time>2026-04-13T11:57:57.000Z</time></trkpt>
<trkpt lat="42.133978" lon="23.151427"><ele>687.2</ele><time>2026-04-13T11:57:58.000Z</time></trkpt>
<trkpt lat="42.133989" lon="23.151431"><ele>687.2</ele><time>2026-04-13T11:57:59.000Z</time></trkpt>
<trkpt lat="42.134001" lon="23.151433"><ele>687.2</ele><time>2026-04-13T11:58:00.000Z</time></trkpt>
<trkpt lat="42.134013" lon="23.151436"><ele>687.2</ele><time>2026-04-13T11:58:01.000Z</time></trkpt>
<trkpt lat="42.134024" lon="23.15144"><ele>687.2</ele><time>2026-04-13T11:58:02.000Z</time></trkpt>
<trkpt lat="42.134036" lon="23.151443"><ele>686.1</ele><time>2026-04-13T11:58:03.000Z</time></trkpt>
<trkpt lat="42.134046" lon="23.151448"><ele>686.1</ele><time>2026-04-13T11:58:04.000Z</time></trkpt>
<trkpt lat="42.134056" lon="23.151455"><ele>686.1</ele><time>2026-04-13T11:58:05.000Z</time></trkpt>
<trkpt lat="42.134064" lon="23.151464"><ele>686.1</ele><time>2026-04-13T11:58:06.000Z</time></trkpt>
<trkpt lat="42.13407" lon="23.151474"><ele>686.1</ele><time>2026-04-13T11:58:07.000Z</time></trkpt>
<trkpt lat="42.134075" lon="23.151486"><ele>685.3</ele><time>2026-04-13T11:58:08.000Z</time></trkpt>
<trkpt lat="42.134079" lon="23.1515"><ele>685.3</ele><time>2026-04-13T11:58:09.000Z</time></trkpt>
<trkpt lat="42.134082" lon="23.151513"><ele>685.3</ele><time>2026-04-13T11:58:10.000Z</time></trkpt>
<trkpt lat="42.134085" lon="23.151526"><ele>685.3</ele><time>2026-04-13T11:58:11.000Z</time></trkpt>
<trkpt lat="42.134088" lon="23.151539"><ele>685.3</ele><time>2026-04-13T11:58:12.000Z</time></trkpt>
<trkpt lat="42.134091" lon="23.151552"><ele>683.7</ele><time>2026-04-13T11:58:13.000Z</time></trkpt>
<trkpt lat="42.134095" lon="23.151565"><ele>683.7</ele><time>2026-04-13T11:58:14.000Z</time></trkpt>
<trkpt lat="42.134099" lon="23.151578"><ele>683.7</ele><time>2026-04-13T11:58:15.000Z</time></trkpt>
<trkpt lat="42.134104" lon="23.151591"><ele>683.7</ele><time>2026-04-13T11:58:16.000Z</time></trkpt>
<trkpt lat="42.13411" lon="23.151605"><ele>683.7</ele><time>2026-04-13T11:58:17.000Z</time></trkpt>
<trkpt lat="42.134116" lon="23.151618"><ele>682.6</ele><time>2026-04-13T11:58:18.000Z</time></trkpt>
<trkpt lat="42.134122" lon="23.151631"><ele>682.6</ele><time>2026-04-13T11:58:19.000Z</time></trkpt>
<trkpt lat="42.13413" lon="23.151644"><ele>682.6</ele><time>2026-04-13T11:58:20.000Z</time></trkpt>
<trkpt lat="42.134137" lon="23.151656"><ele>682.6</ele><time>2026-04-13T11:58:21.000Z</time></trkpt>
<trkpt lat="42.134146" lon="23.151668"><ele>682.6</ele><time>2026-04-13T11:58:22.000Z</time></trkpt>
<trkpt lat="42.134154" lon="23.15168"><ele>682.3</ele><time>2026-04-13T11:58:23.000Z</time></trkpt>
<trkpt lat="42.134163" lon="23.151692"><ele>682.3</ele><time>2026-04-13T11:58:24.000Z</time></trkpt>
<trkpt lat="42.134171" lon="23.151703"><ele>682.3</ele><time>2026-04-13T11:58:25.000Z</time></trkpt>
<trkpt lat="42.134179" lon="23.151714"><ele>682.3</ele><time>2026-04-13T11:58:26.000Z</time></trkpt>
<trkpt lat="42.134187" lon="23.151726"><ele>682.3</ele><time>2026-04-13T11:58:27.000Z</time></trkpt>
<trkpt lat="42.134194" lon="23.151737"><ele>681.6</ele><time>2026-04-13T11:58:28.000Z</time></trkpt>
<trkpt lat="42.134201" lon="23.151747"><ele>681.6</ele><time>2026-04-13T11:58:29.000Z</time></trkpt>
<trkpt lat="42.134208" lon="23.151758"><ele>681.6</ele><time>2026-04-13T11:58:30.000Z</time></trkpt>
<trkpt lat="42.134215" lon="23.151768"><ele>681.6</ele><time>2026-04-13T11:58:31.000Z</time></trkpt>
<trkpt lat="42.134222" lon="23.151779"><ele>681.6</ele><time>2026-04-13T11:58:32.000Z</time></trkpt>
<trkpt lat="42.134229" lon="23.15179"><ele>680.7</ele><time>2026-04-13T11:58:33.000Z</time></trkpt>
<trkpt lat="42.134236" lon="23.151802"><ele>680.7</ele><time>2026-04-13T11:58:34.000Z</time></trkpt>
<trkpt lat="42.134241" lon="23.151813"><ele>680.7</ele><time>2026-04-13T11:58:35.000Z</time></trkpt>
<trkpt lat="42.134247" lon="23.151825"><ele>680.7</ele><time>2026-04-13T11:58:36.000Z</time></trkpt>
<trkpt lat="42.134251" lon="23.151836"><ele>680.7</ele><time>2026-04-13T11:58:37.000Z</time></trkpt>
<trkpt lat="42.134255" lon="23.151847"><ele>680.1</ele><time>2026-04-13T11:58:38.000Z</time></trkpt>
<trkpt lat="42.134259" lon="23.151856"><ele>680.1</ele><time>2026-04-13T11:58:39.000Z</time></trkpt>
<trkpt lat="42.134262" lon="23.151864"><ele>680.1</ele><time>2026-04-13T11:58:40.000Z</time></trkpt>
<trkpt lat="42.134264" lon="23.15187"><ele>680.1</ele><time>2026-04-13T11:58:41.000Z</time></trkpt>
<trkpt lat="42.134267" lon="23.151873"><ele>680.1</ele><time>2026-04-13T11:58:42.000Z</time></trkpt>
<trkpt lat="42.134268" lon="23.151875"><ele>679</ele><time>2026-04-13T11:58:43.000Z</time></trkpt>
<trkpt lat="42.134269" lon="23.151877"><ele>679</ele><time>2026-04-13T11:58:44.000Z</time></trkpt>
<trkpt lat="42.134269" lon="23.151877"><ele>679</ele><time>2026-04-13T11:58:45.000Z</time></trkpt>
<trkpt lat="42.134268" lon="23.151878"><ele>679</ele><time>2026-04-13T11:58:46.000Z</time></trkpt>
<trkpt lat="42.134267" lon="23.151877"><ele>679</ele><time>2026-04-13T11:58:47.000Z</time></trkpt>
<trkpt lat="42.134266" lon="23.151877"><ele>678.3</ele><time>2026-04-13T11:58:48.000Z</time></trkpt>
<trkpt lat="42.134265" lon="23.151876"><ele>678.3</ele><time>2026-04-13T11:58:49.000Z</time></trkpt>
<trkpt lat="42.134264" lon="23.151875"><ele>678.3</ele><time>2026-04-13T11:58:50.000Z</time></trkpt>
<trkpt lat="42.134264" lon="23.151875"><ele>678.3</ele><time>2026-04-13T11:58:51.000Z</time></trkpt>
<trkpt lat="42.134263" lon="23.151874"><ele>678.3</ele><time>2026-04-13T11:58:52.000Z</time></trkpt>
<trkpt lat="42.134262" lon="23.151873"><ele>678</ele><time>2026-04-13T11:58:53.000Z</time></trkpt>
<trkpt lat="42.134262" lon="23.151873"><ele>678</ele><time>2026-04-13T11:58:54.000Z</time></trkpt>
<trkpt lat="42.134261" lon="23.151872"><ele>678</ele><time>2026-04-13T11:58:55.000Z</time></trkpt>
<trkpt lat="42.134261" lon="23.151871"><ele>678</ele><time>2026-04-13T11:58:56.000Z</time></trkpt>
<trkpt lat="42.134261" lon="23.15187"><ele>678</ele><time>2026-04-13T11:58:57.000Z</time></trkpt>
<trkpt lat="42.134261" lon="23.15187"><ele>677.7</ele><time>2026-04-13T11:58:58.000Z</time></trkpt>
<trkpt lat="42.134261" lon="23.151869"><ele>677.7</ele><time>2026-04-13T11:58:59.000Z</time></trkpt>
<trkpt lat="42.134261" lon="23.151869"><ele>677.7</ele><time>2026-04-13T11:59:00.000Z</time></trkpt>
<trkpt lat="42.134262" lon="23.151869"><ele>677.7</ele><time>2026-04-13T11:59:01.000Z</time></trkpt>
<trkpt lat="42.134262" lon="23.151869"><ele>677.7</ele><time>2026-04-13T11:59:02.000Z</time></trkpt>
<trkpt lat="42.134262" lon="23.15187"><ele>677.5</ele><time>2026-04-13T11:59:03.000Z</time></trkpt>
<trkpt lat="42.134262" lon="23.15187"><ele>677.5</ele><time>2026-04-13T11:59:04.000Z</time></trkpt>
<trkpt lat="42.134263" lon="23.15187"><ele>677.5</ele><time>2026-04-13T11:59:05.000Z</time></trkpt>
<trkpt lat="42.134263" lon="23.15187"><ele>677.5</ele><time>2026-04-13T11:59:06.000Z</time></trkpt>
<trkpt lat="42.134263" lon="23.151871"><ele>677.5</ele><time>2026-04-13T11:59:07.000Z</time></trkpt>
<trkpt lat="42.134262" lon="23.151872"><ele>677.5</ele><time>2026-04-13T11:59:08.000Z</time></trkpt>
<trkpt lat="42.134262" lon="23.151872"><ele>677.5</ele><time>2026-04-13T11:59:09.000Z</time></trkpt>
<trkpt lat="42.13426" lon="23.151873"><ele>677.5</ele><time>2026-04-13T11:59:10.000Z</time></trkpt>
<trkpt lat="42.134258" lon="23.151873"><ele>677.5</ele><time>2026-04-13T11:59:11.000Z</time></trkpt>
<trkpt lat="42.134256" lon="23.151874"><ele>677.5</ele><time>2026-04-13T11:59:12.000Z</time></trkpt>
<trkpt lat="42.134253" lon="23.151874"><ele>677.5</ele><time>2026-04-13T11:59:13.000Z</time></trkpt>
<trkpt lat="42.134251" lon="23.151875"><ele>677.5</ele><time>2026-04-13T11:59:14.000Z</time></trkpt>
<trkpt lat="42.134247" lon="23.151876"><ele>677.5</ele><time>2026-04-13T11:59:15.000Z</time></trkpt>
<trkpt lat="42.134243" lon="23.151879"><ele>677.5</ele><time>2026-04-13T11:59:16.000Z</time></trkpt>
<trkpt lat="42.134237" lon="23.151881"><ele>677.5</ele><time>2026-04-13T11:59:17.000Z</time></trkpt>
<trkpt lat="42.134231" lon="23.151884"><ele>677.3</ele><time>2026-04-13T11:59:18.000Z</time></trkpt>
<trkpt lat="42.134224" lon="23.151887"><ele>677.3</ele><time>2026-04-13T11:59:19.000Z</time></trkpt>
<trkpt lat="42.134217" lon="23.151889"><ele>677.3</ele><time>2026-04-13T11:59:20.000Z</time></trkpt>
<trkpt lat="42.134211" lon="23.151889"><ele>677.3</ele><time>2026-04-13T11:59:21.000Z</time></trkpt>
<trkpt lat="42.134205" lon="23.151888"><ele>677.3</ele><time>2026-04-13T11:59:22.000Z</time></trkpt>
<trkpt lat="42.134201" lon="23.151887"><ele>677</ele><time>2026-04-13T11:59:23.000Z</time></trkpt>
<trkpt lat="42.134198" lon="23.151886"><ele>677</ele><time>2026-04-13T11:59:24.000Z</time></trkpt>
<trkpt lat="42.134193" lon="23.151884"><ele>677</ele><time>2026-04-13T11:59:25.000Z</time></trkpt>
<trkpt lat="42.134188" lon="23.151882"><ele>677</ele><time>2026-04-13T11:59:26.000Z</time></trkpt>
<trkpt lat="42.134182" lon="23.151881"><ele>677</ele><time>2026-04-13T11:59:27.000Z</time></trkpt>
<trkpt lat="42.134174" lon="23.151879"><ele>676.3</ele><time>2026-04-13T11:59:28.000Z</time></trkpt>
<trkpt lat="42.134164" lon="23.151877"><ele>676.3</ele><time>2026-04-13T11:59:29.000Z</time></trkpt>
<trkpt lat="42.134154" lon="23.151875"><ele>676.3</ele><time>2026-04-13T11:59:30.000Z</time></trkpt>
<trkpt lat="42.134143" lon="23.151874"><ele>676.3</ele><time>2026-04-13T11:59:31.000Z</time></trkpt>
<trkpt lat="42.134131" lon="23.151873"><ele>676.3</ele><time>2026-04-13T11:59:32.000Z</time></trkpt>
<trkpt lat="42.134118" lon="23.151872"><ele>675.3</ele><time>2026-04-13T11:59:33.000Z</time></trkpt>
<trkpt lat="42.134106" lon="23.151873"><ele>675.3</ele><time>2026-04-13T11:59:34.000Z</time></trkpt>
<trkpt lat="42.134093" lon="23.151874"><ele>675.3</ele><time>2026-04-13T11:59:35.000Z</time></trkpt>
<trkpt lat="42.13408" lon="23.151876"><ele>675.3</ele><time>2026-04-13T11:59:36.000Z</time></trkpt>
<trkpt lat="42.134068" lon="23.151878"><ele>675.3</ele><time>2026-04-13T11:59:37.000Z</time></trkpt>
<trkpt lat="42.134056" lon="23.151881"><ele>674.8</ele><time>2026-04-13T11:59:38.000Z</time></trkpt>
<trkpt lat="42.134045" lon="23.151884"><ele>674.8</ele><time>2026-04-13T11:59:39.000Z</time></trkpt>
<trkpt lat="42.134034" lon="23.151888"><ele>674.8</ele><time>2026-04-13T11:59:40.000Z</time></trkpt>
<trkpt lat="42.134023" lon="23.151892"><ele>674.8</ele><time>2026-04-13T11:59:41.000Z</time></trkpt>
<trkpt lat="42.134013" lon="23.151895"><ele>674.8</ele><time>2026-04-13T11:59:42.000Z</time></trkpt>
<trkpt lat="42.134003" lon="23.151898"><ele>673.4</ele><time>2026-04-13T11:59:43.000Z</time></trkpt>
<trkpt lat="42.133993" lon="23.151901"><ele>673.4</ele><time>2026-04-13T11:59:44.000Z</time></trkpt>
<trkpt lat="42.133984" lon="23.151902"><ele>673.4</ele><time>2026-04-13T11:59:45.000Z</time></trkpt>
<trkpt lat="42.133975" lon="23.151903"><ele>673.4</ele><time>2026-04-13T11:59:46.000Z</time></trkpt>
<trkpt lat="42.133967" lon="23.151903"><ele>673.4</ele><time>2026-04-13T11:59:47.000Z</time></trkpt>
<trkpt lat="42.13396" lon="23.151903"><ele>671.7</ele><time>2026-04-13T11:59:48.000Z</time></trkpt>
<trkpt lat="42.133955" lon="23.151904"><ele>671.7</ele><time>2026-04-13T11:59:49.000Z</time></trkpt>
<trkpt lat="42.133951" lon="23.151906"><ele>671.7</ele><time>2026-04-13T11:59:50.000Z</time></trkpt>
<trkpt lat="42.133947" lon="23.151908"><ele>671.7</ele><time>2026-04-13T11:59:51.000Z</time></trkpt>
<trkpt lat="42.133944" lon="23.151912"><ele>671.7</ele><time>2026-04-13T11:59:52.000Z</time></trkpt>
<trkpt lat="42.13394" lon="23.151915"><ele>670.9</ele><time>2026-04-13T11:59:53.000Z</time></trkpt>
<trkpt lat="42.133936" lon="23.151919"><ele>670.9</ele><time>2026-04-13T11:59:54.000Z</time></trkpt>
<trkpt lat="42.133932" lon="23.151924"><ele>670.9</ele><time>2026-04-13T11:59:55.000Z</time></trkpt>
<trkpt lat="42.133929" lon="23.15193"><ele>670.9</ele><time>2026-04-13T11:59:56.000Z</time></trkpt>
<trkpt lat="42.133927" lon="23.151937"><ele>670.9</ele><time>2026-04-13T11:59:57.000Z</time></trkpt>
<trkpt lat="42.133927" lon="23.151944"><ele>669.9</ele><time>2026-04-13T11:59:58.000Z</time></trkpt>
<trkpt lat="42.133929" lon="23.151953"><ele>669.9</ele><time>2026-04-13T11:59:59.000Z</time></trkpt>
<trkpt lat="42.133932" lon="23.151963"><ele>669.9</ele><time>2026-04-13T12:00:00.000Z</time></trkpt>
<trkpt lat="42.133936" lon="23.151975"><ele>669.9</ele><time>2026-04-13T12:00:01.000Z</time></trkpt>
<trkpt lat="42.133939" lon="23.151987"><ele>669.9</ele><time>2026-04-13T12:00:02.000Z</time></trkpt>
<trkpt lat="42.13394" lon="23.152001"><ele>669.1</ele><time>2026-04-13T12:00:03.000Z</time></trkpt>
<trkpt lat="42.133938" lon="23.152013"><ele>669.1</ele><time>2026-04-13T12:00:04.000Z</time></trkpt>
<trkpt lat="42.133933" lon="23.152024"><ele>669.1</ele><time>2026-04-13T12:00:05.000Z</time></trkpt>
<trkpt lat="42.133924" lon="23.152033"><ele>669.1</ele><time>2026-04-13T12:00:06.000Z</time></trkpt>
<trkpt lat="42.133914" lon="23.152039"><ele>669.1</ele><time>2026-04-13T12:00:07.000Z</time></trkpt>
<trkpt lat="42.133904" lon="23.152043"><ele>668.6</ele><time>2026-04-13T12:00:08.000Z</time></trkpt>
<trkpt lat="42.133894" lon="23.152046"><ele>668.6</ele><time>2026-04-13T12:00:09.000Z</time></trkpt>
<trkpt lat="42.133884" lon="23.152047"><ele>668.6</ele><time>2026-04-13T12:00:10.000Z</time></trkpt>
<trkpt lat="42.133874" lon="23.152047"><ele>668.6</ele><time>2026-04-13T12:00:11.000Z</time></trkpt>
<trkpt lat="42.133864" lon="23.152045"><ele>668.6</ele><time>2026-04-13T12:00:12.000Z</time></trkpt>
<trkpt lat="42.133855" lon="23.152042"><ele>667</ele><time>2026-04-13T12:00:13.000Z</time></trkpt>
<trkpt lat="42.133845" lon="23.152036"><ele>667</ele><time>2026-04-13T12:00:14.000Z</time></trkpt>
<trkpt lat="42.133836" lon="23.152029"><ele>667</ele><time>2026-04-13T12:00:15.000Z</time></trkpt>
<trkpt lat="42.133827" lon="23.15202"><ele>667</ele><time>2026-04-13T12:00:16.000Z</time></trkpt>
<trkpt lat="42.133819" lon="23.152011"><ele>667</ele><time>2026-04-13T12:00:17.000Z</time></trkpt>
<trkpt lat="42.133811" lon="23.152001"><ele>665.3</ele><time>2026-04-13T12:00:18.000Z</time></trkpt>
<trkpt lat="42.133803" lon="23.151991"><ele>665.3</ele><time>2026-04-13T12:00:19.000Z</time></trkpt>
<trkpt lat="42.133796" lon="23.151983"><ele>665.3</ele><time>2026-04-13T12:00:20.000Z</time></trkpt>
<trkpt lat="42.133787" lon="23.151977"><ele>665.3</ele><time>2026-04-13T12:00:21.000Z</time></trkpt>
<trkpt lat="42.133779" lon="23.151972"><ele>665.3</ele><time>2026-04-13T12:00:22.000Z</time></trkpt>
<trkpt lat="42.13377" lon="23.151968"><ele>664.6</ele><time>2026-04-13T12:00:23.000Z</time></trkpt>
<trkpt lat="42.133761" lon="23.151964"><ele>664.6</ele><time>2026-04-13T12:00:24.000Z</time></trkpt>
<trkpt lat="42.133752" lon="23.151961"><ele>664.6</ele><time>2026-04-13T12:00:25.000Z</time></trkpt>
<trkpt lat="42.133742" lon="23.151956"><ele>664.6</ele><time>2026-04-13T12:00:26.000Z</time></trkpt>
<trkpt lat="42.133733" lon="23.151952"><ele>664.6</ele><time>2026-04-13T12:00:27.000Z</time></trkpt>
<trkpt lat="42.133725" lon="23.151949"><ele>663.4</ele><time>2026-04-13T12:00:28.000Z</time></trkpt>
<trkpt lat="42.133716" lon="23.151946"><ele>663.4</ele><time>2026-04-13T12:00:29.000Z</time></trkpt>
<trkpt lat="42.133707" lon="23.151945"><ele>663.4</ele><time>2026-04-13T12:00:30.000Z</time></trkpt>
<trkpt lat="42.133699" lon="23.151944"><ele>663.4</ele><time>2026-04-13T12:00:31.000Z</time></trkpt>
<trkpt lat="42.13369" lon="23.151943"><ele>663.4</ele><time>2026-04-13T12:00:32.000Z</time></trkpt>
<trkpt lat="42.13368" lon="23.151941"><ele>662.5</ele><time>2026-04-13T12:00:33.000Z</time></trkpt>
<trkpt lat="42.133671" lon="23.151939"><ele>662.5</ele><time>2026-04-13T12:00:34.000Z</time></trkpt>
<trkpt lat="42.133663" lon="23.151937"><ele>662.5</ele><time>2026-04-13T12:00:35.000Z</time></trkpt>
<trkpt lat="42.133654" lon="23.151933"><ele>662.5</ele><time>2026-04-13T12:00:36.000Z</time></trkpt>
<trkpt lat="42.133645" lon="23.15193"><ele>662.5</ele><time>2026-04-13T12:00:37.000Z</time></trkpt>
<trkpt lat="42.133636" lon="23.151926"><ele>662.1</ele><time>2026-04-13T12:00:38.000Z</time></trkpt>
<trkpt lat="42.133628" lon="23.151922"><ele>662.1</ele><time>2026-04-13T12:00:39.000Z</time></trkpt>
<trkpt lat="42.13362" lon="23.151918"><ele>662.1</ele><time>2026-04-13T12:00:40.000Z</time></trkpt>
<trkpt lat="42.133614" lon="23.151913"><ele>662.1</ele><time>2026-04-13T12:00:41.000Z</time></trkpt>
<trkpt lat="42.133608" lon="23.151909"><ele>662.1</ele><time>2026-04-13T12:00:42.000Z</time></trkpt>
<trkpt lat="42.133602" lon="23.151905"><ele>661.1</ele><time>2026-04-13T12:00:43.000Z</time></trkpt>
<trkpt lat="42.133596" lon="23.151902"><ele>661.1</ele><time>2026-04-13T12:00:44.000Z</time></trkpt>
<trkpt lat="42.13359" lon="23.1519"><ele>661.1</ele><time>2026-04-13T12:00:45.000Z</time></trkpt>
<trkpt lat="42.133585" lon="23.151897"><ele>661.1</ele><time>2026-04-13T12:00:46.000Z</time></trkpt>
<trkpt lat="42.133579" lon="23.151895"><ele>661.1</ele><time>2026-04-13T12:00:47.000Z</time></trkpt>
<trkpt lat="42.133572" lon="23.151891"><ele>660.1</ele><time>2026-04-13T12:00:48.000Z</time></trkpt>
<trkpt lat="42.133566" lon="23.151888"><ele>660.1</ele><time>2026-04-13T12:00:49.000Z</time></trkpt>
<trkpt lat="42.133559" lon="23.151885"><ele>660.1</ele><time>2026-04-13T12:00:50.000Z</time></trkpt>
<trkpt lat="42.133552" lon="23.151882"><ele>660.1</ele><time>2026-04-13T12:00:51.000Z</time></trkpt>
<trkpt lat="42.133545" lon="23.151881"><ele>660.1</ele><time>2026-04-13T12:00:52.000Z</time></trkpt>
<trkpt lat="42.133538" lon="23.151881"><ele>659.6</ele><time>2026-04-13T12:00:53.000Z</time></trkpt>
<trkpt lat="42.133531" lon="23.151881"><ele>659.6</ele><time>2026-04-13T12:00:54.000Z</time></trkpt>
<trkpt lat="42.133524" lon="23.151881"><ele>659.6</ele><time>2026-04-13T12:00:55.000Z</time></trkpt>
<trkpt lat="42.133518" lon="23.151881"><ele>659.6</ele><time>2026-04-13T12:00:56.000Z</time></trkpt>
<trkpt lat="42.133513" lon="23.151881"><ele>659.6</ele><time>2026-04-13T12:00:57.000Z</time></trkpt>
<trkpt lat="42.13351" lon="23.151881"><ele>658.7</ele><time>2026-04-13T12:00:58.000Z</time></trkpt>
<trkpt lat="42.133507" lon="23.151882"><ele>658.7</ele><time>2026-04-13T12:00:59.000Z</time></trkpt>
<trkpt lat="42.133506" lon="23.151882"><ele>658.7</ele><time>2026-04-13T12:01:00.000Z</time></trkpt>
<trkpt lat="42.133505" lon="23.151883"><ele>658.7</ele><time>2026-04-13T12:01:01.000Z</time></trkpt>
<trkpt lat="42.133503" lon="23.151882"><ele>658.7</ele><time>2026-04-13T12:01:02.000Z</time></trkpt>
<trkpt lat="42.1335" lon="23.15188"><ele>657.6</ele><time>2026-04-13T12:01:03.000Z</time></trkpt>
<trkpt lat="42.133496" lon="23.151877"><ele>657.6</ele><time>2026-04-13T12:01:04.000Z</time></trkpt>
<trkpt lat="42.133491" lon="23.151875"><ele>657.6</ele><time>2026-04-13T12:01:05.000Z</time></trkpt>
<trkpt lat="42.133485" lon="23.151873"><ele>657.6</ele><time>2026-04-13T12:01:06.000Z</time></trkpt>
<trkpt lat="42.133477" lon="23.151871"><ele>657.6</ele><time>2026-04-13T12:01:07.000Z</time></trkpt>
<trkpt lat="42.13347" lon="23.151869"><ele>657.3</ele><time>2026-04-13T12:01:08.000Z</time></trkpt>
<trkpt lat="42.133461" lon="23.151868"><ele>657.3</ele><time>2026-04-13T12:01:09.000Z</time></trkpt>
<trkpt lat="42.133451" lon="23.151866"><ele>657.3</ele><time>2026-04-13T12:01:10.000Z</time></trkpt>
<trkpt lat="42.133442" lon="23.151864"><ele>657.3</ele><time>2026-04-13T12:01:11.000Z</time></trkpt>
<trkpt lat="42.133432" lon="23.151861"><ele>657.3</ele><time>2026-04-13T12:01:12.000Z</time></trkpt>
<trkpt lat="42.133422" lon="23.151857"><ele>657.2</ele><time>2026-04-13T12:01:13.000Z</time></trkpt>
<trkpt lat="42.133412" lon="23.151853"><ele>657.2</ele><time>2026-04-13T12:01:14.000Z</time></trkpt>
<trkpt lat="42.133402" lon="23.151849"><ele>657.2</ele><time>2026-04-13T12:01:15.000Z</time></trkpt>
<trkpt lat="42.133392" lon="23.151845"><ele>657.2</ele><time>2026-04-13T12:01:16.000Z</time></trkpt>
<trkpt lat="42.133385" lon="23.151839"><ele>657.2</ele><time>2026-04-13T12:01:17.000Z</time></trkpt>
<trkpt lat="42.133379" lon="23.151833"><ele>657.4</ele><time>2026-04-13T12:01:18.000Z</time></trkpt>
<trkpt lat="42.133372" lon="23.151829"><ele>657.4</ele><time>2026-04-13T12:01:19.000Z</time></trkpt>
<trkpt lat="42.133366" lon="23.151824"><ele>657.4</ele><time>2026-04-13T12:01:20.000Z</time></trkpt>
<trkpt lat="42.13336" lon="23.15182"><ele>657.4</ele><time>2026-04-13T12:01:21.000Z</time></trkpt>
<trkpt lat="42.133352" lon="23.151819"><ele>657.4</ele><time>2026-04-13T12:01:22.000Z</time></trkpt>
<trkpt lat="42.133344" lon="23.151819"><ele>657.5</ele><time>2026-04-13T12:01:23.000Z</time></trkpt>
<trkpt lat="42.133337" lon="23.151819"><ele>657.5</ele><time>2026-04-13T12:01:24.000Z</time></trkpt>
<trkpt lat="42.13333" lon="23.15182"><ele>657.5</ele><time>2026-04-13T12:01:25.000Z</time></trkpt>
<trkpt lat="42.133323" lon="23.151821"><ele>657.5</ele><time>2026-04-13T12:01:26.000Z</time></trkpt>
<trkpt lat="42.133316" lon="23.151822"><ele>657.5</ele><time>2026-04-13T12:01:27.000Z</time></trkpt>
<trkpt lat="42.133309" lon="23.151822"><ele>657.4</ele><time>2026-04-13T12:01:28.000Z</time></trkpt>
<trkpt lat="42.133302" lon="23.151821"><ele>657.4</ele><time>2026-04-13T12:01:29.000Z</time></trkpt>
<trkpt lat="42.133296" lon="23.15182"><ele>657.4</ele><time>2026-04-13T12:01:30.000Z</time></trkpt>
<trkpt lat="42.13329" lon="23.151817"><ele>657.4</ele><time>2026-04-13T12:01:31.000Z</time></trkpt>
<trkpt lat="42.133284" lon="23.151814"><ele>657.4</ele><time>2026-04-13T12:01:32.000Z</time></trkpt>
<trkpt lat="42.133279" lon="23.15181"><ele>657.9</ele><time>2026-04-13T12:01:33.000Z</time></trkpt>
<trkpt lat="42.133275" lon="23.151806"><ele>657.9</ele><time>2026-04-13T12:01:34.000Z</time></trkpt>
<trkpt lat="42.13327" lon="23.151803"><ele>657.9</ele><time>2026-04-13T12:01:35.000Z</time></trkpt>
<trkpt lat="42.133267" lon="23.151799"><ele>657.9</ele><time>2026-04-13T12:01:36.000Z</time></trkpt>
<trkpt lat="42.133263" lon="23.151797"><ele>657.9</ele><time>2026-04-13T12:01:37.000Z</time></trkpt>
<trkpt lat="42.133259" lon="23.151795"><ele>658.4</ele><time>2026-04-13T12:01:38.000Z</time></trkpt>
<trkpt lat="42.133255" lon="23.151793"><ele>658.4</ele><time>2026-04-13T12:01:39.000Z</time></trkpt>
<trkpt lat="42.133252" lon="23.151792"><ele>658.4</ele><time>2026-04-13T12:01:40.000Z</time></trkpt>
<trkpt lat="42.133249" lon="23.15179"><ele>658.4</ele><time>2026-04-13T12:01:41.000Z</time></trkpt>
<trkpt lat="42.133247" lon="23.151788"><ele>658.4</ele><time>2026-04-13T12:01:42.000Z</time></trkpt>
<trkpt lat="42.133247" lon="23.151786"><ele>660</ele><time>2026-04-13T12:01:43.000Z</time></trkpt>
<trkpt lat="42.133247" lon="23.151784"><ele>660</ele><time>2026-04-13T12:01:44.000Z</time></trkpt>
<trkpt lat="42.133247" lon="23.151782"><ele>660</ele><time>2026-04-13T12:01:45.000Z</time></trkpt>
<trkpt lat="42.133247" lon="23.151782"><ele>660</ele><time>2026-04-13T12:01:46.000Z</time></trkpt>
<trkpt lat="42.133247" lon="23.151781"><ele>660</ele><time>2026-04-13T12:01:47.000Z</time></trkpt>
<trkpt lat="42.133247" lon="23.151781"><ele>661.6</ele><time>2026-04-13T12:01:48.000Z</time></trkpt>
<trkpt lat="42.133248" lon="23.151782"><ele>661.6</ele><time>2026-04-13T12:01:49.000Z</time></trkpt>
<trkpt lat="42.133248" lon="23.151783"><ele>661.6</ele><time>2026-04-13T12:01:50.000Z</time></trkpt>
<trkpt lat="42.133249" lon="23.151783"><ele>661.6</ele><time>2026-04-13T12:01:51.000Z</time></trkpt>
<trkpt lat="42.133249" lon="23.151784"><ele>661.6</ele><time>2026-04-13T12:01:52.000Z</time></trkpt>
<trkpt lat="42.133249" lon="23.151785"><ele>662.1</ele><time>2026-04-13T12:01:53.000Z</time></trkpt>
<trkpt lat="42.133249" lon="23.151785"><ele>662.1</ele><time>2026-04-13T12:01:54.000Z</time></trkpt>
<trkpt lat="42.133248" lon="23.151786"><ele>662.1</ele><time>2026-04-13T12:01:55.000Z</time></trkpt>
<trkpt lat="42.133247" lon="23.151786"><ele>662.1</ele><time>2026-04-13T12:01:56.000Z</time></trkpt>
<trkpt lat="42.133247" lon="23.151787"><ele>662.1</ele><time>2026-04-13T12:01:57.000Z</time></trkpt>
<trkpt lat="42.133246" lon="23.151787"><ele>662.3</ele><time>2026-04-13T12:01:58.000Z</time></trkpt>
<trkpt lat="42.133246" lon="23.151788"><ele>662.3</ele><time>2026-04-13T12:01:59.000Z</time></trkpt>
<trkpt lat="42.133245" lon="23.151788"><ele>662.3</ele><time>2026-04-13T12:02:00.000Z</time></trkpt>
<trkpt lat="42.133245" lon="23.151788"><ele>662.3</ele><time>2026-04-13T12:02:01.000Z</time></trkpt>
<trkpt lat="42.133244" lon="23.151789"><ele>662.3</ele><time>2026-04-13T12:02:02.000Z</time></trkpt>
<trkpt lat="42.133244" lon="23.151789"><ele>661.8</ele><time>2026-04-13T12:02:03.000Z</time></trkpt>
<trkpt lat="42.133244" lon="23.151789"><ele>661.8</ele><time>2026-04-13T12:02:04.000Z</time></trkpt>
<trkpt lat="42.133243" lon="23.151789"><ele>661.8</ele><time>2026-04-13T12:02:05.000Z</time></trkpt>
<trkpt lat="42.133243" lon="23.15179"><ele>661.8</ele><time>2026-04-13T12:02:06.000Z</time></trkpt>
<trkpt lat="42.133242" lon="23.15179"><ele>661.8</ele><time>2026-04-13T12:02:07.000Z</time></trkpt>
<trkpt lat="42.133242" lon="23.15179"><ele>661.5</ele><time>2026-04-13T12:02:08.000Z</time></trkpt>
<trkpt lat="42.133242" lon="23.15179"><ele>661.5</ele><time>2026-04-13T12:02:09.000Z</time></trkpt>
<trkpt lat="42.133243" lon="23.151789"><ele>661.5</ele><time>2026-04-13T12:02:10.000Z</time></trkpt>
<trkpt lat="42.133243" lon="23.151789"><ele>661.5</ele><time>2026-04-13T12:02:11.000Z</time></trkpt>
<trkpt lat="42.133243" lon="23.151789"><ele>661.5</ele><time>2026-04-13T12:02:12.000Z</time></trkpt>
<trkpt lat="42.133244" lon="23.151789"><ele>661.4</ele><time>2026-04-13T12:02:13.000Z</time></trkpt>
<trkpt lat="42.133244" lon="23.151789"><ele>661.4</ele><time>2026-04-13T12:02:14.000Z</time></trkpt>
<trkpt lat="42.133244" lon="23.151789"><ele>661.4</ele><time>2026-04-13T12:02:15.000Z</time></trkpt>
<trkpt lat="42.133244" lon="23.15179"><ele>661.4</ele><time>2026-04-13T12:02:16.000Z</time></trkpt>
<trkpt lat="42.133244" lon="23.151791"><ele>661.4</ele><time>2026-04-13T12:02:17.000Z</time></trkpt>
<trkpt lat="42.133244" lon="23.151791"><ele>661.3</ele><time>2026-04-13T12:02:18.000Z</time></trkpt>
<trkpt lat="42.133244" lon="23.151792"><ele>661.3</ele><time>2026-04-13T12:02:19.000Z</time></trkpt>
<trkpt lat="42.133244" lon="23.151792"><ele>661.3</ele><time>2026-04-13T12:02:20.000Z</time></trkpt>
<trkpt lat="42.133244" lon="23.151792"><ele>661.3</ele><time>2026-04-13T12:02:21.000Z</time></trkpt>
<trkpt lat="42.133244" lon="23.151793"><ele>661.3</ele><time>2026-04-13T12:02:22.000Z</time></trkpt>
<trkpt lat="42.133244" lon="23.151793"><ele>661.3</ele><time>2026-04-13T12:02:23.000Z</time></trkpt>
<trkpt lat="42.133245" lon="23.151793"><ele>661.3</ele><time>2026-04-13T12:02:24.000Z</time></trkpt>
<trkpt lat="42.133245" lon="23.151794"><ele>661.3</ele><time>2026-04-13T12:02:25.000Z</time></trkpt>
<trkpt lat="42.133245" lon="23.151794"><ele>661.3</ele><time>2026-04-13T12:02:26.000Z</time></trkpt>
<trkpt lat="42.133245" lon="23.151795"><ele>661.3</ele><time>2026-04-13T12:02:27.000Z</time></trkpt>
<trkpt lat="42.133245" lon="23.151795"><ele>661.1</ele><time>2026-04-13T12:02:28.000Z</time></trkpt>
<trkpt lat="42.133245" lon="23.151795"><ele>661.1</ele><time>2026-04-13T12:02:29.000Z</time></trkpt>
<trkpt lat="42.133246" lon="23.151796"><ele>661.1</ele><time>2026-04-13T12:02:30.000Z</time></trkpt>
<trkpt lat="42.133246" lon="23.151796"><ele>661.1</ele><time>2026-04-13T12:02:31.000Z</time></trkpt>
<trkpt lat="42.133246" lon="23.151796"><ele>661.1</ele><time>2026-04-13T12:02:32.000Z</time></trkpt>
<trkpt lat="42.133246" lon="23.151797"><ele>660.9</ele><time>2026-04-13T12:02:33.000Z</time></trkpt>
<trkpt lat="42.133246" lon="23.151797"><ele>660.9</ele><time>2026-04-13T12:02:34.000Z</time></trkpt>
<trkpt lat="42.133246" lon="23.151797"><ele>660.9</ele><time>2026-04-13T12:02:35.000Z</time></trkpt>
<trkpt lat="42.133247" lon="23.151798"><ele>660.9</ele><time>2026-04-13T12:02:36.000Z</time></trkpt>
<trkpt lat="42.133247" lon="23.151799"><ele>660.9</ele><time>2026-04-13T12:02:37.000Z</time></trkpt>
<trkpt lat="42.133247" lon="23.151799"><ele>660.8</ele><time>2026-04-13T12:02:38.000Z</time></trkpt>
<trkpt lat="42.133247" lon="23.1518"><ele>660.8</ele><time>2026-04-13T12:02:39.000Z</time></trkpt>
<trkpt lat="42.133248" lon="23.1518"><ele>660.8</ele><time>2026-04-13T12:02:40.000Z</time></trkpt>
<trkpt lat="42.133248" lon="23.1518"><ele>660.8</ele><time>2026-04-13T12:02:41.000Z</time></trkpt>
<trkpt lat="42.133248" lon="23.151801"><ele>660.8</ele><time>2026-04-13T12:02:42.000Z</time></trkpt>
<trkpt lat="42.133248" lon="23.151801"><ele>660.9</ele><time>2026-04-13T12:02:43.000Z</time></trkpt>
<trkpt lat="42.133248" lon="23.151801"><ele>660.9</ele><time>2026-04-13T12:02:44.000Z</time></trkpt>
<trkpt lat="42.133248" lon="23.151801"><ele>660.9</ele><time>2026-04-13T12:02:45.000Z</time></trkpt>
<trkpt lat="42.133248" lon="23.151802"><ele>660.9</ele><time>2026-04-13T12:02:46.000Z</time></trkpt>
<trkpt lat="42.133249" lon="23.151802"><ele>660.9</ele><time>2026-04-13T12:02:47.000Z</time></trkpt>
<trkpt lat="42.133249" lon="23.151802"><ele>661.2</ele><time>2026-04-13T12:02:48.000Z</time></trkpt>
<trkpt lat="42.133249" lon="23.151802"><ele>661.2</ele><time>2026-04-13T12:02:49.000Z</time></trkpt>
<trkpt lat="42.133249" lon="23.151803"><ele>661.2</ele><time>2026-04-13T12:02:50.000Z</time></trkpt>
<trkpt lat="42.133249" lon="23.151803"><ele>661.2</ele><time>2026-04-13T12:02:51.000Z</time></trkpt>
<trkpt lat="42.133249" lon="23.151803"><ele>661.2</ele><time>2026-04-13T12:02:52.000Z</time></trkpt>
<trkpt lat="42.133249" lon="23.151803"><ele>661.4</ele><time>2026-04-13T12:02:53.000Z</time></trkpt>
<trkpt lat="42.133248" lon="23.151803"><ele>661.4</ele><time>2026-04-13T12:02:54.000Z</time></trkpt>
<trkpt lat="42.133247" lon="23.151802"><ele>661.4</ele><time>2026-04-13T12:02:55.000Z</time></trkpt>
<trkpt lat="42.133245" lon="23.1518"><ele>661.4</ele><time>2026-04-13T12:02:56.000Z</time></trkpt>
<trkpt lat="42.133242" lon="23.151798"><ele>661.4</ele><time>2026-04-13T12:02:57.000Z</time></trkpt>
<trkpt lat="42.133239" lon="23.151794"><ele>661.5</ele><time>2026-04-13T12:02:58.000Z</time></trkpt>
<trkpt lat="42.133237" lon="23.15179"><ele>661.5</ele><time>2026-04-13T12:02:59.000Z</time></trkpt>
<trkpt lat="42.133235" lon="23.151786"><ele>661.5</ele><time>2026-04-13T12:03:00.000Z</time></trkpt>
<trkpt lat="42.133235" lon="23.151782"><ele>661.5</ele><time>2026-04-13T12:03:01.000Z</time></trkpt>
<trkpt lat="42.133235" lon="23.151779"><ele>661.5</ele><time>2026-04-13T12:03:02.000Z</time></trkpt>
<trkpt lat="42.133236" lon="23.151777"><ele>661.5</ele><time>2026-04-13T12:03:03.000Z</time></trkpt>
<trkpt lat="42.133237" lon="23.151776"><ele>661.5</ele><time>2026-04-13T12:03:04.000Z</time></trkpt>
<trkpt lat="42.133238" lon="23.151776"><ele>661.5</ele><time>2026-04-13T12:03:05.000Z</time></trkpt>
<trkpt lat="42.133239" lon="23.151776"><ele>661.5</ele><time>2026-04-13T12:03:06.000Z</time></trkpt>
<trkpt lat="42.133239" lon="23.151776"><ele>661.5</ele><time>2026-04-13T12:03:07.000Z</time></trkpt>
<trkpt lat="42.13324" lon="23.151776"><ele>661.5</ele><time>2026-04-13T12:03:08.000Z</time></trkpt>
<trkpt lat="42.133241" lon="23.151776"><ele>661.5</ele><time>2026-04-13T12:03:09.000Z</time></trkpt>
<trkpt lat="42.133241" lon="23.151776"><ele>661.5</ele><time>2026-04-13T12:03:10.000Z</time></trkpt>
<trkpt lat="42.133242" lon="23.151777"><ele>661.5</ele><time>2026-04-13T12:03:11.000Z</time></trkpt>
<trkpt lat="42.133243" lon="23.151777"><ele>661.5</ele><time>2026-04-13T12:03:12.000Z</time></trkpt>
<trkpt lat="42.133243" lon="23.151778"><ele>661.7</ele><time>2026-04-13T12:03:13.000Z</time></trkpt>
<trkpt lat="42.133244" lon="23.151778"><ele>661.7</ele><time>2026-04-13T12:03:14.000Z</time></trkpt>
<trkpt lat="42.133244" lon="23.151779"><ele>661.7</ele><time>2026-04-13T12:03:15.000Z</time></trkpt>
<trkpt lat="42.133245" lon="23.151779"><ele>661.7</ele><time>2026-04-13T12:03:16.000Z</time></trkpt>
<trkpt lat="42.133245" lon="23.151779"><ele>661.7</ele><time>2026-04-13T12:03:17.000Z</time></trkpt>
<trkpt lat="42.133246" lon="23.151779"><ele>661.9</ele><time>2026-04-13T12:03:18.000Z</time></trkpt>
<trkpt lat="42.133248" lon="23.151779"><ele>661.9</ele><time>2026-04-13T12:03:19.000Z</time></trkpt>
<trkpt lat="42.13325" lon="23.15178"><ele>661.9</ele><time>2026-04-13T12:03:20.000Z</time></trkpt>
<trkpt lat="42.133253" lon="23.151782"><ele>661.9</ele><time>2026-04-13T12:03:21.000Z</time></trkpt>
<trkpt lat="42.133255" lon="23.151785"><ele>661.9</ele><time>2026-04-13T12:03:22.000Z</time></trkpt>
<trkpt lat="42.133255" lon="23.15179"><ele>662</ele><time>2026-04-13T12:03:23.000Z</time></trkpt>
<trkpt lat="42.133254" lon="23.151796"><ele>662</ele><time>2026-04-13T12:03:24.000Z</time></trkpt>
<trkpt lat="42.133254" lon="23.151801"><ele>662</ele><time>2026-04-13T12:03:25.000Z</time></trkpt>
<trkpt lat="42.133254" lon="23.151804"><ele>662</ele><time>2026-04-13T12:03:26.000Z</time></trkpt>
<trkpt lat="42.133255" lon="23.151805"><ele>662</ele><time>2026-04-13T12:03:27.000Z</time></trkpt>
<trkpt lat="42.133257" lon="23.151803"><ele>662</ele><time>2026-04-13T12:03:28.000Z</time></trkpt>
<trkpt lat="42.133261" lon="23.1518"><ele>662</ele><time>2026-04-13T12:03:29.000Z</time></trkpt>
<trkpt lat="42.133262" lon="23.151798"><ele>662</ele><time>2026-04-13T12:03:30.000Z</time></trkpt>
<trkpt lat="42.133262" lon="23.151796"><ele>662</ele><time>2026-04-13T12:03:31.000Z</time></trkpt>
<trkpt lat="42.133261" lon="23.151794"><ele>662</ele><time>2026-04-13T12:03:32.000Z</time></trkpt>
<trkpt lat="42.13326" lon="23.151793"><ele>661.9</ele><time>2026-04-13T12:03:33.000Z</time></trkpt>
<trkpt lat="42.13326" lon="23.151793"><ele>661.9</ele><time>2026-04-13T12:03:34.000Z</time></trkpt>
<trkpt lat="42.133259" lon="23.151793"><ele>661.9</ele><time>2026-04-13T12:03:35.000Z</time></trkpt>
<trkpt lat="42.133259" lon="23.151793"><ele>661.9</ele><time>2026-04-13T12:03:36.000Z</time></trkpt>
<trkpt lat="42.133259" lon="23.151793"><ele>661.9</ele><time>2026-04-13T12:03:37.000Z</time></trkpt>
<trkpt lat="42.133258" lon="23.151794"><ele>661.8</ele><time>2026-04-13T12:03:38.000Z</time></trkpt>
<trkpt lat="42.133259" lon="23.151794"><ele>661.8</ele><time>2026-04-13T12:03:39.000Z</time></trkpt>
<trkpt lat="42.133261" lon="23.151795"><ele>661.8</ele><time>2026-04-13T12:03:40.000Z</time></trkpt>
<trkpt lat="42.133264" lon="23.151796"><ele>661.8</ele><time>2026-04-13T12:03:41.000Z</time></trkpt>
<trkpt lat="42.133268" lon="23.151798"><ele>661.8</ele><time>2026-04-13T12:03:42.000Z</time></trkpt>
<trkpt lat="42.133273" lon="23.151799"><ele>661.3</ele><time>2026-04-13T12:03:43.000Z</time></trkpt>
<trkpt lat="42.133279" lon="23.151801"><ele>661.3</ele><time>2026-04-13T12:03:44.000Z</time></trkpt>
<trkpt lat="42.133286" lon="23.151802"><ele>661.3</ele><time>2026-04-13T12:03:45.000Z</time></trkpt>
<trkpt lat="42.133293" lon="23.151803"><ele>661.3</ele><time>2026-04-13T12:03:46.000Z</time></trkpt>
<trkpt lat="42.133298" lon="23.151803"><ele>661.3</ele><time>2026-04-13T12:03:47.000Z</time></trkpt>
<trkpt lat="42.133302" lon="23.151803"><ele>660.7</ele><time>2026-04-13T12:03:48.000Z</time></trkpt>
<trkpt lat="42.133305" lon="23.151802"><ele>660.7</ele><time>2026-04-13T12:03:49.000Z</time></trkpt>
<trkpt lat="42.133308" lon="23.151801"><ele>660.7</ele><time>2026-04-13T12:03:50.000Z</time></trkpt>
<trkpt lat="42.13331" lon="23.151799"><ele>660.7</ele><time>2026-04-13T12:03:51.000Z</time></trkpt>
<trkpt lat="42.133314" lon="23.151798"><ele>660.7</ele><time>2026-04-13T12:03:52.000Z</time></trkpt>
<trkpt lat="42.133318" lon="23.151795"><ele>660.4</ele><time>2026-04-13T12:03:53.000Z</time></trkpt>
<trkpt lat="42.133323" lon="23.151793"><ele>660.4</ele><time>2026-04-13T12:03:54.000Z</time></trkpt>
<trkpt lat="42.133329" lon="23.151791"><ele>660.4</ele><time>2026-04-13T12:03:55.000Z</time></trkpt>
<trkpt lat="42.133335" lon="23.151789"><ele>660.4</ele><time>2026-04-13T12:03:56.000Z</time></trkpt>
<trkpt lat="42.133342" lon="23.151788"><ele>660.4</ele><time>2026-04-13T12:03:57.000Z</time></trkpt>
<trkpt lat="42.133349" lon="23.151789"><ele>659.6</ele><time>2026-04-13T12:03:58.000Z</time></trkpt>
<trkpt lat="42.133356" lon="23.151792"><ele>659.6</ele><time>2026-04-13T12:03:59.000Z</time></trkpt>
<trkpt lat="42.133364" lon="23.151796"><ele>659.6</ele><time>2026-04-13T12:04:00.000Z</time></trkpt>
<trkpt lat="42.133371" lon="23.151803"><ele>659.6</ele><time>2026-04-13T12:04:01.000Z</time></trkpt>
<trkpt lat="42.133379" lon="23.151811"><ele>659.6</ele><time>2026-04-13T12:04:02.000Z</time></trkpt>
<trkpt lat="42.133386" lon="23.15182"><ele>658.4</ele><time>2026-04-13T12:04:03.000Z</time></trkpt>
<trkpt lat="42.133393" lon="23.151829"><ele>658.4</ele><time>2026-04-13T12:04:04.000Z</time></trkpt>
<trkpt lat="42.133399" lon="23.151838"><ele>658.4</ele><time>2026-04-13T12:04:05.000Z</time></trkpt>
<trkpt lat="42.133406" lon="23.151845"><ele>658.4</ele><time>2026-04-13T12:04:06.000Z</time></trkpt>
<trkpt lat="42.133412" lon="23.151851"><ele>658.4</ele><time>2026-04-13T12:04:07.000Z</time></trkpt>
<trkpt lat="42.133418" lon="23.151854"><ele>657.8</ele><time>2026-04-13T12:04:08.000Z</time></trkpt>
<trkpt lat="42.133424" lon="23.151855"><ele>657.8</ele><time>2026-04-13T12:04:09.000Z</time></trkpt>
<trkpt lat="42.133429" lon="23.151853"><ele>657.8</ele><time>2026-04-13T12:04:10.000Z</time></trkpt>
<trkpt lat="42.133433" lon="23.15185"><ele>657.8</ele><time>2026-04-13T12:04:11.000Z</time></trkpt>
<trkpt lat="42.133436" lon="23.151844"><ele>657.8</ele><time>2026-04-13T12:04:12.000Z</time></trkpt>
<trkpt lat="42.133439" lon="23.151837"><ele>656.7</ele><time>2026-04-13T12:04:13.000Z</time></trkpt>
<trkpt lat="42.13344" lon="23.151829"><ele>656.7</ele><time>2026-04-13T12:04:14.000Z</time></trkpt>
<trkpt lat="42.133442" lon="23.151822"><ele>656.7</ele><time>2026-04-13T12:04:15.000Z</time></trkpt>
<trkpt lat="42.133442" lon="23.151816"><ele>656.7</ele><time>2026-04-13T12:04:16.000Z</time></trkpt>
<trkpt lat="42.133443" lon="23.15181"><ele>656.7</ele><time>2026-04-13T12:04:17.000Z</time></trkpt>
<trkpt lat="42.133445" lon="23.151805"><ele>656.7</ele><time>2026-04-13T12:04:18.000Z</time></trkpt>
<trkpt lat="42.133447" lon="23.1518"><ele>656.7</ele><time>2026-04-13T12:04:19.000Z</time></trkpt>
<trkpt lat="42.133448" lon="23.151795"><ele>656.7</ele><time>2026-04-13T12:04:20.000Z</time></trkpt>
<trkpt lat="42.13345" lon="23.151789"><ele>656.7</ele><time>2026-04-13T12:04:21.000Z</time></trkpt>
<trkpt lat="42.133452" lon="23.151783"><ele>656.7</ele><time>2026-04-13T12:04:22.000Z</time></trkpt>
<trkpt lat="42.133453" lon="23.151776"><ele>657.1</ele><time>2026-04-13T12:04:23.000Z</time></trkpt>
<trkpt lat="42.133455" lon="23.15177"><ele>657.1</ele><time>2026-04-13T12:04:24.000Z</time></trkpt>
<trkpt lat="42.133458" lon="23.151764"><ele>657.1</ele><time>2026-04-13T12:04:25.000Z</time></trkpt>
<trkpt lat="42.133459" lon="23.151761"><ele>657.1</ele><time>2026-04-13T12:04:26.000Z</time></trkpt>
<trkpt lat="42.13346" lon="23.151761"><ele>657.1</ele><time>2026-04-13T12:04:27.000Z</time></trkpt>
<trkpt lat="42.13346" lon="23.151762"><ele>657.9</ele><time>2026-04-13T12:04:28.000Z</time></trkpt>
<trkpt lat="42.133459" lon="23.151765"><ele>657.9</ele><time>2026-04-13T12:04:29.000Z</time></trkpt>
<trkpt lat="42.133457" lon="23.15177"><ele>657.9</ele><time>2026-04-13T12:04:30.000Z</time></trkpt>
<trkpt lat="42.133456" lon="23.151775"><ele>657.9</ele><time>2026-04-13T12:04:31.000Z</time></trkpt>
<trkpt lat="42.133456" lon="23.151782"><ele>657.9</ele><time>2026-04-13T12:04:32.000Z</time></trkpt>
<trkpt lat="42.133457" lon="23.15179"><ele>658.4</ele><time>2026-04-13T12:04:33.000Z</time></trkpt>
<trkpt lat="42.133458" lon="23.151799"><ele>658.4</ele><time>2026-04-13T12:04:34.000Z</time></trkpt>
<trkpt lat="42.133458" lon="23.151808"><ele>658.4</ele><time>2026-04-13T12:04:35.000Z</time></trkpt>
<trkpt lat="42.133456" lon="23.151817"><ele>658.4</ele><time>2026-04-13T12:04:36.000Z</time></trkpt>
<trkpt lat="42.133454" lon="23.151824"><ele>658.4</ele><time>2026-04-13T12:04:37.000Z</time></trkpt>
<trkpt lat="42.133452" lon="23.151831"><ele>658.5</ele><time>2026-04-13T12:04:38.000Z</time></trkpt>
<trkpt lat="42.13345" lon="23.151837"><ele>658.5</ele><time>2026-04-13T12:04:39.000Z</time></trkpt>
<trkpt lat="42.133449" lon="23.151842"><ele>658.5</ele><time>2026-04-13T12:04:40.000Z</time></trkpt>
<trkpt lat="42.133448" lon="23.151846"><ele>658.5</ele><time>2026-04-13T12:04:41.000Z</time></trkpt>
<trkpt lat="42.133448" lon="23.151849"><ele>658.5</ele><time>2026-04-13T12:04:42.000Z</time></trkpt>
<trkpt lat="42.133448" lon="23.151851"><ele>658.6</ele><time>2026-04-13T12:04:43.000Z</time></trkpt>
<trkpt lat="42.133448" lon="23.151853"><ele>658.6</ele><time>2026-04-13T12:04:44.000Z</time></trkpt>
<trkpt lat="42.133448" lon="23.151854"><ele>658.6</ele><time>2026-04-13T12:04:45.000Z</time></trkpt>
<trkpt lat="42.133448" lon="23.151854"><ele>658.6</ele><time>2026-04-13T12:04:46.000Z</time></trkpt>
<trkpt lat="42.133448" lon="23.151853"><ele>658.6</ele><time>2026-04-13T12:04:47.000Z</time></trkpt>
<trkpt lat="42.133448" lon="23.151853"><ele>658.6</ele><time>2026-04-13T12:04:48.000Z</time></trkpt>
<trkpt lat="42.133449" lon="23.151852"><ele>658.6</ele><time>2026-04-13T12:04:49.000Z</time></trkpt>
<trkpt lat="42.133449" lon="23.151851"><ele>658.6</ele><time>2026-04-13T12:04:50.000Z</time></trkpt>
<trkpt lat="42.133449" lon="23.151851"><ele>658.6</ele><time>2026-04-13T12:04:51.000Z</time></trkpt>
<trkpt lat="42.133449" lon="23.15185"><ele>658.6</ele><time>2026-04-13T12:04:52.000Z</time></trkpt>
<trkpt lat="42.13345" lon="23.15185"><ele>658.6</ele><time>2026-04-13T12:04:53.000Z</time></trkpt>
<trkpt lat="42.13345" lon="23.151849"><ele>658.6</ele><time>2026-04-13T12:04:54.000Z</time></trkpt>
<trkpt lat="42.13345" lon="23.151849"><ele>658.6</ele><time>2026-04-13T12:04:55.000Z</time></trkpt>
<trkpt lat="42.13345" lon="23.151848"><ele>658.6</ele><time>2026-04-13T12:04:56.000Z</time></trkpt>
<trkpt lat="42.133451" lon="23.151847"><ele>658.6</ele><time>2026-04-13T12:04:57.000Z</time></trkpt>
<trkpt lat="42.133451" lon="23.151847"><ele>658.9</ele><time>2026-04-13T12:04:58.000Z</time></trkpt>
<trkpt lat="42.133451" lon="23.151846"><ele>658.9</ele><time>2026-04-13T12:04:59.000Z</time></trkpt>
<trkpt lat="42.133452" lon="23.151846"><ele>658.9</ele><time>2026-04-13T12:05:00.000Z</time></trkpt>
<trkpt lat="42.133452" lon="23.151845"><ele>658.9</ele><time>2026-04-13T12:05:01.000Z</time></trkpt>
<trkpt lat="42.133452" lon="23.151845"><ele>658.9</ele><time>2026-04-13T12:05:02.000Z</time></trkpt>
<trkpt lat="42.133452" lon="23.151844"><ele>659.3</ele><time>2026-04-13T12:05:03.000Z</time></trkpt>
<trkpt lat="42.133453" lon="23.151844"><ele>659.3</ele><time>2026-04-13T12:05:04.000Z</time></trkpt>
<trkpt lat="42.133453" lon="23.151843"><ele>659.3</ele><time>2026-04-13T12:05:05.000Z</time></trkpt>
<trkpt lat="42.133453" lon="23.151843"><ele>659.3</ele><time>2026-04-13T12:05:06.000Z</time></trkpt>
<trkpt lat="42.133453" lon="23.151843"><ele>659.3</ele><time>2026-04-13T12:05:07.000Z</time></trkpt>
<trkpt lat="42.133453" lon="23.151843"><ele>659.4</ele><time>2026-04-13T12:05:08.000Z</time></trkpt>
<trkpt lat="42.133453" lon="23.151842"><ele>659.4</ele><time>2026-04-13T12:05:09.000Z</time></trkpt>
<trkpt lat="42.133453" lon="23.151842"><ele>659.4</ele><time>2026-04-13T12:05:10.000Z</time></trkpt>
<trkpt lat="42.133453" lon="23.151842"><ele>659.4</ele><time>2026-04-13T12:05:11.000Z</time></trkpt>
<trkpt lat="42.133454" lon="23.151842"><ele>659.4</ele><time>2026-04-13T12:05:12.000Z</time></trkpt>
<trkpt lat="42.133454" lon="23.151842"><ele>659.3</ele><time>2026-04-13T12:05:13.000Z</time></trkpt>
<trkpt lat="42.133454" lon="23.151841"><ele>659.3</ele><time>2026-04-13T12:05:14.000Z</time></trkpt>
<trkpt lat="42.133454" lon="23.151841"><ele>659.3</ele><time>2026-04-13T12:05:15.000Z</time></trkpt>
<trkpt lat="42.133454" lon="23.151841"><ele>659.3</ele><time>2026-04-13T12:05:16.000Z</time></trkpt>
<trkpt lat="42.133454" lon="23.151841"><ele>659.3</ele><time>2026-04-13T12:05:17.000Z</time></trkpt>
<trkpt lat="42.133454" lon="23.151841"><ele>659.1</ele><time>2026-04-13T12:05:18.000Z</time></trkpt>
<trkpt lat="42.133454" lon="23.151841"><ele>659.1</ele><time>2026-04-13T12:05:19.000Z</time></trkpt>
<trkpt lat="42.133454" lon="23.151841"><ele>659.1</ele><time>2026-04-13T12:05:20.000Z</time></trkpt>
<trkpt lat="42.133454" lon="23.151841"><ele>659.1</ele><time>2026-04-13T12:05:21.000Z</time></trkpt>
<trkpt lat="42.133454" lon="23.151841"><ele>659.1</ele><time>2026-04-13T12:05:22.000Z</time></trkpt>
<trkpt lat="42.133454" lon="23.151841"><ele>659</ele><time>2026-04-13T12:05:23.000Z</time></trkpt>
<trkpt lat="42.133454" lon="23.151841"><ele>659</ele><time>2026-04-13T12:05:24.000Z</time></trkpt>
<trkpt lat="42.133454" lon="23.151841"><ele>659</ele><time>2026-04-13T12:05:25.000Z</time></trkpt>
<trkpt lat="42.133454" lon="23.151841"><ele>659</ele><time>2026-04-13T12:05:26.000Z</time></trkpt>
<trkpt lat="42.133454" lon="23.151841"><ele>659</ele><time>2026-04-13T12:05:27.000Z</time></trkpt>
<trkpt lat="42.133454" lon="23.151841"><ele>658.9</ele><time>2026-04-13T12:05:28.000Z</time></trkpt>
<trkpt lat="42.133454" lon="23.151841"><ele>658.9</ele><time>2026-04-13T12:05:29.000Z</time></trkpt>
<trkpt lat="42.133454" lon="23.15184"><ele>658.9</ele><time>2026-04-13T12:05:30.000Z</time></trkpt>
<trkpt lat="42.133454" lon="23.15184"><ele>658.9</ele><time>2026-04-13T12:05:31.000Z</time></trkpt>
<trkpt lat="42.133454" lon="23.15184"><ele>658.9</ele><time>2026-04-13T12:05:32.000Z</time></trkpt>
<trkpt lat="42.133454" lon="23.15184"><ele>658.9</ele><time>2026-04-13T12:05:33.000Z</time></trkpt>
<trkpt lat="42.133454" lon="23.15184"><ele>658.9</ele><time>2026-04-13T12:05:34.000Z</time></trkpt>
<trkpt lat="42.133454" lon="23.15184"><ele>658.9</ele><time>2026-04-13T12:05:35.000Z</time></trkpt>
<trkpt lat="42.133454" lon="23.15184"><ele>658.9</ele><time>2026-04-13T12:05:36.000Z</time></trkpt>
<trkpt lat="42.133454" lon="23.15184"><ele>658.9</ele><time>2026-04-13T12:05:37.000Z</time></trkpt>
<trkpt lat="42.133453" lon="23.15184"><ele>658.9</ele><time>2026-04-13T12:05:38.000Z</time></trkpt>
<trkpt lat="42.133453" lon="23.15184"><ele>658.9</ele><time>2026-04-13T12:05:39.000Z</time></trkpt>
<trkpt lat="42.133453" lon="23.15184"><ele>658.9</ele><time>2026-04-13T12:05:40.000Z</time></trkpt>
<trkpt lat="42.133453" lon="23.15184"><ele>658.9</ele><time>2026-04-13T12:05:41.000Z</time></trkpt>
<trkpt lat="42.133453" lon="23.15184"><ele>658.9</ele><time>2026-04-13T12:05:42.000Z</time></trkpt>
<trkpt lat="42.133453" lon="23.15184"><ele>659</ele><time>2026-04-13T12:05:43.000Z</time></trkpt>
<trkpt lat="42.133453" lon="23.15184"><ele>659</ele><time>2026-04-13T12:05:44.000Z</time></trkpt>
<trkpt lat="42.133453" lon="23.151839"><ele>659</ele><time>2026-04-13T12:05:45.000Z</time></trkpt>
<trkpt lat="42.133453" lon="23.151839"><ele>659</ele><time>2026-04-13T12:05:46.000Z</time></trkpt>
<trkpt lat="42.133454" lon="23.151838"><ele>659</ele><time>2026-04-13T12:05:47.000Z</time></trkpt>
<trkpt lat="42.133454" lon="23.151837"><ele>659.1</ele><time>2026-04-13T12:05:48.000Z</time></trkpt>
<trkpt lat="42.133455" lon="23.151837"><ele>659.1</ele><time>2026-04-13T12:05:49.000Z</time></trkpt>
<trkpt lat="42.133455" lon="23.151837"><ele>659.1</ele><time>2026-04-13T12:05:50.000Z</time></trkpt>
<trkpt lat="42.133455" lon="23.151837"><ele>659.1</ele><time>2026-04-13T12:05:51.000Z</time></trkpt>
<trkpt lat="42.133455" lon="23.151839"><ele>659.1</ele><time>2026-04-13T12:05:52.000Z</time></trkpt>
<trkpt lat="42.133454" lon="23.15184"><ele>659.1</ele><time>2026-04-13T12:05:53.000Z</time></trkpt>
<trkpt lat="42.133452" lon="23.151843"><ele>659.1</ele><time>2026-04-13T12:05:54.000Z</time></trkpt>
<trkpt lat="42.133451" lon="23.151845"><ele>659.1</ele><time>2026-04-13T12:05:55.000Z</time></trkpt>
<trkpt lat="42.13345" lon="23.151848"><ele>659.1</ele><time>2026-04-13T12:05:56.000Z</time></trkpt>
<trkpt lat="42.133448" lon="23.15185"><ele>659.1</ele><time>2026-04-13T12:05:57.000Z</time></trkpt>
<trkpt lat="42.133447" lon="23.151852"><ele>659</ele><time>2026-04-13T12:05:58.000Z</time></trkpt>
<trkpt lat="42.133446" lon="23.151854"><ele>659</ele><time>2026-04-13T12:05:59.000Z</time></trkpt>
<trkpt lat="42.133445" lon="23.151855"><ele>659</ele><time>2026-04-13T12:06:00.000Z</time></trkpt>
<trkpt lat="42.133445" lon="23.151856"><ele>659</ele><time>2026-04-13T12:06:01.000Z</time></trkpt>
<trkpt lat="42.133445" lon="23.151857"><ele>659</ele><time>2026-04-13T12:06:02.000Z</time></trkpt>
<trkpt lat="42.133446" lon="23.151857"><ele>658.9</ele><time>2026-04-13T12:06:03.000Z</time></trkpt>
<trkpt lat="42.133447" lon="23.151857"><ele>658.9</ele><time>2026-04-13T12:06:04.000Z</time></trkpt>
<trkpt lat="42.13345" lon="23.151857"><ele>658.9</ele><time>2026-04-13T12:06:05.000Z</time></trkpt>
<trkpt lat="42.133453" lon="23.151858"><ele>658.9</ele><time>2026-04-13T12:06:06.000Z</time></trkpt>
<trkpt lat="42.133456" lon="23.151861"><ele>658.9</ele><time>2026-04-13T12:06:07.000Z</time></trkpt>
<trkpt lat="42.133459" lon="23.151863"><ele>658.7</ele><time>2026-04-13T12:06:08.000Z</time></trkpt>
<trkpt lat="42.133461" lon="23.151865"><ele>658.7</ele><time>2026-04-13T12:06:09.000Z</time></trkpt>
<trkpt lat="42.133462" lon="23.151867"><ele>658.7</ele><time>2026-04-13T12:06:10.000Z</time></trkpt>
<trkpt lat="42.133463" lon="23.151867"><ele>658.7</ele><time>2026-04-13T12:06:11.000Z</time></trkpt>
<trkpt lat="42.133464" lon="23.151866"><ele>658.7</ele><time>2026-04-13T12:06:12.000Z</time></trkpt>
<trkpt lat="42.133464" lon="23.151865"><ele>658.7</ele><time>2026-04-13T12:06:13.000Z</time></trkpt>
<trkpt lat="42.133463" lon="23.151865"><ele>658.7</ele><time>2026-04-13T12:06:14.000Z</time></trkpt>
<trkpt lat="42.133463" lon="23.151865"><ele>658.7</ele><time>2026-04-13T12:06:15.000Z</time></trkpt>
<trkpt lat="42.133462" lon="23.151865"><ele>658.7</ele><time>2026-04-13T12:06:16.000Z</time></trkpt>
<trkpt lat="42.133461" lon="23.151866"><ele>658.7</ele><time>2026-04-13T12:06:17.000Z</time></trkpt>
<trkpt lat="42.13346" lon="23.151866"><ele>658.7</ele><time>2026-04-13T12:06:18.000Z</time></trkpt>
<trkpt lat="42.133458" lon="23.151866"><ele>658.7</ele><time>2026-04-13T12:06:19.000Z</time></trkpt>
<trkpt lat="42.133457" lon="23.151866"><ele>658.7</ele><time>2026-04-13T12:06:20.000Z</time></trkpt>
<trkpt lat="42.133456" lon="23.151865"><ele>658.7</ele><time>2026-04-13T12:06:21.000Z</time></trkpt>
<trkpt lat="42.133455" lon="23.151864"><ele>658.7</ele><time>2026-04-13T12:06:22.000Z</time></trkpt>
<trkpt lat="42.133455" lon="23.151863"><ele>658.6</ele><time>2026-04-13T12:06:23.000Z</time></trkpt>
<trkpt lat="42.133456" lon="23.151863"><ele>658.6</ele><time>2026-04-13T12:06:24.000Z</time></trkpt>
<trkpt lat="42.133457" lon="23.151862"><ele>658.6</ele><time>2026-04-13T12:06:25.000Z</time></trkpt>
<trkpt lat="42.13346" lon="23.151863"><ele>658.6</ele><time>2026-04-13T12:06:26.000Z</time></trkpt>
<trkpt lat="42.133463" lon="23.151864"><ele>658.6</ele><time>2026-04-13T12:06:27.000Z</time></trkpt>
<trkpt lat="42.133467" lon="23.151866"><ele>658.5</ele><time>2026-04-13T12:06:28.000Z</time></trkpt>
<trkpt lat="42.133472" lon="23.151869"><ele>658.5</ele><time>2026-04-13T12:06:29.000Z</time></trkpt>
<trkpt lat="42.133477" lon="23.151873"><ele>658.5</ele><time>2026-04-13T12:06:30.000Z</time></trkpt>
<trkpt lat="42.133483" lon="23.151876"><ele>658.5</ele><time>2026-04-13T12:06:31.000Z</time></trkpt>
<trkpt lat="42.13349" lon="23.15188"><ele>658.5</ele><time>2026-04-13T12:06:32.000Z</time></trkpt>
<trkpt lat="42.133496" lon="23.151884"><ele>658.3</ele><time>2026-04-13T12:06:33.000Z</time></trkpt>
<trkpt lat="42.1335" lon="23.151888"><ele>658.3</ele><time>2026-04-13T12:06:34.000Z</time></trkpt>
<trkpt lat="42.133502" lon="23.151894"><ele>658.3</ele><time>2026-04-13T12:06:35.000Z</time></trkpt>
<trkpt lat="42.133502" lon="23.1519"><ele>658.3</ele><time>2026-04-13T12:06:36.000Z</time></trkpt>
<trkpt lat="42.1335" lon="23.151905"><ele>658.3</ele><time>2026-04-13T12:06:37.000Z</time></trkpt>
<trkpt lat="42.133496" lon="23.151909"><ele>658.3</ele><time>2026-04-13T12:06:38.000Z</time></trkpt>
<trkpt lat="42.133492" lon="23.151913"><ele>658.3</ele><time>2026-04-13T12:06:39.000Z</time></trkpt>
<trkpt lat="42.133488" lon="23.151917"><ele>658.3</ele><time>2026-04-13T12:06:40.000Z</time></trkpt>
<trkpt lat="42.133485" lon="23.151921"><ele>658.3</ele><time>2026-04-13T12:06:41.000Z</time></trkpt>
<trkpt lat="42.133482" lon="23.151925"><ele>658.3</ele><time>2026-04-13T12:06:42.000Z</time></trkpt>
<trkpt lat="42.13348" lon="23.151928"><ele>658.1</ele><time>2026-04-13T12:06:43.000Z</time></trkpt>
<trkpt lat="42.133478" lon="23.151931"><ele>658.1</ele><time>2026-04-13T12:06:44.000Z</time></trkpt>
<trkpt lat="42.133477" lon="23.151933"><ele>658.1</ele><time>2026-04-13T12:06:45.000Z</time></trkpt>
<trkpt lat="42.133476" lon="23.151933"><ele>658.1</ele><time>2026-04-13T12:06:46.000Z</time></trkpt>
<trkpt lat="42.133476" lon="23.151934"><ele>658.1</ele><time>2026-04-13T12:06:47.000Z</time></trkpt>
<trkpt lat="42.133476" lon="23.151935"><ele>657.7</ele><time>2026-04-13T12:06:48.000Z</time></trkpt>
<trkpt lat="42.133476" lon="23.151938"><ele>657.7</ele><time>2026-04-13T12:06:49.000Z</time></trkpt>
<trkpt lat="42.133475" lon="23.151941"><ele>657.7</ele><time>2026-04-13T12:06:50.000Z</time></trkpt>
<trkpt lat="42.133473" lon="23.151942"><ele>657.7</ele><time>2026-04-13T12:06:51.000Z</time></trkpt>
<trkpt lat="42.13347" lon="23.151944"><ele>657.7</ele><time>2026-04-13T12:06:52.000Z</time></trkpt>
<trkpt lat="42.133466" lon="23.151943"><ele>657.2</ele><time>2026-04-13T12:06:53.000Z</time></trkpt>
<trkpt lat="42.133463" lon="23.151941"><ele>657.2</ele><time>2026-04-13T12:06:54.000Z</time></trkpt>
<trkpt lat="42.133461" lon="23.151939"><ele>657.2</ele><time>2026-04-13T12:06:55.000Z</time></trkpt>
<trkpt lat="42.13346" lon="23.151937"><ele>657.2</ele><time>2026-04-13T12:06:56.000Z</time></trkpt>
<trkpt lat="42.13346" lon="23.151935"><ele>657.2</ele><time>2026-04-13T12:06:57.000Z</time></trkpt>
<trkpt lat="42.133461" lon="23.151934"><ele>656</ele><time>2026-04-13T12:06:58.000Z</time></trkpt>
<trkpt lat="42.133461" lon="23.151933"><ele>656</ele><time>2026-04-13T12:06:59.000Z</time></trkpt>
<trkpt lat="42.133461" lon="23.151933"><ele>656</ele><time>2026-04-13T12:07:00.000Z</time></trkpt>
<trkpt lat="42.133461" lon="23.151932"><ele>656</ele><time>2026-04-13T12:07:01.000Z</time></trkpt>
<trkpt lat="42.133461" lon="23.151932"><ele>656</ele><time>2026-04-13T12:07:02.000Z</time></trkpt>
<trkpt lat="42.133461" lon="23.151932"><ele>655.1</ele><time>2026-04-13T12:07:03.000Z</time></trkpt>
<trkpt lat="42.133462" lon="23.151931"><ele>655.1</ele><time>2026-04-13T12:07:04.000Z</time></trkpt>
<trkpt lat="42.133462" lon="23.151931"><ele>655.1</ele><time>2026-04-13T12:07:05.000Z</time></trkpt>
<trkpt lat="42.133463" lon="23.151932"><ele>655.1</ele><time>2026-04-13T12:07:06.000Z</time></trkpt>
<trkpt lat="42.133463" lon="23.151932"><ele>655.1</ele><time>2026-04-13T12:07:07.000Z</time></trkpt>
<trkpt lat="42.133463" lon="23.151932"><ele>654.9</ele><time>2026-04-13T12:07:08.000Z</time></trkpt>
<trkpt lat="42.133463" lon="23.151932"><ele>654.9</ele><time>2026-04-13T12:07:09.000Z</time></trkpt>
<trkpt lat="42.133463" lon="23.151933"><ele>654.9</ele><time>2026-04-13T12:07:10.000Z</time></trkpt>
<trkpt lat="42.133461" lon="23.151934"><ele>654.9</ele><time>2026-04-13T12:07:11.000Z</time></trkpt>
<trkpt lat="42.133459" lon="23.151936"><ele>654.9</ele><time>2026-04-13T12:07:12.000Z</time></trkpt>
<trkpt lat="42.133456" lon="23.151937"><ele>654.8</ele><time>2026-04-13T12:07:13.000Z</time></trkpt>
<trkpt lat="42.133452" lon="23.151938"><ele>654.8</ele><time>2026-04-13T12:07:14.000Z</time></trkpt>
<trkpt lat="42.133448" lon="23.15194"><ele>654.8</ele><time>2026-04-13T12:07:15.000Z</time></trkpt>
<trkpt lat="42.133444" lon="23.151944"><ele>654.8</ele><time>2026-04-13T12:07:16.000Z</time></trkpt>
<trkpt lat="42.133441" lon="23.151949"><ele>654.8</ele><time>2026-04-13T12:07:17.000Z</time></trkpt>
<trkpt lat="42.13344" lon="23.151957"><ele>654.6</ele><time>2026-04-13T12:07:18.000Z</time></trkpt>
<trkpt lat="42.133442" lon="23.151966"><ele>654.6</ele><time>2026-04-13T12:07:19.000Z</time></trkpt>
<trkpt lat="42.133444" lon="23.151975"><ele>654.6</ele><time>2026-04-13T12:07:20.000Z</time></trkpt>
<trkpt lat="42.133448" lon="23.151984"><ele>654.6</ele><time>2026-04-13T12:07:21.000Z</time></trkpt>
<trkpt lat="42.133452" lon="23.151993"><ele>654.6</ele><time>2026-04-13T12:07:22.000Z</time></trkpt>
<trkpt lat="42.133456" lon="23.152002"><ele>654.4</ele><time>2026-04-13T12:07:23.000Z</time></trkpt>
<trkpt lat="42.13346" lon="23.152011"><ele>654.4</ele><time>2026-04-13T12:07:24.000Z</time></trkpt>
<trkpt lat="42.133462" lon="23.15202"><ele>654.4</ele><time>2026-04-13T12:07:25.000Z</time></trkpt>
<trkpt lat="42.133465" lon="23.152031"><ele>654.4</ele><time>2026-04-13T12:07:26.000Z</time></trkpt>
<trkpt lat="42.133466" lon="23.152041"><ele>654.4</ele><time>2026-04-13T12:07:27.000Z</time></trkpt>
<trkpt lat="42.133467" lon="23.152052"><ele>653.4</ele><time>2026-04-13T12:07:28.000Z</time></trkpt>
<trkpt lat="42.133469" lon="23.152062"><ele>653.4</ele><time>2026-04-13T12:07:29.000Z</time></trkpt>
<trkpt lat="42.133471" lon="23.152071"><ele>653.4</ele><time>2026-04-13T12:07:30.000Z</time></trkpt>
<trkpt lat="42.133474" lon="23.152078"><ele>653.4</ele><time>2026-04-13T12:07:31.000Z</time></trkpt>
<trkpt lat="42.133479" lon="23.152085"><ele>653.4</ele><time>2026-04-13T12:07:32.000Z</time></trkpt>
<trkpt lat="42.133483" lon="23.15209"><ele>652</ele><time>2026-04-13T12:07:33.000Z</time></trkpt>
<trkpt lat="42.133488" lon="23.152095"><ele>652</ele><time>2026-04-13T12:07:34.000Z</time></trkpt>
<trkpt lat="42.133494" lon="23.152101"><ele>652</ele><time>2026-04-13T12:07:35.000Z</time></trkpt>
<trkpt lat="42.133499" lon="23.152107"><ele>652</ele><time>2026-04-13T12:07:36.000Z</time></trkpt>
<trkpt lat="42.133504" lon="23.152115"><ele>652</ele><time>2026-04-13T12:07:37.000Z</time></trkpt>
<trkpt lat="42.13351" lon="23.152123"><ele>651.3</ele><time>2026-04-13T12:07:38.000Z</time></trkpt>
<trkpt lat="42.133516" lon="23.152133"><ele>651.3</ele><time>2026-04-13T12:07:39.000Z</time></trkpt>
<trkpt lat="42.133521" lon="23.152144"><ele>651.3</ele><time>2026-04-13T12:07:40.000Z</time></trkpt>
<trkpt lat="42.133527" lon="23.152156"><ele>651.3</ele><time>2026-04-13T12:07:41.000Z</time></trkpt>
<trkpt lat="42.133533" lon="23.152168"><ele>651.3</ele><time>2026-04-13T12:07:42.000Z</time></trkpt>
<trkpt lat="42.133539" lon="23.152181"><ele>650.1</ele><time>2026-04-13T12:07:43.000Z</time></trkpt>
<trkpt lat="42.133544" lon="23.152193"><ele>650.1</ele><time>2026-04-13T12:07:44.000Z</time></trkpt>
<trkpt lat="42.13355" lon="23.152205"><ele>650.1</ele><time>2026-04-13T12:07:45.000Z</time></trkpt>
<trkpt lat="42.133555" lon="23.152217"><ele>650.1</ele><time>2026-04-13T12:07:46.000Z</time></trkpt>
<trkpt lat="42.133559" lon="23.15223"><ele>650.1</ele><time>2026-04-13T12:07:47.000Z</time></trkpt>
<trkpt lat="42.133562" lon="23.152242"><ele>649.1</ele><time>2026-04-13T12:07:48.000Z</time></trkpt>
<trkpt lat="42.133564" lon="23.152255"><ele>649.1</ele><time>2026-04-13T12:07:49.000Z</time></trkpt>
<trkpt lat="42.133566" lon="23.152268"><ele>649.1</ele><time>2026-04-13T12:07:50.000Z</time></trkpt>
<trkpt lat="42.133568" lon="23.152282"><ele>649.1</ele><time>2026-04-13T12:07:51.000Z</time></trkpt>
<trkpt lat="42.133569" lon="23.152295"><ele>649.1</ele><time>2026-04-13T12:07:52.000Z</time></trkpt>
<trkpt lat="42.133571" lon="23.152309"><ele>648.6</ele><time>2026-04-13T12:07:53.000Z</time></trkpt>
<trkpt lat="42.133572" lon="23.152323"><ele>648.6</ele><time>2026-04-13T12:07:54.000Z</time></trkpt>
<trkpt lat="42.133574" lon="23.152337"><ele>648.6</ele><time>2026-04-13T12:07:55.000Z</time></trkpt>
<trkpt lat="42.133577" lon="23.152351"><ele>648.6</ele><time>2026-04-13T12:07:56.000Z</time></trkpt>
<trkpt lat="42.13358" lon="23.152365"><ele>648.6</ele><time>2026-04-13T12:07:57.000Z</time></trkpt>
<trkpt lat="42.133584" lon="23.152378"><ele>647.3</ele><time>2026-04-13T12:07:58.000Z</time></trkpt>
<trkpt lat="42.133588" lon="23.152391"><ele>647.3</ele><time>2026-04-13T12:07:59.000Z</time></trkpt>
<trkpt lat="42.133591" lon="23.152404"><ele>647.3</ele><time>2026-04-13T12:08:00.000Z</time></trkpt>
<trkpt lat="42.133594" lon="23.152416"><ele>647.3</ele><time>2026-04-13T12:08:01.000Z</time></trkpt>
<trkpt lat="42.133596" lon="23.152426"><ele>647.3</ele><time>2026-04-13T12:08:02.000Z</time></trkpt>
<trkpt lat="42.133597" lon="23.152437"><ele>645.9</ele><time>2026-04-13T12:08:03.000Z</time></trkpt>
<trkpt lat="42.133598" lon="23.152448"><ele>645.9</ele><time>2026-04-13T12:08:04.000Z</time></trkpt>
<trkpt lat="42.133598" lon="23.152459"><ele>645.9</ele><time>2026-04-13T12:08:05.000Z</time></trkpt>
<trkpt lat="42.133598" lon="23.15247"><ele>645.9</ele><time>2026-04-13T12:08:06.000Z</time></trkpt>
<trkpt lat="42.133597" lon="23.152482"><ele>645.9</ele><time>2026-04-13T12:08:07.000Z</time></trkpt>
<trkpt lat="42.133597" lon="23.152493"><ele>645.3</ele><time>2026-04-13T12:08:08.000Z</time></trkpt>
<trkpt lat="42.133597" lon="23.152505"><ele>645.3</ele><time>2026-04-13T12:08:09.000Z</time></trkpt>
<trkpt lat="42.133596" lon="23.152516"><ele>645.3</ele><time>2026-04-13T12:08:10.000Z</time></trkpt>
<trkpt lat="42.133597" lon="23.152528"><ele>645.3</ele><time>2026-04-13T12:08:11.000Z</time></trkpt>
<trkpt lat="42.133596" lon="23.15254"><ele>645.3</ele><time>2026-04-13T12:08:12.000Z</time></trkpt>
<trkpt lat="42.133596" lon="23.152552"><ele>644.2</ele><time>2026-04-13T12:08:13.000Z</time></trkpt>
<trkpt lat="42.133594" lon="23.152564"><ele>644.2</ele><time>2026-04-13T12:08:14.000Z</time></trkpt>
<trkpt lat="42.133593" lon="23.152575"><ele>644.2</ele><time>2026-04-13T12:08:15.000Z</time></trkpt>
<trkpt lat="42.133592" lon="23.152584"><ele>644.2</ele><time>2026-04-13T12:08:16.000Z</time></trkpt>
<trkpt lat="42.133591" lon="23.152591"><ele>644.2</ele><time>2026-04-13T12:08:17.000Z</time></trkpt>
<trkpt lat="42.133592" lon="23.152597"><ele>642.8</ele><time>2026-04-13T12:08:18.000Z</time></trkpt>
<trkpt lat="42.133594" lon="23.152603"><ele>642.8</ele><time>2026-04-13T12:08:19.000Z</time></trkpt>
<trkpt lat="42.133596" lon="23.152609"><ele>642.8</ele><time>2026-04-13T12:08:20.000Z</time></trkpt>
<trkpt lat="42.133599" lon="23.152618"><ele>642.8</ele><time>2026-04-13T12:08:21.000Z</time></trkpt>
<trkpt lat="42.133601" lon="23.152629"><ele>642.8</ele><time>2026-04-13T12:08:22.000Z</time></trkpt>
<trkpt lat="42.1336" lon="23.152641"><ele>642.1</ele><time>2026-04-13T12:08:23.000Z</time></trkpt>
<trkpt lat="42.133598" lon="23.152652"><ele>642.1</ele><time>2026-04-13T12:08:24.000Z</time></trkpt>
<trkpt lat="42.133592" lon="23.152662"><ele>642.1</ele><time>2026-04-13T12:08:25.000Z</time></trkpt>
<trkpt lat="42.133585" lon="23.152669"><ele>642.1</ele><time>2026-04-13T12:08:26.000Z</time></trkpt>
<trkpt lat="42.133576" lon="23.152673"><ele>642.1</ele><time>2026-04-13T12:08:27.000Z</time></trkpt>
<trkpt lat="42.133567" lon="23.152673"><ele>640.8</ele><time>2026-04-13T12:08:28.000Z</time></trkpt>
<trkpt lat="42.13356" lon="23.152669"><ele>640.8</ele><time>2026-04-13T12:08:29.000Z</time></trkpt>
<trkpt lat="42.133555" lon="23.152663"><ele>640.8</ele><time>2026-04-13T12:08:30.000Z</time></trkpt>
<trkpt lat="42.133552" lon="23.152655"><ele>640.8</ele><time>2026-04-13T12:08:31.000Z</time></trkpt>
<trkpt lat="42.133551" lon="23.152648"><ele>640.8</ele><time>2026-04-13T12:08:32.000Z</time></trkpt>
<trkpt lat="42.133551" lon="23.152643"><ele>639.5</ele><time>2026-04-13T12:08:33.000Z</time></trkpt>
<trkpt lat="42.133552" lon="23.152641"><ele>639.5</ele><time>2026-04-13T12:08:34.000Z</time></trkpt>
<trkpt lat="42.133552" lon="23.15264"><ele>639.5</ele><time>2026-04-13T12:08:35.000Z</time></trkpt>
<trkpt lat="42.133553" lon="23.152641"><ele>639.5</ele><time>2026-04-13T12:08:36.000Z</time></trkpt>
<trkpt lat="42.133554" lon="23.152643"><ele>639.5</ele><time>2026-04-13T12:08:37.000Z</time></trkpt>
<trkpt lat="42.133555" lon="23.152644"><ele>638.9</ele><time>2026-04-13T12:08:38.000Z</time></trkpt>
<trkpt lat="42.133555" lon="23.152645"><ele>638.9</ele><time>2026-04-13T12:08:39.000Z</time></trkpt>
<trkpt lat="42.133556" lon="23.152646"><ele>638.9</ele><time>2026-04-13T12:08:40.000Z</time></trkpt>
<trkpt lat="42.133556" lon="23.152647"><ele>638.9</ele><time>2026-04-13T12:08:41.000Z</time></trkpt>
<trkpt lat="42.133557" lon="23.152647"><ele>638.9</ele><time>2026-04-13T12:08:42.000Z</time></trkpt>
<trkpt lat="42.133557" lon="23.152647"><ele>637.9</ele><time>2026-04-13T12:08:43.000Z</time></trkpt>
<trkpt lat="42.133557" lon="23.152647"><ele>637.9</ele><time>2026-04-13T12:08:44.000Z</time></trkpt>
<trkpt lat="42.133557" lon="23.152647"><ele>637.9</ele><time>2026-04-13T12:08:45.000Z</time></trkpt>
<trkpt lat="42.133557" lon="23.152647"><ele>637.9</ele><time>2026-04-13T12:08:46.000Z</time></trkpt>
<trkpt lat="42.133557" lon="23.152648"><ele>637.9</ele><time>2026-04-13T12:08:47.000Z</time></trkpt>
<trkpt lat="42.133557" lon="23.152648"><ele>637.4</ele><time>2026-04-13T12:08:48.000Z</time></trkpt>
<trkpt lat="42.133556" lon="23.152648"><ele>637.4</ele><time>2026-04-13T12:08:49.000Z</time></trkpt>
<trkpt lat="42.133556" lon="23.152649"><ele>637.4</ele><time>2026-04-13T12:08:50.000Z</time></trkpt>
<trkpt lat="42.133556" lon="23.152649"><ele>637.4</ele><time>2026-04-13T12:08:51.000Z</time></trkpt>
<trkpt lat="42.133555" lon="23.15265"><ele>637.4</ele><time>2026-04-13T12:08:52.000Z</time></trkpt>
<trkpt lat="42.133555" lon="23.15265"><ele>637.3</ele><time>2026-04-13T12:08:53.000Z</time></trkpt>
<trkpt lat="42.133555" lon="23.152651"><ele>637.3</ele><time>2026-04-13T12:08:54.000Z</time></trkpt>
<trkpt lat="42.133555" lon="23.15265"><ele>637.3</ele><time>2026-04-13T12:08:55.000Z</time></trkpt>
<trkpt lat="42.133555" lon="23.15265"><ele>637.3</ele><time>2026-04-13T12:08:56.000Z</time></trkpt>
<trkpt lat="42.133555" lon="23.15265"><ele>637.3</ele><time>2026-04-13T12:08:57.000Z</time></trkpt>
<trkpt lat="42.133555" lon="23.15265"><ele>637.3</ele><time>2026-04-13T12:08:58.000Z</time></trkpt>
<trkpt lat="42.133555" lon="23.152651"><ele>637.3</ele><time>2026-04-13T12:08:59.000Z</time></trkpt>
<trkpt lat="42.133555" lon="23.152651"><ele>637.3</ele><time>2026-04-13T12:09:00.000Z</time></trkpt>
<trkpt lat="42.133555" lon="23.152653"><ele>637.3</ele><time>2026-04-13T12:09:01.000Z</time></trkpt>
<trkpt lat="42.133554" lon="23.152655"><ele>637.3</ele><time>2026-04-13T12:09:02.000Z</time></trkpt>
<trkpt lat="42.133553" lon="23.152658"><ele>637.4</ele><time>2026-04-13T12:09:03.000Z</time></trkpt>
<trkpt lat="42.13355" lon="23.152662"><ele>637.4</ele><time>2026-04-13T12:09:04.000Z</time></trkpt>
<trkpt lat="42.133547" lon="23.152667"><ele>637.4</ele><time>2026-04-13T12:09:05.000Z</time></trkpt>
<trkpt lat="42.133542" lon="23.152673"><ele>637.4</ele><time>2026-04-13T12:09:06.000Z</time></trkpt>
<trkpt lat="42.133537" lon="23.15268"><ele>637.4</ele><time>2026-04-13T12:09:07.000Z</time></trkpt>
<trkpt lat="42.13353" lon="23.152688"><ele>637.4</ele><time>2026-04-13T12:09:08.000Z</time></trkpt>
<trkpt lat="42.133523" lon="23.152695"><ele>637.4</ele><time>2026-04-13T12:09:09.000Z</time></trkpt>
<trkpt lat="42.133516" lon="23.152702"><ele>637.4</ele><time>2026-04-13T12:09:10.000Z</time></trkpt>
<trkpt lat="42.133508" lon="23.152707"><ele>637.4</ele><time>2026-04-13T12:09:11.000Z</time></trkpt>
<trkpt lat="42.133501" lon="23.152711"><ele>637.4</ele><time>2026-04-13T12:09:12.000Z</time></trkpt>
<trkpt lat="42.133494" lon="23.152713"><ele>637.2</ele><time>2026-04-13T12:09:13.000Z</time></trkpt>
<trkpt lat="42.133486" lon="23.152715"><ele>637.2</ele><time>2026-04-13T12:09:14.000Z</time></trkpt>
<trkpt lat="42.133479" lon="23.152715"><ele>637.2</ele><time>2026-04-13T12:09:15.000Z</time></trkpt>
<trkpt lat="42.133471" lon="23.152715"><ele>637.2</ele><time>2026-04-13T12:09:16.000Z</time></trkpt>
<trkpt lat="42.133464" lon="23.152715"><ele>637.2</ele><time>2026-04-13T12:09:17.000Z</time></trkpt>
<trkpt lat="42.133455" lon="23.152715"><ele>636.3</ele><time>2026-04-13T12:09:18.000Z</time></trkpt>
<trkpt lat="42.133447" lon="23.152715"><ele>636.3</ele><time>2026-04-13T12:09:19.000Z</time></trkpt>
<trkpt lat="42.133439" lon="23.152716"><ele>636.3</ele><time>2026-04-13T12:09:20.000Z</time></trkpt>
<trkpt lat="42.133432" lon="23.152716"><ele>636.3</ele><time>2026-04-13T12:09:21.000Z</time></trkpt>
<trkpt lat="42.133424" lon="23.152716"><ele>636.3</ele><time>2026-04-13T12:09:22.000Z</time></trkpt>
<trkpt lat="42.133418" lon="23.152719"><ele>635.6</ele><time>2026-04-13T12:09:23.000Z</time></trkpt>
<trkpt lat="42.133411" lon="23.152721"><ele>635.6</ele><time>2026-04-13T12:09:24.000Z</time></trkpt>
<trkpt lat="42.133405" lon="23.152724"><ele>635.6</ele><time>2026-04-13T12:09:25.000Z</time></trkpt>
<trkpt lat="42.133398" lon="23.152727"><ele>635.6</ele><time>2026-04-13T12:09:26.000Z</time></trkpt>
<trkpt lat="42.13339" lon="23.152729"><ele>635.6</ele><time>2026-04-13T12:09:27.000Z</time></trkpt>
<trkpt lat="42.133383" lon="23.152729"><ele>634.1</ele><time>2026-04-13T12:09:28.000Z</time></trkpt>
<trkpt lat="42.133376" lon="23.15273"><ele>634.1</ele><time>2026-04-13T12:09:29.000Z</time></trkpt>
<trkpt lat="42.13337" lon="23.15273"><ele>634.1</ele><time>2026-04-13T12:09:30.000Z</time></trkpt>
<trkpt lat="42.133364" lon="23.152731"><ele>634.1</ele><time>2026-04-13T12:09:31.000Z</time></trkpt>
<trkpt lat="42.133358" lon="23.152732"><ele>634.1</ele><time>2026-04-13T12:09:32.000Z</time></trkpt>
<trkpt lat="42.133354" lon="23.152733"><ele>632.6</ele><time>2026-04-13T12:09:33.000Z</time></trkpt>
<trkpt lat="42.13335" lon="23.152733"><ele>632.6</ele><time>2026-04-13T12:09:34.000Z</time></trkpt>
<trkpt lat="42.133348" lon="23.152733"><ele>632.6</ele><time>2026-04-13T12:09:35.000Z</time></trkpt>
<trkpt lat="42.133347" lon="23.152732"><ele>632.6</ele><time>2026-04-13T12:09:36.000Z</time></trkpt>
<trkpt lat="42.133347" lon="23.152731"><ele>632.6</ele><time>2026-04-13T12:09:37.000Z</time></trkpt>
<trkpt lat="42.133347" lon="23.152731"><ele>631.9</ele><time>2026-04-13T12:09:38.000Z</time></trkpt>
<trkpt lat="42.133348" lon="23.152731"><ele>631.9</ele><time>2026-04-13T12:09:39.000Z</time></trkpt>
<trkpt lat="42.133347" lon="23.152732"><ele>631.9</ele><time>2026-04-13T12:09:40.000Z</time></trkpt>
<trkpt lat="42.133347" lon="23.152732"><ele>631.9</ele><time>2026-04-13T12:09:41.000Z</time></trkpt>
<trkpt lat="42.133346" lon="23.152732"><ele>631.9</ele><time>2026-04-13T12:09:42.000Z</time></trkpt>
<trkpt lat="42.133345" lon="23.152731"><ele>630.6</ele><time>2026-04-13T12:09:43.000Z</time></trkpt>
<trkpt lat="42.133341" lon="23.152729"><ele>630.6</ele><time>2026-04-13T12:09:44.000Z</time></trkpt>
<trkpt lat="42.133336" lon="23.152728"><ele>630.6</ele><time>2026-04-13T12:09:45.000Z</time></trkpt>
<trkpt lat="42.13333" lon="23.152727"><ele>630.6</ele><time>2026-04-13T12:09:46.000Z</time></trkpt>
<trkpt lat="42.133324" lon="23.152728"><ele>630.6</ele><time>2026-04-13T12:09:47.000Z</time></trkpt>
<trkpt lat="42.133318" lon="23.152732"><ele>629.8</ele><time>2026-04-13T12:09:48.000Z</time></trkpt>
<trkpt lat="42.133315" lon="23.152739"><ele>629.8</ele><time>2026-04-13T12:09:49.000Z</time></trkpt>
<trkpt lat="42.133313" lon="23.152747"><ele>629.8</ele><time>2026-04-13T12:09:50.000Z</time></trkpt>
<trkpt lat="42.133312" lon="23.152756"><ele>629.8</ele><time>2026-04-13T12:09:51.000Z</time></trkpt>
<trkpt lat="42.133312" lon="23.152766"><ele>629.8</ele><time>2026-04-13T12:09:52.000Z</time></trkpt>
<trkpt lat="42.133312" lon="23.152775"><ele>629.6</ele><time>2026-04-13T12:09:53.000Z</time></trkpt>
<trkpt lat="42.133311" lon="23.152784"><ele>629.6</ele><time>2026-04-13T12:09:54.000Z</time></trkpt>
<trkpt lat="42.133311" lon="23.152792"><ele>629.6</ele><time>2026-04-13T12:09:55.000Z</time></trkpt>
<trkpt lat="42.133311" lon="23.152801"><ele>629.6</ele><time>2026-04-13T12:09:56.000Z</time></trkpt>
<trkpt lat="42.13331" lon="23.152811"><ele>629.6</ele><time>2026-04-13T12:09:57.000Z</time></trkpt>
<trkpt lat="42.133308" lon="23.15282"><ele>629.1</ele><time>2026-04-13T12:09:58.000Z</time></trkpt>
<trkpt lat="42.133306" lon="23.152829"><ele>629.1</ele><time>2026-04-13T12:09:59.000Z</time></trkpt>
<trkpt lat="42.133304" lon="23.152837"><ele>629.1</ele><time>2026-04-13T12:10:00.000Z</time></trkpt>
<trkpt lat="42.133301" lon="23.152845"><ele>629.1</ele><time>2026-04-13T12:10:01.000Z</time></trkpt>
<trkpt lat="42.133299" lon="23.152852"><ele>629.1</ele><time>2026-04-13T12:10:02.000Z</time></trkpt>
<trkpt lat="42.133297" lon="23.15286"><ele>627.9</ele><time>2026-04-13T12:10:03.000Z</time></trkpt>
<trkpt lat="42.133296" lon="23.152867"><ele>627.9</ele><time>2026-04-13T12:10:04.000Z</time></trkpt>
<trkpt lat="42.133294" lon="23.152875"><ele>627.9</ele><time>2026-04-13T12:10:05.000Z</time></trkpt>
<trkpt lat="42.133294" lon="23.152882"><ele>627.9</ele><time>2026-04-13T12:10:06.000Z</time></trkpt>
<trkpt lat="42.133293" lon="23.15289"><ele>627.9</ele><time>2026-04-13T12:10:07.000Z</time></trkpt>
<trkpt lat="42.133292" lon="23.152897"><ele>627.3</ele><time>2026-04-13T12:10:08.000Z</time></trkpt>
<trkpt lat="42.133291" lon="23.152904"><ele>627.3</ele><time>2026-04-13T12:10:09.000Z</time></trkpt>
<trkpt lat="42.13329" lon="23.152911"><ele>627.3</ele><time>2026-04-13T12:10:10.000Z</time></trkpt>
<trkpt lat="42.13329" lon="23.152919"><ele>627.3</ele><time>2026-04-13T12:10:11.000Z</time></trkpt>
<trkpt lat="42.133292" lon="23.152925"><ele>627.3</ele><time>2026-04-13T12:10:12.000Z</time></trkpt>
<trkpt lat="42.133294" lon="23.152931"><ele>625.9</ele><time>2026-04-13T12:10:13.000Z</time></trkpt>
<trkpt lat="42.133298" lon="23.152938"><ele>625.9</ele><time>2026-04-13T12:10:14.000Z</time></trkpt>
<trkpt lat="42.133303" lon="23.152944"><ele>625.9</ele><time>2026-04-13T12:10:15.000Z</time></trkpt>
<trkpt lat="42.133306" lon="23.15295"><ele>625.9</ele><time>2026-04-13T12:10:16.000Z</time></trkpt>
<trkpt lat="42.133308" lon="23.152957"><ele>625.9</ele><time>2026-04-13T12:10:17.000Z</time></trkpt>
<trkpt lat="42.133309" lon="23.152964"><ele>624.7</ele><time>2026-04-13T12:10:18.000Z</time></trkpt>
<trkpt lat="42.133308" lon="23.152971"><ele>624.7</ele><time>2026-04-13T12:10:19.000Z</time></trkpt>
<trkpt lat="42.133307" lon="23.152978"><ele>624.7</ele><time>2026-04-13T12:10:20.000Z</time></trkpt>
<trkpt lat="42.133305" lon="23.152984"><ele>624.7</ele><time>2026-04-13T12:10:21.000Z</time></trkpt>
<trkpt lat="42.133304" lon="23.152989"><ele>624.7</ele><time>2026-04-13T12:10:22.000Z</time></trkpt>
<trkpt lat="42.133303" lon="23.152993"><ele>624</ele><time>2026-04-13T12:10:23.000Z</time></trkpt>
<trkpt lat="42.133303" lon="23.152995"><ele>624</ele><time>2026-04-13T12:10:24.000Z</time></trkpt>
<trkpt lat="42.133303" lon="23.152997"><ele>624</ele><time>2026-04-13T12:10:25.000Z</time></trkpt>
<trkpt lat="42.133304" lon="23.152998"><ele>624</ele><time>2026-04-13T12:10:26.000Z</time></trkpt>
<trkpt lat="42.133305" lon="23.153001"><ele>624</ele><time>2026-04-13T12:10:27.000Z</time></trkpt>
<trkpt lat="42.133307" lon="23.153005"><ele>622.6</ele><time>2026-04-13T12:10:28.000Z</time></trkpt>
<trkpt lat="42.13331" lon="23.15301"><ele>622.6</ele><time>2026-04-13T12:10:29.000Z</time></trkpt>
<trkpt lat="42.133313" lon="23.153016"><ele>622.6</ele><time>2026-04-13T12:10:30.000Z</time></trkpt>
<trkpt lat="42.133317" lon="23.153022"><ele>622.6</ele><time>2026-04-13T12:10:31.000Z</time></trkpt>
<trkpt lat="42.13332" lon="23.153028"><ele>622.6</ele><time>2026-04-13T12:10:32.000Z</time></trkpt>
<trkpt lat="42.133323" lon="23.153035"><ele>621.3</ele><time>2026-04-13T12:10:33.000Z</time></trkpt>
<trkpt lat="42.133327" lon="23.153042"><ele>621.3</ele><time>2026-04-13T12:10:34.000Z</time></trkpt>
<trkpt lat="42.133331" lon="23.15305"><ele>621.3</ele><time>2026-04-13T12:10:35.000Z</time></trkpt>
<trkpt lat="42.133334" lon="23.153058"><ele>621.3</ele><time>2026-04-13T12:10:36.000Z</time></trkpt>
<trkpt lat="42.133338" lon="23.153066"><ele>621.3</ele><time>2026-04-13T12:10:37.000Z</time></trkpt>
<trkpt lat="42.133342" lon="23.153074"><ele>620.7</ele><time>2026-04-13T12:10:38.000Z</time></trkpt>
<trkpt lat="42.133345" lon="23.153081"><ele>620.7</ele><time>2026-04-13T12:10:39.000Z</time></trkpt>
<trkpt lat="42.133349" lon="23.153089"><ele>620.7</ele><time>2026-04-13T12:10:40.000Z</time></trkpt>
<trkpt lat="42.133353" lon="23.153096"><ele>620.7</ele><time>2026-04-13T12:10:41.000Z</time></trkpt>
<trkpt lat="42.133358" lon="23.153104"><ele>620.7</ele><time>2026-04-13T12:10:42.000Z</time></trkpt>
<trkpt lat="42.133362" lon="23.153111"><ele>619.7</ele><time>2026-04-13T12:10:43.000Z</time></trkpt>
<trkpt lat="42.133367" lon="23.153118"><ele>619.7</ele><time>2026-04-13T12:10:44.000Z</time></trkpt>
<trkpt lat="42.133372" lon="23.153123"><ele>619.7</ele><time>2026-04-13T12:10:45.000Z</time></trkpt>
<trkpt lat="42.133376" lon="23.153129"><ele>619.7</ele><time>2026-04-13T12:10:46.000Z</time></trkpt>
<trkpt lat="42.133379" lon="23.153134"><ele>619.7</ele><time>2026-04-13T12:10:47.000Z</time></trkpt>
<trkpt lat="42.133383" lon="23.153137"><ele>618.6</ele><time>2026-04-13T12:10:48.000Z</time></trkpt>
<trkpt lat="42.133386" lon="23.153142"><ele>618.6</ele><time>2026-04-13T12:10:49.000Z</time></trkpt>
<trkpt lat="42.13339" lon="23.153145"><ele>618.6</ele><time>2026-04-13T12:10:50.000Z</time></trkpt>
<trkpt lat="42.133394" lon="23.153149"><ele>618.6</ele><time>2026-04-13T12:10:51.000Z</time></trkpt>
<trkpt lat="42.133398" lon="23.153153"><ele>618.6</ele><time>2026-04-13T12:10:52.000Z</time></trkpt>
<trkpt lat="42.133403" lon="23.153157"><ele>617.9</ele><time>2026-04-13T12:10:53.000Z</time></trkpt>
<trkpt lat="42.133407" lon="23.153162"><ele>617.9</ele><time>2026-04-13T12:10:54.000Z</time></trkpt>
<trkpt lat="42.133411" lon="23.153167"><ele>617.9</ele><time>2026-04-13T12:10:55.000Z</time></trkpt>
<trkpt lat="42.133415" lon="23.153174"><ele>617.9</ele><time>2026-04-13T12:10:56.000Z</time></trkpt>
<trkpt lat="42.133418" lon="23.153181"><ele>617.9</ele><time>2026-04-13T12:10:57.000Z</time></trkpt>
<trkpt lat="42.133421" lon="23.153189"><ele>616.7</ele><time>2026-04-13T12:10:58.000Z</time></trkpt>
<trkpt lat="42.133422" lon="23.153198"><ele>616.7</ele><time>2026-04-13T12:10:59.000Z</time></trkpt>
<trkpt lat="42.133421" lon="23.153206"><ele>616.7</ele><time>2026-04-13T12:11:00.000Z</time></trkpt>
<trkpt lat="42.133419" lon="23.153215"><ele>616.7</ele><time>2026-04-13T12:11:01.000Z</time></trkpt>
<trkpt lat="42.133415" lon="23.153223"><ele>616.7</ele><time>2026-04-13T12:11:02.000Z</time></trkpt>
<trkpt lat="42.133411" lon="23.153232"><ele>615.4</ele><time>2026-04-13T12:11:03.000Z</time></trkpt>
<trkpt lat="42.133407" lon="23.15324"><ele>615.4</ele><time>2026-04-13T12:11:04.000Z</time></trkpt>
<trkpt lat="42.133402" lon="23.153247"><ele>615.4</ele><time>2026-04-13T12:11:05.000Z</time></trkpt>
<trkpt lat="42.133398" lon="23.153254"><ele>615.4</ele><time>2026-04-13T12:11:06.000Z</time></trkpt>
<trkpt lat="42.133394" lon="23.15326"><ele>615.4</ele><time>2026-04-13T12:11:07.000Z</time></trkpt>
<trkpt lat="42.133391" lon="23.153265"><ele>614.7</ele><time>2026-04-13T12:11:08.000Z</time></trkpt>
<trkpt lat="42.133387" lon="23.153268"><ele>614.7</ele><time>2026-04-13T12:11:09.000Z</time></trkpt>
<trkpt lat="42.133384" lon="23.153271"><ele>614.7</ele><time>2026-04-13T12:11:10.000Z</time></trkpt>
<trkpt lat="42.133381" lon="23.153273"><ele>614.7</ele><time>2026-04-13T12:11:11.000Z</time></trkpt>
<trkpt lat="42.133377" lon="23.153275"><ele>614.7</ele><time>2026-04-13T12:11:12.000Z</time></trkpt>
<trkpt lat="42.133374" lon="23.153277"><ele>613.3</ele><time>2026-04-13T12:11:13.000Z</time></trkpt>
<trkpt lat="42.13337" lon="23.153281"><ele>613.3</ele><time>2026-04-13T12:11:14.000Z</time></trkpt>
<trkpt lat="42.133366" lon="23.153285"><ele>613.3</ele><time>2026-04-13T12:11:15.000Z</time></trkpt>
<trkpt lat="42.133361" lon="23.153291"><ele>613.3</ele><time>2026-04-13T12:11:16.000Z</time></trkpt>
<trkpt lat="42.133356" lon="23.153297"><ele>613.3</ele><time>2026-04-13T12:11:17.000Z</time></trkpt>
<trkpt lat="42.133351" lon="23.153305"><ele>612.1</ele><time>2026-04-13T12:11:18.000Z</time></trkpt>
<trkpt lat="42.133345" lon="23.153315"><ele>612.1</ele><time>2026-04-13T12:11:19.000Z</time></trkpt>
<trkpt lat="42.133339" lon="23.153325"><ele>612.1</ele><time>2026-04-13T12:11:20.000Z</time></trkpt>
<trkpt lat="42.133333" lon="23.153335"><ele>612.1</ele><time>2026-04-13T12:11:21.000Z</time></trkpt>
<trkpt lat="42.133326" lon="23.153345"><ele>612.1</ele><time>2026-04-13T12:11:22.000Z</time></trkpt>
<trkpt lat="42.13332" lon="23.153354"><ele>611.5</ele><time>2026-04-13T12:11:23.000Z</time></trkpt>
<trkpt lat="42.133313" lon="23.153362"><ele>611.5</ele><time>2026-04-13T12:11:24.000Z</time></trkpt>
<trkpt lat="42.133307" lon="23.153369"><ele>611.5</ele><time>2026-04-13T12:11:25.000Z</time></trkpt>
<trkpt lat="42.1333" lon="23.153374"><ele>611.5</ele><time>2026-04-13T12:11:26.000Z</time></trkpt>
<trkpt lat="42.133292" lon="23.153378"><ele>611.5</ele><time>2026-04-13T12:11:27.000Z</time></trkpt>
<trkpt lat="42.133284" lon="23.15338"><ele>610.4</ele><time>2026-04-13T12:11:28.000Z</time></trkpt>
<trkpt lat="42.133275" lon="23.153381"><ele>610.4</ele><time>2026-04-13T12:11:29.000Z</time></trkpt>
<trkpt lat="42.133267" lon="23.15338"><ele>610.4</ele><time>2026-04-13T12:11:30.000Z</time></trkpt>
<trkpt lat="42.133259" lon="23.153378"><ele>610.4</ele><time>2026-04-13T12:11:31.000Z</time></trkpt>
<trkpt lat="42.133251" lon="23.153376"><ele>610.4</ele><time>2026-04-13T12:11:32.000Z</time></trkpt>
<trkpt lat="42.133244" lon="23.153374"><ele>609.2</ele><time>2026-04-13T12:11:33.000Z</time></trkpt>
<trkpt lat="42.133237" lon="23.153371"><ele>609.2</ele><time>2026-04-13T12:11:34.000Z</time></trkpt>
<trkpt lat="42.133229" lon="23.153369"><ele>609.2</ele><time>2026-04-13T12:11:35.000Z</time></trkpt>
<trkpt lat="42.133222" lon="23.153366"><ele>609.2</ele><time>2026-04-13T12:11:36.000Z</time></trkpt>
<trkpt lat="42.133215" lon="23.153363"><ele>609.2</ele><time>2026-04-13T12:11:37.000Z</time></trkpt>
<trkpt lat="42.133208" lon="23.153359"><ele>608.7</ele><time>2026-04-13T12:11:38.000Z</time></trkpt>
<trkpt lat="42.133201" lon="23.153355"><ele>608.7</ele><time>2026-04-13T12:11:39.000Z</time></trkpt>
<trkpt lat="42.133194" lon="23.153351"><ele>608.7</ele><time>2026-04-13T12:11:40.000Z</time></trkpt>
<trkpt lat="42.133187" lon="23.153347"><ele>608.7</ele><time>2026-04-13T12:11:41.000Z</time></trkpt>
<trkpt lat="42.133179" lon="23.153342"><ele>608.7</ele><time>2026-04-13T12:11:42.000Z</time></trkpt>
<trkpt lat="42.133172" lon="23.153338"><ele>607.7</ele><time>2026-04-13T12:11:43.000Z</time></trkpt>
<trkpt lat="42.133163" lon="23.153334"><ele>607.7</ele><time>2026-04-13T12:11:44.000Z</time></trkpt>
<trkpt lat="42.133155" lon="23.153331"><ele>607.7</ele><time>2026-04-13T12:11:45.000Z</time></trkpt>
<trkpt lat="42.133146" lon="23.153329"><ele>607.7</ele><time>2026-04-13T12:11:46.000Z</time></trkpt>
<trkpt lat="42.133138" lon="23.153327"><ele>607.7</ele><time>2026-04-13T12:11:47.000Z</time></trkpt>
<trkpt lat="42.13313" lon="23.153326"><ele>606.6</ele><time>2026-04-13T12:11:48.000Z</time></trkpt>
<trkpt lat="42.133122" lon="23.153326"><ele>606.6</ele><time>2026-04-13T12:11:49.000Z</time></trkpt>
<trkpt lat="42.133115" lon="23.153327"><ele>606.6</ele><time>2026-04-13T12:11:50.000Z</time></trkpt>
<trkpt lat="42.133108" lon="23.153329"><ele>606.6</ele><time>2026-04-13T12:11:51.000Z</time></trkpt>
<trkpt lat="42.133101" lon="23.153331"><ele>606.6</ele><time>2026-04-13T12:11:52.000Z</time></trkpt>
<trkpt lat="42.133094" lon="23.153334"><ele>606.1</ele><time>2026-04-13T12:11:53.000Z</time></trkpt>
<trkpt lat="42.133087" lon="23.153337"><ele>606.1</ele><time>2026-04-13T12:11:54.000Z</time></trkpt>
<trkpt lat="42.133079" lon="23.15334"><ele>606.1</ele><time>2026-04-13T12:11:55.000Z</time></trkpt>
<trkpt lat="42.133071" lon="23.153343"><ele>606.1</ele><time>2026-04-13T12:11:56.000Z</time></trkpt>
<trkpt lat="42.133062" lon="23.153346"><ele>606.1</ele><time>2026-04-13T12:11:57.000Z</time></trkpt>
<trkpt lat="42.133053" lon="23.15335"><ele>605.1</ele><time>2026-04-13T12:11:58.000Z</time></trkpt>
<trkpt lat="42.133044" lon="23.153354"><ele>605.1</ele><time>2026-04-13T12:11:59.000Z</time></trkpt>
<trkpt lat="42.133036" lon="23.153357"><ele>605.1</ele><time>2026-04-13T12:12:00.000Z</time></trkpt>
<trkpt lat="42.133027" lon="23.15336"><ele>605.1</ele><time>2026-04-13T12:12:01.000Z</time></trkpt>
<trkpt lat="42.133019" lon="23.153364"><ele>605.1</ele><time>2026-04-13T12:12:02.000Z</time></trkpt>
<trkpt lat="42.133012" lon="23.153367"><ele>604.1</ele><time>2026-04-13T12:12:03.000Z</time></trkpt>
<trkpt lat="42.133006" lon="23.153369"><ele>604.1</ele><time>2026-04-13T12:12:04.000Z</time></trkpt>
<trkpt lat="42.133001" lon="23.153372"><ele>604.1</ele><time>2026-04-13T12:12:05.000Z</time></trkpt>
<trkpt lat="42.132996" lon="23.153374"><ele>604.1</ele><time>2026-04-13T12:12:06.000Z</time></trkpt>
<trkpt lat="42.132991" lon="23.153377"><ele>604.1</ele><time>2026-04-13T12:12:07.000Z</time></trkpt>
<trkpt lat="42.132985" lon="23.153379"><ele>603.5</ele><time>2026-04-13T12:12:08.000Z</time></trkpt>
<trkpt lat="42.132978" lon="23.153381"><ele>603.5</ele><time>2026-04-13T12:12:09.000Z</time></trkpt>
<trkpt lat="42.13297" lon="23.153384"><ele>603.5</ele><time>2026-04-13T12:12:10.000Z</time></trkpt>
<trkpt lat="42.132962" lon="23.153385"><ele>603.5</ele><time>2026-04-13T12:12:11.000Z</time></trkpt>
<trkpt lat="42.132954" lon="23.153385"><ele>603.5</ele><time>2026-04-13T12:12:12.000Z</time></trkpt>
<trkpt lat="42.132946" lon="23.153384"><ele>602.1</ele><time>2026-04-13T12:12:13.000Z</time></trkpt>
<trkpt lat="42.132938" lon="23.153383"><ele>602.1</ele><time>2026-04-13T12:12:14.000Z</time></trkpt>
<trkpt lat="42.13293" lon="23.153381"><ele>602.1</ele><time>2026-04-13T12:12:15.000Z</time></trkpt>
<trkpt lat="42.132923" lon="23.153379"><ele>602.1</ele><time>2026-04-13T12:12:16.000Z</time></trkpt>
<trkpt lat="42.132916" lon="23.153378"><ele>602.1</ele><time>2026-04-13T12:12:17.000Z</time></trkpt>
<trkpt lat="42.13291" lon="23.153377"><ele>600.5</ele><time>2026-04-13T12:12:18.000Z</time></trkpt>
<trkpt lat="42.132903" lon="23.153376"><ele>600.5</ele><time>2026-04-13T12:12:19.000Z</time></trkpt>
<trkpt lat="42.132897" lon="23.153376"><ele>600.5</ele><time>2026-04-13T12:12:20.000Z</time></trkpt>
<trkpt lat="42.13289" lon="23.153376"><ele>600.5</ele><time>2026-04-13T12:12:21.000Z</time></trkpt>
<trkpt lat="42.132883" lon="23.153376"><ele>600.5</ele><time>2026-04-13T12:12:22.000Z</time></trkpt>
<trkpt lat="42.132876" lon="23.153376"><ele>599.8</ele><time>2026-04-13T12:12:23.000Z</time></trkpt>
<trkpt lat="42.132868" lon="23.153376"><ele>599.8</ele><time>2026-04-13T12:12:24.000Z</time></trkpt>
<trkpt lat="42.13286" lon="23.153377"><ele>599.8</ele><time>2026-04-13T12:12:25.000Z</time></trkpt>
<trkpt lat="42.132853" lon="23.153377"><ele>599.8</ele><time>2026-04-13T12:12:26.000Z</time></trkpt>
<trkpt lat="42.132845" lon="23.153377"><ele>599.8</ele><time>2026-04-13T12:12:27.000Z</time></trkpt>
<trkpt lat="42.132838" lon="23.153377"><ele>598.5</ele><time>2026-04-13T12:12:28.000Z</time></trkpt>
<trkpt lat="42.132832" lon="23.153375"><ele>598.5</ele><time>2026-04-13T12:12:29.000Z</time></trkpt>
<trkpt lat="42.132826" lon="23.153372"><ele>598.5</ele><time>2026-04-13T12:12:30.000Z</time></trkpt>
<trkpt lat="42.13282" lon="23.153368"><ele>598.5</ele><time>2026-04-13T12:12:31.000Z</time></trkpt>
<trkpt lat="42.132815" lon="23.153365"><ele>598.5</ele><time>2026-04-13T12:12:32.000Z</time></trkpt>
<trkpt lat="42.132809" lon="23.153361"><ele>597.3</ele><time>2026-04-13T12:12:33.000Z</time></trkpt>
<trkpt lat="42.132804" lon="23.153359"><ele>597.3</ele><time>2026-04-13T12:12:34.000Z</time></trkpt>
<trkpt lat="42.132798" lon="23.153359"><ele>597.3</ele><time>2026-04-13T12:12:35.000Z</time></trkpt>
<trkpt lat="42.132793" lon="23.153359"><ele>597.3</ele><time>2026-04-13T12:12:36.000Z</time></trkpt>
<trkpt lat="42.132787" lon="23.15336"><ele>597.3</ele><time>2026-04-13T12:12:37.000Z</time></trkpt>
<trkpt lat="42.132781" lon="23.15336"><ele>596.7</ele><time>2026-04-13T12:12:38.000Z</time></trkpt>
<trkpt lat="42.132774" lon="23.15336"><ele>596.7</ele><time>2026-04-13T12:12:39.000Z</time></trkpt>
<trkpt lat="42.132767" lon="23.153359"><ele>596.7</ele><time>2026-04-13T12:12:40.000Z</time></trkpt>
<trkpt lat="42.132761" lon="23.153356"><ele>596.7</ele><time>2026-04-13T12:12:41.000Z</time></trkpt>
<trkpt lat="42.132753" lon="23.153353"><ele>596.7</ele><time>2026-04-13T12:12:42.000Z</time></trkpt>
<trkpt lat="42.132746" lon="23.153349"><ele>595.1</ele><time>2026-04-13T12:12:43.000Z</time></trkpt>
<trkpt lat="42.132739" lon="23.153345"><ele>595.1</ele><time>2026-04-13T12:12:44.000Z</time></trkpt>
<trkpt lat="42.132731" lon="23.15334"><ele>595.1</ele><time>2026-04-13T12:12:45.000Z</time></trkpt>
<trkpt lat="42.132724" lon="23.153337"><ele>595.1</ele><time>2026-04-13T12:12:46.000Z</time></trkpt>
<trkpt lat="42.132718" lon="23.153335"><ele>595.1</ele><time>2026-04-13T12:12:47.000Z</time></trkpt>
<trkpt lat="42.132711" lon="23.153334"><ele>593.8</ele><time>2026-04-13T12:12:48.000Z</time></trkpt>
<trkpt lat="42.132705" lon="23.153333"><ele>593.8</ele><time>2026-04-13T12:12:49.000Z</time></trkpt>
<trkpt lat="42.1327" lon="23.153333"><ele>593.8</ele><time>2026-04-13T12:12:50.000Z</time></trkpt>
<trkpt lat="42.132694" lon="23.153332"><ele>593.8</ele><time>2026-04-13T12:12:51.000Z</time></trkpt>
<trkpt lat="42.132689" lon="23.15333"><ele>593.8</ele><time>2026-04-13T12:12:52.000Z</time></trkpt>
<trkpt lat="42.132684" lon="23.153328"><ele>593.1</ele><time>2026-04-13T12:12:53.000Z</time></trkpt>
<trkpt lat="42.13268" lon="23.153324"><ele>593.1</ele><time>2026-04-13T12:12:54.000Z</time></trkpt>
<trkpt lat="42.132676" lon="23.153318"><ele>593.1</ele><time>2026-04-13T12:12:55.000Z</time></trkpt>
<trkpt lat="42.132671" lon="23.153312"><ele>593.1</ele><time>2026-04-13T12:12:56.000Z</time></trkpt>
<trkpt lat="42.132666" lon="23.153305"><ele>593.1</ele><time>2026-04-13T12:12:57.000Z</time></trkpt>
<trkpt lat="42.132661" lon="23.1533"><ele>591.8</ele><time>2026-04-13T12:12:58.000Z</time></trkpt>
<trkpt lat="42.132655" lon="23.153296"><ele>591.8</ele><time>2026-04-13T12:12:59.000Z</time></trkpt>
<trkpt lat="42.132649" lon="23.153293"><ele>591.8</ele><time>2026-04-13T12:13:00.000Z</time></trkpt>
<trkpt lat="42.132645" lon="23.153291"><ele>591.8</ele><time>2026-04-13T12:13:01.000Z</time></trkpt>
<trkpt lat="42.132641" lon="23.15329"><ele>591.8</ele><time>2026-04-13T12:13:02.000Z</time></trkpt>
<trkpt lat="42.132638" lon="23.153289"><ele>590.3</ele><time>2026-04-13T12:13:03.000Z</time></trkpt>
<trkpt lat="42.132635" lon="23.153287"><ele>590.3</ele><time>2026-04-13T12:13:04.000Z</time></trkpt>
<trkpt lat="42.132633" lon="23.153286"><ele>590.3</ele><time>2026-04-13T12:13:05.000Z</time></trkpt>
<trkpt lat="42.132632" lon="23.153284"><ele>590.3</ele><time>2026-04-13T12:13:06.000Z</time></trkpt>
<trkpt lat="42.132631" lon="23.153282"><ele>590.3</ele><time>2026-04-13T12:13:07.000Z</time></trkpt>
<trkpt lat="42.13263" lon="23.153281"><ele>589.6</ele><time>2026-04-13T12:13:08.000Z</time></trkpt>
<trkpt lat="42.13263" lon="23.15328"><ele>589.6</ele><time>2026-04-13T12:13:09.000Z</time></trkpt>
<trkpt lat="42.132631" lon="23.15328"><ele>589.6</ele><time>2026-04-13T12:13:10.000Z</time></trkpt>
<trkpt lat="42.132631" lon="23.15328"><ele>589.6</ele><time>2026-04-13T12:13:11.000Z</time></trkpt>
<trkpt lat="42.132631" lon="23.15328"><ele>589.6</ele><time>2026-04-13T12:13:12.000Z</time></trkpt>
<trkpt lat="42.132631" lon="23.153281"><ele>588.5</ele><time>2026-04-13T12:13:13.000Z</time></trkpt>
<trkpt lat="42.132631" lon="23.153281"><ele>588.5</ele><time>2026-04-13T12:13:14.000Z</time></trkpt>
<trkpt lat="42.132631" lon="23.15328"><ele>588.5</ele><time>2026-04-13T12:13:15.000Z</time></trkpt>
<trkpt lat="42.13263" lon="23.153279"><ele>588.5</ele><time>2026-04-13T12:13:16.000Z</time></trkpt>
<trkpt lat="42.132629" lon="23.153277"><ele>588.5</ele><time>2026-04-13T12:13:17.000Z</time></trkpt>
<trkpt lat="42.132626" lon="23.153275"><ele>588</ele><time>2026-04-13T12:13:18.000Z</time></trkpt>
<trkpt lat="42.132623" lon="23.153272"><ele>588</ele><time>2026-04-13T12:13:19.000Z</time></trkpt>
<trkpt lat="42.13262" lon="23.15327"><ele>588</ele><time>2026-04-13T12:13:20.000Z</time></trkpt>
<trkpt lat="42.132615" lon="23.153265"><ele>588</ele><time>2026-04-13T12:13:21.000Z</time></trkpt>
<trkpt lat="42.13261" lon="23.15326"><ele>588</ele><time>2026-04-13T12:13:22.000Z</time></trkpt>
<trkpt lat="42.132606" lon="23.153254"><ele>587.7</ele><time>2026-04-13T12:13:23.000Z</time></trkpt>
<trkpt lat="42.132601" lon="23.153246"><ele>587.7</ele><time>2026-04-13T12:13:24.000Z</time></trkpt>
<trkpt lat="42.132597" lon="23.153238"><ele>587.7</ele><time>2026-04-13T12:13:25.000Z</time></trkpt>
<trkpt lat="42.132594" lon="23.153229"><ele>587.7</ele><time>2026-04-13T12:13:26.000Z</time></trkpt>
<trkpt lat="42.13259" lon="23.153222"><ele>587.7</ele><time>2026-04-13T12:13:27.000Z</time></trkpt>
<trkpt lat="42.132585" lon="23.153216"><ele>587</ele><time>2026-04-13T12:13:28.000Z</time></trkpt>
<trkpt lat="42.132581" lon="23.153212"><ele>587</ele><time>2026-04-13T12:13:29.000Z</time></trkpt>
<trkpt lat="42.132576" lon="23.15321"><ele>587</ele><time>2026-04-13T12:13:30.000Z</time></trkpt>
<trkpt lat="42.132571" lon="23.153212"><ele>587</ele><time>2026-04-13T12:13:31.000Z</time></trkpt>
<trkpt lat="42.132567" lon="23.153216"><ele>587</ele><time>2026-04-13T12:13:32.000Z</time></trkpt>
<trkpt lat="42.132563" lon="23.153222"><ele>585.9</ele><time>2026-04-13T12:13:33.000Z</time></trkpt>
<trkpt lat="42.132559" lon="23.15323"><ele>585.9</ele><time>2026-04-13T12:13:34.000Z</time></trkpt>
<trkpt lat="42.132556" lon="23.153239"><ele>585.9</ele><time>2026-04-13T12:13:35.000Z</time></trkpt>
<trkpt lat="42.132553" lon="23.15325"><ele>585.9</ele><time>2026-04-13T12:13:36.000Z</time></trkpt>
<trkpt lat="42.13255" lon="23.153261"><ele>585.9</ele><time>2026-04-13T12:13:37.000Z</time></trkpt>
<trkpt lat="42.132547" lon="23.153272"><ele>585.3</ele><time>2026-04-13T12:13:38.000Z</time></trkpt>
<trkpt lat="42.132542" lon="23.153282"><ele>585.3</ele><time>2026-04-13T12:13:39.000Z</time></trkpt>
<trkpt lat="42.132537" lon="23.153291"><ele>585.3</ele><time>2026-04-13T12:13:40.000Z</time></trkpt>
<trkpt lat="42.132531" lon="23.153299"><ele>585.3</ele><time>2026-04-13T12:13:41.000Z</time></trkpt>
<trkpt lat="42.132525" lon="23.153305"><ele>585.3</ele><time>2026-04-13T12:13:42.000Z</time></trkpt>
<trkpt lat="42.132518" lon="23.15331"><ele>584</ele><time>2026-04-13T12:13:43.000Z</time></trkpt>
<trkpt lat="42.132511" lon="23.153316"><ele>584</ele><time>2026-04-13T12:13:44.000Z</time></trkpt>
<trkpt lat="42.132504" lon="23.153324"><ele>584</ele><time>2026-04-13T12:13:45.000Z</time></trkpt>
<trkpt lat="42.132496" lon="23.153331"><ele>584</ele><time>2026-04-13T12:13:46.000Z</time></trkpt>
<trkpt lat="42.132488" lon="23.153339"><ele>584</ele><time>2026-04-13T12:13:47.000Z</time></trkpt>
<trkpt lat="42.13248" lon="23.153345"><ele>582.4</ele><time>2026-04-13T12:13:48.000Z</time></trkpt>
<trkpt lat="42.132471" lon="23.15335"><ele>582.4</ele><time>2026-04-13T12:13:49.000Z</time></trkpt>
<trkpt lat="42.132463" lon="23.153356"><ele>582.4</ele><time>2026-04-13T12:13:50.000Z</time></trkpt>
<trkpt lat="42.132455" lon="23.153361"><ele>582.4</ele><time>2026-04-13T12:13:51.000Z</time></trkpt>
<trkpt lat="42.132448" lon="23.153367"><ele>582.4</ele><time>2026-04-13T12:13:52.000Z</time></trkpt>
<trkpt lat="42.132443" lon="23.153376"><ele>581.5</ele><time>2026-04-13T12:13:53.000Z</time></trkpt>
<trkpt lat="42.13244" lon="23.153386"><ele>581.5</ele><time>2026-04-13T12:13:54.000Z</time></trkpt>
<trkpt lat="42.132438" lon="23.153397"><ele>581.5</ele><time>2026-04-13T12:13:55.000Z</time></trkpt>
<trkpt lat="42.132438" lon="23.15341"><ele>581.5</ele><time>2026-04-13T12:13:56.000Z</time></trkpt>
<trkpt lat="42.132438" lon="23.153423"><ele>581.5</ele><time>2026-04-13T12:13:57.000Z</time></trkpt>
<trkpt lat="42.132439" lon="23.153437"><ele>579.6</ele><time>2026-04-13T12:13:58.000Z</time></trkpt>
<trkpt lat="42.132439" lon="23.153451"><ele>579.6</ele><time>2026-04-13T12:13:59.000Z</time></trkpt>
<trkpt lat="42.13244" lon="23.153465"><ele>579.6</ele><time>2026-04-13T12:14:00.000Z</time></trkpt>
<trkpt lat="42.132442" lon="23.153479"><ele>579.6</ele><time>2026-04-13T12:14:01.000Z</time></trkpt>
<trkpt lat="42.132444" lon="23.153493"><ele>579.6</ele><time>2026-04-13T12:14:02.000Z</time></trkpt>
<trkpt lat="42.132446" lon="23.153507"><ele>577.7</ele><time>2026-04-13T12:14:03.000Z</time></trkpt>
<trkpt lat="42.132449" lon="23.153521"><ele>577.7</ele><time>2026-04-13T12:14:04.000Z</time></trkpt>
<trkpt lat="42.132451" lon="23.153535"><ele>577.7</ele><time>2026-04-13T12:14:05.000Z</time></trkpt>
<trkpt lat="42.132454" lon="23.153548"><ele>577.7</ele><time>2026-04-13T12:14:06.000Z</time></trkpt>
<trkpt lat="42.132457" lon="23.153562"><ele>577.7</ele><time>2026-04-13T12:14:07.000Z</time></trkpt>
<trkpt lat="42.132462" lon="23.153576"><ele>576.7</ele><time>2026-04-13T12:14:08.000Z</time></trkpt>
<trkpt lat="42.132467" lon="23.15359"><ele>576.7</ele><time>2026-04-13T12:14:09.000Z</time></trkpt>
<trkpt lat="42.132473" lon="23.153603"><ele>576.7</ele><time>2026-04-13T12:14:10.000Z</time></trkpt>
<trkpt lat="42.132481" lon="23.153616"><ele>576.7</ele><time>2026-04-13T12:14:11.000Z</time></trkpt>
<trkpt lat="42.13249" lon="23.153628"><ele>576.7</ele><time>2026-04-13T12:14:12.000Z</time></trkpt>
<trkpt lat="42.132499" lon="23.153639"><ele>574.9</ele><time>2026-04-13T12:14:13.000Z</time></trkpt>
<trkpt lat="42.132508" lon="23.15365"><ele>574.9</ele><time>2026-04-13T12:14:14.000Z</time></trkpt>
<trkpt lat="42.132519" lon="23.153659"><ele>574.9</ele><time>2026-04-13T12:14:15.000Z</time></trkpt>
<trkpt lat="42.132529" lon="23.153667"><ele>574.9</ele><time>2026-04-13T12:14:16.000Z</time></trkpt>
<trkpt lat="42.132541" lon="23.153673"><ele>574.9</ele><time>2026-04-13T12:14:17.000Z</time></trkpt>
<trkpt lat="42.132553" lon="23.153679"><ele>573.3</ele><time>2026-04-13T12:14:18.000Z</time></trkpt>
<trkpt lat="42.132565" lon="23.153684"><ele>573.3</ele><time>2026-04-13T12:14:19.000Z</time></trkpt>
<trkpt lat="42.132576" lon="23.153689"><ele>573.3</ele><time>2026-04-13T12:14:20.000Z</time></trkpt>
<trkpt lat="42.132588" lon="23.153695"><ele>573.3</ele><time>2026-04-13T12:14:21.000Z</time></trkpt>
<trkpt lat="42.132599" lon="23.153702"><ele>573.3</ele><time>2026-04-13T12:14:22.000Z</time></trkpt>
<trkpt lat="42.132609" lon="23.153708"><ele>572.7</ele><time>2026-04-13T12:14:23.000Z</time></trkpt>
<trkpt lat="42.132619" lon="23.153715"><ele>572.7</ele><time>2026-04-13T12:14:24.000Z</time></trkpt>
<trkpt lat="42.132629" lon="23.153723"><ele>572.7</ele><time>2026-04-13T12:14:25.000Z</time></trkpt>
<trkpt lat="42.132637" lon="23.153732"><ele>572.7</ele><time>2026-04-13T12:14:26.000Z</time></trkpt>
<trkpt lat="42.132645" lon="23.15374"><ele>572.7</ele><time>2026-04-13T12:14:27.000Z</time></trkpt>
<trkpt lat="42.132653" lon="23.153748"><ele>572</ele><time>2026-04-13T12:14:28.000Z</time></trkpt>
<trkpt lat="42.132661" lon="23.153757"><ele>572</ele><time>2026-04-13T12:14:29.000Z</time></trkpt>
<trkpt lat="42.132668" lon="23.153765"><ele>572</ele><time>2026-04-13T12:14:30.000Z</time></trkpt>
<trkpt lat="42.132674" lon="23.153774"><ele>572</ele><time>2026-04-13T12:14:31.000Z</time></trkpt>
<trkpt lat="42.132678" lon="23.153784"><ele>572</ele><time>2026-04-13T12:14:32.000Z</time></trkpt>
<trkpt lat="42.132681" lon="23.153795"><ele>571.9</ele><time>2026-04-13T12:14:33.000Z</time></trkpt>
<trkpt lat="42.132683" lon="23.153806"><ele>571.9</ele><time>2026-04-13T12:14:34.000Z</time></trkpt>
<trkpt lat="42.132684" lon="23.153814"><ele>571.9</ele><time>2026-04-13T12:14:35.000Z</time></trkpt>
<trkpt lat="42.132684" lon="23.153819"><ele>571.9</ele><time>2026-04-13T12:14:36.000Z</time></trkpt>
<trkpt lat="42.132684" lon="23.153821"><ele>571.9</ele><time>2026-04-13T12:14:37.000Z</time></trkpt>
<trkpt lat="42.132684" lon="23.15382"><ele>571.7</ele><time>2026-04-13T12:14:38.000Z</time></trkpt>
<trkpt lat="42.132683" lon="23.153818"><ele>571.7</ele><time>2026-04-13T12:14:39.000Z</time></trkpt>
<trkpt lat="42.132683" lon="23.153816"><ele>571.7</ele><time>2026-04-13T12:14:40.000Z</time></trkpt>
<trkpt lat="42.132683" lon="23.153816"><ele>571.7</ele><time>2026-04-13T12:14:41.000Z</time></trkpt>
<trkpt lat="42.132683" lon="23.153815"><ele>571.7</ele><time>2026-04-13T12:14:42.000Z</time></trkpt>
<trkpt lat="42.132683" lon="23.153815"><ele>571</ele><time>2026-04-13T12:14:43.000Z</time></trkpt>
<trkpt lat="42.132682" lon="23.153816"><ele>571</ele><time>2026-04-13T12:14:44.000Z</time></trkpt>
<trkpt lat="42.132679" lon="23.153816"><ele>571</ele><time>2026-04-13T12:14:45.000Z</time></trkpt>
<trkpt lat="42.132675" lon="23.153817"><ele>571</ele><time>2026-04-13T12:14:46.000Z</time></trkpt>
<trkpt lat="42.13267" lon="23.153819"><ele>571</ele><time>2026-04-13T12:14:47.000Z</time></trkpt>
<trkpt lat="42.132664" lon="23.153822"><ele>569.9</ele><time>2026-04-13T12:14:48.000Z</time></trkpt>
<trkpt lat="42.132657" lon="23.153827"><ele>569.9</ele><time>2026-04-13T12:14:49.000Z</time></trkpt>
<trkpt lat="42.132651" lon="23.153833"><ele>569.9</ele><time>2026-04-13T12:14:50.000Z</time></trkpt>
<trkpt lat="42.132644" lon="23.153841"><ele>569.9</ele><time>2026-04-13T12:14:51.000Z</time></trkpt>
<trkpt lat="42.132636" lon="23.153849"><ele>569.9</ele><time>2026-04-13T12:14:52.000Z</time></trkpt>
<trkpt lat="42.132627" lon="23.153858"><ele>569.4</ele><time>2026-04-13T12:14:53.000Z</time></trkpt>
<trkpt lat="42.132617" lon="23.153866"><ele>569.4</ele><time>2026-04-13T12:14:54.000Z</time></trkpt>
<trkpt lat="42.132606" lon="23.153874"><ele>569.4</ele><time>2026-04-13T12:14:55.000Z</time></trkpt>
<trkpt lat="42.132595" lon="23.153881"><ele>569.4</ele><time>2026-04-13T12:14:56.000Z</time></trkpt>
<trkpt lat="42.132583" lon="23.153887"><ele>569.4</ele><time>2026-04-13T12:14:57.000Z</time></trkpt>
<trkpt lat="42.132572" lon="23.153892"><ele>569.2</ele><time>2026-04-13T12:14:58.000Z</time></trkpt>
<trkpt lat="42.132561" lon="23.153896"><ele>569.2</ele><time>2026-04-13T12:14:59.000Z</time></trkpt>
<trkpt lat="42.13255" lon="23.153898"><ele>569.2</ele><time>2026-04-13T12:15:00.000Z</time></trkpt>
<trkpt lat="42.13254" lon="23.1539"><ele>569.2</ele><time>2026-04-13T12:15:01.000Z</time></trkpt>
<trkpt lat="42.132531" lon="23.153901"><ele>569.2</ele><time>2026-04-13T12:15:02.000Z</time></trkpt>
<trkpt lat="42.132523" lon="23.153901"><ele>569.2</ele><time>2026-04-13T12:15:03.000Z</time></trkpt>
<trkpt lat="42.132516" lon="23.153901"><ele>569.2</ele><time>2026-04-13T12:15:04.000Z</time></trkpt>
<trkpt lat="42.13251" lon="23.153902"><ele>569.2</ele><time>2026-04-13T12:15:05.000Z</time></trkpt>
<trkpt lat="42.132504" lon="23.153903"><ele>569.2</ele><time>2026-04-13T12:15:06.000Z</time></trkpt>
<trkpt lat="42.132498" lon="23.153904"><ele>569.2</ele><time>2026-04-13T12:15:07.000Z</time></trkpt>
<trkpt lat="42.132493" lon="23.153904"><ele>569.3</ele><time>2026-04-13T12:15:08.000Z</time></trkpt>
<trkpt lat="42.132488" lon="23.153905"><ele>569.3</ele><time>2026-04-13T12:15:09.000Z</time></trkpt>
<trkpt lat="42.132483" lon="23.153905"><ele>569.3</ele><time>2026-04-13T12:15:10.000Z</time></trkpt>
<trkpt lat="42.13248" lon="23.153906"><ele>569.3</ele><time>2026-04-13T12:15:11.000Z</time></trkpt>
<trkpt lat="42.132476" lon="23.153908"><ele>569.3</ele><time>2026-04-13T12:15:12.000Z</time></trkpt>
<trkpt lat="42.132472" lon="23.15391"><ele>569.3</ele><time>2026-04-13T12:15:13.000Z</time></trkpt>
<trkpt lat="42.132468" lon="23.153912"><ele>569.3</ele><time>2026-04-13T12:15:14.000Z</time></trkpt>
<trkpt lat="42.132464" lon="23.153915"><ele>569.3</ele><time>2026-04-13T12:15:15.000Z</time></trkpt>
<trkpt lat="42.132461" lon="23.153918"><ele>569.3</ele><time>2026-04-13T12:15:16.000Z</time></trkpt>
<trkpt lat="42.132457" lon="23.153921"><ele>569.3</ele><time>2026-04-13T12:15:17.000Z</time></trkpt>
<trkpt lat="42.132455" lon="23.153923"><ele>569.4</ele><time>2026-04-13T12:15:18.000Z</time></trkpt>
<trkpt lat="42.132452" lon="23.153925"><ele>569.4</ele><time>2026-04-13T12:15:19.000Z</time></trkpt>
<trkpt lat="42.132449" lon="23.153927"><ele>569.4</ele><time>2026-04-13T12:15:20.000Z</time></trkpt>
<trkpt lat="42.132446" lon="23.153928"><ele>569.4</ele><time>2026-04-13T12:15:21.000Z</time></trkpt>
<trkpt lat="42.132442" lon="23.153929"><ele>569.4</ele><time>2026-04-13T12:15:22.000Z</time></trkpt>
<trkpt lat="42.132437" lon="23.153928"><ele>569.3</ele><time>2026-04-13T12:15:23.000Z</time></trkpt>
<trkpt lat="42.132432" lon="23.153924"><ele>569.3</ele><time>2026-04-13T12:15:24.000Z</time></trkpt>
<trkpt lat="42.132427" lon="23.153919"><ele>569.3</ele><time>2026-04-13T12:15:25.000Z</time></trkpt>
<trkpt lat="42.132422" lon="23.153912"><ele>569.3</ele><time>2026-04-13T12:15:26.000Z</time></trkpt>
<trkpt lat="42.132417" lon="23.153905"><ele>569.3</ele><time>2026-04-13T12:15:27.000Z</time></trkpt>
<trkpt lat="42.132412" lon="23.153897"><ele>569.1</ele><time>2026-04-13T12:15:28.000Z</time></trkpt>
<trkpt lat="42.132406" lon="23.153889"><ele>569.1</ele><time>2026-04-13T12:15:29.000Z</time></trkpt>
<trkpt lat="42.1324" lon="23.153881"><ele>569.1</ele><time>2026-04-13T12:15:30.000Z</time></trkpt>
<trkpt lat="42.132394" lon="23.153875"><ele>569.1</ele><time>2026-04-13T12:15:31.000Z</time></trkpt>
<trkpt lat="42.132388" lon="23.15387"><ele>569.1</ele><time>2026-04-13T12:15:32.000Z</time></trkpt>
<trkpt lat="42.132381" lon="23.153866"><ele>568.4</ele><time>2026-04-13T12:15:33.000Z</time></trkpt>
<trkpt lat="42.132373" lon="23.153864"><ele>568.4</ele><time>2026-04-13T12:15:34.000Z</time></trkpt>
<trkpt lat="42.132365" lon="23.153863"><ele>568.4</ele><time>2026-04-13T12:15:35.000Z</time></trkpt>
<trkpt lat="42.132357" lon="23.153864"><ele>568.4</ele><time>2026-04-13T12:15:36.000Z</time></trkpt>
<trkpt lat="42.132349" lon="23.153866"><ele>568.4</ele><time>2026-04-13T12:15:37.000Z</time></trkpt>
<trkpt lat="42.13234" lon="23.153869"><ele>567.9</ele><time>2026-04-13T12:15:38.000Z</time></trkpt>
<trkpt lat="42.132332" lon="23.153875"><ele>567.9</ele><time>2026-04-13T12:15:39.000Z</time></trkpt>
<trkpt lat="42.132323" lon="23.153883"><ele>567.9</ele><time>2026-04-13T12:15:40.000Z</time></trkpt>
<trkpt lat="42.132315" lon="23.153892"><ele>567.9</ele><time>2026-04-13T12:15:41.000Z</time></trkpt>
<trkpt lat="42.132306" lon="23.153902"><ele>567.9</ele><time>2026-04-13T12:15:42.000Z</time></trkpt>
<trkpt lat="42.132298" lon="23.153913"><ele>567.1</ele><time>2026-04-13T12:15:43.000Z</time></trkpt>
<trkpt lat="42.132289" lon="23.153922"><ele>567.1</ele><time>2026-04-13T12:15:44.000Z</time></trkpt>
<trkpt lat="42.13228" lon="23.153932"><ele>567.1</ele><time>2026-04-13T12:15:45.000Z</time></trkpt>
<trkpt lat="42.132271" lon="23.153942"><ele>567.1</ele><time>2026-04-13T12:15:46.000Z</time></trkpt>
<trkpt lat="42.132264" lon="23.153954"><ele>567.1</ele><time>2026-04-13T12:15:47.000Z</time></trkpt>
<trkpt lat="42.132259" lon="23.153966"><ele>566.5</ele><time>2026-04-13T12:15:48.000Z</time></trkpt>
<trkpt lat="42.132256" lon="23.15398"><ele>566.5</ele><time>2026-04-13T12:15:49.000Z</time></trkpt>
<trkpt lat="42.132256" lon="23.153992"><ele>566.5</ele><time>2026-04-13T12:15:50.000Z</time></trkpt>
<trkpt lat="42.132258" lon="23.154004"><ele>566.5</ele><time>2026-04-13T12:15:51.000Z</time></trkpt>
<trkpt lat="42.132262" lon="23.154013"><ele>566.5</ele><time>2026-04-13T12:15:52.000Z</time></trkpt>
<trkpt lat="42.132266" lon="23.154019"><ele>566.4</ele><time>2026-04-13T12:15:53.000Z</time></trkpt>
<trkpt lat="42.132271" lon="23.154024"><ele>566.4</ele><time>2026-04-13T12:15:54.000Z</time></trkpt>
<trkpt lat="42.132274" lon="23.154027"><ele>566.4</ele><time>2026-04-13T12:15:55.000Z</time></trkpt>
<trkpt lat="42.132276" lon="23.154028"><ele>566.4</ele><time>2026-04-13T12:15:56.000Z</time></trkpt>
<trkpt lat="42.132275" lon="23.154029"><ele>566.4</ele><time>2026-04-13T12:15:57.000Z</time></trkpt>
<trkpt lat="42.132274" lon="23.15403"><ele>566.3</ele><time>2026-04-13T12:15:58.000Z</time></trkpt>
<trkpt lat="42.132272" lon="23.154031"><ele>566.3</ele><time>2026-04-13T12:15:59.000Z</time></trkpt>
<trkpt lat="42.13227" lon="23.154032"><ele>566.3</ele><time>2026-04-13T12:16:00.000Z</time></trkpt>
<trkpt lat="42.132269" lon="23.154033"><ele>566.3</ele><time>2026-04-13T12:16:01.000Z</time></trkpt>
<trkpt lat="42.13227" lon="23.154033"><ele>566.3</ele><time>2026-04-13T12:16:02.000Z</time></trkpt>
<trkpt lat="42.132271" lon="23.154032"><ele>566.2</ele><time>2026-04-13T12:16:03.000Z</time></trkpt>
<trkpt lat="42.132273" lon="23.154029"><ele>566.2</ele><time>2026-04-13T12:16:04.000Z</time></trkpt>
<trkpt lat="42.132275" lon="23.154025"><ele>566.2</ele><time>2026-04-13T12:16:05.000Z</time></trkpt>
<trkpt lat="42.132277" lon="23.154019"><ele>566.2</ele><time>2026-04-13T12:16:06.000Z</time></trkpt>
<trkpt lat="42.13228" lon="23.154013"><ele>566.2</ele><time>2026-04-13T12:16:07.000Z</time></trkpt>
<trkpt lat="42.132282" lon="23.154006"><ele>566.4</ele><time>2026-04-13T12:16:08.000Z</time></trkpt>
<trkpt lat="42.132284" lon="23.154"><ele>566.4</ele><time>2026-04-13T12:16:09.000Z</time></trkpt>
<trkpt lat="42.132287" lon="23.153997"><ele>566.4</ele><time>2026-04-13T12:16:10.000Z</time></trkpt>
<trkpt lat="42.13229" lon="23.153996"><ele>566.4</ele><time>2026-04-13T12:16:11.000Z</time></trkpt>
<trkpt lat="42.132294" lon="23.153996"><ele>566.4</ele><time>2026-04-13T12:16:12.000Z</time></trkpt>
<trkpt lat="42.132299" lon="23.153998"><ele>566.7</ele><time>2026-04-13T12:16:13.000Z</time></trkpt>
<trkpt lat="42.132305" lon="23.154002"><ele>566.7</ele><time>2026-04-13T12:16:14.000Z</time></trkpt>
<trkpt lat="42.132312" lon="23.154008"><ele>566.7</ele><time>2026-04-13T12:16:15.000Z</time></trkpt>
<trkpt lat="42.13232" lon="23.154015"><ele>566.7</ele><time>2026-04-13T12:16:16.000Z</time></trkpt>
<trkpt lat="42.132328" lon="23.154026"><ele>566.7</ele><time>2026-04-13T12:16:17.000Z</time></trkpt>
<trkpt lat="42.132336" lon="23.15404"><ele>566.7</ele><time>2026-04-13T12:16:18.000Z</time></trkpt>
<trkpt lat="42.132344" lon="23.154057"><ele>566.7</ele><time>2026-04-13T12:16:19.000Z</time></trkpt>
<trkpt lat="42.132353" lon="23.15408"><ele>566.7</ele><time>2026-04-13T12:16:20.000Z</time></trkpt>
<trkpt lat="42.132362" lon="23.154108"><ele>566.7</ele><time>2026-04-13T12:16:21.000Z</time></trkpt>
<trkpt lat="42.132371" lon="23.15414"><ele>566.7</ele><time>2026-04-13T12:16:22.000Z</time></trkpt>
<trkpt lat="42.13238" lon="23.154176"><ele>566.6</ele><time>2026-04-13T12:16:23.000Z</time></trkpt>
<trkpt lat="42.132389" lon="23.154214"><ele>566.6</ele><time>2026-04-13T12:16:24.000Z</time></trkpt>
<trkpt lat="42.132399" lon="23.154257"><ele>566.6</ele><time>2026-04-13T12:16:25.000Z</time></trkpt>
</trkseg></trk></gpx>